<?xml version='1.0' encoding='UTF-8'?><gpx version="1.1" creator="JPX - https://github.com/jenetics/jpx" xmlns="http://www.topografix.com/GPX/1/1"><trk><trkseg><trkpt lat="43.5733373" lon="10.5182537"><ele>78.0</ele><time>2026-04-04T06:41:27.542Z</time></trkpt><trkpt lat="43.5734254" lon="10.5182049"><ele>78.0</ele><time>2026-04-04T06:41:44.594Z</time></trkpt><trkpt lat="43.5735083" lon="10.5181633"><ele>78.0</ele><time>2026-04-04T06:41:47.507Z</time></trkpt><trkpt lat="43.5735783" lon="10.5181183"><ele>78.0</ele><time>2026-04-04T06:42:18.508Z</time></trkpt><trkpt lat="43.5736183" lon="10.51805"><ele>78.0</ele><time>2026-04-04T06:42:22.507Z</time></trkpt><trkpt lat="43.573605" lon="10.51795"><ele>78.0</ele><time>2026-04-04T06:42:25.508Z</time></trkpt><trkpt lat="43.5735717" lon="10.51785"><ele>78.5</ele><time>2026-04-04T06:42:28.507Z</time></trkpt><trkpt lat="43.5735217" lon="10.5177617"><ele>79.0</ele><time>2026-04-04T06:42:31.507Z</time></trkpt><trkpt lat="43.5734817" lon="10.5176733"><ele>79.5</ele><time>2026-04-04T06:42:34.508Z</time></trkpt><trkpt lat="43.5734433" lon="10.5175733"><ele>80.0</ele><time>2026-04-04T06:42:37.508Z</time></trkpt><trkpt lat="43.5734133" lon="10.5174617"><ele>80.5</ele><time>2026-04-04T06:42:40.507Z</time></trkpt><trkpt lat="43.5733817" lon="10.5173483"><ele>81.0</ele><time>2026-04-04T06:42:43.508Z</time></trkpt><trkpt lat="43.5733667" lon="10.5172433"><ele>81.0</ele><time>2026-04-04T06:42:46.507Z</time></trkpt><trkpt lat="43.57334" lon="10.5171283"><ele>81.0</ele><time>2026-04-04T06:42:49.507Z</time></trkpt><trkpt lat="43.5733" lon="10.5170117"><ele>81.0</ele><time>2026-04-04T06:42:52.507Z</time></trkpt><trkpt lat="43.5732633" lon="10.51694"><ele>81.0</ele><time>2026-04-04T06:42:54.508Z</time></trkpt><trkpt lat="43.5732233" lon="10.5168683"><ele>81.0</ele><time>2026-04-04T06:42:56.508Z</time></trkpt><trkpt lat="43.5731767" lon="10.5167817"><ele>81.0</ele><time>2026-04-04T06:42:58.507Z</time></trkpt><trkpt lat="43.5731333" lon="10.5167167"><ele>80.66666666666667</ele><time>2026-04-04T06:43:00.508Z</time></trkpt><trkpt lat="43.5730667" lon="10.5166317"><ele>80.33333333333333</ele><time>2026-04-04T06:43:03.508Z</time></trkpt><trkpt lat="43.5730217" lon="10.5165633"><ele>80.0</ele><time>2026-04-04T06:43:06.507Z</time></trkpt><trkpt lat="43.5729483" lon="10.51652"><ele>79.66666666666666</ele><time>2026-04-04T06:43:10.508Z</time></trkpt><trkpt lat="43.5728933" lon="10.51646"><ele>79.33333333333333</ele><time>2026-04-04T06:43:13.508Z</time></trkpt><trkpt lat="43.5728383" lon="10.5163633"><ele>79.0</ele><time>2026-04-04T06:43:16.507Z</time></trkpt><trkpt lat="43.5727867" lon="10.5162617"><ele>80.5</ele><time>2026-04-04T06:43:19.507Z</time></trkpt><trkpt lat="43.5727333" lon="10.5161567"><ele>82.0</ele><time>2026-04-04T06:43:22.507Z</time></trkpt><trkpt lat="43.57268" lon="10.516055"><ele>83.5</ele><time>2026-04-04T06:43:25.507Z</time></trkpt><trkpt lat="43.5726383" lon="10.51597"><ele>85.0</ele><time>2026-04-04T06:43:27.508Z</time></trkpt><trkpt lat="43.5725983" lon="10.515885"><ele>86.5</ele><time>2026-04-04T06:43:29.507Z</time></trkpt><trkpt lat="43.5725467" lon="10.515775"><ele>88.0</ele><time>2026-04-04T06:43:32.507Z</time></trkpt><trkpt lat="43.572505" lon="10.515695"><ele>88.0</ele><time>2026-04-04T06:43:34.508Z</time></trkpt><trkpt lat="43.572465" lon="10.5156167"><ele>88.0</ele><time>2026-04-04T06:43:36.508Z</time></trkpt><trkpt lat="43.5724267" lon="10.5155433"><ele>88.0</ele><time>2026-04-04T06:43:38.507Z</time></trkpt><trkpt lat="43.572385" lon="10.5154583"><ele>88.0</ele><time>2026-04-04T06:43:40.507Z</time></trkpt><trkpt lat="43.5723433" lon="10.5153783"><ele>88.0</ele><time>2026-04-04T06:43:43.507Z</time></trkpt><trkpt lat="43.572295" lon="10.5152833"><ele>88.0</ele><time>2026-04-04T06:43:45.507Z</time></trkpt><trkpt lat="43.5722567" lon="10.5152083"><ele>88.0</ele><time>2026-04-04T06:43:47.508Z</time></trkpt><trkpt lat="43.572215" lon="10.515125"><ele>88.5</ele><time>2026-04-04T06:43:50.508Z</time></trkpt><trkpt lat="43.57217" lon="10.5150367"><ele>89.0</ele><time>2026-04-04T06:43:52.508Z</time></trkpt><trkpt lat="43.5721167" lon="10.5149333"><ele>89.5</ele><time>2026-04-04T06:43:55.508Z</time></trkpt><trkpt lat="43.5720717" lon="10.5148717"><ele>90.0</ele><time>2026-04-04T06:43:57.508Z</time></trkpt><trkpt lat="43.571995" lon="10.51482"><ele>90.5</ele><time>2026-04-04T06:44:00.508Z</time></trkpt><trkpt lat="43.5719017" lon="10.5147867"><ele>91.0</ele><time>2026-04-04T06:44:03.508Z</time></trkpt><trkpt lat="43.5718367" lon="10.5147483"><ele>90.85714285714286</ele><time>2026-04-04T06:44:05.508Z</time></trkpt><trkpt lat="43.5717683" lon="10.5147117"><ele>90.71428571428572</ele><time>2026-04-04T06:44:07.507Z</time></trkpt><trkpt lat="43.571705" lon="10.51467"><ele>90.57142857142857</ele><time>2026-04-04T06:44:09.508Z</time></trkpt><trkpt lat="43.5716417" lon="10.5146267"><ele>90.42857142857143</ele><time>2026-04-04T06:44:11.508Z</time></trkpt><trkpt lat="43.5715833" lon="10.5145783"><ele>90.28571428571429</ele><time>2026-04-04T06:44:13.508Z</time></trkpt><trkpt lat="43.5715267" lon="10.51452"><ele>90.14285714285714</ele><time>2026-04-04T06:44:15.507Z</time></trkpt><trkpt lat="43.57147" lon="10.514465"><ele>90.0</ele><time>2026-04-04T06:44:17.507Z</time></trkpt><trkpt lat="43.5714117" lon="10.51441"><ele>90.0</ele><time>2026-04-04T06:44:19.508Z</time></trkpt><trkpt lat="43.5713533" lon="10.514355"><ele>90.0</ele><time>2026-04-04T06:44:21.507Z</time></trkpt><trkpt lat="43.5713" lon="10.5143033"><ele>90.0</ele><time>2026-04-04T06:44:23.508Z</time></trkpt><trkpt lat="43.5712483" lon="10.51425"><ele>90.0</ele><time>2026-04-04T06:44:25.508Z</time></trkpt><trkpt lat="43.5711933" lon="10.5141917"><ele>90.0</ele><time>2026-04-04T06:44:27.507Z</time></trkpt><trkpt lat="43.57114" lon="10.5141333"><ele>90.0</ele><time>2026-04-04T06:44:29.507Z</time></trkpt><trkpt lat="43.5710667" lon="10.5140567"><ele>90.0</ele><time>2026-04-04T06:44:32.507Z</time></trkpt><trkpt lat="43.5709983" lon="10.5140017"><ele>90.16666666666667</ele><time>2026-04-04T06:44:35.507Z</time></trkpt><trkpt lat="43.57093" lon="10.5139617"><ele>90.33333333333333</ele><time>2026-04-04T06:44:38.508Z</time></trkpt><trkpt lat="43.5708717" lon="10.5139267"><ele>90.5</ele><time>2026-04-04T06:44:41.507Z</time></trkpt><trkpt lat="43.5708717" lon="10.513825"><ele>90.66666666666666</ele><time>2026-04-04T06:44:47.507Z</time></trkpt><trkpt lat="43.5709283" lon="10.51373"><ele>90.83333333333333</ele><time>2026-04-04T06:44:50.508Z</time></trkpt><trkpt lat="43.5709783" lon="10.51363"><ele>91.0</ele><time>2026-04-04T06:44:52.508Z</time></trkpt><trkpt lat="43.57102" lon="10.513505"><ele>91.4</ele><time>2026-04-04T06:44:54.508Z</time></trkpt><trkpt lat="43.571055" lon="10.5133767"><ele>91.8</ele><time>2026-04-04T06:44:56.507Z</time></trkpt><trkpt lat="43.5710833" lon="10.513245"><ele>92.2</ele><time>2026-04-04T06:44:58.508Z</time></trkpt><trkpt lat="43.5711067" lon="10.5130917"><ele>92.60000000000001</ele><time>2026-04-04T06:45:00.508Z</time></trkpt><trkpt lat="43.571115" lon="10.5129967"><ele>93.0</ele><time>2026-04-04T06:45:01.508Z</time></trkpt><trkpt lat="43.57114" lon="10.512835"><ele>90.75</ele><time>2026-04-04T06:45:03.508Z</time></trkpt><trkpt lat="43.571165" lon="10.5126867"><ele>88.5</ele><time>2026-04-04T06:45:05.507Z</time></trkpt><trkpt lat="43.5711917" lon="10.5125383"><ele>86.25</ele><time>2026-04-04T06:45:07.508Z</time></trkpt><trkpt lat="43.5712183" lon="10.512385"><ele>84.0</ele><time>2026-04-04T06:45:09.507Z</time></trkpt><trkpt lat="43.57124" lon="10.512225"><ele>83.0</ele><time>2026-04-04T06:45:11.507Z</time></trkpt><trkpt lat="43.5712667" lon="10.5120667"><ele>82.0</ele><time>2026-04-04T06:45:13.507Z</time></trkpt><trkpt lat="43.5712833" lon="10.5119083"><ele>81.0</ele><time>2026-04-04T06:45:15.508Z</time></trkpt><trkpt lat="43.5712917" lon="10.51175"><ele>80.0</ele><time>2026-04-04T06:45:17.508Z</time></trkpt><trkpt lat="43.5712917" lon="10.5116617"><ele>79.0</ele><time>2026-04-04T06:45:18.508Z</time></trkpt><trkpt lat="43.571295" lon="10.5115717"><ele>79.0</ele><time>2026-04-04T06:45:19.507Z</time></trkpt><trkpt lat="43.5713083" lon="10.511395"><ele>79.0</ele><time>2026-04-04T06:45:21.507Z</time></trkpt><trkpt lat="43.5713167" lon="10.5113017"><ele>79.0</ele><time>2026-04-04T06:45:22.508Z</time></trkpt><trkpt lat="43.5713283" lon="10.511205"><ele>79.0</ele><time>2026-04-04T06:45:23.507Z</time></trkpt><trkpt lat="43.5713417" lon="10.5111067"><ele>79.0</ele><time>2026-04-04T06:45:24.508Z</time></trkpt><trkpt lat="43.5713517" lon="10.5110083"><ele>79.0</ele><time>2026-04-04T06:45:25.507Z</time></trkpt><trkpt lat="43.5713633" lon="10.5109133"><ele>79.4</ele><time>2026-04-04T06:45:26.507Z</time></trkpt><trkpt lat="43.5713783" lon="10.51082"><ele>79.80000000000001</ele><time>2026-04-04T06:45:27.508Z</time></trkpt><trkpt lat="43.5713933" lon="10.51073"><ele>80.19999999999999</ele><time>2026-04-04T06:45:28.508Z</time></trkpt><trkpt lat="43.5714083" lon="10.51058"><ele>80.6</ele><time>2026-04-04T06:45:30.508Z</time></trkpt><trkpt lat="43.57142" lon="10.51043"><ele>81.0</ele><time>2026-04-04T06:45:32.508Z</time></trkpt><trkpt lat="43.571435" lon="10.5102683"><ele>79.33333333333333</ele><time>2026-04-04T06:45:34.508Z</time></trkpt><trkpt lat="43.5714467" lon="10.51012"><ele>77.66666666666667</ele><time>2026-04-04T06:45:36.508Z</time></trkpt><trkpt lat="43.5714433" lon="10.5100033"><ele>76.0</ele><time>2026-04-04T06:45:38.508Z</time></trkpt><trkpt lat="43.5713967" lon="10.5099217"><ele>74.33333333333334</ele><time>2026-04-04T06:45:40.508Z</time></trkpt><trkpt lat="43.57134" lon="10.50985"><ele>72.66666666666667</ele><time>2026-04-04T06:45:44.507Z</time></trkpt><trkpt lat="43.57129" lon="10.5097667"><ele>71.0</ele><time>2026-04-04T06:45:49.508Z</time></trkpt><trkpt lat="43.5712667" lon="10.5096817"><ele>71.0</ele><time>2026-04-04T06:45:52.508Z</time></trkpt><trkpt lat="43.571245" lon="10.5095967"><ele>71.0</ele><time>2026-04-04T06:45:56.508Z</time></trkpt><trkpt lat="43.5712" lon="10.509505"><ele>71.0</ele><time>2026-04-04T06:46:01.507Z</time></trkpt><trkpt lat="43.5711" lon="10.5094283"><ele>71.0</ele><time>2026-04-04T06:46:26.508Z</time></trkpt><trkpt lat="43.5710033" lon="10.5093833"><ele>71.0</ele><time>2026-04-04T06:46:29.508Z</time></trkpt><trkpt lat="43.5709217" lon="10.509355"><ele>71.0</ele><time>2026-04-04T06:46:31.507Z</time></trkpt><trkpt lat="43.5708333" lon="10.50933"><ele>72.0</ele><time>2026-04-04T06:46:33.508Z</time></trkpt><trkpt lat="43.570745" lon="10.5093033"><ele>73.0</ele><time>2026-04-04T06:46:35.508Z</time></trkpt><trkpt lat="43.57065" lon="10.5092717"><ele>74.0</ele><time>2026-04-04T06:46:37.508Z</time></trkpt><trkpt lat="43.5705633" lon="10.5092267"><ele>75.0</ele><time>2026-04-04T06:46:39.508Z</time></trkpt><trkpt lat="43.5704883" lon="10.509175"><ele>76.0</ele><time>2026-04-04T06:46:41.508Z</time></trkpt><trkpt lat="43.5704167" lon="10.5091267"><ele>77.0</ele><time>2026-04-04T06:46:43.507Z</time></trkpt><trkpt lat="43.57035" lon="10.5090767"><ele>74.6</ele><time>2026-04-04T06:46:45.508Z</time></trkpt><trkpt lat="43.5702667" lon="10.50903"><ele>72.2</ele><time>2026-04-04T06:46:47.507Z</time></trkpt><trkpt lat="43.5701883" lon="10.50902"><ele>69.8</ele><time>2026-04-04T06:46:49.508Z</time></trkpt><trkpt lat="43.5701067" lon="10.5090083"><ele>67.4</ele><time>2026-04-04T06:46:51.507Z</time></trkpt><trkpt lat="43.5700083" lon="10.5090017"><ele>65.0</ele><time>2026-04-04T06:46:53.508Z</time></trkpt><trkpt lat="43.5699067" lon="10.5089883"><ele>65.0</ele><time>2026-04-04T06:46:55.507Z</time></trkpt><trkpt lat="43.569805" lon="10.50898"><ele>65.0</ele><time>2026-04-04T06:46:57.507Z</time></trkpt><trkpt lat="43.5697217" lon="10.50897"><ele>65.0</ele><time>2026-04-04T06:46:59.508Z</time></trkpt><trkpt lat="43.5696583" lon="10.508955"><ele>65.0</ele><time>2026-04-04T06:47:01.507Z</time></trkpt><trkpt lat="43.569595" lon="10.5089767"><ele>65.0</ele><time>2026-04-04T06:47:14.508Z</time></trkpt><trkpt lat="43.5695533" lon="10.5090483"><ele>65.0</ele><time>2026-04-04T06:47:17.508Z</time></trkpt><trkpt lat="43.5694767" lon="10.5090917"><ele>63.57142857142858</ele><time>2026-04-04T06:47:20.507Z</time></trkpt><trkpt lat="43.5694083" lon="10.5091033"><ele>62.142857142857146</ele><time>2026-04-04T06:47:22.507Z</time></trkpt><trkpt lat="43.56933" lon="10.5090917"><ele>60.714285714285715</ele><time>2026-04-04T06:47:24.508Z</time></trkpt><trkpt lat="43.5692517" lon="10.5090633"><ele>59.28571428571429</ele><time>2026-04-04T06:47:26.507Z</time></trkpt><trkpt lat="43.56918" lon="10.5090483"><ele>57.85714285714286</ele><time>2026-04-04T06:47:28.508Z</time></trkpt><trkpt lat="43.56911" lon="10.50905"><ele>56.42857142857142</ele><time>2026-04-04T06:47:30.507Z</time></trkpt><trkpt lat="43.5690417" lon="10.5090383"><ele>55.0</ele><time>2026-04-04T06:47:32.508Z</time></trkpt><trkpt lat="43.5689633" lon="10.5090133"><ele>54.99999999999999</ele><time>2026-04-04T06:47:34.507Z</time></trkpt><trkpt lat="43.5688983" lon="10.5089667"><ele>55.0</ele><time>2026-04-04T06:47:36.508Z</time></trkpt><trkpt lat="43.5688417" lon="10.5088867"><ele>55.0</ele><time>2026-04-04T06:47:38.507Z</time></trkpt><trkpt lat="43.5687933" lon="10.5088033"><ele>55.0</ele><time>2026-04-04T06:47:40.507Z</time></trkpt><trkpt lat="43.56874" lon="10.5087183"><ele>54.99999999999999</ele><time>2026-04-04T06:47:42.508Z</time></trkpt><trkpt lat="43.5686883" lon="10.5086317"><ele>55.0</ele><time>2026-04-04T06:47:44.508Z</time></trkpt><trkpt lat="43.5686333" lon="10.5085367"><ele>53.166666666666664</ele><time>2026-04-04T06:47:46.508Z</time></trkpt><trkpt lat="43.5685817" lon="10.5084467"><ele>51.33333333333333</ele><time>2026-04-04T06:47:48.508Z</time></trkpt><trkpt lat="43.5685283" lon="10.508355"><ele>49.5</ele><time>2026-04-04T06:47:50.508Z</time></trkpt><trkpt lat="43.5684783" lon="10.508255"><ele>47.666666666666664</ele><time>2026-04-04T06:47:52.507Z</time></trkpt><trkpt lat="43.5684333" lon="10.508165"><ele>45.83333333333333</ele><time>2026-04-04T06:47:54.508Z</time></trkpt><trkpt lat="43.5683867" lon="10.5080717"><ele>44.0</ele><time>2026-04-04T06:47:56.508Z</time></trkpt><trkpt lat="43.5683433" lon="10.50799"><ele>43.400000000000006</ele><time>2026-04-04T06:47:58.507Z</time></trkpt><trkpt lat="43.5683017" lon="10.5078983"><ele>42.8</ele><time>2026-04-04T06:48:00.508Z</time></trkpt><trkpt lat="43.5682667" lon="10.5077583"><ele>42.2</ele><time>2026-04-04T06:48:02.507Z</time></trkpt><trkpt lat="43.56824" lon="10.5076433"><ele>41.599999999999994</ele><time>2026-04-04T06:48:04.507Z</time></trkpt><trkpt lat="43.56821" lon="10.507525"><ele>41.0</ele><time>2026-04-04T06:48:06.508Z</time></trkpt><trkpt lat="43.5681767" lon="10.5074"><ele>40.99999999999999</ele><time>2026-04-04T06:48:08.508Z</time></trkpt><trkpt lat="43.5681583" lon="10.5073083"><ele>41.0</ele><time>2026-04-04T06:48:10.508Z</time></trkpt><trkpt lat="43.5681333" lon="10.5072067"><ele>41.0</ele><time>2026-04-04T06:48:13.507Z</time></trkpt><trkpt lat="43.5681067" lon="10.5071017"><ele>41.0</ele><time>2026-04-04T06:48:18.507Z</time></trkpt><trkpt lat="43.5681017" lon="10.5070067"><ele>41.0</ele><time>2026-04-04T06:48:20.508Z</time></trkpt><trkpt lat="43.5681017" lon="10.5069133"><ele>40.99999999999999</ele><time>2026-04-04T06:48:22.507Z</time></trkpt><trkpt lat="43.5680883" lon="10.5068117"><ele>41.0</ele><time>2026-04-04T06:48:24.507Z</time></trkpt><trkpt lat="43.5680783" lon="10.506685"><ele>40.166666666666664</ele><time>2026-04-04T06:48:26.507Z</time></trkpt><trkpt lat="43.56807" lon="10.5065567"><ele>39.33333333333333</ele><time>2026-04-04T06:48:28.508Z</time></trkpt><trkpt lat="43.5680617" lon="10.5064517"><ele>38.5</ele><time>2026-04-04T06:48:30.508Z</time></trkpt><trkpt lat="43.56805" lon="10.5063583"><ele>37.666666666666664</ele><time>2026-04-04T06:48:32.507Z</time></trkpt><trkpt lat="43.5680383" lon="10.5062633"><ele>36.833333333333336</ele><time>2026-04-04T06:48:34.507Z</time></trkpt><trkpt lat="43.5680233" lon="10.5061767"><ele>36.0</ele><time>2026-04-04T06:48:36.508Z</time></trkpt><trkpt lat="43.5679933" lon="10.50606"><ele>36.00000000000001</ele><time>2026-04-04T06:48:39.507Z</time></trkpt><trkpt lat="43.5679517" lon="10.5059767"><ele>36.0</ele><time>2026-04-04T06:48:42.507Z</time></trkpt><trkpt lat="43.5678933" lon="10.5060317"><ele>36.0</ele><time>2026-04-04T06:48:47.508Z</time></trkpt><trkpt lat="43.5678467" lon="10.5061067"><ele>36.0</ele><time>2026-04-04T06:48:50.508Z</time></trkpt><trkpt lat="43.5677933" lon="10.5061833"><ele>36.0</ele><time>2026-04-04T06:48:53.508Z</time></trkpt><trkpt lat="43.5677317" lon="10.5062567"><ele>36.00000000000001</ele><time>2026-04-04T06:48:56.508Z</time></trkpt><trkpt lat="43.5676767" lon="10.50631"><ele>36.0</ele><time>2026-04-04T06:48:58.508Z</time></trkpt><trkpt lat="43.5676167" lon="10.5063583"><ele>36.166666666666664</ele><time>2026-04-04T06:49:00.508Z</time></trkpt><trkpt lat="43.5675583" lon="10.506405"><ele>36.333333333333336</ele><time>2026-04-04T06:49:02.507Z</time></trkpt><trkpt lat="43.5675117" lon="10.5064867"><ele>36.5</ele><time>2026-04-04T06:49:05.507Z</time></trkpt><trkpt lat="43.5674433" lon="10.5065733"><ele>36.66666666666667</ele><time>2026-04-04T06:49:08.508Z</time></trkpt><trkpt lat="43.567385" lon="10.506625"><ele>36.833333333333336</ele><time>2026-04-04T06:49:10.508Z</time></trkpt><trkpt lat="43.56731" lon="10.5066883"><ele>37.0</ele><time>2026-04-04T06:49:13.508Z</time></trkpt><trkpt lat="43.5672567" lon="10.506735"><ele>37.0</ele><time>2026-04-04T06:49:16.507Z</time></trkpt><trkpt lat="43.5671783" lon="10.5067967"><ele>37.0</ele><time>2026-04-04T06:49:19.507Z</time></trkpt><trkpt lat="43.567115" lon="10.50683"><ele>37.0</ele><time>2026-04-04T06:49:21.508Z</time></trkpt><trkpt lat="43.5670417" lon="10.50686"><ele>37.0</ele><time>2026-04-04T06:49:23.507Z</time></trkpt><trkpt lat="43.566955" lon="10.5068983"><ele>37.0</ele><time>2026-04-04T06:49:26.507Z</time></trkpt><trkpt lat="43.5668933" lon="10.506935"><ele>37.0</ele><time>2026-04-04T06:49:28.507Z</time></trkpt><trkpt lat="43.5668283" lon="10.5069633"><ele>37.714285714285715</ele><time>2026-04-04T06:49:30.508Z</time></trkpt><trkpt lat="43.5667617" lon="10.5069933"><ele>38.42857142857143</ele><time>2026-04-04T06:49:32.507Z</time></trkpt><trkpt lat="43.5666967" lon="10.507015"><ele>39.14285714285714</ele><time>2026-04-04T06:49:34.508Z</time></trkpt><trkpt lat="43.5666317" lon="10.5070333"><ele>39.85714285714286</ele><time>2026-04-04T06:49:36.508Z</time></trkpt><trkpt lat="43.5665683" lon="10.5070317"><ele>40.57142857142857</ele><time>2026-04-04T06:49:39.508Z</time></trkpt><trkpt lat="43.56649" lon="10.50703"><ele>41.285714285714285</ele><time>2026-04-04T06:49:42.507Z</time></trkpt><trkpt lat="43.56641" lon="10.5070233"><ele>42.0</ele><time>2026-04-04T06:49:45.508Z</time></trkpt><trkpt lat="43.5663283" lon="10.5069967"><ele>42.0</ele><time>2026-04-04T06:49:48.508Z</time></trkpt><trkpt lat="43.5662567" lon="10.5069567"><ele>42.0</ele><time>2026-04-04T06:49:51.507Z</time></trkpt><trkpt lat="43.5661733" lon="10.50692"><ele>42.0</ele><time>2026-04-04T06:49:54.508Z</time></trkpt><trkpt lat="43.56608" lon="10.506945"><ele>42.0</ele><time>2026-04-04T06:49:57.508Z</time></trkpt><trkpt lat="43.5660217" lon="10.507015"><ele>42.0</ele><time>2026-04-04T06:50:00.508Z</time></trkpt><trkpt lat="43.5659717" lon="10.5071133"><ele>42.0</ele><time>2026-04-04T06:50:04.507Z</time></trkpt><trkpt lat="43.56589" lon="10.5071783"><ele>41.833333333333336</ele><time>2026-04-04T06:50:07.507Z</time></trkpt><trkpt lat="43.5658317" lon="10.5072133"><ele>41.666666666666664</ele><time>2026-04-04T06:50:09.508Z</time></trkpt><trkpt lat="43.565755" lon="10.5072783"><ele>41.5</ele><time>2026-04-04T06:50:12.508Z</time></trkpt><trkpt lat="43.56567" lon="10.5073333"><ele>41.33333333333333</ele><time>2026-04-04T06:50:15.508Z</time></trkpt><trkpt lat="43.5655983" lon="10.5073883"><ele>41.166666666666664</ele><time>2026-04-04T06:50:18.508Z</time></trkpt><trkpt lat="43.565525" lon="10.5074467"><ele>41.0</ele><time>2026-04-04T06:50:21.508Z</time></trkpt><trkpt lat="43.5654417" lon="10.5075067"><ele>41.5</ele><time>2026-04-04T06:50:24.508Z</time></trkpt><trkpt lat="43.5653533" lon="10.5075433"><ele>42.0</ele><time>2026-04-04T06:50:27.508Z</time></trkpt><trkpt lat="43.5652817" lon="10.5075517"><ele>42.5</ele><time>2026-04-04T06:50:29.508Z</time></trkpt><trkpt lat="43.5652133" lon="10.50754"><ele>43.0</ele><time>2026-04-04T06:50:31.508Z</time></trkpt><trkpt lat="43.5651467" lon="10.5075267"><ele>43.5</ele><time>2026-04-04T06:50:33.507Z</time></trkpt><trkpt lat="43.5650833" lon="10.5075183"><ele>44.0</ele><time>2026-04-04T06:50:35.508Z</time></trkpt><trkpt lat="43.5649917" lon="10.5075233"><ele>44.0</ele><time>2026-04-04T06:50:38.508Z</time></trkpt><trkpt lat="43.5649283" lon="10.5075283"><ele>44.0</ele><time>2026-04-04T06:50:40.508Z</time></trkpt><trkpt lat="43.5648633" lon="10.50753"><ele>44.0</ele><time>2026-04-04T06:50:42.508Z</time></trkpt><trkpt lat="43.5647867" lon="10.507555"><ele>44.0</ele><time>2026-04-04T06:50:45.507Z</time></trkpt><trkpt lat="43.5647167" lon="10.507575"><ele>44.0</ele><time>2026-04-04T06:50:48.507Z</time></trkpt><trkpt lat="43.56464" lon="10.5075933"><ele>44.0</ele><time>2026-04-04T06:50:51.507Z</time></trkpt><trkpt lat="43.564545" lon="10.5076"><ele>44.666666666666664</ele><time>2026-04-04T06:50:54.507Z</time></trkpt><trkpt lat="43.5644783" lon="10.50761"><ele>45.33333333333333</ele><time>2026-04-04T06:50:56.507Z</time></trkpt><trkpt lat="43.5643883" lon="10.5076483"><ele>46.0</ele><time>2026-04-04T06:50:59.508Z</time></trkpt><trkpt lat="43.5643233" lon="10.507705"><ele>46.666666666666664</ele><time>2026-04-04T06:51:02.508Z</time></trkpt><trkpt lat="43.5642567" lon="10.507775"><ele>47.333333333333336</ele><time>2026-04-04T06:51:05.508Z</time></trkpt><trkpt lat="43.5641833" lon="10.5078433"><ele>48.0</ele><time>2026-04-04T06:51:08.508Z</time></trkpt><trkpt lat="43.5641067" lon="10.507905"><ele>47.14285714285714</ele><time>2026-04-04T06:51:11.508Z</time></trkpt><trkpt lat="43.5640433" lon="10.5079333"><ele>46.285714285714285</ele><time>2026-04-04T06:51:13.508Z</time></trkpt><trkpt lat="43.5639583" lon="10.5079517"><ele>45.42857142857143</ele><time>2026-04-04T06:51:16.508Z</time></trkpt><trkpt lat="43.5638933" lon="10.5079633"><ele>44.57142857142857</ele><time>2026-04-04T06:51:18.508Z</time></trkpt><trkpt lat="43.5638267" lon="10.5079717"><ele>43.714285714285715</ele><time>2026-04-04T06:51:20.508Z</time></trkpt><trkpt lat="43.5637417" lon="10.507985"><ele>42.857142857142854</ele><time>2026-04-04T06:51:23.507Z</time></trkpt><trkpt lat="43.5636667" lon="10.5079983"><ele>42.0</ele><time>2026-04-04T06:51:26.507Z</time></trkpt><trkpt lat="43.5635917" lon="10.50804"><ele>42.0</ele><time>2026-04-04T06:51:29.508Z</time></trkpt><trkpt lat="43.5635217" lon="10.5080867"><ele>42.0</ele><time>2026-04-04T06:51:31.507Z</time></trkpt><trkpt lat="43.56345" lon="10.5081233"><ele>42.0</ele><time>2026-04-04T06:51:33.508Z</time></trkpt><trkpt lat="43.5633883" lon="10.5081617"><ele>42.0</ele><time>2026-04-04T06:51:35.508Z</time></trkpt><trkpt lat="43.5633033" lon="10.5081967"><ele>42.0</ele><time>2026-04-04T06:51:38.508Z</time></trkpt><trkpt lat="43.5632283" lon="10.5082733"><ele>42.0</ele><time>2026-04-04T06:51:41.507Z</time></trkpt><trkpt lat="43.5631683" lon="10.5083583"><ele>42.0</ele><time>2026-04-04T06:51:45.508Z</time></trkpt><trkpt lat="43.56311" lon="10.5084183"><ele>42.0</ele><time>2026-04-04T06:51:47.508Z</time></trkpt><trkpt lat="43.563055" lon="10.5084767"><ele>42.0</ele><time>2026-04-04T06:51:49.508Z</time></trkpt><trkpt lat="43.5630067" lon="10.5085417"><ele>42.0</ele><time>2026-04-04T06:51:51.508Z</time></trkpt><trkpt lat="43.5629467" lon="10.5086083"><ele>42.0</ele><time>2026-04-04T06:51:53.508Z</time></trkpt><trkpt lat="43.5629083" lon="10.50868"><ele>42.0</ele><time>2026-04-04T06:51:55.508Z</time></trkpt><trkpt lat="43.56287" lon="10.50875"><ele>42.0</ele><time>2026-04-04T06:51:57.507Z</time></trkpt><trkpt lat="43.5628233" lon="10.5088117"><ele>42.142857142857146</ele><time>2026-04-04T06:51:59.508Z</time></trkpt><trkpt lat="43.5627733" lon="10.5088683"><ele>42.285714285714285</ele><time>2026-04-04T06:52:01.508Z</time></trkpt><trkpt lat="43.562725" lon="10.5089283"><ele>42.42857142857143</ele><time>2026-04-04T06:52:03.508Z</time></trkpt><trkpt lat="43.5626617" lon="10.5089867"><ele>42.57142857142857</ele><time>2026-04-04T06:52:05.508Z</time></trkpt><trkpt lat="43.5625867" lon="10.5090617"><ele>42.714285714285715</ele><time>2026-04-04T06:52:08.507Z</time></trkpt><trkpt lat="43.5625233" lon="10.5091033"><ele>42.85714285714286</ele><time>2026-04-04T06:52:10.508Z</time></trkpt><trkpt lat="43.56247" lon="10.5091633"><ele>43.0</ele><time>2026-04-04T06:52:12.507Z</time></trkpt><trkpt lat="43.5624167" lon="10.5092267"><ele>43.0</ele><time>2026-04-04T06:52:14.508Z</time></trkpt><trkpt lat="43.562355" lon="10.5093233"><ele>43.0</ele><time>2026-04-04T06:52:17.508Z</time></trkpt><trkpt lat="43.5622983" lon="10.5093767"><ele>43.0</ele><time>2026-04-04T06:52:19.508Z</time></trkpt><trkpt lat="43.5622167" lon="10.50942"><ele>43.0</ele><time>2026-04-04T06:52:22.508Z</time></trkpt><trkpt lat="43.562145" lon="10.50942"><ele>43.0</ele><time>2026-04-04T06:52:24.508Z</time></trkpt><trkpt lat="43.5620783" lon="10.5093983"><ele>43.0</ele><time>2026-04-04T06:52:26.508Z</time></trkpt><trkpt lat="43.562005" lon="10.5093783"><ele>43.42857142857143</ele><time>2026-04-04T06:52:28.507Z</time></trkpt><trkpt lat="43.5619333" lon="10.5093717"><ele>43.85714285714286</ele><time>2026-04-04T06:52:30.507Z</time></trkpt><trkpt lat="43.5618683" lon="10.509385"><ele>44.28571428571429</ele><time>2026-04-04T06:52:32.507Z</time></trkpt><trkpt lat="43.5617983" lon="10.50941"><ele>44.714285714285715</ele><time>2026-04-04T06:52:34.508Z</time></trkpt><trkpt lat="43.5617133" lon="10.50945"><ele>45.14285714285714</ele><time>2026-04-04T06:52:37.507Z</time></trkpt><trkpt lat="43.5616517" lon="10.5094733"><ele>45.57142857142858</ele><time>2026-04-04T06:52:39.508Z</time></trkpt><trkpt lat="43.5615833" lon="10.509475"><ele>46.0</ele><time>2026-04-04T06:52:41.507Z</time></trkpt><trkpt lat="43.56149" lon="10.5094667"><ele>46.0</ele><time>2026-04-04T06:52:44.508Z</time></trkpt><trkpt lat="43.5614017" lon="10.5094433"><ele>46.0</ele><time>2026-04-04T06:52:47.508Z</time></trkpt><trkpt lat="43.5613183" lon="10.509425"><ele>46.0</ele><time>2026-04-04T06:52:50.508Z</time></trkpt><trkpt lat="43.5612333" lon="10.5094083"><ele>46.0</ele><time>2026-04-04T06:52:53.507Z</time></trkpt><trkpt lat="43.5611433" lon="10.5093983"><ele>46.0</ele><time>2026-04-04T06:52:56.508Z</time></trkpt><trkpt lat="43.5610533" lon="10.5093983"><ele>46.0</ele><time>2026-04-04T06:52:59.508Z</time></trkpt><trkpt lat="43.560985" lon="10.5093983"><ele>46.66666666666667</ele><time>2026-04-04T06:53:01.507Z</time></trkpt><trkpt lat="43.5608983" lon="10.5094083"><ele>47.333333333333336</ele><time>2026-04-04T06:53:04.508Z</time></trkpt><trkpt lat="43.56084" lon="10.5094817"><ele>48.0</ele><time>2026-04-04T06:53:07.508Z</time></trkpt><trkpt lat="43.5607917" lon="10.5095817"><ele>48.66666666666667</ele><time>2026-04-04T06:53:10.507Z</time></trkpt><trkpt lat="43.56076" lon="10.5096917"><ele>49.333333333333336</ele><time>2026-04-04T06:53:13.508Z</time></trkpt><trkpt lat="43.560705" lon="10.5097833"><ele>50.0</ele><time>2026-04-04T06:53:16.508Z</time></trkpt><trkpt lat="43.5606167" lon="10.509835"><ele>50.00000000000001</ele><time>2026-04-04T06:53:18.508Z</time></trkpt><trkpt lat="43.5605383" lon="10.5098467"><ele>50.0</ele><time>2026-04-04T06:53:21.507Z</time></trkpt><trkpt lat="43.560455" lon="10.50987"><ele>50.0</ele><time>2026-04-04T06:53:24.508Z</time></trkpt><trkpt lat="43.5603717" lon="10.5099017"><ele>50.0</ele><time>2026-04-04T06:53:27.508Z</time></trkpt><trkpt lat="43.5602983" lon="10.509925"><ele>50.00000000000001</ele><time>2026-04-04T06:53:30.508Z</time></trkpt><trkpt lat="43.560205" lon="10.5099533"><ele>50.0</ele><time>2026-04-04T06:53:33.507Z</time></trkpt><trkpt lat="43.5601167" lon="10.5099967"><ele>50.16666666666667</ele><time>2026-04-04T06:53:36.507Z</time></trkpt><trkpt lat="43.56005" lon="10.5100117"><ele>50.333333333333336</ele><time>2026-04-04T06:53:38.507Z</time></trkpt><trkpt lat="43.5599667" lon="10.5100383"><ele>50.5</ele><time>2026-04-04T06:53:41.507Z</time></trkpt><trkpt lat="43.559895" lon="10.5100567"><ele>50.66666666666667</ele><time>2026-04-04T06:53:43.508Z</time></trkpt><trkpt lat="43.5598217" lon="10.5100767"><ele>50.833333333333336</ele><time>2026-04-04T06:53:45.508Z</time></trkpt><trkpt lat="43.5597467" lon="10.5101017"><ele>51.0</ele><time>2026-04-04T06:53:47.508Z</time></trkpt><trkpt lat="43.559675" lon="10.5101267"><ele>51.0</ele><time>2026-04-04T06:53:49.507Z</time></trkpt><trkpt lat="43.5596017" lon="10.510155"><ele>51.0</ele><time>2026-04-04T06:53:51.508Z</time></trkpt><trkpt lat="43.5595367" lon="10.5101867"><ele>51.0</ele><time>2026-04-04T06:53:53.508Z</time></trkpt><trkpt lat="43.5594733" lon="10.5102167"><ele>51.0</ele><time>2026-04-04T06:53:55.508Z</time></trkpt><trkpt lat="43.5593867" lon="10.51024"><ele>51.0</ele><time>2026-04-04T06:53:57.507Z</time></trkpt><trkpt lat="43.5593117" lon="10.5102683"><ele>51.0</ele><time>2026-04-04T06:53:59.508Z</time></trkpt><trkpt lat="43.55924" lon="10.510295"><ele>51.57142857142857</ele><time>2026-04-04T06:54:01.508Z</time></trkpt><trkpt lat="43.55917" lon="10.51032"><ele>52.142857142857146</ele><time>2026-04-04T06:54:03.507Z</time></trkpt><trkpt lat="43.5591083" lon="10.510345"><ele>52.71428571428571</ele><time>2026-04-04T06:54:05.507Z</time></trkpt><trkpt lat="43.5590367" lon="10.51038"><ele>53.285714285714285</ele><time>2026-04-04T06:54:08.508Z</time></trkpt><trkpt lat="43.5589517" lon="10.51041"><ele>53.857142857142854</ele><time>2026-04-04T06:54:11.507Z</time></trkpt><trkpt lat="43.558885" lon="10.5104383"><ele>54.42857142857142</ele><time>2026-04-04T06:54:13.508Z</time></trkpt><trkpt lat="43.558815" lon="10.51047"><ele>55.0</ele><time>2026-04-04T06:54:15.507Z</time></trkpt><trkpt lat="43.558745" lon="10.5105067"><ele>55.49999999999999</ele><time>2026-04-04T06:54:17.507Z</time></trkpt><trkpt lat="43.5586667" lon="10.510565"><ele>56.0</ele><time>2026-04-04T06:54:20.508Z</time></trkpt><trkpt lat="43.5586083" lon="10.5106"><ele>56.5</ele><time>2026-04-04T06:54:22.508Z</time></trkpt><trkpt lat="43.5585467" lon="10.5106383"><ele>57.0</ele><time>2026-04-04T06:54:24.508Z</time></trkpt><trkpt lat="43.5584583" lon="10.5106867"><ele>57.49999999999999</ele><time>2026-04-04T06:54:27.508Z</time></trkpt><trkpt lat="43.5583917" lon="10.51073"><ele>58.0</ele><time>2026-04-04T06:54:29.508Z</time></trkpt><trkpt lat="43.55833" lon="10.5107767"><ele>57.99999999999999</ele><time>2026-04-04T06:54:31.508Z</time></trkpt><trkpt lat="43.558275" lon="10.5108267"><ele>58.0</ele><time>2026-04-04T06:54:33.507Z</time></trkpt><trkpt lat="43.5582033" lon="10.5108983"><ele>58.0</ele><time>2026-04-04T06:54:36.508Z</time></trkpt><trkpt lat="43.5581267" lon="10.5109767"><ele>58.0</ele><time>2026-04-04T06:54:39.508Z</time></trkpt><trkpt lat="43.5580717" lon="10.5110283"><ele>57.99999999999999</ele><time>2026-04-04T06:54:41.507Z</time></trkpt><trkpt lat="43.5580083" lon="10.5110783"><ele>58.0</ele><time>2026-04-04T06:54:43.508Z</time></trkpt><trkpt lat="43.5579533" lon="10.51113"><ele>57.99999999999999</ele><time>2026-04-04T06:54:45.508Z</time></trkpt><trkpt lat="43.5579017" lon="10.5111833"><ele>58.0</ele><time>2026-04-04T06:54:47.508Z</time></trkpt><trkpt lat="43.55784" lon="10.5112583"><ele>58.0</ele><time>2026-04-04T06:54:50.507Z</time></trkpt><trkpt lat="43.5577867" lon="10.51134"><ele>58.0</ele><time>2026-04-04T06:54:53.507Z</time></trkpt><trkpt lat="43.5577267" lon="10.51142"><ele>57.99999999999999</ele><time>2026-04-04T06:54:56.508Z</time></trkpt><trkpt lat="43.5576817" lon="10.5114817"><ele>58.0</ele><time>2026-04-04T06:54:58.508Z</time></trkpt><trkpt lat="43.557585" lon="10.5115433"><ele>58.166666666666664</ele><time>2026-04-04T06:55:01.507Z</time></trkpt><trkpt lat="43.557525" lon="10.5115783"><ele>58.33333333333333</ele><time>2026-04-04T06:55:03.509Z</time></trkpt><trkpt lat="43.5574433" lon="10.5116367"><ele>58.5</ele><time>2026-04-04T06:55:06.508Z</time></trkpt><trkpt lat="43.5573817" lon="10.5116983"><ele>58.66666666666667</ele><time>2026-04-04T06:55:08.509Z</time></trkpt><trkpt lat="43.5573083" lon="10.511745"><ele>58.833333333333336</ele><time>2026-04-04T06:55:10.508Z</time></trkpt><trkpt lat="43.5572483" lon="10.51179"><ele>59.0</ele><time>2026-04-04T06:55:12.508Z</time></trkpt><trkpt lat="43.557185" lon="10.5118367"><ele>59.0</ele><time>2026-04-04T06:55:14.509Z</time></trkpt><trkpt lat="43.5571267" lon="10.5118717"><ele>59.0</ele><time>2026-04-04T06:55:16.508Z</time></trkpt><trkpt lat="43.5570667" lon="10.5119167"><ele>59.0</ele><time>2026-04-04T06:55:18.509Z</time></trkpt><trkpt lat="43.5570117" lon="10.5119617"><ele>59.0</ele><time>2026-04-04T06:55:20.509Z</time></trkpt><trkpt lat="43.5569433" lon="10.512045"><ele>59.0</ele><time>2026-04-04T06:55:23.509Z</time></trkpt><trkpt lat="43.5568867" lon="10.5121083"><ele>59.0</ele><time>2026-04-04T06:55:25.508Z</time></trkpt><trkpt lat="43.5568167" lon="10.5121667"><ele>59.0</ele><time>2026-04-04T06:55:27.508Z</time></trkpt><trkpt lat="43.55676" lon="10.5122183"><ele>60.285714285714285</ele><time>2026-04-04T06:55:29.508Z</time></trkpt><trkpt lat="43.5567233" lon="10.5122933"><ele>61.57142857142857</ele><time>2026-04-04T06:55:31.509Z</time></trkpt><trkpt lat="43.5566817" lon="10.51236"><ele>62.857142857142854</ele><time>2026-04-04T06:55:33.508Z</time></trkpt><trkpt lat="43.55663" lon="10.51242"><ele>64.14285714285714</ele><time>2026-04-04T06:55:35.508Z</time></trkpt><trkpt lat="43.5565817" lon="10.512485"><ele>65.42857142857143</ele><time>2026-04-04T06:55:37.509Z</time></trkpt><trkpt lat="43.55653" lon="10.512565"><ele>66.71428571428571</ele><time>2026-04-04T06:55:39.509Z</time></trkpt><trkpt lat="43.55648" lon="10.5126583"><ele>68.0</ele><time>2026-04-04T06:55:41.508Z</time></trkpt><trkpt lat="43.556425" lon="10.5127717"><ele>68.0</ele><time>2026-04-04T06:55:43.508Z</time></trkpt><trkpt lat="43.5563733" lon="10.5129"><ele>68.0</ele><time>2026-04-04T06:55:45.509Z</time></trkpt><trkpt lat="43.5563217" lon="10.51303"><ele>68.0</ele><time>2026-04-04T06:55:47.509Z</time></trkpt><trkpt lat="43.5562633" lon="10.513145"><ele>68.0</ele><time>2026-04-04T06:55:49.508Z</time></trkpt><trkpt lat="43.55616" lon="10.51323"><ele>68.0</ele><time>2026-04-04T06:55:51.508Z</time></trkpt><trkpt lat="43.556055" lon="10.513325"><ele>67.66666666666667</ele><time>2026-04-04T06:55:53.508Z</time></trkpt><trkpt lat="43.555985" lon="10.51337"><ele>67.33333333333334</ele><time>2026-04-04T06:55:54.508Z</time></trkpt><trkpt lat="43.5559183" lon="10.513415"><ele>67.0</ele><time>2026-04-04T06:55:55.509Z</time></trkpt><trkpt lat="43.5558367" lon="10.513465"><ele>66.66666666666667</ele><time>2026-04-04T06:55:56.509Z</time></trkpt><trkpt lat="43.5557267" lon="10.5135183"><ele>66.33333333333333</ele><time>2026-04-04T06:55:57.508Z</time></trkpt><trkpt lat="43.5556433" lon="10.51356"><ele>66.0</ele><time>2026-04-04T06:55:58.509Z</time></trkpt><trkpt lat="43.5555633" lon="10.5136167"><ele>66.0</ele><time>2026-04-04T06:55:59.509Z</time></trkpt><trkpt lat="43.5554867" lon="10.5136583"><ele>66.0</ele><time>2026-04-04T06:56:00.508Z</time></trkpt><trkpt lat="43.555415" lon="10.5136933"><ele>66.0</ele><time>2026-04-04T06:56:01.509Z</time></trkpt><trkpt lat="43.5553383" lon="10.51372"><ele>66.0</ele><time>2026-04-04T06:56:02.509Z</time></trkpt><trkpt lat="43.5552667" lon="10.513745"><ele>66.0</ele><time>2026-04-04T06:56:03.508Z</time></trkpt><trkpt lat="43.5551883" lon="10.513785"><ele>66.0</ele><time>2026-04-04T06:56:04.509Z</time></trkpt><trkpt lat="43.55511" lon="10.5138217"><ele>63.0</ele><time>2026-04-04T06:56:05.508Z</time></trkpt><trkpt lat="43.5550333" lon="10.5138517"><ele>60.0</ele><time>2026-04-04T06:56:06.509Z</time></trkpt><trkpt lat="43.5549617" lon="10.5138833"><ele>57.0</ele><time>2026-04-04T06:56:07.508Z</time></trkpt><trkpt lat="43.5548933" lon="10.5139"><ele>54.0</ele><time>2026-04-04T06:56:08.508Z</time></trkpt><trkpt lat="43.5548167" lon="10.5139183"><ele>51.0</ele><time>2026-04-04T06:56:09.509Z</time></trkpt><trkpt lat="43.5547433" lon="10.5139333"><ele>48.0</ele><time>2026-04-04T06:56:10.509Z</time></trkpt><trkpt lat="43.5546633" lon="10.513945"><ele>48.0</ele><time>2026-04-04T06:56:11.508Z</time></trkpt><trkpt lat="43.554585" lon="10.5139483"><ele>48.0</ele><time>2026-04-04T06:56:12.509Z</time></trkpt><trkpt lat="43.5545183" lon="10.5139533"><ele>48.0</ele><time>2026-04-04T06:56:13.508Z</time></trkpt><trkpt lat="43.5544533" lon="10.513955"><ele>48.0</ele><time>2026-04-04T06:56:14.508Z</time></trkpt><trkpt lat="43.5543533" lon="10.5139583"><ele>48.0</ele><time>2026-04-04T06:56:16.509Z</time></trkpt><trkpt lat="43.5542633" lon="10.5139967"><ele>48.0</ele><time>2026-04-04T06:56:18.508Z</time></trkpt><trkpt lat="43.5541933" lon="10.5140867"><ele>46.5</ele><time>2026-04-04T06:56:20.509Z</time></trkpt><trkpt lat="43.5541383" lon="10.514165"><ele>45.0</ele><time>2026-04-04T06:56:22.509Z</time></trkpt><trkpt lat="43.55409" lon="10.5142433"><ele>43.5</ele><time>2026-04-04T06:56:24.509Z</time></trkpt><trkpt lat="43.5540433" lon="10.5143067"><ele>42.0</ele><time>2026-04-04T06:56:26.508Z</time></trkpt><trkpt lat="43.5539917" lon="10.5143917"><ele>40.5</ele><time>2026-04-04T06:56:29.508Z</time></trkpt><trkpt lat="43.553935" lon="10.514475"><ele>39.0</ele><time>2026-04-04T06:56:32.509Z</time></trkpt><trkpt lat="43.553875" lon="10.51454"><ele>40.142857142857146</ele><time>2026-04-04T06:56:35.508Z</time></trkpt><trkpt lat="43.553825" lon="10.5146067"><ele>41.285714285714285</ele><time>2026-04-04T06:56:38.509Z</time></trkpt><trkpt lat="43.5537633" lon="10.5146417"><ele>42.42857142857143</ele><time>2026-04-04T06:56:41.509Z</time></trkpt><trkpt lat="43.5536933" lon="10.5146783"><ele>43.57142857142857</ele><time>2026-04-04T06:56:44.509Z</time></trkpt><trkpt lat="43.5536283" lon="10.5147217"><ele>44.71428571428571</ele><time>2026-04-04T06:56:47.509Z</time></trkpt><trkpt lat="43.55357" lon="10.5147683"><ele>45.857142857142854</ele><time>2026-04-04T06:56:51.509Z</time></trkpt><trkpt lat="43.553505" lon="10.5147967"><ele>47.0</ele><time>2026-04-04T06:56:54.508Z</time></trkpt><trkpt lat="43.55343" lon="10.51483"><ele>47.0</ele><time>2026-04-04T06:56:57.509Z</time></trkpt><trkpt lat="43.553365" lon="10.514875"><ele>47.0</ele><time>2026-04-04T06:57:00.508Z</time></trkpt><trkpt lat="43.5532917" lon="10.5149233"><ele>47.0</ele><time>2026-04-04T06:57:04.509Z</time></trkpt><trkpt lat="43.553235" lon="10.5149767"><ele>47.0</ele><time>2026-04-04T06:57:07.509Z</time></trkpt><trkpt lat="43.5531617" lon="10.5150283"><ele>47.0</ele><time>2026-04-04T06:57:11.508Z</time></trkpt><trkpt lat="43.5530717" lon="10.515055"><ele>47.0</ele><time>2026-04-04T06:57:14.509Z</time></trkpt><trkpt lat="43.5529833" lon="10.5151017"><ele>47.0</ele><time>2026-04-04T06:57:16.508Z</time></trkpt><trkpt lat="43.5528917" lon="10.5151783"><ele>47.0</ele><time>2026-04-04T06:57:18.509Z</time></trkpt><trkpt lat="43.5527867" lon="10.5152817"><ele>47.0</ele><time>2026-04-04T06:57:20.508Z</time></trkpt><trkpt lat="43.5527267" lon="10.515355"><ele>47.0</ele><time>2026-04-04T06:57:21.509Z</time></trkpt><trkpt lat="43.55266" lon="10.5154317"><ele>47.0</ele><time>2026-04-04T06:57:22.509Z</time></trkpt><trkpt lat="43.55259" lon="10.51552"><ele>45.666666666666664</ele><time>2026-04-04T06:57:23.509Z</time></trkpt><trkpt lat="43.552525" lon="10.5156083"><ele>44.33333333333333</ele><time>2026-04-04T06:57:24.509Z</time></trkpt><trkpt lat="43.5524567" lon="10.5156917"><ele>43.0</ele><time>2026-04-04T06:57:25.509Z</time></trkpt><trkpt lat="43.552395" lon="10.5157717"><ele>41.666666666666664</ele><time>2026-04-04T06:57:26.508Z</time></trkpt><trkpt lat="43.55233" lon="10.5158467"><ele>40.333333333333336</ele><time>2026-04-04T06:57:27.508Z</time></trkpt><trkpt lat="43.55227" lon="10.5159217"><ele>39.0</ele><time>2026-04-04T06:57:28.508Z</time></trkpt><trkpt lat="43.5522083" lon="10.515995"><ele>39.0</ele><time>2026-04-04T06:57:29.509Z</time></trkpt><trkpt lat="43.5521517" lon="10.516065"><ele>39.0</ele><time>2026-04-04T06:57:30.509Z</time></trkpt><trkpt lat="43.5520983" lon="10.51613"><ele>39.0</ele><time>2026-04-04T06:57:31.508Z</time></trkpt><trkpt lat="43.5520433" lon="10.516195"><ele>39.0</ele><time>2026-04-04T06:57:32.509Z</time></trkpt><trkpt lat="43.5519917" lon="10.5162583"><ele>39.0</ele><time>2026-04-04T06:57:33.509Z</time></trkpt><trkpt lat="43.55194" lon="10.516315"><ele>39.0</ele><time>2026-04-04T06:57:34.509Z</time></trkpt><trkpt lat="43.5518933" lon="10.516375"><ele>39.0</ele><time>2026-04-04T06:57:35.509Z</time></trkpt><trkpt lat="43.5518217" lon="10.5164783"><ele>38.166666666666664</ele><time>2026-04-04T06:57:37.509Z</time></trkpt><trkpt lat="43.5517417" lon="10.5165633"><ele>37.333333333333336</ele><time>2026-04-04T06:57:39.509Z</time></trkpt><trkpt lat="43.5516733" lon="10.5166383"><ele>36.5</ele><time>2026-04-04T06:57:41.508Z</time></trkpt><trkpt lat="43.5516183" lon="10.5167"><ele>35.66666666666667</ele><time>2026-04-04T06:57:43.509Z</time></trkpt><trkpt lat="43.5515683" lon="10.51676"><ele>34.833333333333336</ele><time>2026-04-04T06:57:45.509Z</time></trkpt><trkpt lat="43.5515133" lon="10.5168233"><ele>34.0</ele><time>2026-04-04T06:57:47.509Z</time></trkpt><trkpt lat="43.5514567" lon="10.5168933"><ele>34.0</ele><time>2026-04-04T06:57:49.508Z</time></trkpt><trkpt lat="43.5514" lon="10.5169517"><ele>34.0</ele><time>2026-04-04T06:57:51.509Z</time></trkpt><trkpt lat="43.5513367" lon="10.5170183"><ele>34.0</ele><time>2026-04-04T06:57:53.509Z</time></trkpt><trkpt lat="43.55128" lon="10.5170883"><ele>34.0</ele><time>2026-04-04T06:57:55.508Z</time></trkpt><trkpt lat="43.551225" lon="10.5171483"><ele>34.0</ele><time>2026-04-04T06:57:57.508Z</time></trkpt><trkpt lat="43.5511733" lon="10.517205"><ele>34.0</ele><time>2026-04-04T06:57:59.508Z</time></trkpt><trkpt lat="43.5511067" lon="10.517285"><ele>33.99999999999999</ele><time>2026-04-04T06:58:02.509Z</time></trkpt><trkpt lat="43.5510583" lon="10.5173483"><ele>34.0</ele><time>2026-04-04T06:58:04.509Z</time></trkpt><trkpt lat="43.5510083" lon="10.5174117"><ele>34.0</ele><time>2026-04-04T06:58:06.508Z</time></trkpt><trkpt lat="43.5509567" lon="10.51747"><ele>34.0</ele><time>2026-04-04T06:58:08.508Z</time></trkpt><trkpt lat="43.5509067" lon="10.5175317"><ele>34.0</ele><time>2026-04-04T06:58:10.508Z</time></trkpt><trkpt lat="43.5508333" lon="10.517615"><ele>33.99999999999999</ele><time>2026-04-04T06:58:13.509Z</time></trkpt><trkpt lat="43.550785" lon="10.5176767"><ele>34.0</ele><time>2026-04-04T06:58:15.509Z</time></trkpt><trkpt lat="43.5507367" lon="10.5177383"><ele>34.0</ele><time>2026-04-04T06:58:17.509Z</time></trkpt><trkpt lat="43.5506883" lon="10.5178017"><ele>34.0</ele><time>2026-04-04T06:58:19.508Z</time></trkpt><trkpt lat="43.55062" lon="10.5178767"><ele>34.0</ele><time>2026-04-04T06:58:22.509Z</time></trkpt><trkpt lat="43.5505417" lon="10.5178967"><ele>34.0</ele><time>2026-04-04T06:58:25.508Z</time></trkpt><trkpt lat="43.55046" lon="10.5178633"><ele>34.0</ele><time>2026-04-04T06:58:28.508Z</time></trkpt><trkpt lat="43.550395" lon="10.5178317"><ele>34.0</ele><time>2026-04-04T06:58:31.508Z</time></trkpt><trkpt lat="43.5503283" lon="10.51788"><ele>34.14285714285714</ele><time>2026-04-04T06:58:34.509Z</time></trkpt><trkpt lat="43.5502717" lon="10.517925"><ele>34.285714285714285</ele><time>2026-04-04T06:58:36.508Z</time></trkpt><trkpt lat="43.5502117" lon="10.517965"><ele>34.42857142857143</ele><time>2026-04-04T06:58:38.508Z</time></trkpt><trkpt lat="43.5501533" lon="10.5180267"><ele>34.57142857142857</ele><time>2026-04-04T06:58:40.508Z</time></trkpt><trkpt lat="43.5500983" lon="10.5180833"><ele>34.714285714285715</ele><time>2026-04-04T06:58:42.509Z</time></trkpt><trkpt lat="43.5500483" lon="10.5181417"><ele>34.857142857142854</ele><time>2026-04-04T06:58:44.509Z</time></trkpt><trkpt lat="43.5499933" lon="10.5181983"><ele>35.0</ele><time>2026-04-04T06:58:46.509Z</time></trkpt><trkpt lat="43.549925" lon="10.5182617"><ele>35.0</ele><time>2026-04-04T06:58:48.508Z</time></trkpt><trkpt lat="43.5498583" lon="10.5183367"><ele>35.0</ele><time>2026-04-04T06:58:50.508Z</time></trkpt><trkpt lat="43.549815" lon="10.5184133"><ele>35.0</ele><time>2026-04-04T06:58:52.509Z</time></trkpt><trkpt lat="43.54976" lon="10.518485"><ele>35.0</ele><time>2026-04-04T06:58:54.508Z</time></trkpt><trkpt lat="43.5497033" lon="10.5185583"><ele>35.0</ele><time>2026-04-04T06:58:56.509Z</time></trkpt><trkpt lat="43.54963" lon="10.5186167"><ele>35.0</ele><time>2026-04-04T06:58:58.508Z</time></trkpt><trkpt lat="43.549565" lon="10.518685"><ele>35.33333333333333</ele><time>2026-04-04T06:59:00.508Z</time></trkpt><trkpt lat="43.549515" lon="10.5187617"><ele>35.666666666666664</ele><time>2026-04-04T06:59:02.509Z</time></trkpt><trkpt lat="43.54947" lon="10.5188383"><ele>36.0</ele><time>2026-04-04T06:59:04.509Z</time></trkpt><trkpt lat="43.5494117" lon="10.5189033"><ele>36.333333333333336</ele><time>2026-04-04T06:59:06.509Z</time></trkpt><trkpt lat="43.5493467" lon="10.51897"><ele>36.66666666666667</ele><time>2026-04-04T06:59:08.509Z</time></trkpt><trkpt lat="43.5492617" lon="10.5190683"><ele>37.0</ele><time>2026-04-04T06:59:11.508Z</time></trkpt><trkpt lat="43.5491983" lon="10.5191267"><ele>37.0</ele><time>2026-04-04T06:59:13.508Z</time></trkpt><trkpt lat="43.5491367" lon="10.5191983"><ele>37.0</ele><time>2026-04-04T06:59:15.509Z</time></trkpt><trkpt lat="43.5490783" lon="10.5192733"><ele>37.0</ele><time>2026-04-04T06:59:17.508Z</time></trkpt><trkpt lat="43.549025" lon="10.5193367"><ele>37.0</ele><time>2026-04-04T06:59:19.509Z</time></trkpt><trkpt lat="43.548965" lon="10.5194083"><ele>37.0</ele><time>2026-04-04T06:59:21.508Z</time></trkpt><trkpt lat="43.54892" lon="10.5194767"><ele>37.0</ele><time>2026-04-04T06:59:23.508Z</time></trkpt><trkpt lat="43.5488767" lon="10.5195417"><ele>37.0</ele><time>2026-04-04T06:59:25.509Z</time></trkpt><trkpt lat="43.548805" lon="10.5196117"><ele>37.0</ele><time>2026-04-04T06:59:28.509Z</time></trkpt><trkpt lat="43.5487617" lon="10.5196767"><ele>37.0</ele><time>2026-04-04T06:59:30.508Z</time></trkpt><trkpt lat="43.5487067" lon="10.5197367"><ele>37.0</ele><time>2026-04-04T06:59:32.509Z</time></trkpt><trkpt lat="43.5486433" lon="10.5198033"><ele>37.0</ele><time>2026-04-04T06:59:34.509Z</time></trkpt><trkpt lat="43.5485833" lon="10.5198767"><ele>37.0</ele><time>2026-04-04T06:59:36.509Z</time></trkpt><trkpt lat="43.5485217" lon="10.5199517"><ele>37.0</ele><time>2026-04-04T06:59:38.508Z</time></trkpt><trkpt lat="43.5484633" lon="10.52003"><ele>36.5</ele><time>2026-04-04T06:59:40.509Z</time></trkpt><trkpt lat="43.5484017" lon="10.5200983"><ele>36.0</ele><time>2026-04-04T06:59:42.509Z</time></trkpt><trkpt lat="43.5483367" lon="10.5201717"><ele>35.5</ele><time>2026-04-04T06:59:44.508Z</time></trkpt><trkpt lat="43.5482767" lon="10.5202483"><ele>35.0</ele><time>2026-04-04T06:59:46.509Z</time></trkpt><trkpt lat="43.54822" lon="10.5203067"><ele>34.5</ele><time>2026-04-04T06:59:48.508Z</time></trkpt><trkpt lat="43.5481683" lon="10.5203683"><ele>34.0</ele><time>2026-04-04T06:59:50.509Z</time></trkpt><trkpt lat="43.548115" lon="10.52043"><ele>34.0</ele><time>2026-04-04T06:59:52.508Z</time></trkpt><trkpt lat="43.548055" lon="10.5205"><ele>34.0</ele><time>2026-04-04T06:59:54.508Z</time></trkpt><trkpt lat="43.548" lon="10.5205833"><ele>34.0</ele><time>2026-04-04T06:59:56.509Z</time></trkpt><trkpt lat="43.5479467" lon="10.5206617"><ele>34.0</ele><time>2026-04-04T06:59:58.508Z</time></trkpt><trkpt lat="43.5478917" lon="10.5207317"><ele>34.0</ele><time>2026-04-04T07:00:00.509Z</time></trkpt><trkpt lat="43.5478433" lon="10.52079"><ele>34.0</ele><time>2026-04-04T07:00:02.508Z</time></trkpt><trkpt lat="43.5477833" lon="10.5208533"><ele>34.16666666666667</ele><time>2026-04-04T07:00:04.508Z</time></trkpt><trkpt lat="43.5477133" lon="10.5209217"><ele>34.333333333333336</ele><time>2026-04-04T07:00:06.509Z</time></trkpt><trkpt lat="43.5476483" lon="10.5209917"><ele>34.5</ele><time>2026-04-04T07:00:08.509Z</time></trkpt><trkpt lat="43.5475833" lon="10.521065"><ele>34.666666666666664</ele><time>2026-04-04T07:00:10.508Z</time></trkpt><trkpt lat="43.5475133" lon="10.5211333"><ele>34.83333333333333</ele><time>2026-04-04T07:00:12.509Z</time></trkpt><trkpt lat="43.547445" lon="10.5211833"><ele>35.0</ele><time>2026-04-04T07:00:14.509Z</time></trkpt><trkpt lat="43.54737" lon="10.5212333"><ele>35.0</ele><time>2026-04-04T07:00:16.508Z</time></trkpt><trkpt lat="43.5472933" lon="10.5212833"><ele>35.0</ele><time>2026-04-04T07:00:18.509Z</time></trkpt><trkpt lat="43.5472183" lon="10.5213283"><ele>35.0</ele><time>2026-04-04T07:00:20.509Z</time></trkpt><trkpt lat="43.5471417" lon="10.5213667"><ele>35.0</ele><time>2026-04-04T07:00:22.509Z</time></trkpt><trkpt lat="43.547075" lon="10.5214"><ele>35.0</ele><time>2026-04-04T07:00:24.508Z</time></trkpt><trkpt lat="43.5470017" lon="10.52143"><ele>35.0</ele><time>2026-04-04T07:00:26.508Z</time></trkpt><trkpt lat="43.5469267" lon="10.52146"><ele>35.0</ele><time>2026-04-04T07:00:28.509Z</time></trkpt><trkpt lat="43.546845" lon="10.52149"><ele>35.0</ele><time>2026-04-04T07:00:30.509Z</time></trkpt><trkpt lat="43.5467633" lon="10.5215133"><ele>35.0</ele><time>2026-04-04T07:00:32.509Z</time></trkpt><trkpt lat="43.5466833" lon="10.521555"><ele>35.0</ele><time>2026-04-04T07:00:34.508Z</time></trkpt><trkpt lat="43.546605" lon="10.521585"><ele>35.0</ele><time>2026-04-04T07:00:36.509Z</time></trkpt><trkpt lat="43.546535" lon="10.5216183"><ele>35.0</ele><time>2026-04-04T07:00:38.508Z</time></trkpt><trkpt lat="43.546465" lon="10.5216517"><ele>35.0</ele><time>2026-04-04T07:00:40.509Z</time></trkpt><trkpt lat="43.546385" lon="10.5216867"><ele>35.0</ele><time>2026-04-04T07:00:42.509Z</time></trkpt><trkpt lat="43.5463017" lon="10.5217167"><ele>35.0</ele><time>2026-04-04T07:00:44.509Z</time></trkpt><trkpt lat="43.5462183" lon="10.521745"><ele>35.0</ele><time>2026-04-04T07:00:46.509Z</time></trkpt><trkpt lat="43.5461517" lon="10.521775"><ele>35.0</ele><time>2026-04-04T07:00:48.508Z</time></trkpt><trkpt lat="43.5460717" lon="10.521805"><ele>35.0</ele><time>2026-04-04T07:00:50.508Z</time></trkpt><trkpt lat="43.5459917" lon="10.52184"><ele>35.33333333333333</ele><time>2026-04-04T07:00:52.509Z</time></trkpt><trkpt lat="43.545915" lon="10.5218733"><ele>35.666666666666664</ele><time>2026-04-04T07:00:54.509Z</time></trkpt><trkpt lat="43.545845" lon="10.5218983"><ele>36.0</ele><time>2026-04-04T07:00:56.509Z</time></trkpt><trkpt lat="43.5457617" lon="10.5219317"><ele>36.333333333333336</ele><time>2026-04-04T07:00:58.509Z</time></trkpt><trkpt lat="43.5456833" lon="10.5219567"><ele>36.66666666666667</ele><time>2026-04-04T07:01:00.508Z</time></trkpt><trkpt lat="43.5456017" lon="10.5219917"><ele>37.0</ele><time>2026-04-04T07:01:02.509Z</time></trkpt><trkpt lat="43.545515" lon="10.5220267"><ele>37.0</ele><time>2026-04-04T07:01:04.509Z</time></trkpt><trkpt lat="43.5454383" lon="10.52206"><ele>37.0</ele><time>2026-04-04T07:01:06.508Z</time></trkpt><trkpt lat="43.54536" lon="10.5220967"><ele>37.0</ele><time>2026-04-04T07:01:08.509Z</time></trkpt><trkpt lat="43.545285" lon="10.5221267"><ele>37.0</ele><time>2026-04-04T07:01:10.508Z</time></trkpt><trkpt lat="43.5452067" lon="10.5221517"><ele>37.0</ele><time>2026-04-04T07:01:12.508Z</time></trkpt><trkpt lat="43.54513" lon="10.5221817"><ele>37.0</ele><time>2026-04-04T07:01:14.508Z</time></trkpt><trkpt lat="43.5450533" lon="10.5222083"><ele>36.833333333333336</ele><time>2026-04-04T07:01:16.509Z</time></trkpt><trkpt lat="43.5449733" lon="10.52222"><ele>36.66666666666667</ele><time>2026-04-04T07:01:18.509Z</time></trkpt><trkpt lat="43.5449017" lon="10.5221817"><ele>36.5</ele><time>2026-04-04T07:01:20.509Z</time></trkpt><trkpt lat="43.54486" lon="10.522105"><ele>36.333333333333336</ele><time>2026-04-04T07:01:22.509Z</time></trkpt><trkpt lat="43.5448917" lon="10.521985"><ele>36.166666666666664</ele><time>2026-04-04T07:01:25.508Z</time></trkpt><trkpt lat="43.54494" lon="10.5219183"><ele>36.0</ele><time>2026-04-04T07:01:27.508Z</time></trkpt><trkpt lat="43.5449867" lon="10.5218517"><ele>36.00000000000001</ele><time>2026-04-04T07:01:29.508Z</time></trkpt><trkpt lat="43.5450417" lon="10.52178"><ele>36.0</ele><time>2026-04-04T07:01:31.509Z</time></trkpt><trkpt lat="43.5450967" lon="10.5217167"><ele>36.0</ele><time>2026-04-04T07:01:33.509Z</time></trkpt><trkpt lat="43.5451483" lon="10.5216517"><ele>36.0</ele><time>2026-04-04T07:01:35.509Z</time></trkpt><trkpt lat="43.5451983" lon="10.52158"><ele>36.0</ele><time>2026-04-04T07:01:37.508Z</time></trkpt><trkpt lat="43.5452483" lon="10.521505"><ele>36.00000000000001</ele><time>2026-04-04T07:01:39.509Z</time></trkpt><trkpt lat="43.545295" lon="10.5214283"><ele>36.0</ele><time>2026-04-04T07:01:41.509Z</time></trkpt><trkpt lat="43.5453283" lon="10.5213483"><ele>36.0</ele><time>2026-04-04T07:01:43.508Z</time></trkpt><trkpt lat="43.545345" lon="10.5212417"><ele>36.0</ele><time>2026-04-04T07:01:45.508Z</time></trkpt><trkpt lat="43.5453417" lon="10.521115"><ele>36.0</ele><time>2026-04-04T07:01:48.509Z</time></trkpt><trkpt lat="43.5453217" lon="10.52098"><ele>36.0</ele><time>2026-04-04T07:01:51.508Z</time></trkpt><trkpt lat="43.54531" lon="10.5208783"><ele>36.0</ele><time>2026-04-04T07:01:53.508Z</time></trkpt><trkpt lat="43.5452933" lon="10.52077"><ele>36.0</ele><time>2026-04-04T07:01:55.509Z</time></trkpt><trkpt lat="43.5452867" lon="10.5206717"><ele>36.0</ele><time>2026-04-04T07:01:57.509Z</time></trkpt><trkpt lat="43.5452783" lon="10.5205767"><ele>36.0</ele><time>2026-04-04T07:01:59.509Z</time></trkpt><trkpt lat="43.54519" lon="10.5205667"><ele>36.0</ele><time>2026-04-04T07:02:02.509Z</time></trkpt><trkpt lat="43.545165" lon="10.52067"><ele>36.0</ele><time>2026-04-04T07:02:04.508Z</time></trkpt><trkpt lat="43.545165" lon="10.5207967"><ele>36.0</ele><time>2026-04-04T07:02:06.509Z</time></trkpt><trkpt lat="43.5451567" lon="10.52093"><ele>36.0</ele><time>2026-04-04T07:02:08.508Z</time></trkpt><trkpt lat="43.5451133" lon="10.5210383"><ele>36.0</ele><time>2026-04-04T07:02:10.509Z</time></trkpt><trkpt lat="43.545065" lon="10.5211333"><ele>36.0</ele><time>2026-04-04T07:02:12.509Z</time></trkpt><trkpt lat="43.5449967" lon="10.52122"><ele>36.0</ele><time>2026-04-04T07:02:14.509Z</time></trkpt><trkpt lat="43.54492" lon="10.5212983"><ele>36.0</ele><time>2026-04-04T07:02:16.509Z</time></trkpt><trkpt lat="43.5448383" lon="10.521375"><ele>36.0</ele><time>2026-04-04T07:02:18.508Z</time></trkpt><trkpt lat="43.5447667" lon="10.521445"><ele>36.0</ele><time>2026-04-04T07:02:20.508Z</time></trkpt><trkpt lat="43.544695" lon="10.5215217"><ele>36.0</ele><time>2026-04-04T07:02:22.509Z</time></trkpt><trkpt lat="43.5446317" lon="10.5215883"><ele>36.0</ele><time>2026-04-04T07:02:24.509Z</time></trkpt><trkpt lat="43.5445783" lon="10.5216583"><ele>36.0</ele><time>2026-04-04T07:02:26.508Z</time></trkpt><trkpt lat="43.544535" lon="10.5217217"><ele>36.0</ele><time>2026-04-04T07:02:28.509Z</time></trkpt><trkpt lat="43.544455" lon="10.521815"><ele>36.0</ele><time>2026-04-04T07:02:31.508Z</time></trkpt><trkpt lat="43.54439" lon="10.521875"><ele>35.85714285714286</ele><time>2026-04-04T07:02:33.509Z</time></trkpt><trkpt lat="43.544335" lon="10.5219333"><ele>35.714285714285715</ele><time>2026-04-04T07:02:35.509Z</time></trkpt><trkpt lat="43.5442833" lon="10.5219833"><ele>35.57142857142857</ele><time>2026-04-04T07:02:37.508Z</time></trkpt><trkpt lat="43.5442283" lon="10.5220267"><ele>35.42857142857143</ele><time>2026-04-04T07:02:39.508Z</time></trkpt><trkpt lat="43.54417" lon="10.5220733"><ele>35.285714285714285</ele><time>2026-04-04T07:02:41.509Z</time></trkpt><trkpt lat="43.5441067" lon="10.5221267"><ele>35.142857142857146</ele><time>2026-04-04T07:02:43.508Z</time></trkpt><trkpt lat="43.544015" lon="10.522165"><ele>35.0</ele><time>2026-04-04T07:02:45.508Z</time></trkpt><trkpt lat="43.5439317" lon="10.522215"><ele>35.0</ele><time>2026-04-04T07:02:47.509Z</time></trkpt><trkpt lat="43.5438367" lon="10.5222783"><ele>35.0</ele><time>2026-04-04T07:02:49.508Z</time></trkpt><trkpt lat="43.54375" lon="10.5223383"><ele>35.0</ele><time>2026-04-04T07:02:51.509Z</time></trkpt><trkpt lat="43.54367" lon="10.522395"><ele>35.0</ele><time>2026-04-04T07:02:53.509Z</time></trkpt><trkpt lat="43.54359" lon="10.5224617"><ele>35.0</ele><time>2026-04-04T07:02:55.509Z</time></trkpt><trkpt lat="43.54352" lon="10.522525"><ele>35.166666666666664</ele><time>2026-04-04T07:02:57.509Z</time></trkpt><trkpt lat="43.5434533" lon="10.52258"><ele>35.33333333333333</ele><time>2026-04-04T07:02:59.508Z</time></trkpt><trkpt lat="43.5433883" lon="10.5226217"><ele>35.5</ele><time>2026-04-04T07:03:01.509Z</time></trkpt><trkpt lat="43.5433017" lon="10.52261"><ele>35.666666666666664</ele><time>2026-04-04T07:03:04.509Z</time></trkpt><trkpt lat="43.5432467" lon="10.5225583"><ele>35.833333333333336</ele><time>2026-04-04T07:03:06.509Z</time></trkpt><trkpt lat="43.543185" lon="10.5224617"><ele>36.0</ele><time>2026-04-04T07:03:09.509Z</time></trkpt><trkpt lat="43.5431433" lon="10.5223867"><ele>36.00000000000001</ele><time>2026-04-04T07:03:11.509Z</time></trkpt><trkpt lat="43.5431133" lon="10.5223067"><ele>36.0</ele><time>2026-04-04T07:03:13.509Z</time></trkpt><trkpt lat="43.54308" lon="10.5222283"><ele>36.0</ele><time>2026-04-04T07:03:15.508Z</time></trkpt><trkpt lat="43.5430517" lon="10.52215"><ele>36.0</ele><time>2026-04-04T07:03:17.509Z</time></trkpt><trkpt lat="43.5430133" lon="10.5220317"><ele>36.0</ele><time>2026-04-04T07:03:20.509Z</time></trkpt><trkpt lat="43.5429767" lon="10.5219183"><ele>36.00000000000001</ele><time>2026-04-04T07:03:23.509Z</time></trkpt><trkpt lat="43.5429633" lon="10.5218333"><ele>36.0</ele><time>2026-04-04T07:03:25.508Z</time></trkpt><trkpt lat="43.5429383" lon="10.5217133"><ele>36.142857142857146</ele><time>2026-04-04T07:03:28.509Z</time></trkpt><trkpt lat="43.5429133" lon="10.52163"><ele>36.285714285714285</ele><time>2026-04-04T07:03:30.509Z</time></trkpt><trkpt lat="43.5428867" lon="10.52155"><ele>36.42857142857143</ele><time>2026-04-04T07:03:32.508Z</time></trkpt><trkpt lat="43.5428517" lon="10.5214383"><ele>36.57142857142857</ele><time>2026-04-04T07:03:35.508Z</time></trkpt><trkpt lat="43.54279" lon="10.5213917"><ele>36.714285714285715</ele><time>2026-04-04T07:03:38.509Z</time></trkpt><trkpt lat="43.5427317" lon="10.521425"><ele>36.85714285714286</ele><time>2026-04-04T07:03:40.509Z</time></trkpt><trkpt lat="43.5426617" lon="10.521465"><ele>37.0</ele><time>2026-04-04T07:03:42.509Z</time></trkpt><trkpt lat="43.5425867" lon="10.5215133"><ele>37.285714285714285</ele><time>2026-04-04T07:03:44.509Z</time></trkpt><trkpt lat="43.5425167" lon="10.5215667"><ele>37.57142857142857</ele><time>2026-04-04T07:03:46.509Z</time></trkpt><trkpt lat="43.5424483" lon="10.521615"><ele>37.85714285714286</ele><time>2026-04-04T07:03:48.508Z</time></trkpt><trkpt lat="43.5423833" lon="10.521665"><ele>38.14285714285714</ele><time>2026-04-04T07:03:50.508Z</time></trkpt><trkpt lat="43.54232" lon="10.5217167"><ele>38.42857142857142</ele><time>2026-04-04T07:03:52.509Z</time></trkpt><trkpt lat="43.5422583" lon="10.5217717"><ele>38.714285714285715</ele><time>2026-04-04T07:03:54.509Z</time></trkpt><trkpt lat="43.542205" lon="10.52182"><ele>39.0</ele><time>2026-04-04T07:03:56.508Z</time></trkpt><trkpt lat="43.5421583" lon="10.52188"><ele>39.0</ele><time>2026-04-04T07:03:58.508Z</time></trkpt><trkpt lat="43.5420967" lon="10.5219567"><ele>39.0</ele><time>2026-04-04T07:04:01.508Z</time></trkpt><trkpt lat="43.54205" lon="10.5220217"><ele>39.0</ele><time>2026-04-04T07:04:04.509Z</time></trkpt><trkpt lat="43.5419933" lon="10.5220617"><ele>39.0</ele><time>2026-04-04T07:04:07.509Z</time></trkpt><trkpt lat="43.541935" lon="10.5221183"><ele>39.0</ele><time>2026-04-04T07:04:11.509Z</time></trkpt><trkpt lat="43.5418617" lon="10.5221533"><ele>39.0</ele><time>2026-04-04T07:04:14.509Z</time></trkpt><trkpt lat="43.54179" lon="10.5221783"><ele>39.0</ele><time>2026-04-04T07:04:17.509Z</time></trkpt><trkpt lat="43.54171" lon="10.522185"><ele>39.666666666666664</ele><time>2026-04-04T07:04:20.508Z</time></trkpt><trkpt lat="43.5416467" lon="10.5221983"><ele>40.333333333333336</ele><time>2026-04-04T07:04:22.509Z</time></trkpt><trkpt lat="43.54156" lon="10.52224"><ele>41.0</ele><time>2026-04-04T07:04:25.508Z</time></trkpt><trkpt lat="43.541485" lon="10.5223067"><ele>41.66666666666667</ele><time>2026-04-04T07:04:28.508Z</time></trkpt><trkpt lat="43.541425" lon="10.522405"><ele>42.333333333333336</ele><time>2026-04-04T07:04:31.509Z</time></trkpt><trkpt lat="43.5413883" lon="10.52251"><ele>43.0</ele><time>2026-04-04T07:04:34.508Z</time></trkpt><trkpt lat="43.5413567" lon="10.5226267"><ele>43.0</ele><time>2026-04-04T07:04:37.509Z</time></trkpt><trkpt lat="43.5413183" lon="10.5227417"><ele>43.0</ele><time>2026-04-04T07:04:40.508Z</time></trkpt><trkpt lat="43.541285" lon="10.5228167"><ele>43.0</ele><time>2026-04-04T07:04:42.508Z</time></trkpt><trkpt lat="43.5412483" lon="10.5228983"><ele>43.0</ele><time>2026-04-04T07:04:44.509Z</time></trkpt><trkpt lat="43.5412017" lon="10.52297"><ele>43.0</ele><time>2026-04-04T07:04:46.509Z</time></trkpt><trkpt lat="43.5411333" lon="10.5230017"><ele>43.0</ele><time>2026-04-04T07:04:48.509Z</time></trkpt><trkpt lat="43.5410483" lon="10.5230067"><ele>42.333333333333336</ele><time>2026-04-04T07:04:50.509Z</time></trkpt><trkpt lat="43.54097" lon="10.523005"><ele>41.66666666666667</ele><time>2026-04-04T07:04:52.509Z</time></trkpt><trkpt lat="43.540885" lon="10.523"><ele>41.0</ele><time>2026-04-04T07:04:55.508Z</time></trkpt><trkpt lat="43.5407933" lon="10.5229833"><ele>40.333333333333336</ele><time>2026-04-04T07:04:58.509Z</time></trkpt><trkpt lat="43.54073" lon="10.5229667"><ele>39.666666666666664</ele><time>2026-04-04T07:05:00.508Z</time></trkpt><trkpt lat="43.54064" lon="10.52292"><ele>39.0</ele><time>2026-04-04T07:05:03.508Z</time></trkpt><trkpt lat="43.5405533" lon="10.52288"><ele>41.833333333333336</ele><time>2026-04-04T07:05:06.509Z</time></trkpt><trkpt lat="43.5404967" lon="10.5228417"><ele>44.66666666666667</ele><time>2026-04-04T07:05:08.509Z</time></trkpt><trkpt lat="43.54044" lon="10.5228033"><ele>47.5</ele><time>2026-04-04T07:05:10.508Z</time></trkpt><trkpt lat="43.540375" lon="10.52278"><ele>50.333333333333336</ele><time>2026-04-04T07:05:12.508Z</time></trkpt><trkpt lat="43.54029" lon="10.522765"><ele>53.16666666666667</ele><time>2026-04-04T07:05:15.508Z</time></trkpt><trkpt lat="43.540205" lon="10.52277"><ele>56.0</ele><time>2026-04-04T07:05:18.509Z</time></trkpt><trkpt lat="43.5401133" lon="10.52276"><ele>56.0</ele><time>2026-04-04T07:05:21.509Z</time></trkpt><trkpt lat="43.5400467" lon="10.52275"><ele>56.0</ele><time>2026-04-04T07:05:23.509Z</time></trkpt><trkpt lat="43.5399833" lon="10.52273"><ele>56.0</ele><time>2026-04-04T07:05:25.509Z</time></trkpt><trkpt lat="43.5398917" lon="10.5227067"><ele>56.0</ele><time>2026-04-04T07:05:28.509Z</time></trkpt><trkpt lat="43.539825" lon="10.5226917"><ele>56.0</ele><time>2026-04-04T07:05:30.508Z</time></trkpt><trkpt lat="43.53976" lon="10.5226817"><ele>56.0</ele><time>2026-04-04T07:05:32.509Z</time></trkpt><trkpt lat="43.5396833" lon="10.5227183"><ele>56.0</ele><time>2026-04-04T07:05:35.509Z</time></trkpt><trkpt lat="43.539635" lon="10.5227817"><ele>56.00000000000001</ele><time>2026-04-04T07:05:38.508Z</time></trkpt><trkpt lat="43.5395983" lon="10.5228533"><ele>56.0</ele><time>2026-04-04T07:05:41.509Z</time></trkpt><trkpt lat="43.5395267" lon="10.52291"><ele>56.0</ele><time>2026-04-04T07:05:44.508Z</time></trkpt><trkpt lat="43.5394383" lon="10.52294"><ele>56.0</ele><time>2026-04-04T07:05:47.509Z</time></trkpt><trkpt lat="43.5393383" lon="10.5229317"><ele>56.00000000000001</ele><time>2026-04-04T07:05:50.509Z</time></trkpt><trkpt lat="43.5392683" lon="10.5228583"><ele>56.0</ele><time>2026-04-04T07:05:53.508Z</time></trkpt><trkpt lat="43.539215" lon="10.52277"><ele>55.142857142857146</ele><time>2026-04-04T07:05:56.509Z</time></trkpt><trkpt lat="43.5391783" lon="10.52268"><ele>54.285714285714285</ele><time>2026-04-04T07:05:59.508Z</time></trkpt><trkpt lat="43.53914" lon="10.5225967"><ele>53.42857142857143</ele><time>2026-04-04T07:06:02.509Z</time></trkpt><trkpt lat="43.5390933" lon="10.5225183"><ele>52.57142857142857</ele><time>2026-04-04T07:06:05.508Z</time></trkpt><trkpt lat="43.53905" lon="10.5224467"><ele>51.714285714285715</ele><time>2026-04-04T07:06:08.508Z</time></trkpt><trkpt lat="43.538995" lon="10.5223883"><ele>50.85714285714286</ele><time>2026-04-04T07:06:11.508Z</time></trkpt><trkpt lat="43.5389083" lon="10.5223683"><ele>50.0</ele><time>2026-04-04T07:06:14.509Z</time></trkpt><trkpt lat="43.5388467" lon="10.5224067"><ele>50.00000000000001</ele><time>2026-04-04T07:06:17.508Z</time></trkpt><trkpt lat="43.53881" lon="10.5224817"><ele>50.0</ele><time>2026-04-04T07:06:20.509Z</time></trkpt><trkpt lat="43.5387517" lon="10.5225833"><ele>50.0</ele><time>2026-04-04T07:06:23.509Z</time></trkpt><trkpt lat="43.5386917" lon="10.5226517"><ele>50.0</ele><time>2026-04-04T07:06:25.509Z</time></trkpt><trkpt lat="43.53861" lon="10.5227067"><ele>50.00000000000001</ele><time>2026-04-04T07:06:27.508Z</time></trkpt><trkpt lat="43.538505" lon="10.5227717"><ele>50.0</ele><time>2026-04-04T07:06:29.508Z</time></trkpt><trkpt lat="43.5384017" lon="10.522815"><ele>50.00000000000001</ele><time>2026-04-04T07:06:31.508Z</time></trkpt><trkpt lat="43.538295" lon="10.5228383"><ele>50.0</ele><time>2026-04-04T07:06:33.509Z</time></trkpt><trkpt lat="43.5382033" lon="10.5228467"><ele>50.0</ele><time>2026-04-04T07:06:35.508Z</time></trkpt><trkpt lat="43.5381167" lon="10.5228567"><ele>50.0</ele><time>2026-04-04T07:06:37.509Z</time></trkpt><trkpt lat="43.5380433" lon="10.5228733"><ele>50.00000000000001</ele><time>2026-04-04T07:06:39.508Z</time></trkpt><trkpt lat="43.5379667" lon="10.5229"><ele>50.0</ele><time>2026-04-04T07:06:41.508Z</time></trkpt><trkpt lat="43.5378967" lon="10.5229167"><ele>48.50000000000001</ele><time>2026-04-04T07:06:43.508Z</time></trkpt><trkpt lat="43.53781" lon="10.5229317"><ele>47.0</ele><time>2026-04-04T07:06:46.509Z</time></trkpt><trkpt lat="43.53772" lon="10.52294"><ele>45.5</ele><time>2026-04-04T07:06:49.509Z</time></trkpt><trkpt lat="43.5376433" lon="10.5229433"><ele>44.0</ele><time>2026-04-04T07:06:51.508Z</time></trkpt><trkpt lat="43.53757" lon="10.5229383"><ele>42.5</ele><time>2026-04-04T07:06:53.509Z</time></trkpt><trkpt lat="43.5375017" lon="10.5229333"><ele>41.0</ele><time>2026-04-04T07:06:55.509Z</time></trkpt><trkpt lat="43.5374283" lon="10.5229533"><ele>41.0</ele><time>2026-04-04T07:06:58.508Z</time></trkpt><trkpt lat="43.5373383" lon="10.5229583"><ele>41.0</ele><time>2026-04-04T07:07:01.509Z</time></trkpt><trkpt lat="43.5372683" lon="10.52297"><ele>41.0</ele><time>2026-04-04T07:07:03.509Z</time></trkpt><trkpt lat="43.5372033" lon="10.5229783"><ele>41.0</ele><time>2026-04-04T07:07:05.508Z</time></trkpt><trkpt lat="43.5371083" lon="10.522995"><ele>41.0</ele><time>2026-04-04T07:07:08.509Z</time></trkpt><trkpt lat="43.5370383" lon="10.5230067"><ele>41.0</ele><time>2026-04-04T07:07:10.508Z</time></trkpt><trkpt lat="43.5369483" lon="10.5230217"><ele>41.14285714285714</ele><time>2026-04-04T07:07:13.508Z</time></trkpt><trkpt lat="43.5368567" lon="10.5230317"><ele>41.285714285714285</ele><time>2026-04-04T07:07:16.508Z</time></trkpt><trkpt lat="43.536785" lon="10.5230333"><ele>41.42857142857143</ele><time>2026-04-04T07:07:18.509Z</time></trkpt><trkpt lat="43.536715" lon="10.5230283"><ele>41.57142857142857</ele><time>2026-04-04T07:07:20.509Z</time></trkpt><trkpt lat="43.536645" lon="10.52302"><ele>41.714285714285715</ele><time>2026-04-04T07:07:22.509Z</time></trkpt><trkpt lat="43.536575" lon="10.52301"><ele>41.857142857142854</ele><time>2026-04-04T07:07:24.508Z</time></trkpt><trkpt lat="43.53651" lon="10.5229817"><ele>42.0</ele><time>2026-04-04T07:07:26.509Z</time></trkpt><trkpt lat="43.536445" lon="10.5229517"><ele>42.0</ele><time>2026-04-04T07:07:28.509Z</time></trkpt><trkpt lat="43.53638" lon="10.522915"><ele>42.0</ele><time>2026-04-04T07:07:30.509Z</time></trkpt><trkpt lat="43.5363167" lon="10.52288"><ele>42.0</ele><time>2026-04-04T07:07:32.508Z</time></trkpt><trkpt lat="43.5362267" lon="10.522825"><ele>42.0</ele><time>2026-04-04T07:07:35.508Z</time></trkpt><trkpt lat="43.5361667" lon="10.52279"><ele>42.0</ele><time>2026-04-04T07:07:37.509Z</time></trkpt><trkpt lat="43.5361" lon="10.5227567"><ele>42.0</ele><time>2026-04-04T07:07:39.509Z</time></trkpt><trkpt lat="43.53604" lon="10.5227283"><ele>42.0</ele><time>2026-04-04T07:07:41.508Z</time></trkpt><trkpt lat="43.5359783" lon="10.5226983"><ele>43.666666666666664</ele><time>2026-04-04T07:07:43.509Z</time></trkpt><trkpt lat="43.5358917" lon="10.52267"><ele>45.33333333333333</ele><time>2026-04-04T07:07:46.509Z</time></trkpt><trkpt lat="43.5358067" lon="10.5226467"><ele>47.0</ele><time>2026-04-04T07:07:49.508Z</time></trkpt><trkpt lat="43.53573" lon="10.5226417"><ele>48.666666666666664</ele><time>2026-04-04T07:07:52.509Z</time></trkpt><trkpt lat="43.5356633" lon="10.522665"><ele>50.33333333333333</ele><time>2026-04-04T07:07:55.509Z</time></trkpt><trkpt lat="43.5355667" lon="10.52269"><ele>52.0</ele><time>2026-04-04T07:07:58.508Z</time></trkpt><trkpt lat="43.5355" lon="10.5226967"><ele>51.99999999999999</ele><time>2026-04-04T07:08:00.509Z</time></trkpt><trkpt lat="43.53541" lon="10.5227017"><ele>52.0</ele><time>2026-04-04T07:08:03.509Z</time></trkpt><trkpt lat="43.5353417" lon="10.522715"><ele>52.0</ele><time>2026-04-04T07:08:05.508Z</time></trkpt><trkpt lat="43.5352767" lon="10.5227483"><ele>52.0</ele><time>2026-04-04T07:08:07.508Z</time></trkpt><trkpt lat="43.5352" lon="10.522795"><ele>51.99999999999999</ele><time>2026-04-04T07:08:10.508Z</time></trkpt><trkpt lat="43.535135" lon="10.5228367"><ele>52.0</ele><time>2026-04-04T07:08:13.508Z</time></trkpt><trkpt lat="43.5350517" lon="10.5228717"><ele>51.99999999999999</ele><time>2026-04-04T07:08:16.509Z</time></trkpt><trkpt lat="43.534965" lon="10.5229083"><ele>52.0</ele><time>2026-04-04T07:08:19.508Z</time></trkpt><trkpt lat="43.5348783" lon="10.5229217"><ele>52.0</ele><time>2026-04-04T07:08:22.509Z</time></trkpt><trkpt lat="43.5347933" lon="10.5229083"><ele>52.0</ele><time>2026-04-04T07:08:25.508Z</time></trkpt><trkpt lat="43.5347233" lon="10.52287"><ele>51.99999999999999</ele><time>2026-04-04T07:08:28.508Z</time></trkpt><trkpt lat="43.534655" lon="10.52282"><ele>52.0</ele><time>2026-04-04T07:08:32.508Z</time></trkpt><trkpt lat="43.534595" lon="10.52277"><ele>52.166666666666664</ele><time>2026-04-04T07:08:37.509Z</time></trkpt><trkpt lat="43.5345383" lon="10.5227"><ele>52.33333333333333</ele><time>2026-04-04T07:08:41.508Z</time></trkpt><trkpt lat="43.534465" lon="10.5227117"><ele>52.5</ele><time>2026-04-04T07:08:44.508Z</time></trkpt><trkpt lat="43.5343917" lon="10.5227483"><ele>52.66666666666667</ele><time>2026-04-04T07:08:46.509Z</time></trkpt><trkpt lat="43.5343017" lon="10.5227833"><ele>52.833333333333336</ele><time>2026-04-04T07:08:48.508Z</time></trkpt><trkpt lat="43.5341967" lon="10.5228183"><ele>53.0</ele><time>2026-04-04T07:08:50.508Z</time></trkpt><trkpt lat="43.5341367" lon="10.522845"><ele>53.0</ele><time>2026-04-04T07:08:51.509Z</time></trkpt><trkpt lat="43.5340767" lon="10.5228783"><ele>53.0</ele><time>2026-04-04T07:08:52.509Z</time></trkpt><trkpt lat="43.533985" lon="10.52295"><ele>53.0</ele><time>2026-04-04T07:08:54.508Z</time></trkpt><trkpt lat="43.5339317" lon="10.5230467"><ele>53.0</ele><time>2026-04-04T07:08:56.509Z</time></trkpt><trkpt lat="43.5339017" lon="10.52318"><ele>53.0</ele><time>2026-04-04T07:08:58.508Z</time></trkpt><trkpt lat="43.5338983" lon="10.523305"><ele>51.833333333333336</ele><time>2026-04-04T07:09:00.508Z</time></trkpt><trkpt lat="43.5338883" lon="10.5234217"><ele>50.66666666666667</ele><time>2026-04-04T07:09:02.509Z</time></trkpt><trkpt lat="43.53388" lon="10.52353"><ele>49.5</ele><time>2026-04-04T07:09:04.508Z</time></trkpt><trkpt lat="43.5338317" lon="10.5236633"><ele>48.333333333333336</ele><time>2026-04-04T07:09:06.508Z</time></trkpt><trkpt lat="43.5337967" lon="10.5237433"><ele>47.16666666666667</ele><time>2026-04-04T07:09:07.508Z</time></trkpt><trkpt lat="43.533795" lon="10.5238767"><ele>46.0</ele><time>2026-04-04T07:09:09.509Z</time></trkpt><trkpt lat="43.533825" lon="10.5239983"><ele>45.42857142857143</ele><time>2026-04-04T07:09:11.509Z</time></trkpt><trkpt lat="43.5338567" lon="10.5241083"><ele>44.857142857142854</ele><time>2026-04-04T07:09:13.508Z</time></trkpt><trkpt lat="43.5338783" lon="10.5241983"><ele>44.285714285714285</ele><time>2026-04-04T07:09:15.508Z</time></trkpt><trkpt lat="43.53388" lon="10.52411"><ele>43.714285714285715</ele><time>2026-04-04T07:09:24.509Z</time></trkpt><trkpt lat="43.5338633" lon="10.524025"><ele>43.14285714285714</ele><time>2026-04-04T07:09:27.508Z</time></trkpt><trkpt lat="43.5338267" lon="10.523925"><ele>42.57142857142857</ele><time>2026-04-04T07:09:30.509Z</time></trkpt><trkpt lat="43.53376" lon="10.5238617"><ele>42.0</ele><time>2026-04-04T07:09:33.509Z</time></trkpt><trkpt lat="43.5336833" lon="10.5238333"><ele>42.0</ele><time>2026-04-04T07:09:36.509Z</time></trkpt><trkpt lat="43.5335983" lon="10.5238317"><ele>42.0</ele><time>2026-04-04T07:09:39.509Z</time></trkpt><trkpt lat="43.53351" lon="10.5238333"><ele>42.0</ele><time>2026-04-04T07:09:42.508Z</time></trkpt><trkpt lat="43.5334467" lon="10.5238317"><ele>42.0</ele><time>2026-04-04T07:09:44.509Z</time></trkpt><trkpt lat="43.53338" lon="10.5238333"><ele>42.0</ele><time>2026-04-04T07:09:46.509Z</time></trkpt><trkpt lat="43.53331" lon="10.5238383"><ele>42.0</ele><time>2026-04-04T07:09:48.509Z</time></trkpt><trkpt lat="43.5332417" lon="10.5238383"><ele>42.0</ele><time>2026-04-04T07:09:50.509Z</time></trkpt><trkpt lat="43.5331733" lon="10.5238417"><ele>42.0</ele><time>2026-04-04T07:09:52.509Z</time></trkpt><trkpt lat="43.5331033" lon="10.5238467"><ele>42.0</ele><time>2026-04-04T07:09:54.508Z</time></trkpt><trkpt lat="43.5330333" lon="10.5238483"><ele>42.0</ele><time>2026-04-04T07:09:56.509Z</time></trkpt><trkpt lat="43.53296" lon="10.523845"><ele>42.0</ele><time>2026-04-04T07:09:58.508Z</time></trkpt><trkpt lat="43.5328867" lon="10.5238433"><ele>42.0</ele><time>2026-04-04T07:10:00.509Z</time></trkpt><trkpt lat="43.5328117" lon="10.5238483"><ele>42.0</ele><time>2026-04-04T07:10:02.509Z</time></trkpt><trkpt lat="43.5327433" lon="10.5238517"><ele>42.0</ele><time>2026-04-04T07:10:04.509Z</time></trkpt><trkpt lat="43.5326767" lon="10.5238567"><ele>41.857142857142854</ele><time>2026-04-04T07:10:06.509Z</time></trkpt><trkpt lat="43.532605" lon="10.5238533"><ele>41.714285714285715</ele><time>2026-04-04T07:10:08.508Z</time></trkpt><trkpt lat="43.5325333" lon="10.5238467"><ele>41.57142857142857</ele><time>2026-04-04T07:10:10.508Z</time></trkpt><trkpt lat="43.5324667" lon="10.5238367"><ele>41.42857142857143</ele><time>2026-04-04T07:10:12.509Z</time></trkpt><trkpt lat="43.5323983" lon="10.5238217"><ele>41.285714285714285</ele><time>2026-04-04T07:10:14.509Z</time></trkpt><trkpt lat="43.53233" lon="10.52381"><ele>41.14285714285714</ele><time>2026-04-04T07:10:16.508Z</time></trkpt><trkpt lat="43.5322583" lon="10.5238017"><ele>41.0</ele><time>2026-04-04T07:10:18.508Z</time></trkpt><trkpt lat="43.53219" lon="10.52379"><ele>40.99999999999999</ele><time>2026-04-04T07:10:20.508Z</time></trkpt><trkpt lat="43.5321183" lon="10.5237767"><ele>41.0</ele><time>2026-04-04T07:10:22.508Z</time></trkpt><trkpt lat="43.532045" lon="10.5237717"><ele>41.0</ele><time>2026-04-04T07:10:24.509Z</time></trkpt><trkpt lat="43.5319733" lon="10.5237667"><ele>41.0</ele><time>2026-04-04T07:10:26.509Z</time></trkpt><trkpt lat="43.5319033" lon="10.52376"><ele>41.0</ele><time>2026-04-04T07:10:28.508Z</time></trkpt><trkpt lat="43.5318267" lon="10.523745"><ele>40.99999999999999</ele><time>2026-04-04T07:10:30.509Z</time></trkpt><trkpt lat="43.53175" lon="10.5237183"><ele>41.0</ele><time>2026-04-04T07:10:32.509Z</time></trkpt><trkpt lat="43.531675" lon="10.5236917"><ele>42.666666666666664</ele><time>2026-04-04T07:10:34.508Z</time></trkpt><trkpt lat="43.5316" lon="10.5236483"><ele>44.33333333333333</ele><time>2026-04-04T07:10:36.509Z</time></trkpt><trkpt lat="43.5315267" lon="10.5235983"><ele>46.0</ele><time>2026-04-04T07:10:38.509Z</time></trkpt><trkpt lat="43.5314567" lon="10.5235417"><ele>47.666666666666664</ele><time>2026-04-04T07:10:40.509Z</time></trkpt><trkpt lat="43.53139" lon="10.5234867"><ele>49.333333333333336</ele><time>2026-04-04T07:10:42.509Z</time></trkpt><trkpt lat="43.5313233" lon="10.5234267"><ele>51.0</ele><time>2026-04-04T07:10:44.508Z</time></trkpt><trkpt lat="43.5312617" lon="10.5233617"><ele>49.833333333333336</ele><time>2026-04-04T07:10:46.508Z</time></trkpt><trkpt lat="43.5312" lon="10.5232917"><ele>48.666666666666664</ele><time>2026-04-04T07:10:48.509Z</time></trkpt><trkpt lat="43.5311383" lon="10.52322"><ele>47.5</ele><time>2026-04-04T07:10:50.509Z</time></trkpt><trkpt lat="43.53108" lon="10.523155"><ele>46.33333333333333</ele><time>2026-04-04T07:10:52.509Z</time></trkpt><trkpt lat="43.531025" lon="10.5230767"><ele>45.166666666666664</ele><time>2026-04-04T07:10:54.509Z</time></trkpt><trkpt lat="43.5309667" lon="10.523005"><ele>44.0</ele><time>2026-04-04T07:10:56.508Z</time></trkpt><trkpt lat="43.5309067" lon="10.52294"><ele>44.83333333333333</ele><time>2026-04-04T07:10:58.508Z</time></trkpt><trkpt lat="43.5308533" lon="10.522865"><ele>45.666666666666664</ele><time>2026-04-04T07:11:00.508Z</time></trkpt><trkpt lat="43.5307933" lon="10.5227917"><ele>46.5</ele><time>2026-04-04T07:11:02.508Z</time></trkpt><trkpt lat="43.5307333" lon="10.522715"><ele>47.33333333333333</ele><time>2026-04-04T07:11:04.508Z</time></trkpt><trkpt lat="43.5306733" lon="10.5226483"><ele>48.166666666666664</ele><time>2026-04-04T07:11:06.508Z</time></trkpt><trkpt lat="43.53061" lon="10.522585"><ele>49.0</ele><time>2026-04-04T07:11:08.509Z</time></trkpt><trkpt lat="43.5305367" lon="10.5225283"><ele>48.99999999999999</ele><time>2026-04-04T07:11:10.508Z</time></trkpt><trkpt lat="43.5304583" lon="10.5224917"><ele>49.0</ele><time>2026-04-04T07:11:12.509Z</time></trkpt><trkpt lat="43.5303867" lon="10.52246"><ele>49.0</ele><time>2026-04-04T07:11:14.509Z</time></trkpt><trkpt lat="43.5303183" lon="10.5224333"><ele>49.0</ele><time>2026-04-04T07:11:16.508Z</time></trkpt><trkpt lat="43.5302433" lon="10.522405"><ele>48.99999999999999</ele><time>2026-04-04T07:11:18.509Z</time></trkpt><trkpt lat="43.5301683" lon="10.5223683"><ele>49.0</ele><time>2026-04-04T07:11:20.508Z</time></trkpt><trkpt lat="43.5300967" lon="10.5223367"><ele>48.49999999999999</ele><time>2026-04-04T07:11:22.509Z</time></trkpt><trkpt lat="43.5300267" lon="10.5222933"><ele>48.0</ele><time>2026-04-04T07:11:24.508Z</time></trkpt><trkpt lat="43.52996" lon="10.5222433"><ele>47.5</ele><time>2026-04-04T07:11:26.509Z</time></trkpt><trkpt lat="43.5298933" lon="10.5221817"><ele>47.0</ele><time>2026-04-04T07:11:28.509Z</time></trkpt><trkpt lat="43.529825" lon="10.5221233"><ele>46.5</ele><time>2026-04-04T07:11:30.509Z</time></trkpt><trkpt lat="43.5297533" lon="10.5220667"><ele>46.0</ele><time>2026-04-04T07:11:32.508Z</time></trkpt><trkpt lat="43.52969" lon="10.5220017"><ele>46.333333333333336</ele><time>2026-04-04T07:11:34.508Z</time></trkpt><trkpt lat="43.529625" lon="10.5219333"><ele>46.66666666666667</ele><time>2026-04-04T07:11:36.509Z</time></trkpt><trkpt lat="43.5295633" lon="10.5218667"><ele>47.0</ele><time>2026-04-04T07:11:38.509Z</time></trkpt><trkpt lat="43.529505" lon="10.5217833"><ele>47.333333333333336</ele><time>2026-04-04T07:11:40.509Z</time></trkpt><trkpt lat="43.5294467" lon="10.5217033"><ele>47.666666666666664</ele><time>2026-04-04T07:11:42.508Z</time></trkpt><trkpt lat="43.52939" lon="10.52163"><ele>48.0</ele><time>2026-04-04T07:11:44.509Z</time></trkpt><trkpt lat="43.5293417" lon="10.5215517"><ele>47.99999999999999</ele><time>2026-04-04T07:11:46.509Z</time></trkpt><trkpt lat="43.5292917" lon="10.5214583"><ele>48.0</ele><time>2026-04-04T07:11:48.509Z</time></trkpt><trkpt lat="43.5292417" lon="10.5213767"><ele>48.0</ele><time>2026-04-04T07:11:50.509Z</time></trkpt><trkpt lat="43.52919" lon="10.5212967"><ele>48.0</ele><time>2026-04-04T07:11:52.509Z</time></trkpt><trkpt lat="43.5291467" lon="10.5212333"><ele>48.0</ele><time>2026-04-04T07:11:54.509Z</time></trkpt><trkpt lat="43.5291033" lon="10.52117"><ele>47.99999999999999</ele><time>2026-04-04T07:11:56.508Z</time></trkpt><trkpt lat="43.52906" lon="10.521095"><ele>48.0</ele><time>2026-04-04T07:11:58.509Z</time></trkpt><trkpt lat="43.5290183" lon="10.5210217"><ele>47.99999999999999</ele><time>2026-04-04T07:12:00.508Z</time></trkpt><trkpt lat="43.5289783" lon="10.5209483"><ele>48.0</ele><time>2026-04-04T07:12:02.509Z</time></trkpt><trkpt lat="43.52893" lon="10.520885"><ele>48.0</ele><time>2026-04-04T07:12:04.509Z</time></trkpt><trkpt lat="43.5288783" lon="10.5208233"><ele>48.0</ele><time>2026-04-04T07:12:06.508Z</time></trkpt><trkpt lat="43.5288367" lon="10.5207417"><ele>48.0</ele><time>2026-04-04T07:12:08.508Z</time></trkpt><trkpt lat="43.5287883" lon="10.520675"><ele>47.99999999999999</ele><time>2026-04-04T07:12:10.509Z</time></trkpt><trkpt lat="43.5287433" lon="10.5205983"><ele>48.0</ele><time>2026-04-04T07:12:12.508Z</time></trkpt><trkpt lat="43.52869" lon="10.5205333"><ele>48.0</ele><time>2026-04-04T07:12:14.508Z</time></trkpt><trkpt lat="43.5286333" lon="10.520475"><ele>48.0</ele><time>2026-04-04T07:12:16.509Z</time></trkpt><trkpt lat="43.52858" lon="10.52042"><ele>48.0</ele><time>2026-04-04T07:12:18.508Z</time></trkpt><trkpt lat="43.5285217" lon="10.5203683"><ele>48.0</ele><time>2026-04-04T07:12:20.508Z</time></trkpt><trkpt lat="43.52847" lon="10.520315"><ele>48.0</ele><time>2026-04-04T07:12:22.509Z</time></trkpt><trkpt lat="43.5283883" lon="10.5202467"><ele>48.0</ele><time>2026-04-04T07:12:25.509Z</time></trkpt><trkpt lat="43.5282983" lon="10.5201867"><ele>48.14285714285714</ele><time>2026-04-04T07:12:28.508Z</time></trkpt><trkpt lat="43.528235" lon="10.5201417"><ele>48.285714285714285</ele><time>2026-04-04T07:12:30.508Z</time></trkpt><trkpt lat="43.5281683" lon="10.5201"><ele>48.42857142857143</ele><time>2026-04-04T07:12:32.508Z</time></trkpt><trkpt lat="43.528105" lon="10.52006"><ele>48.57142857142857</ele><time>2026-04-04T07:12:34.508Z</time></trkpt><trkpt lat="43.528035" lon="10.5200167"><ele>48.714285714285715</ele><time>2026-04-04T07:12:36.508Z</time></trkpt><trkpt lat="43.527975" lon="10.5199767"><ele>48.857142857142854</ele><time>2026-04-04T07:12:38.508Z</time></trkpt><trkpt lat="43.5279067" lon="10.519935"><ele>49.0</ele><time>2026-04-04T07:12:40.508Z</time></trkpt><trkpt lat="43.5278383" lon="10.5198933"><ele>49.0</ele><time>2026-04-04T07:12:42.509Z</time></trkpt><trkpt lat="43.5277683" lon="10.5198517"><ele>49.0</ele><time>2026-04-04T07:12:44.509Z</time></trkpt><trkpt lat="43.5277083" lon="10.51981"><ele>49.0</ele><time>2026-04-04T07:12:46.509Z</time></trkpt><trkpt lat="43.5276417" lon="10.51977"><ele>49.0</ele><time>2026-04-04T07:12:48.509Z</time></trkpt><trkpt lat="43.5275817" lon="10.5197283"><ele>49.0</ele><time>2026-04-04T07:12:50.508Z</time></trkpt><trkpt lat="43.5275133" lon="10.519685"><ele>49.0</ele><time>2026-04-04T07:12:52.509Z</time></trkpt><trkpt lat="43.52745" lon="10.5196433"><ele>49.0</ele><time>2026-04-04T07:12:54.508Z</time></trkpt><trkpt lat="43.5273883" lon="10.5195967"><ele>49.714285714285715</ele><time>2026-04-04T07:12:56.509Z</time></trkpt><trkpt lat="43.5273217" lon="10.51955"><ele>50.42857142857143</ele><time>2026-04-04T07:12:58.509Z</time></trkpt><trkpt lat="43.52726" lon="10.5194983"><ele>51.14285714285714</ele><time>2026-04-04T07:13:00.508Z</time></trkpt><trkpt lat="43.5271967" lon="10.5194517"><ele>51.85714285714286</ele><time>2026-04-04T07:13:02.508Z</time></trkpt><trkpt lat="43.5271367" lon="10.5194117"><ele>52.57142857142857</ele><time>2026-04-04T07:13:04.508Z</time></trkpt><trkpt lat="43.5270667" lon="10.519375"><ele>53.285714285714285</ele><time>2026-04-04T07:13:06.508Z</time></trkpt><trkpt lat="43.5269983" lon="10.5193467"><ele>54.0</ele><time>2026-04-04T07:13:08.508Z</time></trkpt><trkpt lat="43.5269383" lon="10.5193067"><ele>54.0</ele><time>2026-04-04T07:13:10.508Z</time></trkpt><trkpt lat="43.5268717" lon="10.5192667"><ele>54.0</ele><time>2026-04-04T07:13:12.509Z</time></trkpt><trkpt lat="43.526805" lon="10.5192283"><ele>54.0</ele><time>2026-04-04T07:13:14.509Z</time></trkpt><trkpt lat="43.5267383" lon="10.5191833"><ele>54.0</ele><time>2026-04-04T07:13:16.509Z</time></trkpt><trkpt lat="43.5266717" lon="10.5191333"><ele>54.0</ele><time>2026-04-04T07:13:18.508Z</time></trkpt><trkpt lat="43.526605" lon="10.5190817"><ele>54.0</ele><time>2026-04-04T07:13:20.509Z</time></trkpt><trkpt lat="43.5265383" lon="10.5190317"><ele>54.0</ele><time>2026-04-04T07:13:22.509Z</time></trkpt><trkpt lat="43.526475" lon="10.5189867"><ele>54.0</ele><time>2026-04-04T07:13:24.508Z</time></trkpt><trkpt lat="43.5264183" lon="10.5189433"><ele>54.0</ele><time>2026-04-04T07:13:26.508Z</time></trkpt><trkpt lat="43.5263583" lon="10.518895"><ele>54.0</ele><time>2026-04-04T07:13:28.508Z</time></trkpt><trkpt lat="43.5262983" lon="10.51884"><ele>54.0</ele><time>2026-04-04T07:13:30.509Z</time></trkpt><trkpt lat="43.526245" lon="10.5187867"><ele>54.0</ele><time>2026-04-04T07:13:32.508Z</time></trkpt><trkpt lat="43.5261933" lon="10.5187233"><ele>54.0</ele><time>2026-04-04T07:13:34.508Z</time></trkpt><trkpt lat="43.5261467" lon="10.5186517"><ele>54.0</ele><time>2026-04-04T07:13:36.509Z</time></trkpt><trkpt lat="43.5261" lon="10.5185767"><ele>54.285714285714285</ele><time>2026-04-04T07:13:38.508Z</time></trkpt><trkpt lat="43.526055" lon="10.51851"><ele>54.57142857142857</ele><time>2026-04-04T07:13:40.508Z</time></trkpt><trkpt lat="43.5260083" lon="10.5184383"><ele>54.85714285714286</ele><time>2026-04-04T07:13:42.509Z</time></trkpt><trkpt lat="43.5259633" lon="10.5183717"><ele>55.14285714285714</ele><time>2026-04-04T07:13:44.509Z</time></trkpt><trkpt lat="43.52592" lon="10.5183017"><ele>55.42857142857143</ele><time>2026-04-04T07:13:46.509Z</time></trkpt><trkpt lat="43.5258733" lon="10.5182333"><ele>55.714285714285715</ele><time>2026-04-04T07:13:48.509Z</time></trkpt><trkpt lat="43.5258283" lon="10.5181683"><ele>56.0</ele><time>2026-04-04T07:13:50.509Z</time></trkpt><trkpt lat="43.525785" lon="10.518105"><ele>56.00000000000001</ele><time>2026-04-04T07:13:52.508Z</time></trkpt><trkpt lat="43.52573" lon="10.5180183"><ele>56.0</ele><time>2026-04-04T07:13:55.508Z</time></trkpt><trkpt lat="43.5256617" lon="10.5179367"><ele>56.0</ele><time>2026-04-04T07:13:58.509Z</time></trkpt><trkpt lat="43.5255867" lon="10.517865"><ele>56.0</ele><time>2026-04-04T07:14:01.509Z</time></trkpt><trkpt lat="43.5255167" lon="10.5178"><ele>56.00000000000001</ele><time>2026-04-04T07:14:04.508Z</time></trkpt><trkpt lat="43.5254517" lon="10.5177283"><ele>56.0</ele><time>2026-04-04T07:14:07.508Z</time></trkpt><trkpt lat="43.525395" lon="10.5176767"><ele>57.00000000000001</ele><time>2026-04-04T07:14:10.508Z</time></trkpt><trkpt lat="43.5253333" lon="10.5176117"><ele>58.0</ele><time>2026-04-04T07:14:14.508Z</time></trkpt><trkpt lat="43.525275" lon="10.5175633"><ele>59.0</ele><time>2026-04-04T07:14:17.508Z</time></trkpt><trkpt lat="43.525215" lon="10.5175067"><ele>60.0</ele><time>2026-04-04T07:14:20.508Z</time></trkpt><trkpt lat="43.5251483" lon="10.5174417"><ele>61.00000000000001</ele><time>2026-04-04T07:14:24.509Z</time></trkpt><trkpt lat="43.5250867" lon="10.517375"><ele>62.0</ele><time>2026-04-04T07:14:28.508Z</time></trkpt><trkpt lat="43.5250167" lon="10.5172917"><ele>62.0</ele><time>2026-04-04T07:14:31.508Z</time></trkpt><trkpt lat="43.52494" lon="10.5172083"><ele>62.0</ele><time>2026-04-04T07:14:34.509Z</time></trkpt><trkpt lat="43.52489" lon="10.5171483"><ele>62.0</ele><time>2026-04-04T07:14:36.508Z</time></trkpt><trkpt lat="43.524825" lon="10.5170817"><ele>62.0</ele><time>2026-04-04T07:14:39.508Z</time></trkpt><trkpt lat="43.524705" lon="10.5170367"><ele>62.0</ele><time>2026-04-04T07:15:47.508Z</time></trkpt><trkpt lat="43.5245883" lon="10.5169783"><ele>63.00000000000001</ele><time>2026-04-04T07:15:53.509Z</time></trkpt><trkpt lat="43.5246633" lon="10.5169983"><ele>64.0</ele><time>2026-04-04T07:16:16.509Z</time></trkpt><trkpt lat="43.5247833" lon="10.517045"><ele>65.0</ele><time>2026-04-04T07:16:42.509Z</time></trkpt><trkpt lat="43.5247333" lon="10.51698"><ele>66.0</ele><time>2026-04-04T07:17:28.509Z</time></trkpt><trkpt lat="43.5246883" lon="10.5169033"><ele>67.0</ele><time>2026-04-04T07:17:32.509Z</time></trkpt><trkpt lat="43.5246383" lon="10.5168467"><ele>68.0</ele><time>2026-04-04T07:17:35.509Z</time></trkpt><trkpt lat="43.52456" lon="10.516785"><ele>68.0</ele><time>2026-04-04T07:17:38.509Z</time></trkpt><trkpt lat="43.5244983" lon="10.5167433"><ele>68.0</ele><time>2026-04-04T07:17:40.509Z</time></trkpt><trkpt lat="43.52442" lon="10.516685"><ele>68.0</ele><time>2026-04-04T07:17:43.509Z</time></trkpt><trkpt lat="43.524355" lon="10.516605"><ele>68.0</ele><time>2026-04-04T07:17:46.509Z</time></trkpt><trkpt lat="43.5243" lon="10.5165217"><ele>68.0</ele><time>2026-04-04T07:17:49.509Z</time></trkpt><trkpt lat="43.52424" lon="10.5164517"><ele>68.0</ele><time>2026-04-04T07:17:52.508Z</time></trkpt><trkpt lat="43.5241667" lon="10.5163767"><ele>68.0</ele><time>2026-04-04T07:17:55.509Z</time></trkpt><trkpt lat="43.5240933" lon="10.5162967"><ele>68.0</ele><time>2026-04-04T07:17:58.509Z</time></trkpt><trkpt lat="43.52403" lon="10.516225"><ele>68.0</ele><time>2026-04-04T07:18:01.509Z</time></trkpt><trkpt lat="43.5239817" lon="10.5161467"><ele>68.0</ele><time>2026-04-04T07:18:04.509Z</time></trkpt><trkpt lat="43.5239217" lon="10.5160633"><ele>68.0</ele><time>2026-04-04T07:18:07.508Z</time></trkpt><trkpt lat="43.5238733" lon="10.51599"><ele>68.0</ele><time>2026-04-04T07:18:10.508Z</time></trkpt><trkpt lat="43.5238267" lon="10.515925"><ele>68.42857142857142</ele><time>2026-04-04T07:18:13.508Z</time></trkpt><trkpt lat="43.5237833" lon="10.5158483"><ele>68.85714285714286</ele><time>2026-04-04T07:18:16.509Z</time></trkpt><trkpt lat="43.5237417" lon="10.51577"><ele>69.28571428571428</ele><time>2026-04-04T07:18:19.508Z</time></trkpt><trkpt lat="43.5236967" lon="10.515695"><ele>69.71428571428571</ele><time>2026-04-04T07:18:22.508Z</time></trkpt><trkpt lat="43.5236617" lon="10.5156167"><ele>70.14285714285714</ele><time>2026-04-04T07:18:25.509Z</time></trkpt><trkpt lat="43.523615" lon="10.5155367"><ele>70.57142857142857</ele><time>2026-04-04T07:18:28.509Z</time></trkpt><trkpt lat="43.5235733" lon="10.5154483"><ele>71.0</ele><time>2026-04-04T07:18:31.508Z</time></trkpt><trkpt lat="43.5235283" lon="10.5153617"><ele>71.71428571428571</ele><time>2026-04-04T07:18:34.509Z</time></trkpt><trkpt lat="43.5234883" lon="10.515275"><ele>72.42857142857142</ele><time>2026-04-04T07:18:37.508Z</time></trkpt><trkpt lat="43.52345" lon="10.5152"><ele>73.14285714285714</ele><time>2026-04-04T07:18:40.509Z</time></trkpt><trkpt lat="43.5234033" lon="10.515125"><ele>73.85714285714286</ele><time>2026-04-04T07:18:43.509Z</time></trkpt><trkpt lat="43.5233583" lon="10.5150417"><ele>74.57142857142858</ele><time>2026-04-04T07:18:46.509Z</time></trkpt><trkpt lat="43.52331" lon="10.5149583"><ele>75.28571428571428</ele><time>2026-04-04T07:18:49.509Z</time></trkpt><trkpt lat="43.5232567" lon="10.514875"><ele>76.0</ele><time>2026-04-04T07:18:52.508Z</time></trkpt><trkpt lat="43.5232117" lon="10.51479"><ele>76.0</ele><time>2026-04-04T07:18:55.509Z</time></trkpt><trkpt lat="43.52317" lon="10.5147"><ele>76.0</ele><time>2026-04-04T07:18:58.509Z</time></trkpt><trkpt lat="43.5231367" lon="10.5146183"><ele>76.0</ele><time>2026-04-04T07:19:01.508Z</time></trkpt><trkpt lat="43.523095" lon="10.5145333"><ele>76.0</ele><time>2026-04-04T07:19:04.508Z</time></trkpt><trkpt lat="43.5230583" lon="10.5144567"><ele>76.0</ele><time>2026-04-04T07:19:07.508Z</time></trkpt><trkpt lat="43.5230133" lon="10.51439"><ele>76.0</ele><time>2026-04-04T07:19:11.509Z</time></trkpt><trkpt lat="43.5229617" lon="10.514315"><ele>76.0</ele><time>2026-04-04T07:19:15.508Z</time></trkpt><trkpt lat="43.5229017" lon="10.5142767"><ele>76.42857142857143</ele><time>2026-04-04T07:19:19.509Z</time></trkpt><trkpt lat="43.52284" lon="10.5142483"><ele>76.85714285714286</ele><time>2026-04-04T07:19:22.508Z</time></trkpt><trkpt lat="43.522775" lon="10.514205"><ele>77.28571428571429</ele><time>2026-04-04T07:19:26.509Z</time></trkpt><trkpt lat="43.52271" lon="10.51417"><ele>77.71428571428572</ele><time>2026-04-04T07:19:29.508Z</time></trkpt><trkpt lat="43.5226383" lon="10.5141567"><ele>78.14285714285714</ele><time>2026-04-04T07:19:33.508Z</time></trkpt><trkpt lat="43.52257" lon="10.5141617"><ele>78.57142857142858</ele><time>2026-04-04T07:19:37.508Z</time></trkpt><trkpt lat="43.5224983" lon="10.5141667"><ele>79.0</ele><time>2026-04-04T07:19:41.508Z</time></trkpt><trkpt lat="43.5224267" lon="10.514155"><ele>79.0</ele><time>2026-04-04T07:19:44.509Z</time></trkpt><trkpt lat="43.522345" lon="10.514135"><ele>79.0</ele><time>2026-04-04T07:19:47.508Z</time></trkpt><trkpt lat="43.52226" lon="10.514125"><ele>79.0</ele><time>2026-04-04T07:19:50.509Z</time></trkpt><trkpt lat="43.52218" lon="10.5140917"><ele>79.0</ele><time>2026-04-04T07:19:53.509Z</time></trkpt><trkpt lat="43.522115" lon="10.5140533"><ele>79.0</ele><time>2026-04-04T07:19:55.508Z</time></trkpt><trkpt lat="43.5220333" lon="10.5140117"><ele>79.0</ele><time>2026-04-04T07:19:57.508Z</time></trkpt><trkpt lat="43.5219483" lon="10.5139617"><ele>79.16666666666666</ele><time>2026-04-04T07:19:59.508Z</time></trkpt><trkpt lat="43.5218667" lon="10.51391"><ele>79.33333333333333</ele><time>2026-04-04T07:20:01.508Z</time></trkpt><trkpt lat="43.5217867" lon="10.5138583"><ele>79.5</ele><time>2026-04-04T07:20:03.508Z</time></trkpt><trkpt lat="43.5217133" lon="10.5138067"><ele>79.66666666666667</ele><time>2026-04-04T07:20:05.509Z</time></trkpt><trkpt lat="43.5216333" lon="10.51376"><ele>79.83333333333334</ele><time>2026-04-04T07:20:07.508Z</time></trkpt><trkpt lat="43.5215483" lon="10.5137217"><ele>80.0</ele><time>2026-04-04T07:20:09.508Z</time></trkpt><trkpt lat="43.5214717" lon="10.51368"><ele>79.2</ele><time>2026-04-04T07:20:11.509Z</time></trkpt><trkpt lat="43.5213883" lon="10.5136367"><ele>78.4</ele><time>2026-04-04T07:20:13.509Z</time></trkpt><trkpt lat="43.521305" lon="10.51359"><ele>77.6</ele><time>2026-04-04T07:20:15.509Z</time></trkpt><trkpt lat="43.5212217" lon="10.5135333"><ele>76.8</ele><time>2026-04-04T07:20:17.508Z</time></trkpt><trkpt lat="43.5211333" lon="10.51347"><ele>76.0</ele><time>2026-04-04T07:20:19.508Z</time></trkpt><trkpt lat="43.5210433" lon="10.5133983"><ele>75.6</ele><time>2026-04-04T07:20:21.508Z</time></trkpt><trkpt lat="43.5209533" lon="10.5133217"><ele>75.19999999999999</ele><time>2026-04-04T07:20:23.509Z</time></trkpt><trkpt lat="43.520865" lon="10.5132467"><ele>74.80000000000001</ele><time>2026-04-04T07:20:25.508Z</time></trkpt><trkpt lat="43.5207733" lon="10.5131783"><ele>74.4</ele><time>2026-04-04T07:20:27.508Z</time></trkpt><trkpt lat="43.5206933" lon="10.5131083"><ele>74.0</ele><time>2026-04-04T07:20:29.509Z</time></trkpt><trkpt lat="43.520615" lon="10.513055"><ele>74.0</ele><time>2026-04-04T07:20:31.508Z</time></trkpt><trkpt lat="43.5205517" lon="10.5129883"><ele>74.0</ele><time>2026-04-04T07:20:33.508Z</time></trkpt><trkpt lat="43.5205" lon="10.51291"><ele>74.0</ele><time>2026-04-04T07:20:35.508Z</time></trkpt><trkpt lat="43.52046" lon="10.51283"><ele>74.0</ele><time>2026-04-04T07:20:37.508Z</time></trkpt><trkpt lat="43.5204433" lon="10.512745"><ele>74.0</ele><time>2026-04-04T07:20:39.509Z</time></trkpt><trkpt lat="43.5204467" lon="10.5126283"><ele>74.0</ele><time>2026-04-04T07:20:42.509Z</time></trkpt><trkpt lat="43.5204683" lon="10.512525"><ele>74.16666666666667</ele><time>2026-04-04T07:20:45.508Z</time></trkpt><trkpt lat="43.5204933" lon="10.5124233"><ele>74.33333333333334</ele><time>2026-04-04T07:20:48.509Z</time></trkpt><trkpt lat="43.5205083" lon="10.5123233"><ele>74.5</ele><time>2026-04-04T07:20:51.509Z</time></trkpt><trkpt lat="43.5205217" lon="10.5122017"><ele>74.66666666666667</ele><time>2026-04-04T07:20:54.508Z</time></trkpt><trkpt lat="43.5205333" lon="10.5120833"><ele>74.83333333333333</ele><time>2026-04-04T07:20:57.509Z</time></trkpt><trkpt lat="43.520515" lon="10.5119633"><ele>75.0</ele><time>2026-04-04T07:21:00.509Z</time></trkpt><trkpt lat="43.5204883" lon="10.5118833"><ele>75.16666666666667</ele><time>2026-04-04T07:21:02.508Z</time></trkpt><trkpt lat="43.5204567" lon="10.511805"><ele>75.33333333333333</ele><time>2026-04-04T07:21:04.509Z</time></trkpt><trkpt lat="43.520415" lon="10.5117383"><ele>75.5</ele><time>2026-04-04T07:21:06.508Z</time></trkpt><trkpt lat="43.5203567" lon="10.51164"><ele>75.66666666666666</ele><time>2026-04-04T07:21:09.508Z</time></trkpt><trkpt lat="43.5203033" lon="10.5115483"><ele>75.83333333333333</ele><time>2026-04-04T07:21:12.509Z</time></trkpt><trkpt lat="43.5202433" lon="10.5114583"><ele>76.0</ele><time>2026-04-04T07:21:15.508Z</time></trkpt><trkpt lat="43.5201783" lon="10.5113767"><ele>76.0</ele><time>2026-04-04T07:21:18.508Z</time></trkpt><trkpt lat="43.520125" lon="10.51128"><ele>76.0</ele><time>2026-04-04T07:21:21.509Z</time></trkpt><trkpt lat="43.520075" lon="10.5111883"><ele>76.0</ele><time>2026-04-04T07:21:24.509Z</time></trkpt><trkpt lat="43.5200217" lon="10.5110967"><ele>76.0</ele><time>2026-04-04T07:21:27.509Z</time></trkpt><trkpt lat="43.5199683" lon="10.5110083"><ele>76.0</ele><time>2026-04-04T07:21:30.509Z</time></trkpt><trkpt lat="43.5199233" lon="10.5109317"><ele>76.0</ele><time>2026-04-04T07:21:33.509Z</time></trkpt><trkpt lat="43.5198667" lon="10.510845"><ele>76.0</ele><time>2026-04-04T07:21:37.508Z</time></trkpt><trkpt lat="43.5198117" lon="10.5107917"><ele>76.0</ele><time>2026-04-04T07:21:40.508Z</time></trkpt><trkpt lat="43.51975" lon="10.510735"><ele>76.0</ele><time>2026-04-04T07:21:43.508Z</time></trkpt><trkpt lat="43.519695" lon="10.51068"><ele>76.0</ele><time>2026-04-04T07:21:46.508Z</time></trkpt><trkpt lat="43.51964" lon="10.5106183"><ele>76.0</ele><time>2026-04-04T07:21:49.508Z</time></trkpt><trkpt lat="43.5195833" lon="10.5105583"><ele>76.0</ele><time>2026-04-04T07:21:52.509Z</time></trkpt><trkpt lat="43.519535" lon="10.5104933"><ele>76.0</ele><time>2026-04-04T07:21:55.509Z</time></trkpt><trkpt lat="43.51948" lon="10.5104083"><ele>77.0</ele><time>2026-04-04T07:21:59.509Z</time></trkpt><trkpt lat="43.5194317" lon="10.5103433"><ele>78.0</ele><time>2026-04-04T07:22:02.509Z</time></trkpt><trkpt lat="43.5193817" lon="10.510275"><ele>79.0</ele><time>2026-04-04T07:22:05.509Z</time></trkpt><trkpt lat="43.5193367" lon="10.510195"><ele>80.0</ele><time>2026-04-04T07:22:08.508Z</time></trkpt><trkpt lat="43.5192917" lon="10.5101167"><ele>81.0</ele><time>2026-04-04T07:22:11.509Z</time></trkpt><trkpt lat="43.5192433" lon="10.5100267"><ele>82.0</ele><time>2026-04-04T07:22:14.509Z</time></trkpt><trkpt lat="43.5192067" lon="10.50993"><ele>83.0</ele><time>2026-04-04T07:22:17.508Z</time></trkpt><trkpt lat="43.5191733" lon="10.509835"><ele>83.0</ele><time>2026-04-04T07:22:20.509Z</time></trkpt><trkpt lat="43.5191383" lon="10.5097467"><ele>83.0</ele><time>2026-04-04T07:22:23.509Z</time></trkpt><trkpt lat="43.5191067" lon="10.5096617"><ele>83.0</ele><time>2026-04-04T07:22:26.508Z</time></trkpt><trkpt lat="43.5190817" lon="10.5095783"><ele>83.0</ele><time>2026-04-04T07:22:29.509Z</time></trkpt><trkpt lat="43.5190567" lon="10.50949"><ele>83.0</ele><time>2026-04-04T07:22:32.509Z</time></trkpt><trkpt lat="43.5190317" lon="10.509405"><ele>83.0</ele><time>2026-04-04T07:22:35.509Z</time></trkpt><trkpt lat="43.519005" lon="10.5092983"><ele>83.0</ele><time>2026-04-04T07:22:39.509Z</time></trkpt><trkpt lat="43.51898" lon="10.5092133"><ele>83.42857142857143</ele><time>2026-04-04T07:22:42.509Z</time></trkpt><trkpt lat="43.518945" lon="10.5091283"><ele>83.85714285714286</ele><time>2026-04-04T07:22:45.509Z</time></trkpt><trkpt lat="43.51892" lon="10.50904"><ele>84.28571428571429</ele><time>2026-04-04T07:22:48.508Z</time></trkpt><trkpt lat="43.518895" lon="10.5089517"><ele>84.71428571428572</ele><time>2026-04-04T07:22:51.509Z</time></trkpt><trkpt lat="43.5188483" lon="10.5088633"><ele>85.14285714285714</ele><time>2026-04-04T07:22:54.508Z</time></trkpt><trkpt lat="43.518805" lon="10.5087917"><ele>85.57142857142858</ele><time>2026-04-04T07:22:56.508Z</time></trkpt><trkpt lat="43.518755" lon="10.5087133"><ele>86.0</ele><time>2026-04-04T07:22:58.508Z</time></trkpt><trkpt lat="43.5187033" lon="10.5086217"><ele>86.0</ele><time>2026-04-04T07:23:00.509Z</time></trkpt><trkpt lat="43.518655" lon="10.508525"><ele>86.0</ele><time>2026-04-04T07:23:02.508Z</time></trkpt><trkpt lat="43.5186117" lon="10.5084317"><ele>86.0</ele><time>2026-04-04T07:23:04.509Z</time></trkpt><trkpt lat="43.5185767" lon="10.50834"><ele>86.0</ele><time>2026-04-04T07:23:06.509Z</time></trkpt><trkpt lat="43.5185433" lon="10.5082567"><ele>86.0</ele><time>2026-04-04T07:23:08.508Z</time></trkpt><trkpt lat="43.5185" lon="10.5081867"><ele>86.0</ele><time>2026-04-04T07:23:10.509Z</time></trkpt><trkpt lat="43.5184417" lon="10.508085"><ele>86.0</ele><time>2026-04-04T07:23:13.508Z</time></trkpt><trkpt lat="43.5183967" lon="10.5080183"><ele>86.0</ele><time>2026-04-04T07:23:15.509Z</time></trkpt><trkpt lat="43.51835" lon="10.5079133"><ele>86.0</ele><time>2026-04-04T07:23:18.509Z</time></trkpt><trkpt lat="43.5182917" lon="10.50782"><ele>86.0</ele><time>2026-04-04T07:23:21.509Z</time></trkpt><trkpt lat="43.5182483" lon="10.50775"><ele>86.0</ele><time>2026-04-04T07:23:23.508Z</time></trkpt><trkpt lat="43.5181983" lon="10.5076417"><ele>86.0</ele><time>2026-04-04T07:23:26.509Z</time></trkpt><trkpt lat="43.5181417" lon="10.507535"><ele>86.00000000000001</ele><time>2026-04-04T07:23:29.509Z</time></trkpt><trkpt lat="43.5181033" lon="10.5074633"><ele>86.0</ele><time>2026-04-04T07:23:31.508Z</time></trkpt><trkpt lat="43.518075" lon="10.5073833"><ele>86.0</ele><time>2026-04-04T07:23:33.508Z</time></trkpt><trkpt lat="43.5180417" lon="10.5072683"><ele>86.0</ele><time>2026-04-04T07:23:36.509Z</time></trkpt><trkpt lat="43.5180167" lon="10.5071717"><ele>86.0</ele><time>2026-04-04T07:23:39.509Z</time></trkpt><trkpt lat="43.5179983" lon="10.5070867"><ele>86.00000000000001</ele><time>2026-04-04T07:23:42.509Z</time></trkpt><trkpt lat="43.5179683" lon="10.5070017"><ele>86.0</ele><time>2026-04-04T07:23:45.508Z</time></trkpt><trkpt lat="43.5179483" lon="10.5069117"><ele>85.66666666666667</ele><time>2026-04-04T07:23:48.509Z</time></trkpt><trkpt lat="43.5179233" lon="10.50682"><ele>85.33333333333334</ele><time>2026-04-04T07:23:51.509Z</time></trkpt><trkpt lat="43.517905" lon="10.5067017"><ele>85.0</ele><time>2026-04-04T07:23:55.509Z</time></trkpt><trkpt lat="43.5178883" lon="10.5066017"><ele>84.66666666666667</ele><time>2026-04-04T07:23:58.508Z</time></trkpt><trkpt lat="43.517865" lon="10.5064983"><ele>84.33333333333333</ele><time>2026-04-04T07:24:01.509Z</time></trkpt><trkpt lat="43.51785" lon="10.5063933"><ele>84.0</ele><time>2026-04-04T07:24:04.509Z</time></trkpt><trkpt lat="43.51784" lon="10.506285"><ele>85.33333333333333</ele><time>2026-04-04T07:24:07.508Z</time></trkpt><trkpt lat="43.5178233" lon="10.5061717"><ele>86.66666666666667</ele><time>2026-04-04T07:24:10.508Z</time></trkpt><trkpt lat="43.5178133" lon="10.50606"><ele>88.0</ele><time>2026-04-04T07:24:13.508Z</time></trkpt><trkpt lat="43.5178033" lon="10.5059567"><ele>89.33333333333334</ele><time>2026-04-04T07:24:16.508Z</time></trkpt><trkpt lat="43.517805" lon="10.5058417"><ele>90.66666666666667</ele><time>2026-04-04T07:24:19.509Z</time></trkpt><trkpt lat="43.5178017" lon="10.5057417"><ele>92.0</ele><time>2026-04-04T07:24:22.509Z</time></trkpt><trkpt lat="43.517795" lon="10.5056417"><ele>92.0</ele><time>2026-04-04T07:24:25.509Z</time></trkpt><trkpt lat="43.5177833" lon="10.5055367"><ele>92.0</ele><time>2026-04-04T07:24:28.509Z</time></trkpt><trkpt lat="43.5177783" lon="10.50543"><ele>92.0</ele><time>2026-04-04T07:24:31.508Z</time></trkpt><trkpt lat="43.517765" lon="10.5053333"><ele>92.0</ele><time>2026-04-04T07:24:34.508Z</time></trkpt><trkpt lat="43.5177533" lon="10.5052383"><ele>92.0</ele><time>2026-04-04T07:24:37.509Z</time></trkpt><trkpt lat="43.5177467" lon="10.5051417"><ele>92.0</ele><time>2026-04-04T07:24:40.508Z</time></trkpt><trkpt lat="43.517735" lon="10.5050433"><ele>92.0</ele><time>2026-04-04T07:24:43.509Z</time></trkpt><trkpt lat="43.517725" lon="10.504955"><ele>92.0</ele><time>2026-04-04T07:24:46.508Z</time></trkpt><trkpt lat="43.5177217" lon="10.5048367"><ele>92.0</ele><time>2026-04-04T07:24:50.508Z</time></trkpt><trkpt lat="43.5177133" lon="10.5047433"><ele>92.0</ele><time>2026-04-04T07:24:53.508Z</time></trkpt><trkpt lat="43.5177083" lon="10.504645"><ele>92.0</ele><time>2026-04-04T07:24:56.509Z</time></trkpt><trkpt lat="43.517705" lon="10.5045567"><ele>92.0</ele><time>2026-04-04T07:24:59.509Z</time></trkpt><trkpt lat="43.5177017" lon="10.504455"><ele>92.0</ele><time>2026-04-04T07:25:02.509Z</time></trkpt><trkpt lat="43.5176917" lon="10.504365"><ele>92.0</ele><time>2026-04-04T07:25:05.508Z</time></trkpt><trkpt lat="43.5176883" lon="10.504275"><ele>92.28571428571429</ele><time>2026-04-04T07:25:08.509Z</time></trkpt><trkpt lat="43.5176867" lon="10.5041767"><ele>92.57142857142857</ele><time>2026-04-04T07:25:11.509Z</time></trkpt><trkpt lat="43.5176783" lon="10.504085"><ele>92.85714285714286</ele><time>2026-04-04T07:25:14.508Z</time></trkpt><trkpt lat="43.5176667" lon="10.5039883"><ele>93.14285714285714</ele><time>2026-04-04T07:25:17.508Z</time></trkpt><trkpt lat="43.5176467" lon="10.5039"><ele>93.42857142857142</ele><time>2026-04-04T07:25:20.508Z</time></trkpt><trkpt lat="43.51761" lon="10.503825"><ele>93.71428571428571</ele><time>2026-04-04T07:25:23.508Z</time></trkpt><trkpt lat="43.5175667" lon="10.5037433"><ele>94.0</ele><time>2026-04-04T07:25:26.509Z</time></trkpt><trkpt lat="43.5175267" lon="10.5036633"><ele>94.85714285714286</ele><time>2026-04-04T07:25:29.509Z</time></trkpt><trkpt lat="43.517485" lon="10.5035883"><ele>95.71428571428571</ele><time>2026-04-04T07:25:32.509Z</time></trkpt><trkpt lat="43.51744" lon="10.50352"><ele>96.57142857142858</ele><time>2026-04-04T07:25:35.508Z</time></trkpt><trkpt lat="43.5173867" lon="10.5034567"><ele>97.42857142857143</ele><time>2026-04-04T07:25:38.509Z</time></trkpt><trkpt lat="43.517335" lon="10.5033817"><ele>98.28571428571429</ele><time>2026-04-04T07:25:41.509Z</time></trkpt><trkpt lat="43.5172867" lon="10.5033183"><ele>99.14285714285715</ele><time>2026-04-04T07:25:44.509Z</time></trkpt><trkpt lat="43.51724" lon="10.5032583"><ele>100.0</ele><time>2026-04-04T07:25:47.508Z</time></trkpt><trkpt lat="43.5171917" lon="10.5032"><ele>100.00000000000001</ele><time>2026-04-04T07:25:50.508Z</time></trkpt><trkpt lat="43.5171383" lon="10.5031283"><ele>100.0</ele><time>2026-04-04T07:25:54.509Z</time></trkpt><trkpt lat="43.5170733" lon="10.5030617"><ele>100.0</ele><time>2026-04-04T07:25:58.508Z</time></trkpt><trkpt lat="43.517025" lon="10.5029933"><ele>100.0</ele><time>2026-04-04T07:26:01.508Z</time></trkpt><trkpt lat="43.51697" lon="10.5029233"><ele>100.00000000000001</ele><time>2026-04-04T07:26:04.509Z</time></trkpt><trkpt lat="43.5169017" lon="10.5028517"><ele>100.0</ele><time>2026-04-04T07:26:08.508Z</time></trkpt><trkpt lat="43.5168367" lon="10.5027883"><ele>101.00000000000001</ele><time>2026-04-04T07:26:12.509Z</time></trkpt><trkpt lat="43.516765" lon="10.5027417"><ele>102.0</ele><time>2026-04-04T07:26:16.508Z</time></trkpt><trkpt lat="43.5167083" lon="10.5026867"><ele>103.0</ele><time>2026-04-04T07:26:20.508Z</time></trkpt><trkpt lat="43.5166417" lon="10.5026317"><ele>104.0</ele><time>2026-04-04T07:26:24.509Z</time></trkpt><trkpt lat="43.5165883" lon="10.5025833"><ele>105.0</ele><time>2026-04-04T07:26:27.509Z</time></trkpt><trkpt lat="43.5165383" lon="10.5025233"><ele>106.00000000000001</ele><time>2026-04-04T07:26:30.508Z</time></trkpt><trkpt lat="43.5164633" lon="10.50246"><ele>107.0</ele><time>2026-04-04T07:26:34.509Z</time></trkpt><trkpt lat="43.5164167" lon="10.50237"><ele>107.00000000000001</ele><time>2026-04-04T07:26:38.509Z</time></trkpt><trkpt lat="43.5163717" lon="10.5022783"><ele>107.0</ele><time>2026-04-04T07:26:41.509Z</time></trkpt><trkpt lat="43.516345" lon="10.5021883"><ele>107.0</ele><time>2026-04-04T07:26:44.508Z</time></trkpt><trkpt lat="43.516325" lon="10.502105"><ele>107.0</ele><time>2026-04-04T07:26:47.509Z</time></trkpt><trkpt lat="43.5163017" lon="10.5020183"><ele>107.0</ele><time>2026-04-04T07:26:50.508Z</time></trkpt><trkpt lat="43.51628" lon="10.5019317"><ele>107.00000000000001</ele><time>2026-04-04T07:26:53.508Z</time></trkpt><trkpt lat="43.516255" lon="10.5018383"><ele>107.0</ele><time>2026-04-04T07:26:56.509Z</time></trkpt><trkpt lat="43.5162433" lon="10.5017467"><ele>105.66666666666666</ele><time>2026-04-04T07:26:59.509Z</time></trkpt><trkpt lat="43.5162317" lon="10.5016433"><ele>104.33333333333333</ele><time>2026-04-04T07:27:02.508Z</time></trkpt><trkpt lat="43.5162317" lon="10.5015483"><ele>103.0</ele><time>2026-04-04T07:27:05.509Z</time></trkpt><trkpt lat="43.516235" lon="10.501435"><ele>101.66666666666666</ele><time>2026-04-04T07:27:08.508Z</time></trkpt><trkpt lat="43.516225" lon="10.5013083"><ele>100.33333333333333</ele><time>2026-04-04T07:27:11.508Z</time></trkpt><trkpt lat="43.5162233" lon="10.5011917"><ele>99.0</ele><time>2026-04-04T07:27:14.509Z</time></trkpt><trkpt lat="43.5162333" lon="10.5010817"><ele>99.0</ele><time>2026-04-04T07:27:17.508Z</time></trkpt><trkpt lat="43.5162283" lon="10.5009667"><ele>99.0</ele><time>2026-04-04T07:27:20.509Z</time></trkpt><trkpt lat="43.51622" lon="10.50085"><ele>99.0</ele><time>2026-04-04T07:27:23.509Z</time></trkpt><trkpt lat="43.5162167" lon="10.5007167"><ele>99.0</ele><time>2026-04-04T07:27:26.508Z</time></trkpt><trkpt lat="43.5162117" lon="10.500605"><ele>99.0</ele><time>2026-04-04T07:27:29.508Z</time></trkpt><trkpt lat="43.5162067" lon="10.5005017"><ele>99.0</ele><time>2026-04-04T07:27:32.508Z</time></trkpt><trkpt lat="43.5162017" lon="10.5003783"><ele>99.57142857142857</ele><time>2026-04-04T07:27:35.509Z</time></trkpt><trkpt lat="43.5162033" lon="10.5002533"><ele>100.14285714285714</ele><time>2026-04-04T07:27:38.509Z</time></trkpt><trkpt lat="43.516205" lon="10.5001617"><ele>100.71428571428571</ele><time>2026-04-04T07:27:40.508Z</time></trkpt><trkpt lat="43.5162067" lon="10.5000733"><ele>101.28571428571428</ele><time>2026-04-04T07:27:42.508Z</time></trkpt><trkpt lat="43.5162017" lon="10.499985"><ele>101.85714285714286</ele><time>2026-04-04T07:27:44.509Z</time></trkpt><trkpt lat="43.5162033" lon="10.4998917"><ele>102.42857142857142</ele><time>2026-04-04T07:27:46.509Z</time></trkpt><trkpt lat="43.5162067" lon="10.4998017"><ele>103.0</ele><time>2026-04-04T07:27:48.508Z</time></trkpt><trkpt lat="43.5162067" lon="10.4996767"><ele>102.83333333333334</ele><time>2026-04-04T07:27:51.509Z</time></trkpt><trkpt lat="43.51621" lon="10.49956"><ele>102.66666666666667</ele><time>2026-04-04T07:27:54.508Z</time></trkpt><trkpt lat="43.5162167" lon="10.4994467"><ele>102.5</ele><time>2026-04-04T07:27:57.508Z</time></trkpt><trkpt lat="43.51621" lon="10.4993317"><ele>102.33333333333334</ele><time>2026-04-04T07:28:00.508Z</time></trkpt><trkpt lat="43.5162167" lon="10.4992217"><ele>102.16666666666667</ele><time>2026-04-04T07:28:03.508Z</time></trkpt><trkpt lat="43.51622" lon="10.4991083"><ele>102.0</ele><time>2026-04-04T07:28:06.509Z</time></trkpt><trkpt lat="43.5162183" lon="10.49899"><ele>102.0</ele><time>2026-04-04T07:28:09.509Z</time></trkpt><trkpt lat="43.51621" lon="10.4988717"><ele>102.0</ele><time>2026-04-04T07:28:12.509Z</time></trkpt><trkpt lat="43.51621" lon="10.49875"><ele>102.0</ele><time>2026-04-04T07:28:15.508Z</time></trkpt><trkpt lat="43.5162033" lon="10.4986283"><ele>102.0</ele><time>2026-04-04T07:28:18.509Z</time></trkpt><trkpt lat="43.516185" lon="10.498535"><ele>102.0</ele><time>2026-04-04T07:28:20.509Z</time></trkpt><trkpt lat="43.516185" lon="10.4984317"><ele>102.0</ele><time>2026-04-04T07:28:22.508Z</time></trkpt><trkpt lat="43.5161717" lon="10.498335"><ele>102.16666666666667</ele><time>2026-04-04T07:28:24.509Z</time></trkpt><trkpt lat="43.51615" lon="10.4982517"><ele>102.33333333333334</ele><time>2026-04-04T07:28:26.508Z</time></trkpt><trkpt lat="43.5161217" lon="10.4981583"><ele>102.5</ele><time>2026-04-04T07:28:28.508Z</time></trkpt><trkpt lat="43.5160967" lon="10.498065"><ele>102.66666666666667</ele><time>2026-04-04T07:28:30.509Z</time></trkpt><trkpt lat="43.5160633" lon="10.4979433"><ele>102.83333333333334</ele><time>2026-04-04T07:28:33.508Z</time></trkpt><trkpt lat="43.5160333" lon="10.4978283"><ele>103.0</ele><time>2026-04-04T07:28:36.509Z</time></trkpt><trkpt lat="43.5160067" lon="10.4977017"><ele>103.50000000000001</ele><time>2026-04-04T07:28:39.508Z</time></trkpt><trkpt lat="43.515985" lon="10.4976183"><ele>104.0</ele><time>2026-04-04T07:28:41.509Z</time></trkpt><trkpt lat="43.5159567" lon="10.4975"><ele>104.5</ele><time>2026-04-04T07:28:44.509Z</time></trkpt><trkpt lat="43.5159217" lon="10.497385"><ele>105.0</ele><time>2026-04-04T07:28:47.508Z</time></trkpt><trkpt lat="43.51589" lon="10.4972933"><ele>105.50000000000001</ele><time>2026-04-04T07:28:50.508Z</time></trkpt><trkpt lat="43.515865" lon="10.49719"><ele>106.0</ele><time>2026-04-04T07:28:53.508Z</time></trkpt><trkpt lat="43.5158367" lon="10.4970817"><ele>106.00000000000001</ele><time>2026-04-04T07:28:56.509Z</time></trkpt><trkpt lat="43.5158117" lon="10.4969733"><ele>106.0</ele><time>2026-04-04T07:28:59.509Z</time></trkpt><trkpt lat="43.5157867" lon="10.4968533"><ele>106.0</ele><time>2026-04-04T07:29:02.508Z</time></trkpt><trkpt lat="43.5157717" lon="10.4967433"><ele>106.0</ele><time>2026-04-04T07:29:05.509Z</time></trkpt><trkpt lat="43.515765" lon="10.4966267"><ele>106.00000000000001</ele><time>2026-04-04T07:29:08.509Z</time></trkpt><trkpt lat="43.5157617" lon="10.4965133"><ele>106.0</ele><time>2026-04-04T07:29:11.509Z</time></trkpt><trkpt lat="43.5157583" lon="10.4964"><ele>106.00000000000001</ele><time>2026-04-04T07:29:14.509Z</time></trkpt><trkpt lat="43.515765" lon="10.496285"><ele>106.0</ele><time>2026-04-04T07:29:17.509Z</time></trkpt><trkpt lat="43.515775" lon="10.496175"><ele>106.0</ele><time>2026-04-04T07:29:20.508Z</time></trkpt><trkpt lat="43.515795" lon="10.49608"><ele>106.0</ele><time>2026-04-04T07:29:23.508Z</time></trkpt><trkpt lat="43.51581" lon="10.4959933"><ele>106.00000000000001</ele><time>2026-04-04T07:29:26.508Z</time></trkpt><trkpt lat="43.5158367" lon="10.495905"><ele>106.0</ele><time>2026-04-04T07:29:30.509Z</time></trkpt><trkpt lat="43.5158567" lon="10.495795"><ele>106.16666666666667</ele><time>2026-04-04T07:29:33.508Z</time></trkpt><trkpt lat="43.5158733" lon="10.4957033"><ele>106.33333333333334</ele><time>2026-04-04T07:29:36.508Z</time></trkpt><trkpt lat="43.5158983" lon="10.4956017"><ele>106.5</ele><time>2026-04-04T07:29:39.509Z</time></trkpt><trkpt lat="43.5159217" lon="10.4954933"><ele>106.66666666666666</ele><time>2026-04-04T07:29:42.509Z</time></trkpt><trkpt lat="43.515945" lon="10.4953767"><ele>106.83333333333333</ele><time>2026-04-04T07:29:45.508Z</time></trkpt><trkpt lat="43.5159683" lon="10.4952583"><ele>107.0</ele><time>2026-04-04T07:29:48.509Z</time></trkpt><trkpt lat="43.5159867" lon="10.495135"><ele>107.00000000000001</ele><time>2026-04-04T07:29:51.509Z</time></trkpt><trkpt lat="43.516005" lon="10.4950417"><ele>107.0</ele><time>2026-04-04T07:29:53.508Z</time></trkpt><trkpt lat="43.5160267" lon="10.49495"><ele>107.0</ele><time>2026-04-04T07:29:55.508Z</time></trkpt><trkpt lat="43.516055" lon="10.4948667"><ele>107.0</ele><time>2026-04-04T07:29:57.508Z</time></trkpt><trkpt lat="43.5160867" lon="10.4947583"><ele>107.0</ele><time>2026-04-04T07:30:00.508Z</time></trkpt><trkpt lat="43.5161083" lon="10.494675"><ele>107.00000000000001</ele><time>2026-04-04T07:30:03.508Z</time></trkpt><trkpt lat="43.5161083" lon="10.49458"><ele>107.0</ele><time>2026-04-04T07:33:15.508Z</time></trkpt><trkpt lat="43.5161017" lon="10.4944867"><ele>106.33333333333333</ele><time>2026-04-04T07:33:18.508Z</time></trkpt><trkpt lat="43.51608" lon="10.4943817"><ele>105.66666666666666</ele><time>2026-04-04T07:33:21.508Z</time></trkpt><trkpt lat="43.516065" lon="10.4942683"><ele>105.0</ele><time>2026-04-04T07:33:24.508Z</time></trkpt><trkpt lat="43.5160617" lon="10.4941783"><ele>104.33333333333334</ele><time>2026-04-04T07:33:26.508Z</time></trkpt><trkpt lat="43.5160583" lon="10.4940467"><ele>103.66666666666667</ele><time>2026-04-04T07:33:29.509Z</time></trkpt><trkpt lat="43.51605" lon="10.4939567"><ele>103.0</ele><time>2026-04-04T07:33:31.508Z</time></trkpt><trkpt lat="43.5160383" lon="10.493835"><ele>102.83333333333334</ele><time>2026-04-04T07:33:34.509Z</time></trkpt><trkpt lat="43.516025" lon="10.4937083"><ele>102.66666666666667</ele><time>2026-04-04T07:33:37.508Z</time></trkpt><trkpt lat="43.5160183" lon="10.4936183"><ele>102.5</ele><time>2026-04-04T07:33:39.508Z</time></trkpt><trkpt lat="43.51601" lon="10.4935283"><ele>102.33333333333334</ele><time>2026-04-04T07:33:41.509Z</time></trkpt><trkpt lat="43.516" lon="10.4934283"><ele>102.16666666666667</ele><time>2026-04-04T07:33:43.509Z</time></trkpt><trkpt lat="43.515995" lon="10.4933217"><ele>102.0</ele><time>2026-04-04T07:33:45.509Z</time></trkpt><trkpt lat="43.516" lon="10.4932183"><ele>102.0</ele><time>2026-04-04T07:33:47.508Z</time></trkpt><trkpt lat="43.5159967" lon="10.4931133"><ele>102.0</ele><time>2026-04-04T07:33:49.508Z</time></trkpt><trkpt lat="43.5159583" lon="10.4930133"><ele>102.0</ele><time>2026-04-04T07:33:51.508Z</time></trkpt><trkpt lat="43.515925" lon="10.4929133"><ele>102.0</ele><time>2026-04-04T07:33:53.509Z</time></trkpt><trkpt lat="43.5158933" lon="10.49281"><ele>102.0</ele><time>2026-04-04T07:33:55.509Z</time></trkpt><trkpt lat="43.515865" lon="10.49271"><ele>102.0</ele><time>2026-04-04T07:33:57.509Z</time></trkpt><trkpt lat="43.5158383" lon="10.4926117"><ele>102.57142857142857</ele><time>2026-04-04T07:33:59.509Z</time></trkpt><trkpt lat="43.5158117" lon="10.4925267"><ele>103.14285714285714</ele><time>2026-04-04T07:34:01.509Z</time></trkpt><trkpt lat="43.5157817" lon="10.4924433"><ele>103.71428571428572</ele><time>2026-04-04T07:34:03.508Z</time></trkpt><trkpt lat="43.5157517" lon="10.492365"><ele>104.28571428571428</ele><time>2026-04-04T07:34:05.509Z</time></trkpt><trkpt lat="43.5157267" lon="10.4922733"><ele>104.85714285714285</ele><time>2026-04-04T07:34:07.509Z</time></trkpt><trkpt lat="43.515695" lon="10.4921883"><ele>105.42857142857143</ele><time>2026-04-04T07:34:09.509Z</time></trkpt><trkpt lat="43.51568" lon="10.4921017"><ele>106.0</ele><time>2026-04-04T07:34:11.509Z</time></trkpt><trkpt lat="43.5156617" lon="10.492015"><ele>106.50000000000001</ele><time>2026-04-04T07:34:13.508Z</time></trkpt><trkpt lat="43.5156417" lon="10.4919283"><ele>107.0</ele><time>2026-04-04T07:34:15.508Z</time></trkpt><trkpt lat="43.5156217" lon="10.49181"><ele>107.5</ele><time>2026-04-04T07:34:18.509Z</time></trkpt><trkpt lat="43.5156033" lon="10.4916983"><ele>108.0</ele><time>2026-04-04T07:34:21.508Z</time></trkpt><trkpt lat="43.515575" lon="10.4915867"><ele>108.50000000000001</ele><time>2026-04-04T07:34:24.509Z</time></trkpt><trkpt lat="43.5155233" lon="10.4914733"><ele>109.0</ele><time>2026-04-04T07:34:27.509Z</time></trkpt><trkpt lat="43.5154833" lon="10.4913867"><ele>109.00000000000001</ele><time>2026-04-04T07:34:29.509Z</time></trkpt><trkpt lat="43.51544" lon="10.4913117"><ele>109.0</ele><time>2026-04-04T07:34:31.509Z</time></trkpt><trkpt lat="43.5153833" lon="10.4912283"><ele>109.0</ele><time>2026-04-04T07:34:33.509Z</time></trkpt><trkpt lat="43.5152983" lon="10.4911533"><ele>109.0</ele><time>2026-04-04T07:34:35.508Z</time></trkpt><trkpt lat="43.5152233" lon="10.4910817"><ele>109.00000000000001</ele><time>2026-04-04T07:34:37.509Z</time></trkpt><trkpt lat="43.5151517" lon="10.4910117"><ele>109.0</ele><time>2026-04-04T07:34:39.509Z</time></trkpt><trkpt lat="43.5150833" lon="10.490945"><ele>108.50000000000001</ele><time>2026-04-04T07:34:41.509Z</time></trkpt><trkpt lat="43.5150167" lon="10.49089"><ele>108.0</ele><time>2026-04-04T07:34:43.509Z</time></trkpt><trkpt lat="43.51496" lon="10.49084"><ele>107.5</ele><time>2026-04-04T07:34:45.509Z</time></trkpt><trkpt lat="43.5149017" lon="10.4907983"><ele>107.0</ele><time>2026-04-04T07:34:47.509Z</time></trkpt><trkpt lat="43.5148367" lon="10.490755"><ele>106.50000000000001</ele><time>2026-04-04T07:34:49.508Z</time></trkpt><trkpt lat="43.51476" lon="10.4906867"><ele>106.0</ele><time>2026-04-04T07:34:52.508Z</time></trkpt><trkpt lat="43.5146833" lon="10.4906383"><ele>106.00000000000001</ele><time>2026-04-04T07:34:55.509Z</time></trkpt><trkpt lat="43.5145967" lon="10.4906333"><ele>106.0</ele><time>2026-04-04T07:34:58.508Z</time></trkpt><trkpt lat="43.5145083" lon="10.4906533"><ele>106.0</ele><time>2026-04-04T07:35:01.508Z</time></trkpt><trkpt lat="43.5144217" lon="10.4906783"><ele>106.0</ele><time>2026-04-04T07:35:04.509Z</time></trkpt><trkpt lat="43.5143583" lon="10.4907017"><ele>106.00000000000001</ele><time>2026-04-04T07:35:06.509Z</time></trkpt><trkpt lat="43.5142967" lon="10.4907283"><ele>106.0</ele><time>2026-04-04T07:35:08.508Z</time></trkpt><trkpt lat="43.514235" lon="10.490755"><ele>105.33333333333334</ele><time>2026-04-04T07:35:10.508Z</time></trkpt><trkpt lat="43.5141667" lon="10.4907833"><ele>104.66666666666667</ele><time>2026-04-04T07:35:12.507Z</time></trkpt><trkpt lat="43.5140933" lon="10.4908083"><ele>104.0</ele><time>2026-04-04T07:35:14.507Z</time></trkpt><trkpt lat="43.51402" lon="10.4908233"><ele>103.33333333333334</ele><time>2026-04-04T07:35:16.507Z</time></trkpt><trkpt lat="43.513955" lon="10.49082"><ele>102.66666666666667</ele><time>2026-04-04T07:35:18.508Z</time></trkpt><trkpt lat="43.5138717" lon="10.4907917"><ele>102.0</ele><time>2026-04-04T07:35:21.507Z</time></trkpt><trkpt lat="43.5137967" lon="10.4907367"><ele>101.83333333333333</ele><time>2026-04-04T07:35:24.508Z</time></trkpt><trkpt lat="43.5137283" lon="10.490685"><ele>101.66666666666666</ele><time>2026-04-04T07:35:27.507Z</time></trkpt><trkpt lat="43.5136667" lon="10.4906067"><ele>101.5</ele><time>2026-04-04T07:35:31.508Z</time></trkpt><trkpt lat="43.5136233" lon="10.4905267"><ele>101.33333333333333</ele><time>2026-04-04T07:35:34.507Z</time></trkpt><trkpt lat="43.5135767" lon="10.490445"><ele>101.16666666666666</ele><time>2026-04-04T07:35:37.508Z</time></trkpt><trkpt lat="43.5135417" lon="10.4903517"><ele>101.0</ele><time>2026-04-04T07:35:40.508Z</time></trkpt><trkpt lat="43.5134983" lon="10.4902517"><ele>102.49999999999999</ele><time>2026-04-04T07:35:44.508Z</time></trkpt><trkpt lat="43.5134683" lon="10.4901667"><ele>104.0</ele><time>2026-04-04T07:35:47.507Z</time></trkpt><trkpt lat="43.513425" lon="10.4900683"><ele>105.5</ele><time>2026-04-04T07:35:51.508Z</time></trkpt><trkpt lat="43.5133883" lon="10.4899717"><ele>107.0</ele><time>2026-04-04T07:35:55.507Z</time></trkpt><trkpt lat="43.513345" lon="10.4898783"><ele>108.49999999999999</ele><time>2026-04-04T07:35:59.508Z</time></trkpt><trkpt lat="43.5133033" lon="10.4897783"><ele>110.0</ele><time>2026-04-04T07:36:03.508Z</time></trkpt><trkpt lat="43.5132733" lon="10.4896717"><ele>111.14285714285714</ele><time>2026-04-04T07:36:07.507Z</time></trkpt><trkpt lat="43.513235" lon="10.4895783"><ele>112.28571428571428</ele><time>2026-04-04T07:36:11.508Z</time></trkpt><trkpt lat="43.513205" lon="10.4894967"><ele>113.42857142857142</ele><time>2026-04-04T07:36:15.508Z</time></trkpt><trkpt lat="43.51318" lon="10.489415"><ele>114.57142857142857</ele><time>2026-04-04T07:36:19.508Z</time></trkpt><trkpt lat="43.513155" lon="10.4893233"><ele>115.71428571428572</ele><time>2026-04-04T07:36:24.508Z</time></trkpt><trkpt lat="43.5131267" lon="10.4892417"><ele>116.85714285714285</ele><time>2026-04-04T07:36:29.508Z</time></trkpt><trkpt lat="43.5131067" lon="10.48915"><ele>118.0</ele><time>2026-04-04T07:36:34.507Z</time></trkpt><trkpt lat="43.5130967" lon="10.4890567"><ele>118.0</ele><time>2026-04-04T07:36:40.507Z</time></trkpt><trkpt lat="43.5130767" lon="10.4889617"><ele>118.0</ele><time>2026-04-04T07:36:46.508Z</time></trkpt><trkpt lat="43.5130617" lon="10.48886"><ele>118.0</ele><time>2026-04-04T07:36:52.507Z</time></trkpt><trkpt lat="43.5130817" lon="10.4887633"><ele>118.0</ele><time>2026-04-04T07:36:58.507Z</time></trkpt><trkpt lat="43.5131217" lon="10.4886933"><ele>118.0</ele><time>2026-04-04T07:37:03.507Z</time></trkpt><trkpt lat="43.513175" lon="10.4886333"><ele>118.0</ele><time>2026-04-04T07:37:08.507Z</time></trkpt><trkpt lat="43.51322" lon="10.48856"><ele>118.0</ele><time>2026-04-04T07:37:13.508Z</time></trkpt><trkpt lat="43.5132567" lon="10.488475"><ele>118.33333333333334</ele><time>2026-04-04T07:37:17.507Z</time></trkpt><trkpt lat="43.51328" lon="10.4883883"><ele>118.66666666666667</ele><time>2026-04-04T07:37:21.508Z</time></trkpt><trkpt lat="43.513295" lon="10.4882983"><ele>119.0</ele><time>2026-04-04T07:37:24.507Z</time></trkpt><trkpt lat="43.5133067" lon="10.4881967"><ele>119.33333333333334</ele><time>2026-04-04T07:37:27.508Z</time></trkpt><trkpt lat="43.513315" lon="10.4880733"><ele>119.66666666666667</ele><time>2026-04-04T07:37:30.508Z</time></trkpt><trkpt lat="43.5133217" lon="10.4879483"><ele>120.0</ele><time>2026-04-04T07:37:33.508Z</time></trkpt><trkpt lat="43.5133333" lon="10.4878233"><ele>120.0</ele><time>2026-04-04T07:37:36.508Z</time></trkpt><trkpt lat="43.5133317" lon="10.487735"><ele>120.0</ele><time>2026-04-04T07:37:38.507Z</time></trkpt><trkpt lat="43.5133133" lon="10.4876133"><ele>120.0</ele><time>2026-04-04T07:37:41.507Z</time></trkpt><trkpt lat="43.5132983" lon="10.4874917"><ele>120.0</ele><time>2026-04-04T07:37:44.508Z</time></trkpt><trkpt lat="43.51327" lon="10.487375"><ele>120.0</ele><time>2026-04-04T07:37:47.507Z</time></trkpt><trkpt lat="43.51325" lon="10.4872867"><ele>120.0</ele><time>2026-04-04T07:37:49.507Z</time></trkpt><trkpt lat="43.51324" lon="10.4871733"><ele>120.57142857142858</ele><time>2026-04-04T07:37:52.507Z</time></trkpt><trkpt lat="43.51325" lon="10.487055"><ele>121.14285714285714</ele><time>2026-04-04T07:37:56.507Z</time></trkpt><trkpt lat="43.5132617" lon="10.4869583"><ele>121.71428571428572</ele><time>2026-04-04T07:37:59.508Z</time></trkpt><trkpt lat="43.5132817" lon="10.4868667"><ele>122.28571428571429</ele><time>2026-04-04T07:38:02.508Z</time></trkpt><trkpt lat="43.5132833" lon="10.486775"><ele>122.85714285714286</ele><time>2026-04-04T07:38:05.507Z</time></trkpt><trkpt lat="43.5132783" lon="10.4866767"><ele>123.42857142857143</ele><time>2026-04-04T07:38:08.507Z</time></trkpt><trkpt lat="43.5132683" lon="10.486575"><ele>124.0</ele><time>2026-04-04T07:38:11.507Z</time></trkpt><trkpt lat="43.513255" lon="10.4864817"><ele>124.00000000000001</ele><time>2026-04-04T07:38:14.508Z</time></trkpt><trkpt lat="43.5132283" lon="10.4863783"><ele>124.0</ele><time>2026-04-04T07:38:17.507Z</time></trkpt><trkpt lat="43.5132033" lon="10.486285"><ele>124.0</ele><time>2026-04-04T07:38:20.508Z</time></trkpt><trkpt lat="43.5131783" lon="10.4861967"><ele>124.0</ele><time>2026-04-04T07:38:23.508Z</time></trkpt><trkpt lat="43.5131417" lon="10.4861033"><ele>124.00000000000001</ele><time>2026-04-04T07:38:26.507Z</time></trkpt><trkpt lat="43.51309" lon="10.4860083"><ele>124.0</ele><time>2026-04-04T07:38:29.507Z</time></trkpt><trkpt lat="43.5130317" lon="10.4859183"><ele>123.50000000000001</ele><time>2026-04-04T07:38:32.507Z</time></trkpt><trkpt lat="43.512975" lon="10.4858367"><ele>123.0</ele><time>2026-04-04T07:38:35.507Z</time></trkpt><trkpt lat="43.5129117" lon="10.4857617"><ele>122.5</ele><time>2026-04-04T07:38:38.508Z</time></trkpt><trkpt lat="43.512845" lon="10.4856867"><ele>122.0</ele><time>2026-04-04T07:38:41.507Z</time></trkpt><trkpt lat="43.5127767" lon="10.4856067"><ele>121.50000000000001</ele><time>2026-04-04T07:38:44.508Z</time></trkpt><trkpt lat="43.51273" lon="10.4855483"><ele>121.0</ele><time>2026-04-04T07:38:46.508Z</time></trkpt><trkpt lat="43.5126833" lon="10.4854833"><ele>122.00000000000001</ele><time>2026-04-04T07:38:48.508Z</time></trkpt><trkpt lat="43.5126383" lon="10.48542"><ele>123.0</ele><time>2026-04-04T07:38:50.507Z</time></trkpt><trkpt lat="43.512585" lon="10.485355"><ele>124.0</ele><time>2026-04-04T07:38:52.508Z</time></trkpt><trkpt lat="43.5125267" lon="10.4852967"><ele>125.0</ele><time>2026-04-04T07:38:54.508Z</time></trkpt><trkpt lat="43.51245" lon="10.4852383"><ele>126.00000000000001</ele><time>2026-04-04T07:38:56.508Z</time></trkpt><trkpt lat="43.51237" lon="10.48517"><ele>127.0</ele><time>2026-04-04T07:38:58.508Z</time></trkpt><trkpt lat="43.5122817" lon="10.4851117"><ele>127.0</ele><time>2026-04-04T07:39:00.508Z</time></trkpt><trkpt lat="43.512195" lon="10.4850483"><ele>126.99999999999999</ele><time>2026-04-04T07:39:02.508Z</time></trkpt><trkpt lat="43.512105" lon="10.4849883"><ele>126.99999999999999</ele><time>2026-04-04T07:39:04.508Z</time></trkpt><trkpt lat="43.5120267" lon="10.4849133"><ele>127.0</ele><time>2026-04-04T07:39:06.507Z</time></trkpt><trkpt lat="43.51196" lon="10.48483"><ele>127.0</ele><time>2026-04-04T07:39:08.508Z</time></trkpt><trkpt lat="43.5119067" lon="10.484715"><ele>126.42857142857143</ele><time>2026-04-04T07:39:10.508Z</time></trkpt><trkpt lat="43.5118583" lon="10.4846183"><ele>125.85714285714286</ele><time>2026-04-04T07:39:12.507Z</time></trkpt><trkpt lat="43.5118133" lon="10.4845333"><ele>125.28571428571429</ele><time>2026-04-04T07:39:14.508Z</time></trkpt><trkpt lat="43.51176" lon="10.4844733"><ele>124.71428571428572</ele><time>2026-04-04T07:39:16.507Z</time></trkpt><trkpt lat="43.5117067" lon="10.4844233"><ele>124.14285714285714</ele><time>2026-04-04T07:39:18.508Z</time></trkpt><trkpt lat="43.51164" lon="10.4843717"><ele>123.57142857142858</ele><time>2026-04-04T07:39:20.507Z</time></trkpt><trkpt lat="43.51157" lon="10.484325"><ele>123.00000000000001</ele><time>2026-04-04T07:39:22.507Z</time></trkpt><trkpt lat="43.51151" lon="10.4842767"><ele>123.0</ele><time>2026-04-04T07:39:24.508Z</time></trkpt><trkpt lat="43.5114467" lon="10.4842333"><ele>123.0</ele><time>2026-04-04T07:39:26.507Z</time></trkpt><trkpt lat="43.5113633" lon="10.4841833"><ele>123.0</ele><time>2026-04-04T07:39:28.508Z</time></trkpt><trkpt lat="43.5112883" lon="10.484135"><ele>123.0</ele><time>2026-04-04T07:39:30.507Z</time></trkpt><trkpt lat="43.5112167" lon="10.4840817"><ele>123.0</ele><time>2026-04-04T07:39:32.507Z</time></trkpt><trkpt lat="43.511155" lon="10.4840433"><ele>123.0</ele><time>2026-04-04T07:39:34.508Z</time></trkpt><trkpt lat="43.5110883" lon="10.4840033"><ele>122.2</ele><time>2026-04-04T07:39:36.508Z</time></trkpt><trkpt lat="43.5110083" lon="10.4839317"><ele>121.4</ele><time>2026-04-04T07:39:39.507Z</time></trkpt><trkpt lat="43.510925" lon="10.48385"><ele>120.60000000000001</ele><time>2026-04-04T07:39:41.507Z</time></trkpt><trkpt lat="43.5108417" lon="10.4837867"><ele>119.80000000000001</ele><time>2026-04-04T07:39:43.508Z</time></trkpt><trkpt lat="43.51076" lon="10.483735"><ele>119.0</ele><time>2026-04-04T07:39:45.507Z</time></trkpt><trkpt lat="43.5106883" lon="10.4836783"><ele>119.16666666666666</ele><time>2026-04-04T07:39:47.508Z</time></trkpt><trkpt lat="43.5106167" lon="10.4836333"><ele>119.33333333333333</ele><time>2026-04-04T07:39:49.508Z</time></trkpt><trkpt lat="43.5105483" lon="10.4835933"><ele>119.5</ele><time>2026-04-04T07:39:51.508Z</time></trkpt><trkpt lat="43.5104683" lon="10.4835617"><ele>119.66666666666666</ele><time>2026-04-04T07:39:53.507Z</time></trkpt><trkpt lat="43.5103933" lon="10.4835283"><ele>119.83333333333333</ele><time>2026-04-04T07:39:55.507Z</time></trkpt><trkpt lat="43.5103217" lon="10.4835117"><ele>120.0</ele><time>2026-04-04T07:39:57.508Z</time></trkpt><trkpt lat="43.510245" lon="10.4835117"><ele>120.0</ele><time>2026-04-04T07:39:59.508Z</time></trkpt><trkpt lat="43.510165" lon="10.48352"><ele>120.0</ele><time>2026-04-04T07:40:01.507Z</time></trkpt><trkpt lat="43.5100883" lon="10.4835417"><ele>120.0</ele><time>2026-04-04T07:40:03.508Z</time></trkpt><trkpt lat="43.510015" lon="10.4835567"><ele>120.0</ele><time>2026-04-04T07:40:05.507Z</time></trkpt><trkpt lat="43.5099467" lon="10.483585"><ele>120.0</ele><time>2026-04-04T07:40:07.507Z</time></trkpt><trkpt lat="43.5098833" lon="10.4836183"><ele>120.0</ele><time>2026-04-04T07:40:09.508Z</time></trkpt><trkpt lat="43.5098183" lon="10.4836483"><ele>120.0</ele><time>2026-04-04T07:40:11.508Z</time></trkpt><trkpt lat="43.5097533" lon="10.48367"><ele>120.0</ele><time>2026-04-04T07:40:13.507Z</time></trkpt><trkpt lat="43.509685" lon="10.4836983"><ele>120.0</ele><time>2026-04-04T07:40:15.508Z</time></trkpt><trkpt lat="43.5096183" lon="10.48372"><ele>120.0</ele><time>2026-04-04T07:40:17.507Z</time></trkpt><trkpt lat="43.5095267" lon="10.4837517"><ele>120.0</ele><time>2026-04-04T07:40:20.507Z</time></trkpt><trkpt lat="43.5094667" lon="10.4837817"><ele>120.0</ele><time>2026-04-04T07:40:22.507Z</time></trkpt><trkpt lat="43.509385" lon="10.4838133"><ele>120.0</ele><time>2026-04-04T07:40:25.507Z</time></trkpt><trkpt lat="43.5093233" lon="10.4838467"><ele>120.0</ele><time>2026-04-04T07:40:28.507Z</time></trkpt><trkpt lat="43.509245" lon="10.4838917"><ele>121.14285714285714</ele><time>2026-04-04T07:40:31.508Z</time></trkpt><trkpt lat="43.5091833" lon="10.4839217"><ele>122.28571428571428</ele><time>2026-04-04T07:40:33.507Z</time></trkpt><trkpt lat="43.5091067" lon="10.483935"><ele>123.42857142857142</ele><time>2026-04-04T07:40:36.507Z</time></trkpt><trkpt lat="43.5090367" lon="10.4839583"><ele>124.57142857142857</ele><time>2026-04-04T07:40:39.508Z</time></trkpt><trkpt lat="43.50896" lon="10.4839817"><ele>125.7142857142857</ele><time>2026-04-04T07:40:42.508Z</time></trkpt><trkpt lat="43.50889" lon="10.4840167"><ele>126.85714285714285</ele><time>2026-04-04T07:40:45.507Z</time></trkpt><trkpt lat="43.5088267" lon="10.4840483"><ele>128.0</ele><time>2026-04-04T07:40:48.508Z</time></trkpt><trkpt lat="43.5087583" lon="10.4840867"><ele>129.0</ele><time>2026-04-04T07:40:52.508Z</time></trkpt><trkpt lat="43.508685" lon="10.484115"><ele>130.0</ele><time>2026-04-04T07:40:56.507Z</time></trkpt><trkpt lat="43.5086183" lon="10.484135"><ele>131.0</ele><time>2026-04-04T07:40:59.508Z</time></trkpt><trkpt lat="43.50854" lon="10.4841533"><ele>132.0</ele><time>2026-04-04T07:41:03.507Z</time></trkpt><trkpt lat="43.5084633" lon="10.48418"><ele>133.0</ele><time>2026-04-04T07:41:07.508Z</time></trkpt><trkpt lat="43.5083833" lon="10.4842083"><ele>134.0</ele><time>2026-04-04T07:41:11.508Z</time></trkpt><trkpt lat="43.5083083" lon="10.4842383"><ele>134.0</ele><time>2026-04-04T07:41:15.507Z</time></trkpt><trkpt lat="43.5082317" lon="10.4842567"><ele>134.0</ele><time>2026-04-04T07:41:19.507Z</time></trkpt><trkpt lat="43.5081533" lon="10.4842733"><ele>134.0</ele><time>2026-04-04T07:41:23.508Z</time></trkpt><trkpt lat="43.5080717" lon="10.4842817"><ele>134.0</ele><time>2026-04-04T07:41:27.507Z</time></trkpt><trkpt lat="43.5079883" lon="10.4842833"><ele>134.0</ele><time>2026-04-04T07:41:31.508Z</time></trkpt><trkpt lat="43.5079183" lon="10.4842683"><ele>134.0</ele><time>2026-04-04T07:41:34.507Z</time></trkpt><trkpt lat="43.5078483" lon="10.4842617"><ele>133.71428571428572</ele><time>2026-04-04T07:41:37.507Z</time></trkpt><trkpt lat="43.507775" lon="10.484265"><ele>133.42857142857142</ele><time>2026-04-04T07:41:40.507Z</time></trkpt><trkpt lat="43.5077033" lon="10.4842583"><ele>133.14285714285714</ele><time>2026-04-04T07:41:43.508Z</time></trkpt><trkpt lat="43.50763" lon="10.4842633"><ele>132.85714285714286</ele><time>2026-04-04T07:41:46.508Z</time></trkpt><trkpt lat="43.5075667" lon="10.48426"><ele>132.57142857142858</ele><time>2026-04-04T07:41:49.508Z</time></trkpt><trkpt lat="43.5074917" lon="10.4842517"><ele>132.28571428571428</ele><time>2026-04-04T07:41:52.507Z</time></trkpt><trkpt lat="43.5074133" lon="10.4842267"><ele>132.0</ele><time>2026-04-04T07:41:55.508Z</time></trkpt><trkpt lat="43.507355" lon="10.4841933"><ele>132.0</ele><time>2026-04-04T07:41:57.508Z</time></trkpt><trkpt lat="43.50728" lon="10.4841533"><ele>132.0</ele><time>2026-04-04T07:41:59.507Z</time></trkpt><trkpt lat="43.5071967" lon="10.4841067"><ele>132.0</ele><time>2026-04-04T07:42:01.508Z</time></trkpt><trkpt lat="43.5071083" lon="10.4840483"><ele>132.0</ele><time>2026-04-04T07:42:03.508Z</time></trkpt><trkpt lat="43.5070083" lon="10.4839817"><ele>132.0</ele><time>2026-04-04T07:42:05.508Z</time></trkpt><trkpt lat="43.5069067" lon="10.4839083"><ele>131.25</ele><time>2026-04-04T07:42:07.508Z</time></trkpt><trkpt lat="43.5068017" lon="10.4838367"><ele>130.5</ele><time>2026-04-04T07:42:09.508Z</time></trkpt><trkpt lat="43.5066983" lon="10.48379"><ele>129.75</ele><time>2026-04-04T07:42:11.507Z</time></trkpt><trkpt lat="43.5065933" lon="10.4837633"><ele>129.0</ele><time>2026-04-04T07:42:13.508Z</time></trkpt><trkpt lat="43.506475" lon="10.48381"><ele>128.99999999999997</ele><time>2026-04-04T07:42:15.507Z</time></trkpt><trkpt lat="43.5064183" lon="10.4838583"><ele>129.0</ele><time>2026-04-04T07:42:16.507Z</time></trkpt><trkpt lat="43.506365" lon="10.4839117"><ele>129.0</ele><time>2026-04-04T07:42:17.508Z</time></trkpt><trkpt lat="43.5063133" lon="10.483975"><ele>129.0</ele><time>2026-04-04T07:42:18.507Z</time></trkpt><trkpt lat="43.50626" lon="10.4840433"><ele>129.0</ele><time>2026-04-04T07:42:19.508Z</time></trkpt><trkpt lat="43.5062133" lon="10.4841183"><ele>128.99999999999997</ele><time>2026-04-04T07:42:20.507Z</time></trkpt><trkpt lat="43.5061683" lon="10.4841967"><ele>129.0</ele><time>2026-04-04T07:42:21.507Z</time></trkpt><trkpt lat="43.5061217" lon="10.48428"><ele>127.7142857142857</ele><time>2026-04-04T07:42:22.508Z</time></trkpt><trkpt lat="43.506075" lon="10.4843667"><ele>126.42857142857142</ele><time>2026-04-04T07:42:23.507Z</time></trkpt><trkpt lat="43.5060267" lon="10.4844533"><ele>125.14285714285714</ele><time>2026-04-04T07:42:24.508Z</time></trkpt><trkpt lat="43.5059867" lon="10.4845383"><ele>123.85714285714285</ele><time>2026-04-04T07:42:25.507Z</time></trkpt><trkpt lat="43.505945" lon="10.484625"><ele>122.57142857142856</ele><time>2026-04-04T07:42:26.507Z</time></trkpt><trkpt lat="43.5059017" lon="10.484705"><ele>121.28571428571429</ele><time>2026-04-04T07:42:27.507Z</time></trkpt><trkpt lat="43.5058567" lon="10.4847767"><ele>120.0</ele><time>2026-04-04T07:42:28.507Z</time></trkpt><trkpt lat="43.50581" lon="10.4848517"><ele>120.0</ele><time>2026-04-04T07:42:29.507Z</time></trkpt><trkpt lat="43.505765" lon="10.4849233"><ele>120.0</ele><time>2026-04-04T07:42:30.507Z</time></trkpt><trkpt lat="43.5057167" lon="10.4849833"><ele>120.0</ele><time>2026-04-04T07:42:31.507Z</time></trkpt><trkpt lat="43.5056333" lon="10.4850917"><ele>120.0</ele><time>2026-04-04T07:42:33.508Z</time></trkpt><trkpt lat="43.50554" lon="10.4851967"><ele>120.0</ele><time>2026-04-04T07:42:35.507Z</time></trkpt><trkpt lat="43.5054567" lon="10.4852733"><ele>120.16666666666667</ele><time>2026-04-04T07:42:37.508Z</time></trkpt><trkpt lat="43.5053833" lon="10.4853483"><ele>120.33333333333334</ele><time>2026-04-04T07:42:39.508Z</time></trkpt><trkpt lat="43.5053117" lon="10.4854233"><ele>120.5</ele><time>2026-04-04T07:42:41.508Z</time></trkpt><trkpt lat="43.5052567" lon="10.48549"><ele>120.66666666666667</ele><time>2026-04-04T07:42:43.508Z</time></trkpt><trkpt lat="43.5052067" lon="10.48556"><ele>120.83333333333334</ele><time>2026-04-04T07:42:45.508Z</time></trkpt><trkpt lat="43.5051483" lon="10.485625"><ele>121.0</ele><time>2026-04-04T07:42:47.507Z</time></trkpt><trkpt lat="43.5051017" lon="10.485685"><ele>121.00000000000001</ele><time>2026-04-04T07:42:49.508Z</time></trkpt><trkpt lat="43.5050367" lon="10.4857583"><ele>121.0</ele><time>2026-04-04T07:42:52.507Z</time></trkpt><trkpt lat="43.50497" lon="10.485835"><ele>121.0</ele><time>2026-04-04T07:42:55.508Z</time></trkpt><trkpt lat="43.50491" lon="10.48589"><ele>121.0</ele><time>2026-04-04T07:42:57.507Z</time></trkpt><trkpt lat="43.5048567" lon="10.4859533"><ele>121.00000000000001</ele><time>2026-04-04T07:42:59.507Z</time></trkpt><trkpt lat="43.5047983" lon="10.486015"><ele>121.0</ele><time>2026-04-04T07:43:01.508Z</time></trkpt><trkpt lat="43.5047283" lon="10.48606"><ele>121.00000000000001</ele><time>2026-04-04T07:43:03.507Z</time></trkpt><trkpt lat="43.5046567" lon="10.48612"><ele>121.0</ele><time>2026-04-04T07:43:05.508Z</time></trkpt><trkpt lat="43.504585" lon="10.486175"><ele>121.0</ele><time>2026-04-04T07:43:07.507Z</time></trkpt><trkpt lat="43.5045133" lon="10.4862233"><ele>121.0</ele><time>2026-04-04T07:43:09.507Z</time></trkpt><trkpt lat="43.5044433" lon="10.4862683"><ele>121.00000000000001</ele><time>2026-04-04T07:43:11.508Z</time></trkpt><trkpt lat="43.5043783" lon="10.4863283"><ele>121.0</ele><time>2026-04-04T07:43:13.508Z</time></trkpt><trkpt lat="43.504325" lon="10.4864033"><ele>120.57142857142857</ele><time>2026-04-04T07:43:15.508Z</time></trkpt><trkpt lat="43.50427" lon="10.486485"><ele>120.14285714285714</ele><time>2026-04-04T07:43:17.507Z</time></trkpt><trkpt lat="43.5042167" lon="10.4865567"><ele>119.71428571428571</ele><time>2026-04-04T07:43:19.508Z</time></trkpt><trkpt lat="43.5041633" lon="10.4866233"><ele>119.28571428571428</ele><time>2026-04-04T07:43:21.507Z</time></trkpt><trkpt lat="43.5041083" lon="10.4866833"><ele>118.85714285714286</ele><time>2026-04-04T07:43:23.507Z</time></trkpt><trkpt lat="43.50405" lon="10.4867467"><ele>118.42857142857142</ele><time>2026-04-04T07:43:25.507Z</time></trkpt><trkpt lat="43.5039883" lon="10.486805"><ele>118.0</ele><time>2026-04-04T07:43:27.508Z</time></trkpt><trkpt lat="43.5039333" lon="10.4868617"><ele>118.00000000000001</ele><time>2026-04-04T07:43:29.508Z</time></trkpt><trkpt lat="43.50388" lon="10.48691"><ele>118.0</ele><time>2026-04-04T07:43:31.508Z</time></trkpt><trkpt lat="43.5038033" lon="10.4869817"><ele>118.0</ele><time>2026-04-04T07:43:34.507Z</time></trkpt><trkpt lat="43.50373" lon="10.4870567"><ele>118.0</ele><time>2026-04-04T07:43:37.507Z</time></trkpt><trkpt lat="43.5036617" lon="10.4871267"><ele>118.00000000000001</ele><time>2026-04-04T07:43:40.508Z</time></trkpt><trkpt lat="43.5036083" lon="10.48718"><ele>118.0</ele><time>2026-04-04T07:43:42.507Z</time></trkpt><trkpt lat="43.50354" lon="10.4872567"><ele>119.83333333333334</ele><time>2026-04-04T07:43:45.508Z</time></trkpt><trkpt lat="43.503485" lon="10.4873067"><ele>121.66666666666667</ele><time>2026-04-04T07:43:47.508Z</time></trkpt><trkpt lat="43.5034333" lon="10.4873567"><ele>123.5</ele><time>2026-04-04T07:43:49.507Z</time></trkpt><trkpt lat="43.50336" lon="10.48743"><ele>125.33333333333334</ele><time>2026-04-04T07:43:52.508Z</time></trkpt><trkpt lat="43.50329" lon="10.4874983"><ele>127.16666666666667</ele><time>2026-04-04T07:43:55.507Z</time></trkpt><trkpt lat="43.503215" lon="10.487565"><ele>129.0</ele><time>2026-04-04T07:43:58.508Z</time></trkpt><trkpt lat="43.5031483" lon="10.4876317"><ele>129.0</ele><time>2026-04-04T07:44:01.508Z</time></trkpt><trkpt lat="43.503085" lon="10.4876883"><ele>129.0</ele><time>2026-04-04T07:44:04.507Z</time></trkpt><trkpt lat="43.5030233" lon="10.4877533"><ele>129.0</ele><time>2026-04-04T07:44:07.507Z</time></trkpt><trkpt lat="43.502965" lon="10.4878167"><ele>129.0</ele><time>2026-04-04T07:44:10.507Z</time></trkpt><trkpt lat="43.5029017" lon="10.4878767"><ele>129.0</ele><time>2026-04-04T07:44:13.507Z</time></trkpt><trkpt lat="43.50284" lon="10.4879383"><ele>129.0</ele><time>2026-04-04T07:44:16.508Z</time></trkpt><trkpt lat="43.5027733" lon="10.4880083"><ele>129.16666666666666</ele><time>2026-04-04T07:44:19.507Z</time></trkpt><trkpt lat="43.5027117" lon="10.4880817"><ele>129.33333333333334</ele><time>2026-04-04T07:44:22.508Z</time></trkpt><trkpt lat="43.50265" lon="10.48816"><ele>129.5</ele><time>2026-04-04T07:44:25.507Z</time></trkpt><trkpt lat="43.502595" lon="10.48825"><ele>129.66666666666669</ele><time>2026-04-04T07:44:28.508Z</time></trkpt><trkpt lat="43.502535" lon="10.48834"><ele>129.83333333333334</ele><time>2026-04-04T07:44:31.508Z</time></trkpt><trkpt lat="43.50249" lon="10.488405"><ele>130.0</ele><time>2026-04-04T07:44:33.508Z</time></trkpt><trkpt lat="43.5024483" lon="10.4884817"><ele>130.00000000000003</ele><time>2026-04-04T07:44:35.507Z</time></trkpt><trkpt lat="43.5024083" lon="10.4885567"><ele>130.0</ele><time>2026-04-04T07:44:37.507Z</time></trkpt><trkpt lat="43.502365" lon="10.48864"><ele>130.0</ele><time>2026-04-04T07:44:39.507Z</time></trkpt><trkpt lat="43.5023233" lon="10.4887183"><ele>130.0</ele><time>2026-04-04T07:44:41.507Z</time></trkpt><trkpt lat="43.5022817" lon="10.4887983"><ele>130.0</ele><time>2026-04-04T07:44:43.507Z</time></trkpt><trkpt lat="43.5022383" lon="10.4888767"><ele>130.00000000000003</ele><time>2026-04-04T07:44:45.508Z</time></trkpt><trkpt lat="43.5021867" lon="10.4889533"><ele>130.0</ele><time>2026-04-04T07:44:47.507Z</time></trkpt><trkpt lat="43.5021417" lon="10.48902"><ele>129.85714285714286</ele><time>2026-04-04T07:44:49.508Z</time></trkpt><trkpt lat="43.502095" lon="10.4890867"><ele>129.71428571428572</ele><time>2026-04-04T07:44:51.508Z</time></trkpt><trkpt lat="43.502045" lon="10.489155"><ele>129.57142857142856</ele><time>2026-04-04T07:44:53.507Z</time></trkpt><trkpt lat="43.5019933" lon="10.4892267"><ele>129.42857142857144</ele><time>2026-04-04T07:44:55.507Z</time></trkpt><trkpt lat="43.501945" lon="10.4892933"><ele>129.28571428571428</ele><time>2026-04-04T07:44:57.508Z</time></trkpt><trkpt lat="43.501885" lon="10.489355"><ele>129.14285714285714</ele><time>2026-04-04T07:44:59.508Z</time></trkpt><trkpt lat="43.5018317" lon="10.4894283"><ele>129.0</ele><time>2026-04-04T07:45:01.507Z</time></trkpt><trkpt lat="43.5017783" lon="10.4895033"><ele>128.99999999999997</ele><time>2026-04-04T07:45:03.507Z</time></trkpt><trkpt lat="43.5017233" lon="10.4895783"><ele>129.0</ele><time>2026-04-04T07:45:05.507Z</time></trkpt><trkpt lat="43.5016667" lon="10.4896383"><ele>129.0</ele><time>2026-04-04T07:45:07.507Z</time></trkpt><trkpt lat="43.5016183" lon="10.4897067"><ele>129.0</ele><time>2026-04-04T07:45:09.507Z</time></trkpt><trkpt lat="43.5015633" lon="10.4897617"><ele>129.0</ele><time>2026-04-04T07:45:11.507Z</time></trkpt><trkpt lat="43.50151" lon="10.4898233"><ele>128.99999999999997</ele><time>2026-04-04T07:45:13.508Z</time></trkpt><trkpt lat="43.5014583" lon="10.4898867"><ele>129.0</ele><time>2026-04-04T07:45:15.507Z</time></trkpt><trkpt lat="43.5013983" lon="10.48997"><ele>129.5</ele><time>2026-04-04T07:45:17.507Z</time></trkpt><trkpt lat="43.5013417" lon="10.4900467"><ele>130.0</ele><time>2026-04-04T07:45:19.507Z</time></trkpt><trkpt lat="43.501285" lon="10.4901217"><ele>130.5</ele><time>2026-04-04T07:45:21.508Z</time></trkpt><trkpt lat="43.5012317" lon="10.4901917"><ele>131.0</ele><time>2026-04-04T07:45:23.507Z</time></trkpt><trkpt lat="43.5011733" lon="10.490265"><ele>131.5</ele><time>2026-04-04T07:45:25.508Z</time></trkpt><trkpt lat="43.50111" lon="10.4903383"><ele>132.0</ele><time>2026-04-04T07:45:27.508Z</time></trkpt><trkpt lat="43.5010567" lon="10.4903967"><ele>132.33333333333334</ele><time>2026-04-04T07:45:29.508Z</time></trkpt><trkpt lat="43.501" lon="10.4904717"><ele>132.66666666666666</ele><time>2026-04-04T07:45:31.508Z</time></trkpt><trkpt lat="43.500945" lon="10.490545"><ele>133.0</ele><time>2026-04-04T07:45:33.508Z</time></trkpt><trkpt lat="43.5008917" lon="10.490615"><ele>133.33333333333331</ele><time>2026-04-04T07:45:35.508Z</time></trkpt><trkpt lat="43.5008367" lon="10.4907017"><ele>133.66666666666666</ele><time>2026-04-04T07:45:37.508Z</time></trkpt><trkpt lat="43.5007767" lon="10.4907833"><ele>134.0</ele><time>2026-04-04T07:45:39.508Z</time></trkpt><trkpt lat="43.5007117" lon="10.4908583"><ele>134.0</ele><time>2026-04-04T07:45:41.507Z</time></trkpt><trkpt lat="43.5006483" lon="10.4909433"><ele>134.0</ele><time>2026-04-04T07:45:43.508Z</time></trkpt><trkpt lat="43.5005883" lon="10.4910167"><ele>134.0</ele><time>2026-04-04T07:45:45.507Z</time></trkpt><trkpt lat="43.5005333" lon="10.4910867"><ele>134.0</ele><time>2026-04-04T07:45:47.508Z</time></trkpt><trkpt lat="43.500475" lon="10.4911383"><ele>134.0</ele><time>2026-04-04T07:45:49.508Z</time></trkpt><trkpt lat="43.500425" lon="10.4912"><ele>134.0</ele><time>2026-04-04T07:45:51.507Z</time></trkpt><trkpt lat="43.5003683" lon="10.4912717"><ele>134.14285714285714</ele><time>2026-04-04T07:45:53.507Z</time></trkpt><trkpt lat="43.5003167" lon="10.4913433"><ele>134.28571428571428</ele><time>2026-04-04T07:45:55.508Z</time></trkpt><trkpt lat="43.50025" lon="10.4914133"><ele>134.42857142857142</ele><time>2026-04-04T07:45:57.508Z</time></trkpt><trkpt lat="43.5002117" lon="10.491495"><ele>134.57142857142856</ele><time>2026-04-04T07:45:59.508Z</time></trkpt><trkpt lat="43.5001617" lon="10.4915683"><ele>134.7142857142857</ele><time>2026-04-04T07:46:01.508Z</time></trkpt><trkpt lat="43.5001133" lon="10.4916517"><ele>134.85714285714286</ele><time>2026-04-04T07:46:03.507Z</time></trkpt><trkpt lat="43.5000733" lon="10.4917317"><ele>135.0</ele><time>2026-04-04T07:46:05.508Z</time></trkpt><trkpt lat="43.500035" lon="10.491815"><ele>135.0</ele><time>2026-04-04T07:46:07.507Z</time></trkpt><trkpt lat="43.4999967" lon="10.4919017"><ele>135.0</ele><time>2026-04-04T07:46:09.507Z</time></trkpt><trkpt lat="43.4999617" lon="10.4919867"><ele>135.0</ele><time>2026-04-04T07:46:11.508Z</time></trkpt><trkpt lat="43.4999317" lon="10.4920883"><ele>135.0</ele><time>2026-04-04T07:46:13.507Z</time></trkpt><trkpt lat="43.4999" lon="10.4921767"><ele>135.0</ele><time>2026-04-04T07:46:15.507Z</time></trkpt><trkpt lat="43.49987" lon="10.492265"><ele>135.0</ele><time>2026-04-04T07:46:17.508Z</time></trkpt><trkpt lat="43.49984" lon="10.4923633"><ele>135.0</ele><time>2026-04-04T07:46:19.508Z</time></trkpt><trkpt lat="43.499815" lon="10.492465"><ele>135.33333333333334</ele><time>2026-04-04T07:46:21.508Z</time></trkpt><trkpt lat="43.4997967" lon="10.49256"><ele>135.66666666666666</ele><time>2026-04-04T07:46:23.508Z</time></trkpt><trkpt lat="43.49978" lon="10.492655"><ele>136.0</ele><time>2026-04-04T07:46:25.507Z</time></trkpt><trkpt lat="43.49977" lon="10.492765"><ele>136.33333333333331</ele><time>2026-04-04T07:46:27.507Z</time></trkpt><trkpt lat="43.4997583" lon="10.49287"><ele>136.66666666666666</ele><time>2026-04-04T07:46:29.508Z</time></trkpt><trkpt lat="43.4997467" lon="10.4929833"><ele>137.0</ele><time>2026-04-04T07:46:31.508Z</time></trkpt><trkpt lat="43.499735" lon="10.4931017"><ele>137.4</ele><time>2026-04-04T07:46:33.508Z</time></trkpt><trkpt lat="43.4997317" lon="10.4932217"><ele>137.79999999999998</ele><time>2026-04-04T07:46:35.508Z</time></trkpt><trkpt lat="43.499725" lon="10.4933483"><ele>138.2</ele><time>2026-04-04T07:46:37.507Z</time></trkpt><trkpt lat="43.49971" lon="10.4934783"><ele>138.6</ele><time>2026-04-04T07:46:39.508Z</time></trkpt><trkpt lat="43.4997033" lon="10.4936133"><ele>139.0</ele><time>2026-04-04T07:46:41.508Z</time></trkpt><trkpt lat="43.49969" lon="10.4937533"><ele>138.83333333333334</ele><time>2026-04-04T07:46:43.507Z</time></trkpt><trkpt lat="43.49968" lon="10.4939117"><ele>138.66666666666669</ele><time>2026-04-04T07:46:45.508Z</time></trkpt><trkpt lat="43.4996717" lon="10.49408"><ele>138.5</ele><time>2026-04-04T07:46:47.507Z</time></trkpt><trkpt lat="43.4996633" lon="10.49417"><ele>138.33333333333334</ele><time>2026-04-04T07:46:48.508Z</time></trkpt><trkpt lat="43.4996517" lon="10.4942617"><ele>138.16666666666666</ele><time>2026-04-04T07:46:49.507Z</time></trkpt><trkpt lat="43.49964" lon="10.494355"><ele>138.0</ele><time>2026-04-04T07:46:50.508Z</time></trkpt><trkpt lat="43.49963" lon="10.4944467"><ele>138.0</ele><time>2026-04-04T07:46:51.507Z</time></trkpt><trkpt lat="43.4996217" lon="10.49454"><ele>138.0</ele><time>2026-04-04T07:46:52.508Z</time></trkpt><trkpt lat="43.4996067" lon="10.49463"><ele>138.0</ele><time>2026-04-04T07:46:53.507Z</time></trkpt><trkpt lat="43.4995933" lon="10.4947333"><ele>138.0</ele><time>2026-04-04T07:46:54.508Z</time></trkpt><trkpt lat="43.4995717" lon="10.4948367"><ele>138.0</ele><time>2026-04-04T07:46:55.508Z</time></trkpt><trkpt lat="43.4995483" lon="10.4949417"><ele>138.0</ele><time>2026-04-04T07:46:56.507Z</time></trkpt><trkpt lat="43.499525" lon="10.4950367"><ele>138.0</ele><time>2026-04-04T07:46:57.508Z</time></trkpt><trkpt lat="43.4994967" lon="10.4951283"><ele>136.57142857142858</ele><time>2026-04-04T07:46:58.507Z</time></trkpt><trkpt lat="43.4994617" lon="10.495215"><ele>135.14285714285717</ele><time>2026-04-04T07:46:59.507Z</time></trkpt><trkpt lat="43.49942" lon="10.4953"><ele>133.71428571428572</ele><time>2026-04-04T07:47:00.508Z</time></trkpt><trkpt lat="43.49938" lon="10.4953817"><ele>132.28571428571428</ele><time>2026-04-04T07:47:01.507Z</time></trkpt><trkpt lat="43.4993367" lon="10.4954617"><ele>130.85714285714283</ele><time>2026-04-04T07:47:02.508Z</time></trkpt><trkpt lat="43.4992983" lon="10.4955433"><ele>129.42857142857142</ele><time>2026-04-04T07:47:03.508Z</time></trkpt><trkpt lat="43.4992567" lon="10.4956233"><ele>128.0</ele><time>2026-04-04T07:47:04.508Z</time></trkpt><trkpt lat="43.4992117" lon="10.4957033"><ele>128.0</ele><time>2026-04-04T07:47:05.508Z</time></trkpt><trkpt lat="43.4991667" lon="10.495785"><ele>127.99999999999999</ele><time>2026-04-04T07:47:06.507Z</time></trkpt><trkpt lat="43.4991183" lon="10.49586"><ele>128.0</ele><time>2026-04-04T07:47:07.507Z</time></trkpt><trkpt lat="43.4990683" lon="10.4959367"><ele>128.0</ele><time>2026-04-04T07:47:08.508Z</time></trkpt><trkpt lat="43.499025" lon="10.496015"><ele>127.99999999999999</ele><time>2026-04-04T07:47:09.507Z</time></trkpt><trkpt lat="43.4989833" lon="10.4960967"><ele>128.0</ele><time>2026-04-04T07:47:10.507Z</time></trkpt><trkpt lat="43.49894" lon="10.49618"><ele>128.0</ele><time>2026-04-04T07:47:11.508Z</time></trkpt><trkpt lat="43.4988933" lon="10.4962617"><ele>127.16666666666666</ele><time>2026-04-04T07:47:12.508Z</time></trkpt><trkpt lat="43.498845" lon="10.496345"><ele>126.33333333333333</ele><time>2026-04-04T07:47:13.507Z</time></trkpt><trkpt lat="43.498795" lon="10.49643"><ele>125.5</ele><time>2026-04-04T07:47:14.507Z</time></trkpt><trkpt lat="43.498745" lon="10.4965183"><ele>124.66666666666666</ele><time>2026-04-04T07:47:15.508Z</time></trkpt><trkpt lat="43.49869" lon="10.4966083"><ele>123.83333333333333</ele><time>2026-04-04T07:47:16.507Z</time></trkpt><trkpt lat="43.498635" lon="10.4966983"><ele>123.0</ele><time>2026-04-04T07:47:17.507Z</time></trkpt><trkpt lat="43.4985783" lon="10.4967933"><ele>122.80000000000001</ele><time>2026-04-04T07:47:18.507Z</time></trkpt><trkpt lat="43.49852" lon="10.4968917"><ele>122.60000000000001</ele><time>2026-04-04T07:47:19.507Z</time></trkpt><trkpt lat="43.49846" lon="10.4969917"><ele>122.39999999999999</ele><time>2026-04-04T07:47:20.508Z</time></trkpt><trkpt lat="43.4984033" lon="10.497095"><ele>122.19999999999999</ele><time>2026-04-04T07:47:21.508Z</time></trkpt><trkpt lat="43.4983483" lon="10.49719"><ele>122.0</ele><time>2026-04-04T07:47:22.507Z</time></trkpt><trkpt lat="43.4982883" lon="10.497285"><ele>121.6</ele><time>2026-04-04T07:47:23.508Z</time></trkpt><trkpt lat="43.4982233" lon="10.4973833"><ele>121.19999999999999</ele><time>2026-04-04T07:47:24.508Z</time></trkpt><trkpt lat="43.4981667" lon="10.4974833"><ele>120.8</ele><time>2026-04-04T07:47:25.507Z</time></trkpt><trkpt lat="43.4981117" lon="10.4975817"><ele>120.4</ele><time>2026-04-04T07:47:26.507Z</time></trkpt><trkpt lat="43.4980517" lon="10.4976783"><ele>120.0</ele><time>2026-04-04T07:47:27.508Z</time></trkpt><trkpt lat="43.497995" lon="10.4977683"><ele>120.0</ele><time>2026-04-04T07:47:28.507Z</time></trkpt><trkpt lat="43.4979467" lon="10.4978583"><ele>120.0</ele><time>2026-04-04T07:47:29.508Z</time></trkpt><trkpt lat="43.497895" lon="10.4979417"><ele>120.0</ele><time>2026-04-04T07:47:30.508Z</time></trkpt><trkpt lat="43.497845" lon="10.498025"><ele>120.0</ele><time>2026-04-04T07:47:31.507Z</time></trkpt><trkpt lat="43.4978033" lon="10.4981083"><ele>120.0</ele><time>2026-04-04T07:47:32.507Z</time></trkpt><trkpt lat="43.4977633" lon="10.4981917"><ele>120.0</ele><time>2026-04-04T07:47:33.508Z</time></trkpt><trkpt lat="43.4977233" lon="10.49827"><ele>119.83333333333333</ele><time>2026-04-04T07:47:34.508Z</time></trkpt><trkpt lat="43.4976883" lon="10.498345"><ele>119.66666666666666</ele><time>2026-04-04T07:47:35.508Z</time></trkpt><trkpt lat="43.4976533" lon="10.4984183"><ele>119.5</ele><time>2026-04-04T07:47:36.507Z</time></trkpt><trkpt lat="43.4975933" lon="10.4985567"><ele>119.33333333333333</ele><time>2026-04-04T07:47:38.508Z</time></trkpt><trkpt lat="43.49754" lon="10.4986783"><ele>119.16666666666666</ele><time>2026-04-04T07:47:40.507Z</time></trkpt><trkpt lat="43.4974883" lon="10.4987883"><ele>119.0</ele><time>2026-04-04T07:47:42.507Z</time></trkpt><trkpt lat="43.4974417" lon="10.498895"><ele>119.33333333333333</ele><time>2026-04-04T07:47:44.508Z</time></trkpt><trkpt lat="43.4974033" lon="10.4989933"><ele>119.66666666666666</ele><time>2026-04-04T07:47:46.508Z</time></trkpt><trkpt lat="43.4973617" lon="10.4990833"><ele>120.0</ele><time>2026-04-04T07:47:48.508Z</time></trkpt><trkpt lat="43.49732" lon="10.499165"><ele>120.33333333333334</ele><time>2026-04-04T07:47:50.507Z</time></trkpt><trkpt lat="43.497265" lon="10.4992767"><ele>120.66666666666667</ele><time>2026-04-04T07:47:53.508Z</time></trkpt><trkpt lat="43.497225" lon="10.4993617"><ele>121.0</ele><time>2026-04-04T07:47:55.508Z</time></trkpt><trkpt lat="43.4971833" lon="10.499445"><ele>121.0</ele><time>2026-04-04T07:47:57.507Z</time></trkpt><trkpt lat="43.497145" lon="10.49952"><ele>120.99999999999999</ele><time>2026-04-04T07:47:59.507Z</time></trkpt><trkpt lat="43.4971033" lon="10.499605"><ele>121.0</ele><time>2026-04-04T07:48:01.508Z</time></trkpt><trkpt lat="43.49707" lon="10.4996917"><ele>121.0</ele><time>2026-04-04T07:48:03.508Z</time></trkpt><trkpt lat="43.4970333" lon="10.4997633"><ele>120.99999999999999</ele><time>2026-04-04T07:48:05.507Z</time></trkpt><trkpt lat="43.4969933" lon="10.4998517"><ele>121.0</ele><time>2026-04-04T07:48:07.508Z</time></trkpt><trkpt lat="43.4969567" lon="10.49995"><ele>121.0</ele><time>2026-04-04T07:48:09.508Z</time></trkpt><trkpt lat="43.496925" lon="10.5000333"><ele>120.83333333333334</ele><time>2026-04-04T07:48:11.508Z</time></trkpt><trkpt lat="43.4969033" lon="10.5001283"><ele>120.66666666666667</ele><time>2026-04-04T07:48:13.508Z</time></trkpt><trkpt lat="43.4968683" lon="10.5002283"><ele>120.5</ele><time>2026-04-04T07:48:15.507Z</time></trkpt><trkpt lat="43.49682" lon="10.5003317"><ele>120.33333333333334</ele><time>2026-04-04T07:48:17.508Z</time></trkpt><trkpt lat="43.4967867" lon="10.5004433"><ele>120.16666666666667</ele><time>2026-04-04T07:48:19.508Z</time></trkpt><trkpt lat="43.4967533" lon="10.5005567"><ele>120.0</ele><time>2026-04-04T07:48:21.508Z</time></trkpt><trkpt lat="43.4967217" lon="10.5006667"><ele>120.0</ele><time>2026-04-04T07:48:23.507Z</time></trkpt><trkpt lat="43.4966933" lon="10.5007867"><ele>120.0</ele><time>2026-04-04T07:48:25.508Z</time></trkpt><trkpt lat="43.4966717" lon="10.5009033"><ele>120.0</ele><time>2026-04-04T07:48:27.507Z</time></trkpt><trkpt lat="43.4966433" lon="10.5010217"><ele>120.0</ele><time>2026-04-04T07:48:29.508Z</time></trkpt><trkpt lat="43.4966267" lon="10.50115"><ele>120.0</ele><time>2026-04-04T07:48:31.508Z</time></trkpt><trkpt lat="43.4966083" lon="10.501285"><ele>120.0</ele><time>2026-04-04T07:48:33.508Z</time></trkpt><trkpt lat="43.4965917" lon="10.5014167"><ele>120.0</ele><time>2026-04-04T07:48:35.507Z</time></trkpt><trkpt lat="43.49658" lon="10.5015517"><ele>120.0</ele><time>2026-04-04T07:48:37.508Z</time></trkpt><trkpt lat="43.4965817" lon="10.5016817"><ele>120.0</ele><time>2026-04-04T07:48:39.508Z</time></trkpt><trkpt lat="43.4965783" lon="10.5018217"><ele>120.0</ele><time>2026-04-04T07:48:41.507Z</time></trkpt><trkpt lat="43.496575" lon="10.5019617"><ele>120.0</ele><time>2026-04-04T07:48:43.508Z</time></trkpt><trkpt lat="43.4965717" lon="10.5021017"><ele>120.0</ele><time>2026-04-04T07:48:45.507Z</time></trkpt><trkpt lat="43.4965683" lon="10.5022417"><ele>120.0</ele><time>2026-04-04T07:48:47.508Z</time></trkpt><trkpt lat="43.4965667" lon="10.5023817"><ele>120.0</ele><time>2026-04-04T07:48:49.507Z</time></trkpt><trkpt lat="43.49656" lon="10.5025183"><ele>120.0</ele><time>2026-04-04T07:48:51.507Z</time></trkpt><trkpt lat="43.4965517" lon="10.5026533"><ele>120.0</ele><time>2026-04-04T07:48:53.508Z</time></trkpt><trkpt lat="43.49654" lon="10.5027833"><ele>120.0</ele><time>2026-04-04T07:48:55.507Z</time></trkpt><trkpt lat="43.4965367" lon="10.5029267"><ele>120.0</ele><time>2026-04-04T07:48:57.507Z</time></trkpt><trkpt lat="43.4965217" lon="10.5030717"><ele>120.0</ele><time>2026-04-04T07:48:59.508Z</time></trkpt><trkpt lat="43.496515" lon="10.5032167"><ele>120.0</ele><time>2026-04-04T07:49:01.507Z</time></trkpt><trkpt lat="43.4965083" lon="10.5033617"><ele>120.0</ele><time>2026-04-04T07:49:03.508Z</time></trkpt><trkpt lat="43.4964817" lon="10.5035167"><ele>120.0</ele><time>2026-04-04T07:49:05.508Z</time></trkpt><trkpt lat="43.4964583" lon="10.5036667"><ele>120.0</ele><time>2026-04-04T07:49:07.508Z</time></trkpt><trkpt lat="43.4964283" lon="10.5038217"><ele>120.0</ele><time>2026-04-04T07:49:09.508Z</time></trkpt><trkpt lat="43.4963933" lon="10.5039767"><ele>120.0</ele><time>2026-04-04T07:49:11.508Z</time></trkpt><trkpt lat="43.4963517" lon="10.5041283"><ele>120.0</ele><time>2026-04-04T07:49:13.508Z</time></trkpt><trkpt lat="43.4963083" lon="10.5042867"><ele>120.0</ele><time>2026-04-04T07:49:15.508Z</time></trkpt><trkpt lat="43.4962617" lon="10.5044367"><ele>120.0</ele><time>2026-04-04T07:49:17.507Z</time></trkpt><trkpt lat="43.49621" lon="10.504585"><ele>118.8</ele><time>2026-04-04T07:49:19.508Z</time></trkpt><trkpt lat="43.4961483" lon="10.504735"><ele>117.6</ele><time>2026-04-04T07:49:21.508Z</time></trkpt><trkpt lat="43.4961167" lon="10.5048167"><ele>116.4</ele><time>2026-04-04T07:49:22.507Z</time></trkpt><trkpt lat="43.4960533" lon="10.5049533"><ele>115.2</ele><time>2026-04-04T07:49:24.507Z</time></trkpt><trkpt lat="43.49602" lon="10.50503"><ele>114.0</ele><time>2026-04-04T07:49:25.507Z</time></trkpt><trkpt lat="43.4959483" lon="10.505175"><ele>114.0</ele><time>2026-04-04T07:49:27.507Z</time></trkpt><trkpt lat="43.49591" lon="10.5052517"><ele>113.99999999999999</ele><time>2026-04-04T07:49:28.507Z</time></trkpt><trkpt lat="43.4958767" lon="10.5053283"><ele>114.0</ele><time>2026-04-04T07:49:29.508Z</time></trkpt><trkpt lat="43.4958433" lon="10.505405"><ele>114.0</ele><time>2026-04-04T07:49:30.507Z</time></trkpt><trkpt lat="43.4958133" lon="10.5054833"><ele>113.99999999999999</ele><time>2026-04-04T07:49:31.507Z</time></trkpt><trkpt lat="43.4957717" lon="10.50556"><ele>114.0</ele><time>2026-04-04T07:49:32.507Z</time></trkpt><trkpt lat="43.49573" lon="10.5056383"><ele>114.0</ele><time>2026-04-04T07:49:33.508Z</time></trkpt><trkpt lat="43.4956933" lon="10.5057133"><ele>113.5</ele><time>2026-04-04T07:49:34.508Z</time></trkpt><trkpt lat="43.4956567" lon="10.5057983"><ele>113.0</ele><time>2026-04-04T07:49:35.508Z</time></trkpt><trkpt lat="43.4956217" lon="10.50588"><ele>112.5</ele><time>2026-04-04T07:49:36.508Z</time></trkpt><trkpt lat="43.4955867" lon="10.5059583"><ele>112.0</ele><time>2026-04-04T07:49:37.507Z</time></trkpt><trkpt lat="43.4955517" lon="10.5060317"><ele>111.5</ele><time>2026-04-04T07:49:38.508Z</time></trkpt><trkpt lat="43.4955217" lon="10.5061133"><ele>111.0</ele><time>2026-04-04T07:49:39.508Z</time></trkpt><trkpt lat="43.4954617" lon="10.5062617"><ele>111.19999999999999</ele><time>2026-04-04T07:49:41.507Z</time></trkpt><trkpt lat="43.49541" lon="10.506405"><ele>111.39999999999999</ele><time>2026-04-04T07:49:43.508Z</time></trkpt><trkpt lat="43.4953733" lon="10.5065467"><ele>111.6</ele><time>2026-04-04T07:49:45.507Z</time></trkpt><trkpt lat="43.4953383" lon="10.5066933"><ele>111.8</ele><time>2026-04-04T07:49:47.508Z</time></trkpt><trkpt lat="43.49531" lon="10.5068267"><ele>112.0</ele><time>2026-04-04T07:49:49.508Z</time></trkpt><trkpt lat="43.4953" lon="10.5069683"><ele>112.39999999999999</ele><time>2026-04-04T07:49:51.508Z</time></trkpt><trkpt lat="43.49529" lon="10.5071117"><ele>112.79999999999998</ele><time>2026-04-04T07:49:53.508Z</time></trkpt><trkpt lat="43.495285" lon="10.507245"><ele>113.2</ele><time>2026-04-04T07:49:55.507Z</time></trkpt><trkpt lat="43.49529" lon="10.5073767"><ele>113.6</ele><time>2026-04-04T07:49:57.507Z</time></trkpt><trkpt lat="43.4952983" lon="10.5075067"><ele>114.0</ele><time>2026-04-04T07:49:59.508Z</time></trkpt><trkpt lat="43.4953083" lon="10.50764"><ele>114.0</ele><time>2026-04-04T07:50:01.508Z</time></trkpt><trkpt lat="43.4953117" lon="10.5077617"><ele>114.0</ele><time>2026-04-04T07:50:03.508Z</time></trkpt><trkpt lat="43.4953133" lon="10.5078783"><ele>114.0</ele><time>2026-04-04T07:50:05.507Z</time></trkpt><trkpt lat="43.4953133" lon="10.50798"><ele>114.0</ele><time>2026-04-04T07:50:07.507Z</time></trkpt><trkpt lat="43.4953017" lon="10.5081033"><ele>114.0</ele><time>2026-04-04T07:50:10.507Z</time></trkpt><trkpt lat="43.49528" lon="10.5081983"><ele>114.0</ele><time>2026-04-04T07:50:12.507Z</time></trkpt><trkpt lat="43.4952583" lon="10.5083033"><ele>114.83333333333333</ele><time>2026-04-04T07:50:15.507Z</time></trkpt><trkpt lat="43.4952433" lon="10.508415"><ele>115.66666666666666</ele><time>2026-04-04T07:50:18.507Z</time></trkpt><trkpt lat="43.4952233" lon="10.5085133"><ele>116.5</ele><time>2026-04-04T07:50:21.508Z</time></trkpt><trkpt lat="43.4951917" lon="10.5086167"><ele>117.33333333333333</ele><time>2026-04-04T07:50:24.508Z</time></trkpt><trkpt lat="43.49516" lon="10.5087167"><ele>118.16666666666666</ele><time>2026-04-04T07:50:27.507Z</time></trkpt><trkpt lat="43.4951317" lon="10.5088017"><ele>119.0</ele><time>2026-04-04T07:50:29.507Z</time></trkpt><trkpt lat="43.4951083" lon="10.5088917"><ele>119.28571428571428</ele><time>2026-04-04T07:50:31.507Z</time></trkpt><trkpt lat="43.4950733" lon="10.5089767"><ele>119.57142857142857</ele><time>2026-04-04T07:50:33.508Z</time></trkpt><trkpt lat="43.49503" lon="10.50905"><ele>119.85714285714286</ele><time>2026-04-04T07:50:35.507Z</time></trkpt><trkpt lat="43.4949883" lon="10.50912"><ele>120.14285714285714</ele><time>2026-04-04T07:50:37.507Z</time></trkpt><trkpt lat="43.4949517" lon="10.5092067"><ele>120.42857142857142</ele><time>2026-04-04T07:50:39.508Z</time></trkpt><trkpt lat="43.494915" lon="10.50929"><ele>120.71428571428571</ele><time>2026-04-04T07:50:41.508Z</time></trkpt><trkpt lat="43.4948767" lon="10.5093767"><ele>121.0</ele><time>2026-04-04T07:50:43.507Z</time></trkpt><trkpt lat="43.4948267" lon="10.50946"><ele>121.0</ele><time>2026-04-04T07:50:45.508Z</time></trkpt><trkpt lat="43.49478" lon="10.5095533"><ele>121.0</ele><time>2026-04-04T07:50:47.508Z</time></trkpt><trkpt lat="43.49471" lon="10.5096433"><ele>121.0</ele><time>2026-04-04T07:50:49.508Z</time></trkpt><trkpt lat="43.4946483" lon="10.50974"><ele>121.0</ele><time>2026-04-04T07:50:51.508Z</time></trkpt><trkpt lat="43.4945933" lon="10.5098333"><ele>121.0</ele><time>2026-04-04T07:50:53.507Z</time></trkpt><trkpt lat="43.4945417" lon="10.5099383"><ele>120.0</ele><time>2026-04-04T07:50:55.507Z</time></trkpt><trkpt lat="43.4944717" lon="10.510045"><ele>119.0</ele><time>2026-04-04T07:50:57.508Z</time></trkpt><trkpt lat="43.4944067" lon="10.5101633"><ele>118.0</ele><time>2026-04-04T07:50:59.507Z</time></trkpt><trkpt lat="43.4943317" lon="10.5102517"><ele>117.0</ele><time>2026-04-04T07:51:01.508Z</time></trkpt><trkpt lat="43.49424" lon="10.51032"><ele>116.0</ele><time>2026-04-04T07:51:03.507Z</time></trkpt><trkpt lat="43.4941833" lon="10.51036"><ele>115.99999999999999</ele><time>2026-04-04T07:51:05.508Z</time></trkpt><trkpt lat="43.4941233" lon="10.5103917"><ele>116.0</ele><time>2026-04-04T07:51:07.508Z</time></trkpt><trkpt lat="43.4940683" lon="10.51046"><ele>116.0</ele><time>2026-04-04T07:51:10.507Z</time></trkpt><trkpt lat="43.4940933" lon="10.510545"><ele>116.0</ele><time>2026-04-04T07:51:13.508Z</time></trkpt><trkpt lat="43.4941583" lon="10.5106033"><ele>115.99999999999999</ele><time>2026-04-04T07:51:16.507Z</time></trkpt><trkpt lat="43.49422" lon="10.5106867"><ele>116.0</ele><time>2026-04-04T07:51:19.507Z</time></trkpt><trkpt lat="43.4942783" lon="10.510785"><ele>116.2857142857143</ele><time>2026-04-04T07:51:22.507Z</time></trkpt><trkpt lat="43.4943267" lon="10.5108617"><ele>116.57142857142858</ele><time>2026-04-04T07:51:24.508Z</time></trkpt><trkpt lat="43.4943817" lon="10.5109417"><ele>116.85714285714286</ele><time>2026-04-04T07:51:26.508Z</time></trkpt><trkpt lat="43.4944367" lon="10.5110217"><ele>117.14285714285715</ele><time>2026-04-04T07:51:28.508Z</time></trkpt><trkpt lat="43.4944867" lon="10.5110917"><ele>117.42857142857144</ele><time>2026-04-04T07:51:30.508Z</time></trkpt><trkpt lat="43.4945317" lon="10.51116"><ele>117.71428571428571</ele><time>2026-04-04T07:51:32.508Z</time></trkpt><trkpt lat="43.4945767" lon="10.51123"><ele>118.0</ele><time>2026-04-04T07:51:34.508Z</time></trkpt><trkpt lat="43.4946183" lon="10.5113017"><ele>118.14285714285714</ele><time>2026-04-04T07:51:36.508Z</time></trkpt><trkpt lat="43.4946633" lon="10.5113733"><ele>118.28571428571429</ele><time>2026-04-04T07:51:38.507Z</time></trkpt><trkpt lat="43.4947167" lon="10.5114383"><ele>118.42857142857143</ele><time>2026-04-04T07:51:40.508Z</time></trkpt><trkpt lat="43.4947733" lon="10.5114983"><ele>118.57142857142857</ele><time>2026-04-04T07:51:42.508Z</time></trkpt><trkpt lat="43.4948333" lon="10.51159"><ele>118.71428571428572</ele><time>2026-04-04T07:51:45.508Z</time></trkpt><trkpt lat="43.4948767" lon="10.51166"><ele>118.85714285714286</ele><time>2026-04-04T07:51:47.507Z</time></trkpt><trkpt lat="43.4949317" lon="10.51174"><ele>119.0</ele><time>2026-04-04T07:51:49.508Z</time></trkpt><trkpt lat="43.4949733" lon="10.51182"><ele>118.99999999999999</ele><time>2026-04-04T07:51:51.507Z</time></trkpt><trkpt lat="43.4950217" lon="10.5119267"><ele>119.0</ele><time>2026-04-04T07:51:54.507Z</time></trkpt><trkpt lat="43.4950617" lon="10.5120383"><ele>119.0</ele><time>2026-04-04T07:51:57.508Z</time></trkpt><trkpt lat="43.4950933" lon="10.51215"><ele>119.0</ele><time>2026-04-04T07:52:00.508Z</time></trkpt><trkpt lat="43.4951217" lon="10.5122417"><ele>118.99999999999999</ele><time>2026-04-04T07:52:02.507Z</time></trkpt><trkpt lat="43.49515" lon="10.512345"><ele>119.0</ele><time>2026-04-04T07:52:04.507Z</time></trkpt><trkpt lat="43.4951717" lon="10.512445"><ele>118.99999999999999</ele><time>2026-04-04T07:52:06.507Z</time></trkpt><trkpt lat="43.495185" lon="10.5125567"><ele>119.0</ele><time>2026-04-04T07:52:08.508Z</time></trkpt><trkpt lat="43.4951967" lon="10.5126533"><ele>119.0</ele><time>2026-04-04T07:52:10.507Z</time></trkpt><trkpt lat="43.49522" lon="10.5127583"><ele>119.0</ele><time>2026-04-04T07:52:12.508Z</time></trkpt><trkpt lat="43.495245" lon="10.51286"><ele>118.99999999999999</ele><time>2026-04-04T07:52:14.508Z</time></trkpt><trkpt lat="43.4952683" lon="10.51296"><ele>119.0</ele><time>2026-04-04T07:52:16.507Z</time></trkpt><trkpt lat="43.4952817" lon="10.5130517"><ele>119.0</ele><time>2026-04-04T07:52:18.507Z</time></trkpt><trkpt lat="43.495305" lon="10.5131483"><ele>119.0</ele><time>2026-04-04T07:52:20.507Z</time></trkpt><trkpt lat="43.4953217" lon="10.5132467"><ele>119.0</ele><time>2026-04-04T07:52:22.507Z</time></trkpt><trkpt lat="43.4953417" lon="10.5133433"><ele>119.0</ele><time>2026-04-04T07:52:24.507Z</time></trkpt><trkpt lat="43.4953683" lon="10.51344"><ele>119.0</ele><time>2026-04-04T07:52:26.507Z</time></trkpt><trkpt lat="43.4953833" lon="10.513545"><ele>119.0</ele><time>2026-04-04T07:52:28.508Z</time></trkpt><trkpt lat="43.4953983" lon="10.513635"><ele>119.0</ele><time>2026-04-04T07:52:30.508Z</time></trkpt><trkpt lat="43.4954267" lon="10.5137367"><ele>119.83333333333333</ele><time>2026-04-04T07:52:32.508Z</time></trkpt><trkpt lat="43.4954417" lon="10.513835"><ele>120.66666666666666</ele><time>2026-04-04T07:52:34.507Z</time></trkpt><trkpt lat="43.4954583" lon="10.5139383"><ele>121.5</ele><time>2026-04-04T07:52:36.508Z</time></trkpt><trkpt lat="43.4954817" lon="10.5140417"><ele>122.33333333333334</ele><time>2026-04-04T07:52:38.508Z</time></trkpt><trkpt lat="43.4955033" lon="10.5141417"><ele>123.16666666666667</ele><time>2026-04-04T07:52:40.507Z</time></trkpt><trkpt lat="43.495525" lon="10.5142467"><ele>124.0</ele><time>2026-04-04T07:52:42.508Z</time></trkpt><trkpt lat="43.4955467" lon="10.5143483"><ele>124.00000000000001</ele><time>2026-04-04T07:52:44.507Z</time></trkpt><trkpt lat="43.49557" lon="10.5144467"><ele>124.0</ele><time>2026-04-04T07:52:46.508Z</time></trkpt><trkpt lat="43.4955917" lon="10.51455"><ele>124.0</ele><time>2026-04-04T07:52:48.508Z</time></trkpt><trkpt lat="43.4956183" lon="10.5146533"><ele>124.0</ele><time>2026-04-04T07:52:50.507Z</time></trkpt><trkpt lat="43.4956467" lon="10.5147583"><ele>124.00000000000001</ele><time>2026-04-04T07:52:52.508Z</time></trkpt><trkpt lat="43.4956717" lon="10.5148633"><ele>124.0</ele><time>2026-04-04T07:52:54.507Z</time></trkpt><trkpt lat="43.4957083" lon="10.5149633"><ele>123.66666666666667</ele><time>2026-04-04T07:52:56.507Z</time></trkpt><trkpt lat="43.495735" lon="10.5150667"><ele>123.33333333333334</ele><time>2026-04-04T07:52:58.507Z</time></trkpt><trkpt lat="43.49577" lon="10.5151767"><ele>123.0</ele><time>2026-04-04T07:53:00.507Z</time></trkpt><trkpt lat="43.4957917" lon="10.5152783"><ele>122.66666666666666</ele><time>2026-04-04T07:53:02.508Z</time></trkpt><trkpt lat="43.4958267" lon="10.5153817"><ele>122.33333333333333</ele><time>2026-04-04T07:53:04.508Z</time></trkpt><trkpt lat="43.4958617" lon="10.51548"><ele>122.0</ele><time>2026-04-04T07:53:06.508Z</time></trkpt><trkpt lat="43.4958867" lon="10.51558"><ele>121.99999999999999</ele><time>2026-04-04T07:53:08.508Z</time></trkpt><trkpt lat="43.495915" lon="10.5156817"><ele>122.0</ele><time>2026-04-04T07:53:10.507Z</time></trkpt><trkpt lat="43.4959367" lon="10.5157767"><ele>122.0</ele><time>2026-04-04T07:53:12.508Z</time></trkpt><trkpt lat="43.4959717" lon="10.5158717"><ele>122.0</ele><time>2026-04-04T07:53:14.507Z</time></trkpt><trkpt lat="43.495995" lon="10.5159967"><ele>121.99999999999999</ele><time>2026-04-04T07:53:17.508Z</time></trkpt><trkpt lat="43.4960217" lon="10.5160933"><ele>122.0</ele><time>2026-04-04T07:53:19.508Z</time></trkpt><trkpt lat="43.4960583" lon="10.5161983"><ele>121.83333333333333</ele><time>2026-04-04T07:53:22.507Z</time></trkpt><trkpt lat="43.49609" lon="10.5163117"><ele>121.66666666666666</ele><time>2026-04-04T07:53:25.508Z</time></trkpt><trkpt lat="43.496125" lon="10.5164167"><ele>121.5</ele><time>2026-04-04T07:53:28.508Z</time></trkpt><trkpt lat="43.4961583" lon="10.5165233"><ele>121.33333333333334</ele><time>2026-04-04T07:53:31.507Z</time></trkpt><trkpt lat="43.4961883" lon="10.5166267"><ele>121.16666666666667</ele><time>2026-04-04T07:53:34.507Z</time></trkpt><trkpt lat="43.4962133" lon="10.5167283"><ele>121.0</ele><time>2026-04-04T07:53:37.507Z</time></trkpt><trkpt lat="43.49624" lon="10.5168117"><ele>121.16666666666667</ele><time>2026-04-04T07:53:39.507Z</time></trkpt><trkpt lat="43.4962683" lon="10.5169"><ele>121.33333333333334</ele><time>2026-04-04T07:53:41.507Z</time></trkpt><trkpt lat="43.4963017" lon="10.517"><ele>121.5</ele><time>2026-04-04T07:53:43.508Z</time></trkpt><trkpt lat="43.4963383" lon="10.517115"><ele>121.66666666666666</ele><time>2026-04-04T07:53:45.507Z</time></trkpt><trkpt lat="43.4963817" lon="10.5172383"><ele>121.83333333333333</ele><time>2026-04-04T07:53:47.508Z</time></trkpt><trkpt lat="43.4964333" lon="10.5173683"><ele>122.0</ele><time>2026-04-04T07:53:49.508Z</time></trkpt><trkpt lat="43.496475" lon="10.5174967"><ele>122.0</ele><time>2026-04-04T07:53:51.507Z</time></trkpt><trkpt lat="43.496515" lon="10.5176283"><ele>121.99999999999999</ele><time>2026-04-04T07:53:53.508Z</time></trkpt><trkpt lat="43.496565" lon="10.5177583"><ele>121.99999999999999</ele><time>2026-04-04T07:53:55.508Z</time></trkpt><trkpt lat="43.4966133" lon="10.5178933"><ele>122.0</ele><time>2026-04-04T07:53:57.508Z</time></trkpt><trkpt lat="43.4966717" lon="10.518025"><ele>122.0</ele><time>2026-04-04T07:53:59.508Z</time></trkpt><trkpt lat="43.4967217" lon="10.51816"><ele>121.0</ele><time>2026-04-04T07:54:01.508Z</time></trkpt><trkpt lat="43.4967683" lon="10.5182933"><ele>119.99999999999999</ele><time>2026-04-04T07:54:03.508Z</time></trkpt><trkpt lat="43.4968133" lon="10.5184233"><ele>118.99999999999999</ele><time>2026-04-04T07:54:05.507Z</time></trkpt><trkpt lat="43.4968617" lon="10.5185483"><ele>118.0</ele><time>2026-04-04T07:54:07.508Z</time></trkpt><trkpt lat="43.4969083" lon="10.5186683"><ele>117.0</ele><time>2026-04-04T07:54:09.507Z</time></trkpt><trkpt lat="43.4969483" lon="10.5187817"><ele>117.0</ele><time>2026-04-04T07:54:11.507Z</time></trkpt><trkpt lat="43.4969917" lon="10.5188917"><ele>117.0</ele><time>2026-04-04T07:54:13.508Z</time></trkpt><trkpt lat="43.497035" lon="10.5190033"><ele>117.0</ele><time>2026-04-04T07:54:15.508Z</time></trkpt><trkpt lat="43.4970717" lon="10.5191117"><ele>117.0</ele><time>2026-04-04T07:54:17.508Z</time></trkpt><trkpt lat="43.4970983" lon="10.519215"><ele>117.0</ele><time>2026-04-04T07:54:19.508Z</time></trkpt><trkpt lat="43.4971283" lon="10.5193217"><ele>117.0</ele><time>2026-04-04T07:54:21.508Z</time></trkpt><trkpt lat="43.4971483" lon="10.51942"><ele>117.57142857142858</ele><time>2026-04-04T07:54:23.507Z</time></trkpt><trkpt lat="43.4971617" lon="10.51951"><ele>118.14285714285715</ele><time>2026-04-04T07:54:25.508Z</time></trkpt><trkpt lat="43.49718" lon="10.5195933"><ele>118.71428571428572</ele><time>2026-04-04T07:54:27.507Z</time></trkpt><trkpt lat="43.4971933" lon="10.519685"><ele>119.28571428571428</ele><time>2026-04-04T07:54:29.508Z</time></trkpt><trkpt lat="43.4972117" lon="10.51977"><ele>119.85714285714285</ele><time>2026-04-04T07:54:31.508Z</time></trkpt><trkpt lat="43.4972317" lon="10.519885"><ele>120.42857142857142</ele><time>2026-04-04T07:54:34.508Z</time></trkpt><trkpt lat="43.4972583" lon="10.5199983"><ele>121.0</ele><time>2026-04-04T07:54:37.508Z</time></trkpt><trkpt lat="43.4972783" lon="10.5201217"><ele>121.0</ele><time>2026-04-04T07:54:40.507Z</time></trkpt><trkpt lat="43.497285" lon="10.5202483"><ele>121.0</ele><time>2026-04-04T07:54:43.507Z</time></trkpt><trkpt lat="43.4972867" lon="10.5203733"><ele>121.0</ele><time>2026-04-04T07:54:46.508Z</time></trkpt><trkpt lat="43.497275" lon="10.5205"><ele>121.0</ele><time>2026-04-04T07:54:49.508Z</time></trkpt><trkpt lat="43.4972617" lon="10.5206233"><ele>121.0</ele><time>2026-04-04T07:54:52.508Z</time></trkpt><trkpt lat="43.4972517" lon="10.5207383"><ele>121.00000000000001</ele><time>2026-04-04T07:54:55.508Z</time></trkpt><trkpt lat="43.4972383" lon="10.520865"><ele>121.0</ele><time>2026-04-04T07:54:58.508Z</time></trkpt><trkpt lat="43.4972117" lon="10.5209883"><ele>121.0</ele><time>2026-04-04T07:55:01.508Z</time></trkpt><trkpt lat="43.4971967" lon="10.521075"><ele>121.0</ele><time>2026-04-04T07:55:03.508Z</time></trkpt><trkpt lat="43.4971833" lon="10.5211633"><ele>121.00000000000001</ele><time>2026-04-04T07:55:05.507Z</time></trkpt><trkpt lat="43.49718" lon="10.52125"><ele>121.0</ele><time>2026-04-04T07:55:07.507Z</time></trkpt><trkpt lat="43.4971617" lon="10.5213733"><ele>121.00000000000001</ele><time>2026-04-04T07:55:10.507Z</time></trkpt><trkpt lat="43.4971433" lon="10.5214933"><ele>121.0</ele><time>2026-04-04T07:55:13.508Z</time></trkpt><trkpt lat="43.497125" lon="10.5216083"><ele>121.0</ele><time>2026-04-04T07:55:16.508Z</time></trkpt><trkpt lat="43.4971083" lon="10.5217217"><ele>121.0</ele><time>2026-04-04T07:55:19.508Z</time></trkpt><trkpt lat="43.4970917" lon="10.5218283"><ele>121.00000000000001</ele><time>2026-04-04T07:55:22.507Z</time></trkpt><trkpt lat="43.4970683" lon="10.5219267"><ele>121.0</ele><time>2026-04-04T07:55:25.508Z</time></trkpt><trkpt lat="43.4970483" lon="10.5220333"><ele>120.83333333333334</ele><time>2026-04-04T07:55:28.508Z</time></trkpt><trkpt lat="43.4970367" lon="10.5221633"><ele>120.66666666666667</ele><time>2026-04-04T07:55:31.508Z</time></trkpt><trkpt lat="43.4970383" lon="10.52227"><ele>120.5</ele><time>2026-04-04T07:55:33.508Z</time></trkpt><trkpt lat="43.4970467" lon="10.52238"><ele>120.33333333333334</ele><time>2026-04-04T07:55:35.507Z</time></trkpt><trkpt lat="43.4970567" lon="10.5224917"><ele>120.16666666666667</ele><time>2026-04-04T07:55:37.507Z</time></trkpt><trkpt lat="43.4970667" lon="10.5225933"><ele>120.0</ele><time>2026-04-04T07:55:39.507Z</time></trkpt><trkpt lat="43.497075" lon="10.522695"><ele>120.66666666666667</ele><time>2026-04-04T07:55:41.507Z</time></trkpt><trkpt lat="43.4970867" lon="10.5228017"><ele>121.33333333333334</ele><time>2026-04-04T07:55:43.508Z</time></trkpt><trkpt lat="43.4970967" lon="10.5229033"><ele>122.0</ele><time>2026-04-04T07:55:45.508Z</time></trkpt><trkpt lat="43.4971067" lon="10.52301"><ele>122.66666666666667</ele><time>2026-04-04T07:55:47.507Z</time></trkpt><trkpt lat="43.4971183" lon="10.5231117"><ele>123.33333333333334</ele><time>2026-04-04T07:55:49.507Z</time></trkpt><trkpt lat="43.4971283" lon="10.5232133"><ele>124.0</ele><time>2026-04-04T07:55:51.507Z</time></trkpt><trkpt lat="43.4971417" lon="10.5233083"><ele>124.28571428571429</ele><time>2026-04-04T07:55:53.507Z</time></trkpt><trkpt lat="43.4971567" lon="10.5234083"><ele>124.57142857142858</ele><time>2026-04-04T07:55:55.508Z</time></trkpt><trkpt lat="43.497175" lon="10.5235117"><ele>124.85714285714286</ele><time>2026-04-04T07:55:57.507Z</time></trkpt><trkpt lat="43.49719" lon="10.5236117"><ele>125.14285714285714</ele><time>2026-04-04T07:55:59.508Z</time></trkpt><trkpt lat="43.497215" lon="10.5237117"><ele>125.42857142857143</ele><time>2026-04-04T07:56:01.507Z</time></trkpt><trkpt lat="43.497235" lon="10.5238017"><ele>125.71428571428572</ele><time>2026-04-04T07:56:03.508Z</time></trkpt><trkpt lat="43.4972583" lon="10.5238867"><ele>126.0</ele><time>2026-04-04T07:56:05.508Z</time></trkpt><trkpt lat="43.4972717" lon="10.5240167"><ele>126.33333333333333</ele><time>2026-04-04T07:56:08.507Z</time></trkpt><trkpt lat="43.4972783" lon="10.524135"><ele>126.66666666666666</ele><time>2026-04-04T07:56:11.507Z</time></trkpt><trkpt lat="43.4972767" lon="10.524255"><ele>127.0</ele><time>2026-04-04T07:56:14.507Z</time></trkpt><trkpt lat="43.4972733" lon="10.524365"><ele>127.33333333333333</ele><time>2026-04-04T07:56:17.507Z</time></trkpt><trkpt lat="43.4972667" lon="10.52448"><ele>127.66666666666666</ele><time>2026-04-04T07:56:20.507Z</time></trkpt><trkpt lat="43.4972483" lon="10.5245883"><ele>128.0</ele><time>2026-04-04T07:56:23.508Z</time></trkpt><trkpt lat="43.4972317" lon="10.5246833"><ele>127.99999999999999</ele><time>2026-04-04T07:56:26.507Z</time></trkpt><trkpt lat="43.49721" lon="10.5247867"><ele>128.0</ele><time>2026-04-04T07:56:29.507Z</time></trkpt><trkpt lat="43.497175" lon="10.5248867"><ele>128.0</ele><time>2026-04-04T07:56:32.508Z</time></trkpt><trkpt lat="43.4971517" lon="10.524995"><ele>128.0</ele><time>2026-04-04T07:56:35.508Z</time></trkpt><trkpt lat="43.49714" lon="10.5251067"><ele>127.99999999999999</ele><time>2026-04-04T07:56:38.507Z</time></trkpt><trkpt lat="43.4971217" lon="10.5252183"><ele>128.0</ele><time>2026-04-04T07:56:41.507Z</time></trkpt><trkpt lat="43.4971" lon="10.52533"><ele>129.33333333333331</ele><time>2026-04-04T07:56:44.508Z</time></trkpt><trkpt lat="43.49708" lon="10.525445"><ele>130.66666666666666</ele><time>2026-04-04T07:56:47.508Z</time></trkpt><trkpt lat="43.4970633" lon="10.5255467"><ele>132.0</ele><time>2026-04-04T07:56:50.508Z</time></trkpt><trkpt lat="43.49704" lon="10.5256633"><ele>133.33333333333334</ele><time>2026-04-04T07:56:53.508Z</time></trkpt><trkpt lat="43.4970217" lon="10.5257733"><ele>134.66666666666669</ele><time>2026-04-04T07:56:56.508Z</time></trkpt><trkpt lat="43.497005" lon="10.5258733"><ele>136.0</ele><time>2026-04-04T07:56:59.508Z</time></trkpt><trkpt lat="43.4969883" lon="10.5259733"><ele>135.99999999999997</ele><time>2026-04-04T07:57:02.507Z</time></trkpt><trkpt lat="43.496985" lon="10.5260667"><ele>136.0</ele><time>2026-04-04T07:57:05.508Z</time></trkpt><trkpt lat="43.4969867" lon="10.5261817"><ele>136.0</ele><time>2026-04-04T07:57:08.507Z</time></trkpt><trkpt lat="43.4970083" lon="10.526265"><ele>136.0</ele><time>2026-04-04T07:57:10.507Z</time></trkpt><trkpt lat="43.4970433" lon="10.5263467"><ele>136.0</ele><time>2026-04-04T07:57:12.508Z</time></trkpt><trkpt lat="43.4970867" lon="10.5264267"><ele>135.99999999999997</ele><time>2026-04-04T07:57:14.508Z</time></trkpt><trkpt lat="43.4971383" lon="10.5264983"><ele>136.0</ele><time>2026-04-04T07:57:16.508Z</time></trkpt><trkpt lat="43.4971917" lon="10.526575"><ele>135.16666666666669</ele><time>2026-04-04T07:57:18.508Z</time></trkpt><trkpt lat="43.4972517" lon="10.5266433"><ele>134.33333333333334</ele><time>2026-04-04T07:57:20.507Z</time></trkpt><trkpt lat="43.4973067" lon="10.5267267"><ele>133.5</ele><time>2026-04-04T07:57:22.508Z</time></trkpt><trkpt lat="43.497365" lon="10.5268033"><ele>132.66666666666666</ele><time>2026-04-04T07:57:24.507Z</time></trkpt><trkpt lat="43.4974267" lon="10.526885"><ele>131.83333333333331</ele><time>2026-04-04T07:57:26.508Z</time></trkpt><trkpt lat="43.4974917" lon="10.52695"><ele>131.0</ele><time>2026-04-04T07:57:28.508Z</time></trkpt><trkpt lat="43.497545" lon="10.5270233"><ele>131.5</ele><time>2026-04-04T07:57:30.507Z</time></trkpt><trkpt lat="43.4976017" lon="10.527095"><ele>132.0</ele><time>2026-04-04T07:57:32.507Z</time></trkpt><trkpt lat="43.497655" lon="10.5271667"><ele>132.5</ele><time>2026-04-04T07:57:34.508Z</time></trkpt><trkpt lat="43.4977133" lon="10.52723"><ele>133.0</ele><time>2026-04-04T07:57:36.507Z</time></trkpt><trkpt lat="43.49777" lon="10.5272867"><ele>133.5</ele><time>2026-04-04T07:57:38.508Z</time></trkpt><trkpt lat="43.4978417" lon="10.52734"><ele>134.0</ele><time>2026-04-04T07:57:40.508Z</time></trkpt><trkpt lat="43.4979117" lon="10.52739"><ele>133.83333333333331</ele><time>2026-04-04T07:57:42.508Z</time></trkpt><trkpt lat="43.4979883" lon="10.527425"><ele>133.66666666666666</ele><time>2026-04-04T07:57:44.508Z</time></trkpt><trkpt lat="43.4980583" lon="10.5274583"><ele>133.5</ele><time>2026-04-04T07:57:46.508Z</time></trkpt><trkpt lat="43.4981383" lon="10.5274833"><ele>133.33333333333334</ele><time>2026-04-04T07:57:48.507Z</time></trkpt><trkpt lat="43.4982167" lon="10.527505"><ele>133.16666666666669</ele><time>2026-04-04T07:57:50.508Z</time></trkpt><trkpt lat="43.4982867" lon="10.5275233"><ele>133.0</ele><time>2026-04-04T07:57:52.507Z</time></trkpt><trkpt lat="43.4983533" lon="10.5275333"><ele>133.0</ele><time>2026-04-04T07:57:54.508Z</time></trkpt><trkpt lat="43.4984217" lon="10.52754"><ele>133.0</ele><time>2026-04-04T07:57:56.508Z</time></trkpt><trkpt lat="43.49849" lon="10.5275433"><ele>133.0</ele><time>2026-04-04T07:57:58.508Z</time></trkpt><trkpt lat="43.4985583" lon="10.5275567"><ele>133.0</ele><time>2026-04-04T07:58:00.507Z</time></trkpt><trkpt lat="43.498625" lon="10.5275667"><ele>133.0</ele><time>2026-04-04T07:58:02.507Z</time></trkpt><trkpt lat="43.4986917" lon="10.52757"><ele>133.0</ele><time>2026-04-04T07:58:04.507Z</time></trkpt><trkpt lat="43.4987633" lon="10.5275833"><ele>133.0</ele><time>2026-04-04T07:58:06.508Z</time></trkpt><trkpt lat="43.4988333" lon="10.5276033"><ele>133.16666666666669</ele><time>2026-04-04T07:58:08.508Z</time></trkpt><trkpt lat="43.49891" lon="10.5276283"><ele>133.33333333333334</ele><time>2026-04-04T07:58:10.508Z</time></trkpt><trkpt lat="43.4989833" lon="10.527665"><ele>133.5</ele><time>2026-04-04T07:58:12.507Z</time></trkpt><trkpt lat="43.499055" lon="10.52771"><ele>133.66666666666666</ele><time>2026-04-04T07:58:14.507Z</time></trkpt><trkpt lat="43.4991233" lon="10.527755"><ele>133.83333333333331</ele><time>2026-04-04T07:58:16.508Z</time></trkpt><trkpt lat="43.4991917" lon="10.527815"><ele>134.0</ele><time>2026-04-04T07:58:18.508Z</time></trkpt><trkpt lat="43.49925" lon="10.5278867"><ele>133.83333333333331</ele><time>2026-04-04T07:58:20.508Z</time></trkpt><trkpt lat="43.4993083" lon="10.5279567"><ele>133.66666666666666</ele><time>2026-04-04T07:58:22.507Z</time></trkpt><trkpt lat="43.4993667" lon="10.5280467"><ele>133.5</ele><time>2026-04-04T07:58:24.508Z</time></trkpt><trkpt lat="43.4994283" lon="10.528135"><ele>133.33333333333334</ele><time>2026-04-04T07:58:26.508Z</time></trkpt><trkpt lat="43.49949" lon="10.5282233"><ele>133.16666666666669</ele><time>2026-04-04T07:58:28.507Z</time></trkpt><trkpt lat="43.4995467" lon="10.5283117"><ele>133.0</ele><time>2026-04-04T07:58:30.508Z</time></trkpt><trkpt lat="43.499605" lon="10.528405"><ele>132.83333333333334</ele><time>2026-04-04T07:58:32.507Z</time></trkpt><trkpt lat="43.49966" lon="10.5285117"><ele>132.66666666666669</ele><time>2026-04-04T07:58:34.508Z</time></trkpt><trkpt lat="43.499715" lon="10.528605"><ele>132.5</ele><time>2026-04-04T07:58:36.508Z</time></trkpt><trkpt lat="43.4997533" lon="10.528685"><ele>132.33333333333334</ele><time>2026-04-04T07:58:38.507Z</time></trkpt><trkpt lat="43.4998033" lon="10.5288017"><ele>132.16666666666666</ele><time>2026-04-04T07:58:41.507Z</time></trkpt><trkpt lat="43.4998383" lon="10.5288833"><ele>132.0</ele><time>2026-04-04T07:58:43.507Z</time></trkpt><trkpt lat="43.499875" lon="10.5289617"><ele>131.33333333333334</ele><time>2026-04-04T07:58:45.507Z</time></trkpt><trkpt lat="43.4999067" lon="10.52905"><ele>130.66666666666666</ele><time>2026-04-04T07:58:47.507Z</time></trkpt><trkpt lat="43.49994" lon="10.5291383"><ele>130.0</ele><time>2026-04-04T07:58:49.507Z</time></trkpt><trkpt lat="43.4999783" lon="10.52923"><ele>129.33333333333331</ele><time>2026-04-04T07:58:51.508Z</time></trkpt><trkpt lat="43.50001" lon="10.52933"><ele>128.66666666666666</ele><time>2026-04-04T07:58:53.507Z</time></trkpt><trkpt lat="43.50004" lon="10.52943"><ele>128.0</ele><time>2026-04-04T07:58:55.507Z</time></trkpt><trkpt lat="43.5000683" lon="10.5295267"><ele>127.71428571428571</ele><time>2026-04-04T07:58:57.507Z</time></trkpt><trkpt lat="43.5000917" lon="10.52962"><ele>127.42857142857142</ele><time>2026-04-04T07:58:59.507Z</time></trkpt><trkpt lat="43.5001033" lon="10.529715"><ele>127.14285714285714</ele><time>2026-04-04T07:59:01.507Z</time></trkpt><trkpt lat="43.5001117" lon="10.5298133"><ele>126.85714285714286</ele><time>2026-04-04T07:59:03.508Z</time></trkpt><trkpt lat="43.5001183" lon="10.5299133"><ele>126.57142857142857</ele><time>2026-04-04T07:59:05.507Z</time></trkpt><trkpt lat="43.5001267" lon="10.5300117"><ele>126.28571428571428</ele><time>2026-04-04T07:59:07.507Z</time></trkpt><trkpt lat="43.5001333" lon="10.5301083"><ele>126.0</ele><time>2026-04-04T07:59:09.508Z</time></trkpt><trkpt lat="43.500145" lon="10.5302017"><ele>126.0</ele><time>2026-04-04T07:59:11.508Z</time></trkpt><trkpt lat="43.5001567" lon="10.5302917"><ele>126.0</ele><time>2026-04-04T07:59:13.507Z</time></trkpt><trkpt lat="43.5001583" lon="10.5303817"><ele>126.0</ele><time>2026-04-04T07:59:15.508Z</time></trkpt><trkpt lat="43.5001633" lon="10.5304733"><ele>126.0</ele><time>2026-04-04T07:59:17.508Z</time></trkpt><trkpt lat="43.500175" lon="10.530585"><ele>126.0</ele><time>2026-04-04T07:59:20.508Z</time></trkpt><trkpt lat="43.5001867" lon="10.5306917"><ele>126.0</ele><time>2026-04-04T07:59:23.508Z</time></trkpt><trkpt lat="43.5001867" lon="10.5307883"><ele>126.0</ele><time>2026-04-04T07:59:26.507Z</time></trkpt><trkpt lat="43.500195" lon="10.5308867"><ele>126.28571428571428</ele><time>2026-04-04T07:59:29.508Z</time></trkpt><trkpt lat="43.5001983" lon="10.530975"><ele>126.57142857142857</ele><time>2026-04-04T07:59:32.507Z</time></trkpt><trkpt lat="43.500205" lon="10.53107"><ele>126.85714285714286</ele><time>2026-04-04T07:59:35.508Z</time></trkpt><trkpt lat="43.5002167" lon="10.5311767"><ele>127.14285714285714</ele><time>2026-04-04T07:59:38.508Z</time></trkpt><trkpt lat="43.5002367" lon="10.531285"><ele>127.42857142857142</ele><time>2026-04-04T07:59:41.508Z</time></trkpt><trkpt lat="43.5002467" lon="10.5313733"><ele>127.71428571428571</ele><time>2026-04-04T07:59:43.507Z</time></trkpt><trkpt lat="43.50026" lon="10.5314967"><ele>128.0</ele><time>2026-04-04T07:59:46.508Z</time></trkpt><trkpt lat="43.5002833" lon="10.5316233"><ele>127.99999999999999</ele><time>2026-04-04T07:59:49.508Z</time></trkpt><trkpt lat="43.5003167" lon="10.5317383"><ele>128.0</ele><time>2026-04-04T07:59:52.507Z</time></trkpt><trkpt lat="43.5003583" lon="10.5318533"><ele>128.0</ele><time>2026-04-04T07:59:55.507Z</time></trkpt><trkpt lat="43.500385" lon="10.5319367"><ele>128.0</ele><time>2026-04-04T07:59:57.508Z</time></trkpt><trkpt lat="43.500415" lon="10.53203"><ele>127.99999999999999</ele><time>2026-04-04T07:59:59.507Z</time></trkpt><trkpt lat="43.500445" lon="10.5321233"><ele>128.0</ele><time>2026-04-04T08:00:01.508Z</time></trkpt><trkpt lat="43.5004833" lon="10.5322183"><ele>127.99999999999999</ele><time>2026-04-04T08:00:03.508Z</time></trkpt><trkpt lat="43.500515" lon="10.5323267"><ele>128.0</ele><time>2026-04-04T08:00:05.507Z</time></trkpt><trkpt lat="43.5005483" lon="10.532435"><ele>128.0</ele><time>2026-04-04T08:00:07.508Z</time></trkpt><trkpt lat="43.5005833" lon="10.5325417"><ele>128.0</ele><time>2026-04-04T08:00:09.507Z</time></trkpt><trkpt lat="43.5006167" lon="10.5326417"><ele>127.99999999999999</ele><time>2026-04-04T08:00:11.508Z</time></trkpt><trkpt lat="43.50065" lon="10.5327417"><ele>128.0</ele><time>2026-04-04T08:00:13.507Z</time></trkpt><trkpt lat="43.50068" lon="10.5328417"><ele>127.83333333333333</ele><time>2026-04-04T08:00:15.507Z</time></trkpt><trkpt lat="43.5007117" lon="10.53293"><ele>127.66666666666666</ele><time>2026-04-04T08:00:17.507Z</time></trkpt><trkpt lat="43.500745" lon="10.5330283"><ele>127.5</ele><time>2026-04-04T08:00:19.508Z</time></trkpt><trkpt lat="43.5007833" lon="10.5331217"><ele>127.33333333333334</ele><time>2026-04-04T08:00:21.507Z</time></trkpt><trkpt lat="43.5008283" lon="10.5332117"><ele>127.16666666666667</ele><time>2026-04-04T08:00:23.507Z</time></trkpt><trkpt lat="43.5008783" lon="10.5332983"><ele>127.0</ele><time>2026-04-04T08:00:25.508Z</time></trkpt><trkpt lat="43.500925" lon="10.5333767"><ele>127.00000000000001</ele><time>2026-04-04T08:00:27.507Z</time></trkpt><trkpt lat="43.5009767" lon="10.5334533"><ele>127.0</ele><time>2026-04-04T08:00:29.507Z</time></trkpt><trkpt lat="43.50103" lon="10.53353"><ele>127.0</ele><time>2026-04-04T08:00:31.507Z</time></trkpt><trkpt lat="43.5010833" lon="10.5336117"><ele>127.0</ele><time>2026-04-04T08:00:33.507Z</time></trkpt><trkpt lat="43.5011317" lon="10.5336883"><ele>127.00000000000001</ele><time>2026-04-04T08:00:35.507Z</time></trkpt><trkpt lat="43.501185" lon="10.533775"><ele>127.0</ele><time>2026-04-04T08:00:37.508Z</time></trkpt><trkpt lat="43.5012317" lon="10.5338483"><ele>127.33333333333334</ele><time>2026-04-04T08:00:39.508Z</time></trkpt><trkpt lat="43.5012783" lon="10.5339333"><ele>127.66666666666667</ele><time>2026-04-04T08:00:41.507Z</time></trkpt><trkpt lat="43.5013233" lon="10.53402"><ele>128.0</ele><time>2026-04-04T08:00:43.507Z</time></trkpt><trkpt lat="43.5013683" lon="10.5341117"><ele>128.33333333333334</ele><time>2026-04-04T08:00:45.508Z</time></trkpt><trkpt lat="43.5014133" lon="10.5342067"><ele>128.66666666666666</ele><time>2026-04-04T08:00:47.508Z</time></trkpt><trkpt lat="43.50146" lon="10.5342967"><ele>129.0</ele><time>2026-04-04T08:00:49.507Z</time></trkpt><trkpt lat="43.501505" lon="10.534385"><ele>129.0</ele><time>2026-04-04T08:00:51.507Z</time></trkpt><trkpt lat="43.501555" lon="10.5344783"><ele>129.0</ele><time>2026-04-04T08:00:53.508Z</time></trkpt><trkpt lat="43.501595" lon="10.53457"><ele>129.0</ele><time>2026-04-04T08:00:55.508Z</time></trkpt><trkpt lat="43.5016333" lon="10.53466"><ele>129.0</ele><time>2026-04-04T08:00:57.508Z</time></trkpt><trkpt lat="43.5016733" lon="10.5347567"><ele>129.0</ele><time>2026-04-04T08:00:59.508Z</time></trkpt><trkpt lat="43.501715" lon="10.53486"><ele>129.0</ele><time>2026-04-04T08:01:01.508Z</time></trkpt><trkpt lat="43.501745" lon="10.53496"><ele>128.5</ele><time>2026-04-04T08:01:03.508Z</time></trkpt><trkpt lat="43.5017717" lon="10.5350567"><ele>128.0</ele><time>2026-04-04T08:01:05.507Z</time></trkpt><trkpt lat="43.5017967" lon="10.53515"><ele>127.5</ele><time>2026-04-04T08:01:07.507Z</time></trkpt><trkpt lat="43.5018217" lon="10.5352483"><ele>127.0</ele><time>2026-04-04T08:01:09.507Z</time></trkpt><trkpt lat="43.5018517" lon="10.5353517"><ele>126.5</ele><time>2026-04-04T08:01:11.507Z</time></trkpt><trkpt lat="43.5018783" lon="10.53545"><ele>126.0</ele><time>2026-04-04T08:01:13.508Z</time></trkpt><trkpt lat="43.5019017" lon="10.535545"><ele>126.0</ele><time>2026-04-04T08:01:15.507Z</time></trkpt><trkpt lat="43.5019267" lon="10.5356517"><ele>126.0</ele><time>2026-04-04T08:01:17.508Z</time></trkpt><trkpt lat="43.5019467" lon="10.5357417"><ele>126.0</ele><time>2026-04-04T08:01:19.508Z</time></trkpt><trkpt lat="43.5019567" lon="10.5358433"><ele>126.0</ele><time>2026-04-04T08:01:21.507Z</time></trkpt><trkpt lat="43.5019667" lon="10.5359417"><ele>126.0</ele><time>2026-04-04T08:01:23.507Z</time></trkpt><trkpt lat="43.5019883" lon="10.5360683"><ele>126.0</ele><time>2026-04-04T08:01:26.508Z</time></trkpt><trkpt lat="43.5019983" lon="10.5361633"><ele>126.66666666666667</ele><time>2026-04-04T08:01:28.507Z</time></trkpt><trkpt lat="43.502015" lon="10.5362533"><ele>127.33333333333334</ele><time>2026-04-04T08:01:30.507Z</time></trkpt><trkpt lat="43.5020233" lon="10.5363517"><ele>128.0</ele><time>2026-04-04T08:01:32.508Z</time></trkpt><trkpt lat="43.50201" lon="10.536475"><ele>128.66666666666669</ele><time>2026-04-04T08:01:35.507Z</time></trkpt><trkpt lat="43.50199" lon="10.5365583"><ele>129.33333333333334</ele><time>2026-04-04T08:01:37.508Z</time></trkpt><trkpt lat="43.501975" lon="10.536645"><ele>130.0</ele><time>2026-04-04T08:01:39.508Z</time></trkpt><trkpt lat="43.5019617" lon="10.5367767"><ele>130.0</ele><time>2026-04-04T08:01:42.508Z</time></trkpt><trkpt lat="43.5019583" lon="10.5369"><ele>130.0</ele><time>2026-04-04T08:01:45.508Z</time></trkpt><trkpt lat="43.5019633" lon="10.5370117"><ele>130.0</ele><time>2026-04-04T08:01:48.508Z</time></trkpt><trkpt lat="43.50198" lon="10.5371233"><ele>130.0</ele><time>2026-04-04T08:01:51.507Z</time></trkpt><trkpt lat="43.50201" lon="10.5372483"><ele>130.0</ele><time>2026-04-04T08:01:54.507Z</time></trkpt><trkpt lat="43.5020283" lon="10.5373517"><ele>130.0</ele><time>2026-04-04T08:01:56.507Z</time></trkpt><trkpt lat="43.5020583" lon="10.5374783"><ele>129.0</ele><time>2026-04-04T08:01:58.507Z</time></trkpt><trkpt lat="43.5020883" lon="10.5376233"><ele>128.0</ele><time>2026-04-04T08:02:00.508Z</time></trkpt><trkpt lat="43.5021117" lon="10.53773"><ele>127.0</ele><time>2026-04-04T08:02:02.507Z</time></trkpt><trkpt lat="43.5021333" lon="10.5378517"><ele>126.0</ele><time>2026-04-04T08:02:05.506Z</time></trkpt><trkpt lat="43.5021567" lon="10.5379583"><ele>125.00000000000001</ele><time>2026-04-04T08:02:08.507Z</time></trkpt><trkpt lat="43.5021833" lon="10.538055"><ele>124.0</ele><time>2026-04-04T08:02:11.506Z</time></trkpt><trkpt lat="43.5022233" lon="10.5381333"><ele>124.00000000000001</ele><time>2026-04-04T08:02:13.506Z</time></trkpt><trkpt lat="43.50227" lon="10.5382233"><ele>124.0</ele><time>2026-04-04T08:02:15.507Z</time></trkpt><trkpt lat="43.5023117" lon="10.5383133"><ele>124.0</ele><time>2026-04-04T08:02:17.507Z</time></trkpt><trkpt lat="43.5023333" lon="10.5384267"><ele>124.0</ele><time>2026-04-04T08:02:20.507Z</time></trkpt><trkpt lat="43.5023517" lon="10.53853"><ele>124.00000000000001</ele><time>2026-04-04T08:02:23.507Z</time></trkpt><trkpt lat="43.5023617" lon="10.5386333"><ele>124.0</ele><time>2026-04-04T08:02:26.506Z</time></trkpt><trkpt lat="43.5023783" lon="10.5387267"><ele>124.33333333333334</ele><time>2026-04-04T08:02:29.506Z</time></trkpt><trkpt lat="43.502395" lon="10.53882"><ele>124.66666666666667</ele><time>2026-04-04T08:02:32.507Z</time></trkpt><trkpt lat="43.502415" lon="10.5389133"><ele>125.0</ele><time>2026-04-04T08:02:35.507Z</time></trkpt><trkpt lat="43.5024367" lon="10.5390017"><ele>125.33333333333334</ele><time>2026-04-04T08:02:38.507Z</time></trkpt><trkpt lat="43.502465" lon="10.539095"><ele>125.66666666666667</ele><time>2026-04-04T08:02:41.507Z</time></trkpt><trkpt lat="43.502495" lon="10.5392317"><ele>126.0</ele><time>2026-04-04T08:02:44.506Z</time></trkpt><trkpt lat="43.502525" lon="10.5393567"><ele>126.0</ele><time>2026-04-04T08:02:46.506Z</time></trkpt><trkpt lat="43.50256" lon="10.5394983"><ele>126.0</ele><time>2026-04-04T08:02:48.507Z</time></trkpt><trkpt lat="43.5025983" lon="10.5396333"><ele>126.0</ele><time>2026-04-04T08:02:50.507Z</time></trkpt><trkpt lat="43.5026383" lon="10.5397617"><ele>126.0</ele><time>2026-04-04T08:02:52.506Z</time></trkpt><trkpt lat="43.5026667" lon="10.5398567"><ele>126.0</ele><time>2026-04-04T08:02:54.506Z</time></trkpt><trkpt lat="43.5026883" lon="10.5399533"><ele>126.14285714285714</ele><time>2026-04-04T08:02:56.506Z</time></trkpt><trkpt lat="43.5027067" lon="10.5400483"><ele>126.28571428571428</ele><time>2026-04-04T08:02:58.507Z</time></trkpt><trkpt lat="43.5027267" lon="10.5401383"><ele>126.42857142857143</ele><time>2026-04-04T08:03:00.506Z</time></trkpt><trkpt lat="43.5027533" lon="10.5402717"><ele>126.57142857142857</ele><time>2026-04-04T08:03:03.507Z</time></trkpt><trkpt lat="43.502775" lon="10.5403583"><ele>126.71428571428571</ele><time>2026-04-04T08:03:05.507Z</time></trkpt><trkpt lat="43.5027983" lon="10.5404483"><ele>126.85714285714286</ele><time>2026-04-04T08:03:07.507Z</time></trkpt><trkpt lat="43.5028133" lon="10.5405333"><ele>127.0</ele><time>2026-04-04T08:03:09.507Z</time></trkpt><trkpt lat="43.5028367" lon="10.5406483"><ele>126.83333333333334</ele><time>2026-04-04T08:03:12.506Z</time></trkpt><trkpt lat="43.5028633" lon="10.5407717"><ele>126.66666666666667</ele><time>2026-04-04T08:03:15.506Z</time></trkpt><trkpt lat="43.5028983" lon="10.5408883"><ele>126.5</ele><time>2026-04-04T08:03:18.506Z</time></trkpt><trkpt lat="43.5029367" lon="10.5409733"><ele>126.33333333333334</ele><time>2026-04-04T08:03:20.506Z</time></trkpt><trkpt lat="43.50297" lon="10.541055"><ele>126.16666666666667</ele><time>2026-04-04T08:03:22.507Z</time></trkpt><trkpt lat="43.5030167" lon="10.5411417"><ele>126.0</ele><time>2026-04-04T08:03:24.506Z</time></trkpt><trkpt lat="43.50306" lon="10.5412333"><ele>126.0</ele><time>2026-04-04T08:03:26.506Z</time></trkpt><trkpt lat="43.5031033" lon="10.5413217"><ele>126.0</ele><time>2026-04-04T08:03:28.506Z</time></trkpt><trkpt lat="43.5031467" lon="10.5414067"><ele>126.0</ele><time>2026-04-04T08:03:30.507Z</time></trkpt><trkpt lat="43.5031883" lon="10.541495"><ele>126.0</ele><time>2026-04-04T08:03:32.507Z</time></trkpt><trkpt lat="43.5032317" lon="10.5415883"><ele>126.0</ele><time>2026-04-04T08:03:34.506Z</time></trkpt><trkpt lat="43.5032767" lon="10.5416817"><ele>126.0</ele><time>2026-04-04T08:03:36.507Z</time></trkpt><trkpt lat="43.5033117" lon="10.5417683"><ele>126.0</ele><time>2026-04-04T08:03:38.506Z</time></trkpt><trkpt lat="43.5033483" lon="10.5418567"><ele>126.0</ele><time>2026-04-04T08:03:40.507Z</time></trkpt><trkpt lat="43.5033867" lon="10.5419417"><ele>126.0</ele><time>2026-04-04T08:03:42.507Z</time></trkpt><trkpt lat="43.503425" lon="10.54202"><ele>126.0</ele><time>2026-04-04T08:03:44.507Z</time></trkpt><trkpt lat="43.5034617" lon="10.5421067"><ele>126.0</ele><time>2026-04-04T08:03:46.506Z</time></trkpt><trkpt lat="43.5035" lon="10.542185"><ele>126.0</ele><time>2026-04-04T08:03:48.507Z</time></trkpt><trkpt lat="43.503535" lon="10.5422633"><ele>126.0</ele><time>2026-04-04T08:03:50.507Z</time></trkpt><trkpt lat="43.50358" lon="10.542365"><ele>126.0</ele><time>2026-04-04T08:03:53.506Z</time></trkpt><trkpt lat="43.503635" lon="10.5424617"><ele>126.0</ele><time>2026-04-04T08:03:56.506Z</time></trkpt><trkpt lat="43.5036817" lon="10.542555"><ele>126.0</ele><time>2026-04-04T08:03:59.506Z</time></trkpt><trkpt lat="43.50373" lon="10.5426367"><ele>126.0</ele><time>2026-04-04T08:04:02.507Z</time></trkpt><trkpt lat="43.5037767" lon="10.5427167"><ele>126.0</ele><time>2026-04-04T08:04:05.507Z</time></trkpt><trkpt lat="43.503825" lon="10.5427883"><ele>126.0</ele><time>2026-04-04T08:04:08.507Z</time></trkpt><trkpt lat="43.503875" lon="10.5428567"><ele>127.14285714285714</ele><time>2026-04-04T08:04:11.506Z</time></trkpt><trkpt lat="43.5039217" lon="10.5429267"><ele>128.28571428571428</ele><time>2026-04-04T08:04:14.507Z</time></trkpt><trkpt lat="43.5039717" lon="10.543005"><ele>129.42857142857144</ele><time>2026-04-04T08:04:18.506Z</time></trkpt><trkpt lat="43.50401" lon="10.5430783"><ele>130.57142857142856</ele><time>2026-04-04T08:04:22.506Z</time></trkpt><trkpt lat="43.5040617" lon="10.54313"><ele>131.71428571428572</ele><time>2026-04-04T08:04:27.506Z</time></trkpt><trkpt lat="43.50413" lon="10.543155"><ele>132.85714285714286</ele><time>2026-04-04T08:04:32.506Z</time></trkpt><trkpt lat="43.5041917" lon="10.5431733"><ele>134.0</ele><time>2026-04-04T08:04:35.507Z</time></trkpt><trkpt lat="43.5043017" lon="10.5431883"><ele>134.0</ele><time>2026-04-04T08:05:46.507Z</time></trkpt><trkpt lat="43.5043517" lon="10.5431967"><ele>134.0</ele><time>2026-04-04T08:15:22.507Z</time></trkpt><trkpt lat="43.5044233" lon="10.5432117"><ele>134.0</ele><time>2026-04-04T08:15:24.507Z</time></trkpt><trkpt lat="43.504505" lon="10.5432233"><ele>134.0</ele><time>2026-04-04T08:15:26.507Z</time></trkpt><trkpt lat="43.5045967" lon="10.54324"><ele>134.0</ele><time>2026-04-04T08:15:28.506Z</time></trkpt><trkpt lat="43.50469" lon="10.543255"><ele>134.0</ele><time>2026-04-04T08:15:30.506Z</time></trkpt><trkpt lat="43.5047917" lon="10.5432833"><ele>133.6</ele><time>2026-04-04T08:15:32.507Z</time></trkpt><trkpt lat="43.5048883" lon="10.54331"><ele>133.2</ele><time>2026-04-04T08:15:34.507Z</time></trkpt><trkpt lat="43.5049917" lon="10.5433167"><ele>132.79999999999998</ele><time>2026-04-04T08:15:36.505Z</time></trkpt><trkpt lat="43.5050867" lon="10.54331"><ele>132.4</ele><time>2026-04-04T08:15:38.506Z</time></trkpt><trkpt lat="43.50518" lon="10.5432967"><ele>132.0</ele><time>2026-04-04T08:15:40.505Z</time></trkpt><trkpt lat="43.5052567" lon="10.5432833"><ele>132.0</ele><time>2026-04-04T08:15:42.506Z</time></trkpt><trkpt lat="43.5053233" lon="10.5432667"><ele>132.0</ele><time>2026-04-04T08:15:44.506Z</time></trkpt><trkpt lat="43.5053883" lon="10.5432583"><ele>132.0</ele><time>2026-04-04T08:15:46.505Z</time></trkpt><trkpt lat="43.5054533" lon="10.5432467"><ele>132.0</ele><time>2026-04-04T08:15:48.505Z</time></trkpt><trkpt lat="43.5055183" lon="10.5432317"><ele>132.0</ele><time>2026-04-04T08:15:50.506Z</time></trkpt><trkpt lat="43.5056117" lon="10.5432167"><ele>132.0</ele><time>2026-04-04T08:15:53.506Z</time></trkpt><trkpt lat="43.5056767" lon="10.543205"><ele>132.0</ele><time>2026-04-04T08:15:55.505Z</time></trkpt><trkpt lat="43.5057483" lon="10.5431983"><ele>131.71428571428572</ele><time>2026-04-04T08:15:57.506Z</time></trkpt><trkpt lat="43.5058167" lon="10.543195"><ele>131.42857142857144</ele><time>2026-04-04T08:15:59.506Z</time></trkpt><trkpt lat="43.5058867" lon="10.543195"><ele>131.14285714285717</ele><time>2026-04-04T08:16:01.506Z</time></trkpt><trkpt lat="43.5059583" lon="10.54319"><ele>130.85714285714286</ele><time>2026-04-04T08:16:03.506Z</time></trkpt><trkpt lat="43.5060333" lon="10.5431783"><ele>130.57142857142858</ele><time>2026-04-04T08:16:05.506Z</time></trkpt><trkpt lat="43.5061033" lon="10.5431633"><ele>130.2857142857143</ele><time>2026-04-04T08:16:07.506Z</time></trkpt><trkpt lat="43.5061717" lon="10.543155"><ele>130.0</ele><time>2026-04-04T08:16:09.505Z</time></trkpt><trkpt lat="43.5062383" lon="10.543145"><ele>129.57142857142858</ele><time>2026-04-04T08:16:11.506Z</time></trkpt><trkpt lat="43.506305" lon="10.5431417"><ele>129.14285714285714</ele><time>2026-04-04T08:16:13.506Z</time></trkpt><trkpt lat="43.50637" lon="10.5431467"><ele>128.71428571428572</ele><time>2026-04-04T08:16:15.506Z</time></trkpt><trkpt lat="43.506435" lon="10.5431583"><ele>128.28571428571428</ele><time>2026-04-04T08:16:17.505Z</time></trkpt><trkpt lat="43.5065283" lon="10.5431767"><ele>127.85714285714286</ele><time>2026-04-04T08:16:20.505Z</time></trkpt><trkpt lat="43.5065983" lon="10.5431967"><ele>127.42857142857143</ele><time>2026-04-04T08:16:22.505Z</time></trkpt><trkpt lat="43.5066767" lon="10.5432067"><ele>127.0</ele><time>2026-04-04T08:16:24.505Z</time></trkpt><trkpt lat="43.5067483" lon="10.5431817"><ele>127.0</ele><time>2026-04-04T08:16:26.505Z</time></trkpt><trkpt lat="43.5068067" lon="10.5431283"><ele>127.0</ele><time>2026-04-04T08:16:29.506Z</time></trkpt><trkpt lat="43.5068667" lon="10.54308"><ele>127.0</ele><time>2026-04-04T08:16:33.505Z</time></trkpt><trkpt lat="43.506935" lon="10.5430283"><ele>127.0</ele><time>2026-04-04T08:16:37.505Z</time></trkpt><trkpt lat="43.507" lon="10.542975"><ele>127.0</ele><time>2026-04-04T08:16:41.506Z</time></trkpt><trkpt lat="43.5070583" lon="10.54291"><ele>127.0</ele><time>2026-04-04T08:16:44.505Z</time></trkpt><trkpt lat="43.5071267" lon="10.5428567"><ele>127.0</ele><time>2026-04-04T08:16:46.506Z</time></trkpt><trkpt lat="43.5072" lon="10.5427833"><ele>125.83333333333334</ele><time>2026-04-04T08:16:48.505Z</time></trkpt><trkpt lat="43.5072683" lon="10.5426883"><ele>124.66666666666667</ele><time>2026-04-04T08:16:50.505Z</time></trkpt><trkpt lat="43.5073283" lon="10.54255"><ele>123.5</ele><time>2026-04-04T08:16:52.505Z</time></trkpt><trkpt lat="43.50735" lon="10.54246"><ele>122.33333333333334</ele><time>2026-04-04T08:16:53.505Z</time></trkpt><trkpt lat="43.5073617" lon="10.5423717"><ele>121.16666666666667</ele><time>2026-04-04T08:16:54.505Z</time></trkpt><trkpt lat="43.5073667" lon="10.5422767"><ele>120.0</ele><time>2026-04-04T08:16:55.505Z</time></trkpt><trkpt lat="43.50737" lon="10.54219"><ele>120.0</ele><time>2026-04-04T08:16:56.505Z</time></trkpt><trkpt lat="43.5073683" lon="10.5421017"><ele>120.0</ele><time>2026-04-04T08:16:57.505Z</time></trkpt><trkpt lat="43.5073683" lon="10.5419217"><ele>120.0</ele><time>2026-04-04T08:16:59.506Z</time></trkpt><trkpt lat="43.50737" lon="10.541745"><ele>120.0</ele><time>2026-04-04T08:17:01.505Z</time></trkpt><trkpt lat="43.5073667" lon="10.54164"><ele>120.0</ele><time>2026-04-04T08:17:02.505Z</time></trkpt><trkpt lat="43.5073767" lon="10.541535"><ele>118.5</ele><time>2026-04-04T08:17:03.506Z</time></trkpt><trkpt lat="43.5073867" lon="10.5414267"><ele>117.0</ele><time>2026-04-04T08:17:04.505Z</time></trkpt><trkpt lat="43.507405" lon="10.5413217"><ele>115.5</ele><time>2026-04-04T08:17:05.506Z</time></trkpt><trkpt lat="43.5074267" lon="10.5412167"><ele>114.0</ele><time>2026-04-04T08:17:06.506Z</time></trkpt><trkpt lat="43.507455" lon="10.5411183"><ele>112.5</ele><time>2026-04-04T08:17:07.506Z</time></trkpt><trkpt lat="43.5074817" lon="10.5410217"><ele>111.0</ele><time>2026-04-04T08:17:08.505Z</time></trkpt><trkpt lat="43.5075133" lon="10.5409267"><ele>110.83333333333333</ele><time>2026-04-04T08:17:09.506Z</time></trkpt><trkpt lat="43.5075417" lon="10.54083"><ele>110.66666666666666</ele><time>2026-04-04T08:17:10.506Z</time></trkpt><trkpt lat="43.5075683" lon="10.5407267"><ele>110.5</ele><time>2026-04-04T08:17:11.505Z</time></trkpt><trkpt lat="43.5075917" lon="10.5406317"><ele>110.33333333333333</ele><time>2026-04-04T08:17:12.505Z</time></trkpt><trkpt lat="43.5076083" lon="10.5405317"><ele>110.16666666666666</ele><time>2026-04-04T08:17:13.506Z</time></trkpt><trkpt lat="43.5076317" lon="10.5404283"><ele>110.0</ele><time>2026-04-04T08:17:14.506Z</time></trkpt><trkpt lat="43.5076617" lon="10.5403383"><ele>109.49999999999999</ele><time>2026-04-04T08:17:15.505Z</time></trkpt><trkpt lat="43.5076967" lon="10.5402533"><ele>109.0</ele><time>2026-04-04T08:17:16.506Z</time></trkpt><trkpt lat="43.5077433" lon="10.54018"><ele>108.5</ele><time>2026-04-04T08:17:17.505Z</time></trkpt><trkpt lat="43.50779" lon="10.5401133"><ele>108.0</ele><time>2026-04-04T08:17:18.505Z</time></trkpt><trkpt lat="43.5078433" lon="10.540045"><ele>107.49999999999999</ele><time>2026-04-04T08:17:19.505Z</time></trkpt><trkpt lat="43.5078933" lon="10.53998"><ele>107.0</ele><time>2026-04-04T08:17:20.506Z</time></trkpt><trkpt lat="43.5079833" lon="10.53986"><ele>106.75</ele><time>2026-04-04T08:17:22.506Z</time></trkpt><trkpt lat="43.5080683" lon="10.5397417"><ele>106.5</ele><time>2026-04-04T08:17:24.505Z</time></trkpt><trkpt lat="43.5081483" lon="10.5396283"><ele>106.25</ele><time>2026-04-04T08:17:26.506Z</time></trkpt><trkpt lat="43.5082283" lon="10.5395067"><ele>106.0</ele><time>2026-04-04T08:17:28.506Z</time></trkpt><trkpt lat="43.50831" lon="10.539385"><ele>106.0</ele><time>2026-04-04T08:17:30.505Z</time></trkpt><trkpt lat="43.5083917" lon="10.5392583"><ele>106.0</ele><time>2026-04-04T08:17:32.505Z</time></trkpt><trkpt lat="43.508475" lon="10.539145"><ele>106.0</ele><time>2026-04-04T08:17:34.506Z</time></trkpt><trkpt lat="43.5085733" lon="10.5390517"><ele>106.0</ele><time>2026-04-04T08:17:36.506Z</time></trkpt><trkpt lat="43.5086817" lon="10.5389967"><ele>105.25</ele><time>2026-04-04T08:17:38.506Z</time></trkpt><trkpt lat="43.5088" lon="10.538955"><ele>104.5</ele><time>2026-04-04T08:17:40.506Z</time></trkpt><trkpt lat="43.5089167" lon="10.53893"><ele>103.75</ele><time>2026-04-04T08:17:42.506Z</time></trkpt><trkpt lat="43.509035" lon="10.5389067"><ele>103.0</ele><time>2026-04-04T08:17:44.505Z</time></trkpt><trkpt lat="43.5091333" lon="10.53887"><ele>102.99999999999999</ele><time>2026-04-04T08:17:46.505Z</time></trkpt><trkpt lat="43.509215" lon="10.5388417"><ele>103.0</ele><time>2026-04-04T08:17:48.505Z</time></trkpt><trkpt lat="43.5092933" lon="10.5388233"><ele>103.0</ele><time>2026-04-04T08:17:50.506Z</time></trkpt><trkpt lat="43.5093633" lon="10.53881"><ele>103.0</ele><time>2026-04-04T08:17:52.506Z</time></trkpt><trkpt lat="43.5094317" lon="10.5387933"><ele>103.0</ele><time>2026-04-04T08:17:54.506Z</time></trkpt><trkpt lat="43.5095" lon="10.5387783"><ele>102.99999999999999</ele><time>2026-04-04T08:17:56.505Z</time></trkpt><trkpt lat="43.5095717" lon="10.538755"><ele>103.0</ele><time>2026-04-04T08:17:58.505Z</time></trkpt><trkpt lat="43.50964" lon="10.5387233"><ele>102.85714285714285</ele><time>2026-04-04T08:18:00.505Z</time></trkpt><trkpt lat="43.5097" lon="10.538685"><ele>102.71428571428571</ele><time>2026-04-04T08:18:02.505Z</time></trkpt><trkpt lat="43.509765" lon="10.538645"><ele>102.57142857142857</ele><time>2026-04-04T08:18:04.505Z</time></trkpt><trkpt lat="43.5098267" lon="10.5385967"><ele>102.42857142857142</ele><time>2026-04-04T08:18:06.505Z</time></trkpt><trkpt lat="43.5098933" lon="10.5385567"><ele>102.28571428571429</ele><time>2026-04-04T08:18:08.506Z</time></trkpt><trkpt lat="43.5099617" lon="10.5385183"><ele>102.14285714285714</ele><time>2026-04-04T08:18:10.505Z</time></trkpt><trkpt lat="43.5100283" lon="10.5384767"><ele>102.0</ele><time>2026-04-04T08:18:12.506Z</time></trkpt><trkpt lat="43.5100917" lon="10.538435"><ele>102.0</ele><time>2026-04-04T08:18:14.506Z</time></trkpt><trkpt lat="43.51016" lon="10.5384033"><ele>102.0</ele><time>2026-04-04T08:18:16.506Z</time></trkpt><trkpt lat="43.510225" lon="10.538375"><ele>102.0</ele><time>2026-04-04T08:18:18.506Z</time></trkpt><trkpt lat="43.51029" lon="10.5383483"><ele>102.0</ele><time>2026-04-04T08:18:20.506Z</time></trkpt><trkpt lat="43.5103567" lon="10.5383183"><ele>102.0</ele><time>2026-04-04T08:18:22.505Z</time></trkpt><trkpt lat="43.51042" lon="10.538285"><ele>102.0</ele><time>2026-04-04T08:18:24.505Z</time></trkpt><trkpt lat="43.5104833" lon="10.5382567"><ele>102.0</ele><time>2026-04-04T08:18:26.505Z</time></trkpt><trkpt lat="43.51057" lon="10.5382167"><ele>102.16666666666667</ele><time>2026-04-04T08:18:29.505Z</time></trkpt><trkpt lat="43.510665" lon="10.53819"><ele>102.33333333333334</ele><time>2026-04-04T08:18:32.505Z</time></trkpt><trkpt lat="43.5107317" lon="10.538185"><ele>102.5</ele><time>2026-04-04T08:18:34.505Z</time></trkpt><trkpt lat="43.510795" lon="10.5381817"><ele>102.66666666666667</ele><time>2026-04-04T08:18:36.505Z</time></trkpt><trkpt lat="43.5108833" lon="10.5381933"><ele>102.83333333333334</ele><time>2026-04-04T08:18:39.506Z</time></trkpt><trkpt lat="43.5109667" lon="10.5382167"><ele>103.0</ele><time>2026-04-04T08:18:42.506Z</time></trkpt><trkpt lat="43.5110567" lon="10.5382417"><ele>103.00000000000001</ele><time>2026-04-04T08:18:45.506Z</time></trkpt><trkpt lat="43.5111417" lon="10.5382533"><ele>103.0</ele><time>2026-04-04T08:18:48.506Z</time></trkpt><trkpt lat="43.5112283" lon="10.5382617"><ele>103.0</ele><time>2026-04-04T08:18:51.506Z</time></trkpt><trkpt lat="43.511315" lon="10.5382617"><ele>103.0</ele><time>2026-04-04T08:18:54.505Z</time></trkpt><trkpt lat="43.5114" lon="10.5382683"><ele>103.00000000000001</ele><time>2026-04-04T08:18:57.505Z</time></trkpt><trkpt lat="43.511485" lon="10.53826"><ele>103.0</ele><time>2026-04-04T08:19:00.506Z</time></trkpt><trkpt lat="43.511565" lon="10.5382483"><ele>103.50000000000001</ele><time>2026-04-04T08:19:03.506Z</time></trkpt><trkpt lat="43.511645" lon="10.5382483"><ele>104.0</ele><time>2026-04-04T08:19:06.505Z</time></trkpt><trkpt lat="43.5117183" lon="10.538235"><ele>104.5</ele><time>2026-04-04T08:19:09.505Z</time></trkpt><trkpt lat="43.511785" lon="10.538225"><ele>105.0</ele><time>2026-04-04T08:19:12.505Z</time></trkpt><trkpt lat="43.511865" lon="10.5382083"><ele>105.50000000000001</ele><time>2026-04-04T08:19:15.505Z</time></trkpt><trkpt lat="43.5119333" lon="10.5381917"><ele>106.0</ele><time>2026-04-04T08:19:18.506Z</time></trkpt><trkpt lat="43.51201" lon="10.538165"><ele>104.50000000000001</ele><time>2026-04-04T08:19:27.505Z</time></trkpt><trkpt lat="43.5120833" lon="10.5381417"><ele>103.0</ele><time>2026-04-04T08:19:30.506Z</time></trkpt><trkpt lat="43.5121733" lon="10.5381133"><ele>101.5</ele><time>2026-04-04T08:19:33.505Z</time></trkpt><trkpt lat="43.5122417" lon="10.5380983"><ele>100.0</ele><time>2026-04-04T08:19:35.505Z</time></trkpt><trkpt lat="43.51232" lon="10.5380783"><ele>98.50000000000001</ele><time>2026-04-04T08:19:37.506Z</time></trkpt><trkpt lat="43.5123933" lon="10.538055"><ele>97.0</ele><time>2026-04-04T08:19:39.505Z</time></trkpt><trkpt lat="43.5124767" lon="10.538035"><ele>97.0</ele><time>2026-04-04T08:19:41.505Z</time></trkpt><trkpt lat="43.5125617" lon="10.5380167"><ele>97.0</ele><time>2026-04-04T08:19:43.505Z</time></trkpt><trkpt lat="43.512635" lon="10.5379967"><ele>97.0</ele><time>2026-04-04T08:19:45.506Z</time></trkpt><trkpt lat="43.5127167" lon="10.53798"><ele>97.0</ele><time>2026-04-04T08:19:48.506Z</time></trkpt><trkpt lat="43.5128367" lon="10.5379533"><ele>97.0</ele><time>2026-04-04T08:20:02.505Z</time></trkpt><trkpt lat="43.5129517" lon="10.53793"><ele>96.50000000000001</ele><time>2026-04-04T08:20:13.506Z</time></trkpt><trkpt lat="43.5130267" lon="10.537915"><ele>96.0</ele><time>2026-04-04T08:20:16.506Z</time></trkpt><trkpt lat="43.5131167" lon="10.5378983"><ele>95.5</ele><time>2026-04-04T08:20:19.506Z</time></trkpt><trkpt lat="43.5131967" lon="10.5378767"><ele>95.0</ele><time>2026-04-04T08:20:22.505Z</time></trkpt><trkpt lat="43.5132733" lon="10.537855"><ele>94.5</ele><time>2026-04-04T08:20:25.505Z</time></trkpt><trkpt lat="43.5133617" lon="10.5378367"><ele>94.0</ele><time>2026-04-04T08:20:28.506Z</time></trkpt><trkpt lat="43.5134533" lon="10.537815"><ele>94.0</ele><time>2026-04-04T08:20:31.506Z</time></trkpt><trkpt lat="43.5135183" lon="10.5377917"><ele>94.0</ele><time>2026-04-04T08:20:33.505Z</time></trkpt><trkpt lat="43.5135933" lon="10.5377683"><ele>94.0</ele><time>2026-04-04T08:20:35.506Z</time></trkpt><trkpt lat="43.5136867" lon="10.5377467"><ele>94.0</ele><time>2026-04-04T08:20:37.505Z</time></trkpt><trkpt lat="43.5138" lon="10.5377233"><ele>94.0</ele><time>2026-04-04T08:20:39.505Z</time></trkpt><trkpt lat="43.5139183" lon="10.5377033"><ele>93.5</ele><time>2026-04-04T08:20:41.505Z</time></trkpt><trkpt lat="43.5139817" lon="10.53769"><ele>93.0</ele><time>2026-04-04T08:20:42.506Z</time></trkpt><trkpt lat="43.514045" lon="10.53768"><ele>92.5</ele><time>2026-04-04T08:20:43.506Z</time></trkpt><trkpt lat="43.5141117" lon="10.5376683"><ele>92.0</ele><time>2026-04-04T08:20:44.506Z</time></trkpt><trkpt lat="43.5142267" lon="10.5376467"><ele>91.5</ele><time>2026-04-04T08:20:46.506Z</time></trkpt><trkpt lat="43.5143217" lon="10.5376217"><ele>91.0</ele><time>2026-04-04T08:20:48.505Z</time></trkpt><trkpt lat="43.5144017" lon="10.5375983"><ele>91.0</ele><time>2026-04-04T08:20:50.505Z</time></trkpt><trkpt lat="43.5144733" lon="10.537575"><ele>91.0</ele><time>2026-04-04T08:20:52.506Z</time></trkpt><trkpt lat="43.51454" lon="10.5375417"><ele>91.0</ele><time>2026-04-04T08:20:54.506Z</time></trkpt><trkpt lat="43.5146117" lon="10.5375"><ele>91.0</ele><time>2026-04-04T08:20:56.505Z</time></trkpt><trkpt lat="43.5146867" lon="10.5374517"><ele>91.0</ele><time>2026-04-04T08:20:58.505Z</time></trkpt><trkpt lat="43.5147617" lon="10.5373967"><ele>91.0</ele><time>2026-04-04T08:21:00.505Z</time></trkpt><trkpt lat="43.5148383" lon="10.53734"><ele>91.0</ele><time>2026-04-04T08:21:02.506Z</time></trkpt><trkpt lat="43.5149133" lon="10.5372883"><ele>91.0</ele><time>2026-04-04T08:21:04.506Z</time></trkpt><trkpt lat="43.514985" lon="10.537235"><ele>91.0</ele><time>2026-04-04T08:21:06.505Z</time></trkpt><trkpt lat="43.515055" lon="10.5371883"><ele>91.0</ele><time>2026-04-04T08:21:08.506Z</time></trkpt><trkpt lat="43.5151183" lon="10.537145"><ele>91.0</ele><time>2026-04-04T08:21:10.504Z</time></trkpt><trkpt lat="43.5151833" lon="10.5371033"><ele>91.0</ele><time>2026-04-04T08:21:12.504Z</time></trkpt><trkpt lat="43.515245" lon="10.5370683"><ele>90.5</ele><time>2026-04-04T08:21:14.504Z</time></trkpt><trkpt lat="43.51531" lon="10.53703"><ele>90.0</ele><time>2026-04-04T08:21:16.505Z</time></trkpt><trkpt lat="43.5153683" lon="10.53697"><ele>89.5</ele><time>2026-04-04T08:21:18.505Z</time></trkpt><trkpt lat="43.5154333" lon="10.5369167"><ele>89.0</ele><time>2026-04-04T08:21:20.505Z</time></trkpt><trkpt lat="43.5155" lon="10.536865"><ele>88.5</ele><time>2026-04-04T08:21:22.505Z</time></trkpt><trkpt lat="43.5155767" lon="10.5367967"><ele>88.0</ele><time>2026-04-04T08:21:24.504Z</time></trkpt><trkpt lat="43.515675" lon="10.5367117"><ele>88.0</ele><time>2026-04-04T08:21:26.504Z</time></trkpt><trkpt lat="43.515735" lon="10.5366633"><ele>88.0</ele><time>2026-04-04T08:21:27.504Z</time></trkpt><trkpt lat="43.5157967" lon="10.5366133"><ele>88.0</ele><time>2026-04-04T08:21:28.505Z</time></trkpt><trkpt lat="43.5158633" lon="10.536565"><ele>88.0</ele><time>2026-04-04T08:21:29.505Z</time></trkpt><trkpt lat="43.5159267" lon="10.5365167"><ele>88.0</ele><time>2026-04-04T08:21:30.505Z</time></trkpt><trkpt lat="43.5159833" lon="10.536465"><ele>88.0</ele><time>2026-04-04T08:21:31.505Z</time></trkpt><trkpt lat="43.516085" lon="10.53638"><ele>88.0</ele><time>2026-04-04T08:21:33.504Z</time></trkpt><trkpt lat="43.51618" lon="10.5362967"><ele>88.0</ele><time>2026-04-04T08:21:35.504Z</time></trkpt><trkpt lat="43.51627" lon="10.5361933"><ele>88.0</ele><time>2026-04-04T08:21:37.505Z</time></trkpt><trkpt lat="43.516355" lon="10.536095"><ele>88.0</ele><time>2026-04-04T08:21:39.504Z</time></trkpt><trkpt lat="43.5164467" lon="10.5359967"><ele>86.16666666666666</ele><time>2026-04-04T08:21:41.505Z</time></trkpt><trkpt lat="43.516525" lon="10.5359017"><ele>84.33333333333333</ele><time>2026-04-04T08:21:43.504Z</time></trkpt><trkpt lat="43.5166167" lon="10.5358017"><ele>82.5</ele><time>2026-04-04T08:21:45.504Z</time></trkpt><trkpt lat="43.5166683" lon="10.535745"><ele>80.66666666666667</ele><time>2026-04-04T08:21:46.504Z</time></trkpt><trkpt lat="43.5167217" lon="10.5356917"><ele>78.83333333333334</ele><time>2026-04-04T08:21:47.505Z</time></trkpt><trkpt lat="43.5167783" lon="10.5356367"><ele>77.0</ele><time>2026-04-04T08:21:48.505Z</time></trkpt><trkpt lat="43.5168333" lon="10.5355817"><ele>77.0</ele><time>2026-04-04T08:21:49.505Z</time></trkpt><trkpt lat="43.5168933" lon="10.5355267"><ele>77.0</ele><time>2026-04-04T08:21:50.504Z</time></trkpt><trkpt lat="43.5169567" lon="10.5354717"><ele>77.0</ele><time>2026-04-04T08:21:51.505Z</time></trkpt><trkpt lat="43.5170117" lon="10.5354217"><ele>77.0</ele><time>2026-04-04T08:21:52.505Z</time></trkpt><trkpt lat="43.517095" lon="10.5352867"><ele>77.0</ele><time>2026-04-04T08:21:54.505Z</time></trkpt><trkpt lat="43.5171417" lon="10.535215"><ele>77.0</ele><time>2026-04-04T08:21:55.504Z</time></trkpt><trkpt lat="43.517195" lon="10.5351533"><ele>75.33333333333334</ele><time>2026-04-04T08:21:56.505Z</time></trkpt><trkpt lat="43.5172533" lon="10.535095"><ele>73.66666666666667</ele><time>2026-04-04T08:21:57.504Z</time></trkpt><trkpt lat="43.5173083" lon="10.5350283"><ele>72.0</ele><time>2026-04-04T08:21:58.504Z</time></trkpt><trkpt lat="43.5173633" lon="10.53496"><ele>70.33333333333333</ele><time>2026-04-04T08:21:59.505Z</time></trkpt><trkpt lat="43.517425" lon="10.5348967"><ele>68.66666666666666</ele><time>2026-04-04T08:22:00.505Z</time></trkpt><trkpt lat="43.517485" lon="10.5348283"><ele>67.0</ele><time>2026-04-04T08:22:01.505Z</time></trkpt><trkpt lat="43.5175417" lon="10.5347467"><ele>67.0</ele><time>2026-04-04T08:22:02.505Z</time></trkpt><trkpt lat="43.5175933" lon="10.53466"><ele>67.0</ele><time>2026-04-04T08:22:03.505Z</time></trkpt><trkpt lat="43.5176333" lon="10.534565"><ele>67.0</ele><time>2026-04-04T08:22:04.505Z</time></trkpt><trkpt lat="43.5176683" lon="10.5344583"><ele>67.0</ele><time>2026-04-04T08:22:05.505Z</time></trkpt><trkpt lat="43.5176817" lon="10.5343483"><ele>67.0</ele><time>2026-04-04T08:22:06.505Z</time></trkpt><trkpt lat="43.5176833" lon="10.534235"><ele>67.0</ele><time>2026-04-04T08:22:07.504Z</time></trkpt><trkpt lat="43.51768" lon="10.534135"><ele>66.71428571428572</ele><time>2026-04-04T08:22:08.504Z</time></trkpt><trkpt lat="43.5176767" lon="10.5340383"><ele>66.42857142857143</ele><time>2026-04-04T08:22:09.505Z</time></trkpt><trkpt lat="43.5176717" lon="10.5339467"><ele>66.14285714285714</ele><time>2026-04-04T08:22:10.505Z</time></trkpt><trkpt lat="43.5176717" lon="10.5338567"><ele>65.85714285714286</ele><time>2026-04-04T08:22:11.505Z</time></trkpt><trkpt lat="43.517675" lon="10.5337633"><ele>65.57142857142857</ele><time>2026-04-04T08:22:12.504Z</time></trkpt><trkpt lat="43.5176783" lon="10.53367"><ele>65.28571428571429</ele><time>2026-04-04T08:22:13.505Z</time></trkpt><trkpt lat="43.5176833" lon="10.5335833"><ele>65.0</ele><time>2026-04-04T08:22:14.504Z</time></trkpt><trkpt lat="43.5176883" lon="10.53349"><ele>64.75</ele><time>2026-04-04T08:22:15.505Z</time></trkpt><trkpt lat="43.517695" lon="10.5333217"><ele>64.5</ele><time>2026-04-04T08:22:17.504Z</time></trkpt><trkpt lat="43.517705" lon="10.53316"><ele>64.25</ele><time>2026-04-04T08:22:19.505Z</time></trkpt><trkpt lat="43.5177117" lon="10.5330067"><ele>64.0</ele><time>2026-04-04T08:22:21.505Z</time></trkpt><trkpt lat="43.5177183" lon="10.5328633"><ele>63.6</ele><time>2026-04-04T08:22:23.505Z</time></trkpt><trkpt lat="43.5177233" lon="10.53272"><ele>63.2</ele><time>2026-04-04T08:22:25.504Z</time></trkpt><trkpt lat="43.517725" lon="10.5325767"><ele>62.800000000000004</ele><time>2026-04-04T08:22:27.504Z</time></trkpt><trkpt lat="43.51773" lon="10.5324417"><ele>62.400000000000006</ele><time>2026-04-04T08:22:29.504Z</time></trkpt><trkpt lat="43.5177367" lon="10.5323067"><ele>62.0</ele><time>2026-04-04T08:22:31.504Z</time></trkpt><trkpt lat="43.517735" lon="10.5321667"><ele>61.66666666666667</ele><time>2026-04-04T08:22:33.504Z</time></trkpt><trkpt lat="43.517755" lon="10.532045"><ele>61.333333333333336</ele><time>2026-04-04T08:22:35.504Z</time></trkpt><trkpt lat="43.5177967" lon="10.5319633"><ele>61.0</ele><time>2026-04-04T08:22:37.504Z</time></trkpt><trkpt lat="43.5178767" lon="10.531935"><ele>60.66666666666667</ele><time>2026-04-04T08:22:39.504Z</time></trkpt><trkpt lat="43.5179867" lon="10.5319617"><ele>60.333333333333336</ele><time>2026-04-04T08:22:41.504Z</time></trkpt><trkpt lat="43.518055" lon="10.53199"><ele>60.0</ele><time>2026-04-04T08:22:42.505Z</time></trkpt><trkpt lat="43.51813" lon="10.5320317"><ele>59.0</ele><time>2026-04-04T08:22:43.504Z</time></trkpt><trkpt lat="43.5182083" lon="10.532075"><ele>58.0</ele><time>2026-04-04T08:22:44.504Z</time></trkpt><trkpt lat="43.51829" lon="10.5321333"><ele>57.0</ele><time>2026-04-04T08:22:45.504Z</time></trkpt><trkpt lat="43.51837" lon="10.53221"><ele>56.0</ele><time>2026-04-04T08:22:46.505Z</time></trkpt><trkpt lat="43.518445" lon="10.53229"><ele>55.0</ele><time>2026-04-04T08:22:47.504Z</time></trkpt><trkpt lat="43.5185233" lon="10.5323567"><ele>54.99999999999999</ele><time>2026-04-04T08:22:48.504Z</time></trkpt><trkpt lat="43.5186033" lon="10.5324167"><ele>55.0</ele><time>2026-04-04T08:22:49.505Z</time></trkpt><trkpt lat="43.51868" lon="10.5324717"><ele>55.0</ele><time>2026-04-04T08:22:50.505Z</time></trkpt><trkpt lat="43.518755" lon="10.53251"><ele>55.0</ele><time>2026-04-04T08:22:51.504Z</time></trkpt><trkpt lat="43.5188333" lon="10.53254"><ele>54.99999999999999</ele><time>2026-04-04T08:22:52.505Z</time></trkpt><trkpt lat="43.51891" lon="10.5325767"><ele>55.0</ele><time>2026-04-04T08:22:53.505Z</time></trkpt><trkpt lat="43.5189833" lon="10.53262"><ele>54.49999999999999</ele><time>2026-04-04T08:22:54.505Z</time></trkpt><trkpt lat="43.5190467" lon="10.53267"><ele>54.0</ele><time>2026-04-04T08:22:55.505Z</time></trkpt><trkpt lat="43.5191033" lon="10.532725"><ele>53.5</ele><time>2026-04-04T08:22:56.505Z</time></trkpt><trkpt lat="43.5191633" lon="10.53278"><ele>53.0</ele><time>2026-04-04T08:22:57.504Z</time></trkpt><trkpt lat="43.5192183" lon="10.5328283"><ele>52.49999999999999</ele><time>2026-04-04T08:22:58.504Z</time></trkpt><trkpt lat="43.5192767" lon="10.5328717"><ele>52.0</ele><time>2026-04-04T08:22:59.504Z</time></trkpt><trkpt lat="43.51938" lon="10.5329567"><ele>52.0</ele><time>2026-04-04T08:23:01.504Z</time></trkpt><trkpt lat="43.5194917" lon="10.532995"><ele>52.0</ele><time>2026-04-04T08:23:03.504Z</time></trkpt><trkpt lat="43.51959" lon="10.5329733"><ele>52.0</ele><time>2026-04-04T08:23:05.504Z</time></trkpt><trkpt lat="43.5196667" lon="10.532905"><ele>52.0</ele><time>2026-04-04T08:23:07.505Z</time></trkpt><trkpt lat="43.5197133" lon="10.53281"><ele>52.0</ele><time>2026-04-04T08:23:09.505Z</time></trkpt><trkpt lat="43.5197533" lon="10.5326983"><ele>51.49999999999999</ele><time>2026-04-04T08:23:11.504Z</time></trkpt><trkpt lat="43.5197933" lon="10.53259"><ele>51.0</ele><time>2026-04-04T08:23:13.505Z</time></trkpt><trkpt lat="43.5198367" lon="10.5324883"><ele>50.5</ele><time>2026-04-04T08:23:15.504Z</time></trkpt><trkpt lat="43.5198817" lon="10.5323883"><ele>50.0</ele><time>2026-04-04T08:23:17.505Z</time></trkpt><trkpt lat="43.5199533" lon="10.532325"><ele>49.49999999999999</ele><time>2026-04-04T08:23:19.505Z</time></trkpt><trkpt lat="43.5200217" lon="10.5323183"><ele>49.0</ele><time>2026-04-04T08:23:21.504Z</time></trkpt><trkpt lat="43.5201133" lon="10.532355"><ele>48.99999999999999</ele><time>2026-04-04T08:23:24.504Z</time></trkpt><trkpt lat="43.520185" lon="10.532385"><ele>49.0</ele><time>2026-04-04T08:23:26.505Z</time></trkpt><trkpt lat="43.5202583" lon="10.5324133"><ele>49.0</ele><time>2026-04-04T08:23:28.505Z</time></trkpt><trkpt lat="43.5203367" lon="10.532445"><ele>49.0</ele><time>2026-04-04T08:23:30.504Z</time></trkpt><trkpt lat="43.5204217" lon="10.53248"><ele>48.99999999999999</ele><time>2026-04-04T08:23:32.505Z</time></trkpt><trkpt lat="43.5205067" lon="10.5325133"><ele>49.0</ele><time>2026-04-04T08:23:34.505Z</time></trkpt><trkpt lat="43.5205883" lon="10.53254"><ele>49.33333333333333</ele><time>2026-04-04T08:23:36.505Z</time></trkpt><trkpt lat="43.5206717" lon="10.532575"><ele>49.666666666666664</ele><time>2026-04-04T08:23:38.504Z</time></trkpt><trkpt lat="43.520755" lon="10.5326067"><ele>50.0</ele><time>2026-04-04T08:23:40.505Z</time></trkpt><trkpt lat="43.5208317" lon="10.5326383"><ele>50.33333333333333</ele><time>2026-04-04T08:23:42.505Z</time></trkpt><trkpt lat="43.520915" lon="10.5326683"><ele>50.666666666666664</ele><time>2026-04-04T08:23:44.505Z</time></trkpt><trkpt lat="43.5209967" lon="10.5326967"><ele>51.0</ele><time>2026-04-04T08:23:46.505Z</time></trkpt><trkpt lat="43.52107" lon="10.5327167"><ele>51.0</ele><time>2026-04-04T08:23:48.505Z</time></trkpt><trkpt lat="43.5211433" lon="10.53275"><ele>51.0</ele><time>2026-04-04T08:23:50.504Z</time></trkpt><trkpt lat="43.5212167" lon="10.5327767"><ele>51.0</ele><time>2026-04-04T08:23:52.504Z</time></trkpt><trkpt lat="43.5212833" lon="10.5328033"><ele>51.0</ele><time>2026-04-04T08:23:54.504Z</time></trkpt><trkpt lat="43.5213567" lon="10.5328333"><ele>51.0</ele><time>2026-04-04T08:23:56.505Z</time></trkpt><trkpt lat="43.5214333" lon="10.5328583"><ele>51.0</ele><time>2026-04-04T08:23:58.505Z</time></trkpt><trkpt lat="43.5215083" lon="10.53289"><ele>51.333333333333336</ele><time>2026-04-04T08:24:00.505Z</time></trkpt><trkpt lat="43.5215833" lon="10.5329233"><ele>51.66666666666667</ele><time>2026-04-04T08:24:02.504Z</time></trkpt><trkpt lat="43.5216617" lon="10.5329517"><ele>52.0</ele><time>2026-04-04T08:24:04.505Z</time></trkpt><trkpt lat="43.521735" lon="10.53298"><ele>52.333333333333336</ele><time>2026-04-04T08:24:06.504Z</time></trkpt><trkpt lat="43.5218117" lon="10.5330133"><ele>52.66666666666667</ele><time>2026-04-04T08:24:08.504Z</time></trkpt><trkpt lat="43.52189" lon="10.5330433"><ele>53.0</ele><time>2026-04-04T08:24:10.505Z</time></trkpt><trkpt lat="43.521965" lon="10.53307"><ele>53.00000000000001</ele><time>2026-04-04T08:24:12.505Z</time></trkpt><trkpt lat="43.5220417" lon="10.5330917"><ele>53.0</ele><time>2026-04-04T08:24:14.504Z</time></trkpt><trkpt lat="43.5221167" lon="10.5331167"><ele>53.0</ele><time>2026-04-04T08:24:16.505Z</time></trkpt><trkpt lat="43.5221917" lon="10.533145"><ele>53.0</ele><time>2026-04-04T08:24:18.504Z</time></trkpt><trkpt lat="43.5222617" lon="10.5331733"><ele>53.00000000000001</ele><time>2026-04-04T08:24:20.505Z</time></trkpt><trkpt lat="43.522325" lon="10.5332133"><ele>53.0</ele><time>2026-04-04T08:24:22.504Z</time></trkpt><trkpt lat="43.5223983" lon="10.5332867"><ele>53.50000000000001</ele><time>2026-04-04T08:24:25.505Z</time></trkpt><trkpt lat="43.5224483" lon="10.533375"><ele>54.0</ele><time>2026-04-04T08:24:28.504Z</time></trkpt><trkpt lat="43.522475" lon="10.53347"><ele>54.5</ele><time>2026-04-04T08:24:31.504Z</time></trkpt><trkpt lat="43.52249" lon="10.533585"><ele>55.0</ele><time>2026-04-04T08:24:34.505Z</time></trkpt><trkpt lat="43.5225117" lon="10.533705"><ele>55.50000000000001</ele><time>2026-04-04T08:24:37.505Z</time></trkpt><trkpt lat="43.5225417" lon="10.5338233"><ele>56.0</ele><time>2026-04-04T08:24:40.505Z</time></trkpt><trkpt lat="43.5225783" lon="10.5339383"><ele>56.00000000000001</ele><time>2026-04-04T08:24:43.505Z</time></trkpt><trkpt lat="43.522625" lon="10.534045"><ele>56.0</ele><time>2026-04-04T08:24:46.505Z</time></trkpt><trkpt lat="43.5226717" lon="10.5341483"><ele>56.0</ele><time>2026-04-04T08:24:49.505Z</time></trkpt><trkpt lat="43.5227067" lon="10.534225"><ele>56.0</ele><time>2026-04-04T08:24:51.504Z</time></trkpt><trkpt lat="43.5227533" lon="10.5342983"><ele>56.00000000000001</ele><time>2026-04-04T08:24:53.505Z</time></trkpt><trkpt lat="43.5228133" lon="10.5343633"><ele>56.0</ele><time>2026-04-04T08:24:55.504Z</time></trkpt><trkpt lat="43.52288" lon="10.53443"><ele>56.14285714285714</ele><time>2026-04-04T08:24:57.505Z</time></trkpt><trkpt lat="43.5229417" lon="10.53448"><ele>56.285714285714285</ele><time>2026-04-04T08:24:59.505Z</time></trkpt><trkpt lat="43.523005" lon="10.53453"><ele>56.42857142857143</ele><time>2026-04-04T08:25:01.505Z</time></trkpt><trkpt lat="43.5230683" lon="10.53457"><ele>56.57142857142857</ele><time>2026-04-04T08:25:03.504Z</time></trkpt><trkpt lat="43.52314" lon="10.5346117"><ele>56.71428571428571</ele><time>2026-04-04T08:25:05.504Z</time></trkpt><trkpt lat="43.52321" lon="10.5346517"><ele>56.857142857142854</ele><time>2026-04-04T08:25:07.504Z</time></trkpt><trkpt lat="43.52328" lon="10.534695"><ele>57.0</ele><time>2026-04-04T08:25:09.505Z</time></trkpt><trkpt lat="43.5233533" lon="10.5347367"><ele>57.0</ele><time>2026-04-04T08:25:11.504Z</time></trkpt><trkpt lat="43.5234267" lon="10.5347783"><ele>57.0</ele><time>2026-04-04T08:25:13.504Z</time></trkpt><trkpt lat="43.5234983" lon="10.5348267"><ele>57.0</ele><time>2026-04-04T08:25:15.504Z</time></trkpt><trkpt lat="43.5235733" lon="10.5348733"><ele>57.0</ele><time>2026-04-04T08:25:17.505Z</time></trkpt><trkpt lat="43.5236433" lon="10.5349167"><ele>57.0</ele><time>2026-04-04T08:25:19.504Z</time></trkpt><trkpt lat="43.523715" lon="10.5349617"><ele>57.0</ele><time>2026-04-04T08:25:21.504Z</time></trkpt><trkpt lat="43.5237933" lon="10.5350183"><ele>57.333333333333336</ele><time>2026-04-04T08:25:23.505Z</time></trkpt><trkpt lat="43.523865" lon="10.5350683"><ele>57.66666666666667</ele><time>2026-04-04T08:25:25.505Z</time></trkpt><trkpt lat="43.5239333" lon="10.535125"><ele>58.0</ele><time>2026-04-04T08:25:27.505Z</time></trkpt><trkpt lat="43.52401" lon="10.5351667"><ele>58.333333333333336</ele><time>2026-04-04T08:25:29.505Z</time></trkpt><trkpt lat="43.5240717" lon="10.5352217"><ele>58.66666666666667</ele><time>2026-04-04T08:25:31.505Z</time></trkpt><trkpt lat="43.5241433" lon="10.5352717"><ele>59.0</ele><time>2026-04-04T08:25:33.505Z</time></trkpt><trkpt lat="43.524215" lon="10.5353267"><ele>59.0</ele><time>2026-04-04T08:25:35.505Z</time></trkpt><trkpt lat="43.524285" lon="10.535375"><ele>59.0</ele><time>2026-04-04T08:25:37.504Z</time></trkpt><trkpt lat="43.5243483" lon="10.5354267"><ele>59.0</ele><time>2026-04-04T08:25:39.505Z</time></trkpt><trkpt lat="43.5244117" lon="10.53547"><ele>59.0</ele><time>2026-04-04T08:25:41.504Z</time></trkpt><trkpt lat="43.5244783" lon="10.5355117"><ele>59.0</ele><time>2026-04-04T08:25:43.505Z</time></trkpt><trkpt lat="43.5245417" lon="10.5355617"><ele>59.0</ele><time>2026-04-04T08:25:45.504Z</time></trkpt><trkpt lat="43.5246033" lon="10.5356133"><ele>59.0</ele><time>2026-04-04T08:25:47.504Z</time></trkpt><trkpt lat="43.52467" lon="10.5356683"><ele>58.57142857142857</ele><time>2026-04-04T08:25:49.504Z</time></trkpt><trkpt lat="43.52473" lon="10.5357133"><ele>58.142857142857146</ele><time>2026-04-04T08:25:51.504Z</time></trkpt><trkpt lat="43.5247883" lon="10.53575"><ele>57.714285714285715</ele><time>2026-04-04T08:25:53.504Z</time></trkpt><trkpt lat="43.5248483" lon="10.5357933"><ele>57.285714285714285</ele><time>2026-04-04T08:25:55.504Z</time></trkpt><trkpt lat="43.5249117" lon="10.535845"><ele>56.85714285714286</ele><time>2026-04-04T08:25:57.505Z</time></trkpt><trkpt lat="43.5249817" lon="10.5358967"><ele>56.42857142857143</ele><time>2026-04-04T08:25:59.504Z</time></trkpt><trkpt lat="43.5250517" lon="10.535955"><ele>56.0</ele><time>2026-04-04T08:26:01.505Z</time></trkpt><trkpt lat="43.5251167" lon="10.536015"><ele>56.00000000000001</ele><time>2026-04-04T08:26:03.505Z</time></trkpt><trkpt lat="43.5251783" lon="10.53608"><ele>56.0</ele><time>2026-04-04T08:26:05.505Z</time></trkpt><trkpt lat="43.5252417" lon="10.5361417"><ele>56.0</ele><time>2026-04-04T08:26:07.504Z</time></trkpt><trkpt lat="43.52531" lon="10.5361983"><ele>56.0</ele><time>2026-04-04T08:26:09.504Z</time></trkpt><trkpt lat="43.5253733" lon="10.536255"><ele>56.00000000000001</ele><time>2026-04-04T08:26:11.505Z</time></trkpt><trkpt lat="43.5254417" lon="10.5363067"><ele>56.0</ele><time>2026-04-04T08:26:13.504Z</time></trkpt><trkpt lat="43.5255067" lon="10.5363483"><ele>56.714285714285715</ele><time>2026-04-04T08:26:15.504Z</time></trkpt><trkpt lat="43.5255717" lon="10.5363817"><ele>57.42857142857143</ele><time>2026-04-04T08:26:17.504Z</time></trkpt><trkpt lat="43.525635" lon="10.536415"><ele>58.14285714285714</ele><time>2026-04-04T08:26:19.504Z</time></trkpt><trkpt lat="43.5256933" lon="10.5364483"><ele>58.857142857142854</ele><time>2026-04-04T08:26:21.504Z</time></trkpt><trkpt lat="43.525775" lon="10.536495"><ele>59.57142857142857</ele><time>2026-04-04T08:26:24.504Z</time></trkpt><trkpt lat="43.525845" lon="10.5365283"><ele>60.28571428571428</ele><time>2026-04-04T08:26:27.504Z</time></trkpt><trkpt lat="43.5259083" lon="10.5365683"><ele>60.99999999999999</ele><time>2026-04-04T08:26:30.504Z</time></trkpt><trkpt lat="43.5259733" lon="10.5366033"><ele>60.99999999999999</ele><time>2026-04-04T08:26:33.505Z</time></trkpt><trkpt lat="43.5260383" lon="10.53664"><ele>61.0</ele><time>2026-04-04T08:26:36.504Z</time></trkpt><trkpt lat="43.5261067" lon="10.5366783"><ele>60.99999999999999</ele><time>2026-04-04T08:26:39.505Z</time></trkpt><trkpt lat="43.52617" lon="10.5367167"><ele>60.99999999999999</ele><time>2026-04-04T08:26:42.504Z</time></trkpt><trkpt lat="43.526235" lon="10.536745"><ele>61.0</ele><time>2026-04-04T08:26:45.504Z</time></trkpt><trkpt lat="43.5262967" lon="10.5367817"><ele>60.99999999999999</ele><time>2026-04-04T08:26:48.503Z</time></trkpt><trkpt lat="43.526355" lon="10.5368183"><ele>60.99999999999999</ele><time>2026-04-04T08:26:51.504Z</time></trkpt><trkpt lat="43.5264317" lon="10.53686"><ele>61.666666666666664</ele><time>2026-04-04T08:26:55.503Z</time></trkpt><trkpt lat="43.5265083" lon="10.5368967"><ele>62.33333333333333</ele><time>2026-04-04T08:26:59.503Z</time></trkpt><trkpt lat="43.526585" lon="10.53694"><ele>63.0</ele><time>2026-04-04T08:27:03.503Z</time></trkpt><trkpt lat="43.5266517" lon="10.5369883"><ele>63.66666666666667</ele><time>2026-04-04T08:27:07.503Z</time></trkpt><trkpt lat="43.5267267" lon="10.5370317"><ele>64.33333333333334</ele><time>2026-04-04T08:27:11.503Z</time></trkpt><trkpt lat="43.5268" lon="10.5370817"><ele>65.0</ele><time>2026-04-04T08:27:15.503Z</time></trkpt><trkpt lat="43.5268583" lon="10.537115"><ele>65.85714285714286</ele><time>2026-04-04T08:27:18.504Z</time></trkpt><trkpt lat="43.52692" lon="10.53715"><ele>66.71428571428572</ele><time>2026-04-04T08:27:21.504Z</time></trkpt><trkpt lat="43.5269917" lon="10.5371967"><ele>67.57142857142857</ele><time>2026-04-04T08:27:25.503Z</time></trkpt><trkpt lat="43.5270617" lon="10.53725"><ele>68.42857142857143</ele><time>2026-04-04T08:27:29.504Z</time></trkpt><trkpt lat="43.5271283" lon="10.5372917"><ele>69.28571428571428</ele><time>2026-04-04T08:27:33.504Z</time></trkpt><trkpt lat="43.5271967" lon="10.53735"><ele>70.14285714285714</ele><time>2026-04-04T08:27:37.503Z</time></trkpt><trkpt lat="43.5272533" lon="10.53739"><ele>71.0</ele><time>2026-04-04T08:27:40.504Z</time></trkpt><trkpt lat="43.5273167" lon="10.5374433"><ele>71.66666666666667</ele><time>2026-04-04T08:27:44.503Z</time></trkpt><trkpt lat="43.5273883" lon="10.5375033"><ele>72.33333333333334</ele><time>2026-04-04T08:27:48.504Z</time></trkpt><trkpt lat="43.527455" lon="10.5375583"><ele>73.0</ele><time>2026-04-04T08:27:52.504Z</time></trkpt><trkpt lat="43.5275233" lon="10.537615"><ele>73.66666666666667</ele><time>2026-04-04T08:27:56.503Z</time></trkpt><trkpt lat="43.5275933" lon="10.537665"><ele>74.33333333333333</ele><time>2026-04-04T08:28:00.503Z</time></trkpt><trkpt lat="43.527655" lon="10.5377233"><ele>75.0</ele><time>2026-04-04T08:28:04.504Z</time></trkpt><trkpt lat="43.5277167" lon="10.5377817"><ele>74.99999999999999</ele><time>2026-04-04T08:28:08.503Z</time></trkpt><trkpt lat="43.52778" lon="10.5378483"><ele>75.0</ele><time>2026-04-04T08:28:12.504Z</time></trkpt><trkpt lat="43.52784" lon="10.5379133"><ele>75.0</ele><time>2026-04-04T08:28:16.504Z</time></trkpt><trkpt lat="43.5279083" lon="10.5379817"><ele>75.0</ele><time>2026-04-04T08:28:20.503Z</time></trkpt><trkpt lat="43.527965" lon="10.5380433"><ele>75.0</ele><time>2026-04-04T08:28:23.504Z</time></trkpt><trkpt lat="43.5280217" lon="10.538095"><ele>74.99999999999999</ele><time>2026-04-04T08:28:26.503Z</time></trkpt><trkpt lat="43.528075" lon="10.5381483"><ele>75.0</ele><time>2026-04-04T08:28:29.503Z</time></trkpt><trkpt lat="43.528125" lon="10.5382083"><ele>75.99999999999999</ele><time>2026-04-04T08:28:32.503Z</time></trkpt><trkpt lat="43.528175" lon="10.5382633"><ele>77.0</ele><time>2026-04-04T08:28:35.504Z</time></trkpt><trkpt lat="43.5282367" lon="10.5383383"><ele>78.0</ele><time>2026-04-04T08:28:39.503Z</time></trkpt><trkpt lat="43.5282967" lon="10.5383883"><ele>79.0</ele><time>2026-04-04T08:28:42.503Z</time></trkpt><trkpt lat="43.5283517" lon="10.5384383"><ele>80.0</ele><time>2026-04-04T08:28:45.504Z</time></trkpt><trkpt lat="43.52841" lon="10.5384817"><ele>80.99999999999999</ele><time>2026-04-04T08:28:48.503Z</time></trkpt><trkpt lat="43.5284617" lon="10.5385333"><ele>82.0</ele><time>2026-04-04T08:28:51.503Z</time></trkpt><trkpt lat="43.5285117" lon="10.5385933"><ele>81.99999999999999</ele><time>2026-04-04T08:28:54.504Z</time></trkpt><trkpt lat="43.5285717" lon="10.5386567"><ele>82.0</ele><time>2026-04-04T08:28:58.504Z</time></trkpt><trkpt lat="43.528635" lon="10.538695"><ele>82.0</ele><time>2026-04-04T08:29:02.503Z</time></trkpt><trkpt lat="43.5286983" lon="10.5387267"><ele>82.0</ele><time>2026-04-04T08:29:05.504Z</time></trkpt><trkpt lat="43.52876" lon="10.53877"><ele>82.0</ele><time>2026-04-04T08:29:08.504Z</time></trkpt><trkpt lat="43.5288183" lon="10.5388167"><ele>81.99999999999999</ele><time>2026-04-04T08:29:11.504Z</time></trkpt><trkpt lat="43.5288883" lon="10.538865"><ele>82.0</ele><time>2026-04-04T08:29:14.504Z</time></trkpt><trkpt lat="43.528945" lon="10.538915"><ele>82.33333333333333</ele><time>2026-04-04T08:29:16.503Z</time></trkpt><trkpt lat="43.5290017" lon="10.5389533"><ele>82.66666666666666</ele><time>2026-04-04T08:29:18.503Z</time></trkpt><trkpt lat="43.5290733" lon="10.5389983"><ele>83.0</ele><time>2026-04-04T08:29:21.503Z</time></trkpt><trkpt lat="43.5291433" lon="10.5390783"><ele>83.33333333333333</ele><time>2026-04-04T08:29:24.504Z</time></trkpt><trkpt lat="43.52921" lon="10.5391767"><ele>83.66666666666667</ele><time>2026-04-04T08:29:27.503Z</time></trkpt><trkpt lat="43.529255" lon="10.5392567"><ele>84.0</ele><time>2026-04-04T08:29:29.503Z</time></trkpt><trkpt lat="43.5292933" lon="10.5393483"><ele>84.0</ele><time>2026-04-04T08:29:31.504Z</time></trkpt><trkpt lat="43.52933" lon="10.5394517"><ele>84.0</ele><time>2026-04-04T08:29:33.504Z</time></trkpt><trkpt lat="43.5293633" lon="10.5395767"><ele>84.0</ele><time>2026-04-04T08:29:35.504Z</time></trkpt><trkpt lat="43.5293883" lon="10.539715"><ele>84.0</ele><time>2026-04-04T08:29:37.504Z</time></trkpt><trkpt lat="43.5293983" lon="10.5398683"><ele>84.0</ele><time>2026-04-04T08:29:39.503Z</time></trkpt><trkpt lat="43.5293867" lon="10.5400267"><ele>83.4</ele><time>2026-04-04T08:29:41.503Z</time></trkpt><trkpt lat="43.52936" lon="10.5401783"><ele>82.80000000000001</ele><time>2026-04-04T08:29:43.503Z</time></trkpt><trkpt lat="43.5293317" lon="10.540325"><ele>82.19999999999999</ele><time>2026-04-04T08:29:45.504Z</time></trkpt><trkpt lat="43.5293033" lon="10.54046"><ele>81.6</ele><time>2026-04-04T08:29:47.504Z</time></trkpt><trkpt lat="43.5292717" lon="10.5405967"><ele>81.0</ele><time>2026-04-04T08:29:49.504Z</time></trkpt><trkpt lat="43.5292417" lon="10.5407267"><ele>81.0</ele><time>2026-04-04T08:29:51.504Z</time></trkpt><trkpt lat="43.5292133" lon="10.5408483"><ele>81.0</ele><time>2026-04-04T08:29:53.504Z</time></trkpt><trkpt lat="43.529185" lon="10.54097"><ele>81.0</ele><time>2026-04-04T08:29:55.503Z</time></trkpt><trkpt lat="43.529155" lon="10.5410933"><ele>81.0</ele><time>2026-04-04T08:29:57.504Z</time></trkpt><trkpt lat="43.5291317" lon="10.5412017"><ele>81.0</ele><time>2026-04-04T08:29:59.503Z</time></trkpt><trkpt lat="43.5291067" lon="10.541315"><ele>81.0</ele><time>2026-04-04T08:30:01.503Z</time></trkpt><trkpt lat="43.52909" lon="10.5414267"><ele>81.0</ele><time>2026-04-04T08:30:03.504Z</time></trkpt><trkpt lat="43.5290733" lon="10.54154"><ele>81.0</ele><time>2026-04-04T08:30:05.504Z</time></trkpt><trkpt lat="43.52906" lon="10.54164"><ele>81.0</ele><time>2026-04-04T08:30:07.503Z</time></trkpt><trkpt lat="43.529055" lon="10.5417317"><ele>81.0</ele><time>2026-04-04T08:30:09.504Z</time></trkpt><trkpt lat="43.52905" lon="10.5418233"><ele>81.0</ele><time>2026-04-04T08:30:11.503Z</time></trkpt><trkpt lat="43.5290417" lon="10.5419133"><ele>81.0</ele><time>2026-04-04T08:30:13.504Z</time></trkpt><trkpt lat="43.5290433" lon="10.5420433"><ele>81.66666666666667</ele><time>2026-04-04T08:30:16.504Z</time></trkpt><trkpt lat="43.5290433" lon="10.5421733"><ele>82.33333333333333</ele><time>2026-04-04T08:30:19.504Z</time></trkpt><trkpt lat="43.529045" lon="10.5422683"><ele>83.0</ele><time>2026-04-04T08:30:21.504Z</time></trkpt><trkpt lat="43.5290433" lon="10.5423567"><ele>83.66666666666666</ele><time>2026-04-04T08:30:23.503Z</time></trkpt><trkpt lat="43.52904" lon="10.5424767"><ele>84.33333333333333</ele><time>2026-04-04T08:30:26.504Z</time></trkpt><trkpt lat="43.5290367" lon="10.5425983"><ele>85.0</ele><time>2026-04-04T08:30:29.504Z</time></trkpt><trkpt lat="43.5290333" lon="10.54271"><ele>85.0</ele><time>2026-04-04T08:30:32.503Z</time></trkpt><trkpt lat="43.52904" lon="10.5428217"><ele>85.0</ele><time>2026-04-04T08:30:35.503Z</time></trkpt><trkpt lat="43.529045" lon="10.542945"><ele>85.0</ele><time>2026-04-04T08:30:38.503Z</time></trkpt><trkpt lat="43.5290383" lon="10.5430667"><ele>85.0</ele><time>2026-04-04T08:30:41.504Z</time></trkpt><trkpt lat="43.5290283" lon="10.5431767"><ele>85.0</ele><time>2026-04-04T08:30:44.504Z</time></trkpt><trkpt lat="43.5290167" lon="10.543295"><ele>85.0</ele><time>2026-04-04T08:30:47.503Z</time></trkpt><trkpt lat="43.529005" lon="10.54339"><ele>85.33333333333333</ele><time>2026-04-04T08:30:50.503Z</time></trkpt><trkpt lat="43.5289917" lon="10.5434983"><ele>85.66666666666666</ele><time>2026-04-04T08:30:53.504Z</time></trkpt><trkpt lat="43.5289817" lon="10.543625"><ele>86.0</ele><time>2026-04-04T08:30:56.504Z</time></trkpt><trkpt lat="43.5289683" lon="10.5437183"><ele>86.33333333333333</ele><time>2026-04-04T08:30:58.503Z</time></trkpt><trkpt lat="43.528955" lon="10.54381"><ele>86.66666666666667</ele><time>2026-04-04T08:31:00.503Z</time></trkpt><trkpt lat="43.5289417" lon="10.5439"><ele>87.0</ele><time>2026-04-04T08:31:02.504Z</time></trkpt><trkpt lat="43.528925" lon="10.5440267"><ele>87.5</ele><time>2026-04-04T08:31:05.503Z</time></trkpt><trkpt lat="43.5289017" lon="10.5441367"><ele>88.0</ele><time>2026-04-04T08:31:08.503Z</time></trkpt><trkpt lat="43.5288767" lon="10.544245"><ele>88.5</ele><time>2026-04-04T08:31:11.504Z</time></trkpt><trkpt lat="43.5288783" lon="10.5443567"><ele>89.0</ele><time>2026-04-04T08:31:14.504Z</time></trkpt><trkpt lat="43.528905" lon="10.5444683"><ele>89.5</ele><time>2026-04-04T08:31:17.503Z</time></trkpt><trkpt lat="43.52896" lon="10.54455"><ele>90.0</ele><time>2026-04-04T08:31:20.504Z</time></trkpt><trkpt lat="43.5290233" lon="10.5446017"><ele>90.16666666666667</ele><time>2026-04-04T08:31:23.504Z</time></trkpt><trkpt lat="43.5290833" lon="10.5446283"><ele>90.33333333333333</ele><time>2026-04-04T08:31:25.503Z</time></trkpt><trkpt lat="43.5291467" lon="10.544655"><ele>90.5</ele><time>2026-04-04T08:31:27.503Z</time></trkpt><trkpt lat="43.5292317" lon="10.544705"><ele>90.66666666666666</ele><time>2026-04-04T08:31:30.504Z</time></trkpt><trkpt lat="43.529295" lon="10.54473"><ele>90.83333333333333</ele><time>2026-04-04T08:31:32.504Z</time></trkpt><trkpt lat="43.5293867" lon="10.54477"><ele>91.0</ele><time>2026-04-04T08:31:35.503Z</time></trkpt><trkpt lat="43.5294517" lon="10.544795"><ele>91.0</ele><time>2026-04-04T08:31:37.504Z</time></trkpt><trkpt lat="43.529535" lon="10.544825"><ele>91.0</ele><time>2026-04-04T08:31:40.504Z</time></trkpt><trkpt lat="43.5296117" lon="10.5448583"><ele>91.0</ele><time>2026-04-04T08:31:43.504Z</time></trkpt><trkpt lat="43.5296983" lon="10.5449017"><ele>91.0</ele><time>2026-04-04T08:31:46.503Z</time></trkpt><trkpt lat="43.5297833" lon="10.54495"><ele>91.0</ele><time>2026-04-04T08:31:49.503Z</time></trkpt><trkpt lat="43.5298417" lon="10.544985"><ele>91.0</ele><time>2026-04-04T08:31:51.504Z</time></trkpt><trkpt lat="43.529905" lon="10.54501"><ele>91.0</ele><time>2026-04-04T08:31:53.503Z</time></trkpt><trkpt lat="43.5299983" lon="10.5450433"><ele>91.0</ele><time>2026-04-04T08:31:56.504Z</time></trkpt><trkpt lat="43.53006" lon="10.5450667"><ele>91.0</ele><time>2026-04-04T08:31:58.504Z</time></trkpt><trkpt lat="43.5301217" lon="10.54509"><ele>91.0</ele><time>2026-04-04T08:32:00.504Z</time></trkpt><trkpt lat="43.53021" lon="10.5451167"><ele>91.0</ele><time>2026-04-04T08:32:03.504Z</time></trkpt><trkpt lat="43.5302733" lon="10.5451233"><ele>91.0</ele><time>2026-04-04T08:32:05.504Z</time></trkpt><trkpt lat="43.5303633" lon="10.545125"><ele>91.66666666666666</ele><time>2026-04-04T08:32:08.503Z</time></trkpt><trkpt lat="43.530455" lon="10.545125"><ele>92.33333333333333</ele><time>2026-04-04T08:32:11.502Z</time></trkpt><trkpt lat="43.5305417" lon="10.54512"><ele>93.0</ele><time>2026-04-04T08:32:14.503Z</time></trkpt><trkpt lat="43.5306167" lon="10.5451183"><ele>93.66666666666667</ele><time>2026-04-04T08:32:16.503Z</time></trkpt><trkpt lat="43.5306817" lon="10.5451133"><ele>94.33333333333334</ele><time>2026-04-04T08:32:18.502Z</time></trkpt><trkpt lat="43.530745" lon="10.545095"><ele>95.0</ele><time>2026-04-04T08:32:20.503Z</time></trkpt><trkpt lat="43.5308383" lon="10.545075"><ele>95.0</ele><time>2026-04-04T08:32:23.502Z</time></trkpt><trkpt lat="43.5309283" lon="10.5450333"><ele>95.0</ele><time>2026-04-04T08:32:26.503Z</time></trkpt><trkpt lat="43.5309883" lon="10.5450017"><ele>95.0</ele><time>2026-04-04T08:32:28.502Z</time></trkpt><trkpt lat="43.531045" lon="10.5449617"><ele>95.0</ele><time>2026-04-04T08:32:30.503Z</time></trkpt><trkpt lat="43.5311" lon="10.5449117"><ele>95.0</ele><time>2026-04-04T08:32:32.503Z</time></trkpt><trkpt lat="43.53117" lon="10.5448333"><ele>95.0</ele><time>2026-04-04T08:32:35.503Z</time></trkpt><trkpt lat="43.5312267" lon="10.5447417"><ele>96.66666666666667</ele><time>2026-04-04T08:32:38.503Z</time></trkpt><trkpt lat="43.5312783" lon="10.54464"><ele>98.33333333333334</ele><time>2026-04-04T08:32:41.503Z</time></trkpt><trkpt lat="43.5313233" lon="10.5445383"><ele>100.0</ele><time>2026-04-04T08:32:44.502Z</time></trkpt><trkpt lat="43.5313667" lon="10.54443"><ele>101.66666666666667</ele><time>2026-04-04T08:32:47.503Z</time></trkpt><trkpt lat="43.531405" lon="10.54433"><ele>103.33333333333333</ele><time>2026-04-04T08:32:50.502Z</time></trkpt><trkpt lat="43.53144" lon="10.5442317"><ele>105.0</ele><time>2026-04-04T08:32:53.502Z</time></trkpt><trkpt lat="43.5314683" lon="10.5441417"><ele>105.0</ele><time>2026-04-04T08:32:56.503Z</time></trkpt><trkpt lat="43.5314983" lon="10.5440317"><ele>105.0</ele><time>2026-04-04T08:32:59.502Z</time></trkpt><trkpt lat="43.5315267" lon="10.5439533"><ele>105.0</ele><time>2026-04-04T08:33:01.503Z</time></trkpt><trkpt lat="43.5315683" lon="10.54385"><ele>105.0</ele><time>2026-04-04T08:33:04.502Z</time></trkpt><trkpt lat="43.53161" lon="10.5437517"><ele>105.0</ele><time>2026-04-04T08:33:07.502Z</time></trkpt><trkpt lat="43.5316517" lon="10.5436617"><ele>105.0</ele><time>2026-04-04T08:33:10.503Z</time></trkpt><trkpt lat="43.5317067" lon="10.5435667"><ele>105.4</ele><time>2026-04-04T08:33:13.502Z</time></trkpt><trkpt lat="43.5317717" lon="10.5434717"><ele>105.8</ele><time>2026-04-04T08:33:16.502Z</time></trkpt><trkpt lat="43.5318433" lon="10.5433833"><ele>106.19999999999999</ele><time>2026-04-04T08:33:19.503Z</time></trkpt><trkpt lat="43.53192" lon="10.543315"><ele>106.6</ele><time>2026-04-04T08:33:22.502Z</time></trkpt><trkpt lat="43.5319983" lon="10.54325"><ele>107.0</ele><time>2026-04-04T08:33:25.503Z</time></trkpt><trkpt lat="43.5320783" lon="10.5431983"><ele>107.00000000000001</ele><time>2026-04-04T08:33:28.502Z</time></trkpt><trkpt lat="43.5321383" lon="10.5431667"><ele>107.0</ele><time>2026-04-04T08:33:30.502Z</time></trkpt><trkpt lat="43.5322267" lon="10.54312"><ele>107.0</ele><time>2026-04-04T08:33:33.503Z</time></trkpt><trkpt lat="43.5322867" lon="10.5430867"><ele>107.0</ele><time>2026-04-04T08:33:35.503Z</time></trkpt><trkpt lat="43.532355" lon="10.5430483"><ele>107.0</ele><time>2026-04-04T08:33:37.502Z</time></trkpt><trkpt lat="43.5324167" lon="10.543015"><ele>107.00000000000001</ele><time>2026-04-04T08:33:39.502Z</time></trkpt><trkpt lat="43.53248" lon="10.5429783"><ele>107.0</ele><time>2026-04-04T08:33:41.503Z</time></trkpt><trkpt lat="43.5325467" lon="10.5429383"><ele>107.00000000000001</ele><time>2026-04-04T08:33:43.502Z</time></trkpt><trkpt lat="43.5326083" lon="10.5429"><ele>107.0</ele><time>2026-04-04T08:33:45.502Z</time></trkpt><trkpt lat="43.532665" lon="10.5428617"><ele>107.0</ele><time>2026-04-04T08:33:47.502Z</time></trkpt><trkpt lat="43.532745" lon="10.5428"><ele>107.0</ele><time>2026-04-04T08:33:50.502Z</time></trkpt><trkpt lat="43.53282" lon="10.5427567"><ele>107.0</ele><time>2026-04-04T08:33:53.503Z</time></trkpt><trkpt lat="43.5328817" lon="10.542725"><ele>107.00000000000001</ele><time>2026-04-04T08:33:55.503Z</time></trkpt><trkpt lat="43.5329483" lon="10.5426867"><ele>107.0</ele><time>2026-04-04T08:33:57.503Z</time></trkpt><trkpt lat="43.5330117" lon="10.5426483"><ele>106.57142857142858</ele><time>2026-04-04T08:33:59.502Z</time></trkpt><trkpt lat="43.53308" lon="10.5426067"><ele>106.14285714285714</ele><time>2026-04-04T08:34:01.502Z</time></trkpt><trkpt lat="43.533145" lon="10.542565"><ele>105.71428571428572</ele><time>2026-04-04T08:34:03.502Z</time></trkpt><trkpt lat="43.533205" lon="10.5425317"><ele>105.28571428571429</ele><time>2026-04-04T08:34:05.502Z</time></trkpt><trkpt lat="43.5332817" lon="10.5424967"><ele>104.85714285714286</ele><time>2026-04-04T08:34:07.502Z</time></trkpt><trkpt lat="43.53335" lon="10.5424633"><ele>104.42857142857143</ele><time>2026-04-04T08:34:09.503Z</time></trkpt><trkpt lat="43.5334217" lon="10.5424467"><ele>104.0</ele><time>2026-04-04T08:34:11.503Z</time></trkpt><trkpt lat="43.5334967" lon="10.54243"><ele>103.99999999999999</ele><time>2026-04-04T08:34:13.502Z</time></trkpt><trkpt lat="43.5335683" lon="10.5424317"><ele>104.0</ele><time>2026-04-04T08:34:15.502Z</time></trkpt><trkpt lat="43.5336417" lon="10.5424417"><ele>104.0</ele><time>2026-04-04T08:34:17.502Z</time></trkpt><trkpt lat="43.5337167" lon="10.5424267"><ele>104.0</ele><time>2026-04-04T08:34:19.503Z</time></trkpt><trkpt lat="43.5337983" lon="10.542415"><ele>103.99999999999999</ele><time>2026-04-04T08:34:21.502Z</time></trkpt><trkpt lat="43.5338833" lon="10.5424033"><ele>104.0</ele><time>2026-04-04T08:34:23.503Z</time></trkpt><trkpt lat="43.5339683" lon="10.542395"><ele>103.66666666666666</ele><time>2026-04-04T08:34:25.503Z</time></trkpt><trkpt lat="43.5340517" lon="10.5423983"><ele>103.33333333333333</ele><time>2026-04-04T08:34:27.503Z</time></trkpt><trkpt lat="43.53417" lon="10.542425"><ele>103.0</ele><time>2026-04-04T08:34:30.503Z</time></trkpt><trkpt lat="43.534245" lon="10.5424467"><ele>102.66666666666666</ele><time>2026-04-04T08:34:32.503Z</time></trkpt><trkpt lat="43.534315" lon="10.542475"><ele>102.33333333333333</ele><time>2026-04-04T08:34:34.503Z</time></trkpt><trkpt lat="43.5343883" lon="10.5425"><ele>102.0</ele><time>2026-04-04T08:34:36.503Z</time></trkpt><trkpt lat="43.5344633" lon="10.5425383"><ele>102.0</ele><time>2026-04-04T08:34:38.502Z</time></trkpt><trkpt lat="43.5345317" lon="10.5425733"><ele>102.0</ele><time>2026-04-04T08:34:40.502Z</time></trkpt><trkpt lat="43.5345967" lon="10.542605"><ele>102.0</ele><time>2026-04-04T08:34:42.502Z</time></trkpt><trkpt lat="43.534675" lon="10.5426583"><ele>102.0</ele><time>2026-04-04T08:34:45.503Z</time></trkpt><trkpt lat="43.53475" lon="10.5427117"><ele>102.0</ele><time>2026-04-04T08:34:48.502Z</time></trkpt><trkpt lat="43.534825" lon="10.5427667"><ele>102.0</ele><time>2026-04-04T08:34:51.502Z</time></trkpt><trkpt lat="43.5348883" lon="10.5428317"><ele>103.14285714285714</ele><time>2026-04-04T08:34:54.502Z</time></trkpt><trkpt lat="43.5349483" lon="10.542895"><ele>104.28571428571429</ele><time>2026-04-04T08:34:57.502Z</time></trkpt><trkpt lat="43.5349983" lon="10.5429667"><ele>105.42857142857142</ele><time>2026-04-04T08:35:00.503Z</time></trkpt><trkpt lat="43.53504" lon="10.5430417"><ele>106.57142857142857</ele><time>2026-04-04T08:35:03.503Z</time></trkpt><trkpt lat="43.5350767" lon="10.543115"><ele>107.71428571428571</ele><time>2026-04-04T08:35:06.502Z</time></trkpt><trkpt lat="43.5351117" lon="10.5431933"><ele>108.85714285714285</ele><time>2026-04-04T08:35:09.503Z</time></trkpt><trkpt lat="43.5351417" lon="10.5432717"><ele>110.0</ele><time>2026-04-04T08:35:12.503Z</time></trkpt><trkpt lat="43.5351817" lon="10.5433583"><ele>109.99999999999999</ele><time>2026-04-04T08:35:16.503Z</time></trkpt><trkpt lat="43.5352133" lon="10.5434433"><ele>110.0</ele><time>2026-04-04T08:35:20.503Z</time></trkpt><trkpt lat="43.53525" lon="10.5435183"><ele>110.0</ele><time>2026-04-04T08:35:24.503Z</time></trkpt><trkpt lat="43.5353" lon="10.54359"><ele>110.0</ele><time>2026-04-04T08:35:28.502Z</time></trkpt><trkpt lat="43.5353533" lon="10.543665"><ele>110.0</ele><time>2026-04-04T08:35:32.502Z</time></trkpt><trkpt lat="43.5354133" lon="10.543715"><ele>109.99999999999999</ele><time>2026-04-04T08:35:37.503Z</time></trkpt><trkpt lat="43.53548" lon="10.5437533"><ele>110.0</ele><time>2026-04-04T08:35:42.503Z</time></trkpt><trkpt lat="43.535545" lon="10.5438083"><ele>111.28571428571428</ele><time>2026-04-04T08:35:47.503Z</time></trkpt><trkpt lat="43.5356067" lon="10.5438367"><ele>112.57142857142857</ele><time>2026-04-04T08:35:51.503Z</time></trkpt><trkpt lat="43.5356767" lon="10.5438433"><ele>113.85714285714286</ele><time>2026-04-04T08:35:55.503Z</time></trkpt><trkpt lat="43.5357533" lon="10.543845"><ele>115.14285714285714</ele><time>2026-04-04T08:35:59.502Z</time></trkpt><trkpt lat="43.535815" lon="10.5438667"><ele>116.42857142857143</ele><time>2026-04-04T08:36:03.503Z</time></trkpt><trkpt lat="43.5358817" lon="10.5438733"><ele>117.71428571428571</ele><time>2026-04-04T08:36:07.502Z</time></trkpt><trkpt lat="43.5359483" lon="10.543895"><ele>119.0</ele><time>2026-04-04T08:36:11.502Z</time></trkpt><trkpt lat="43.53601" lon="10.5439317"><ele>119.0</ele><time>2026-04-04T08:36:15.503Z</time></trkpt><trkpt lat="43.536075" lon="10.5439767"><ele>119.0</ele><time>2026-04-04T08:36:19.502Z</time></trkpt><trkpt lat="43.5361333" lon="10.544025"><ele>119.0</ele><time>2026-04-04T08:36:24.503Z</time></trkpt><trkpt lat="43.5362033" lon="10.5440333"><ele>119.0</ele><time>2026-04-04T08:36:29.503Z</time></trkpt><trkpt lat="43.5362633" lon="10.544065"><ele>119.0</ele><time>2026-04-04T08:36:34.503Z</time></trkpt><trkpt lat="43.5363183" lon="10.5441167"><ele>119.0</ele><time>2026-04-04T08:36:39.502Z</time></trkpt><trkpt lat="43.536375" lon="10.54418"><ele>119.0</ele><time>2026-04-04T08:36:43.503Z</time></trkpt><trkpt lat="43.5364283" lon="10.5442317"><ele>119.85714285714286</ele><time>2026-04-04T08:36:47.502Z</time></trkpt><trkpt lat="43.53649" lon="10.5442733"><ele>120.71428571428572</ele><time>2026-04-04T08:36:51.503Z</time></trkpt><trkpt lat="43.5365567" lon="10.54431"><ele>121.57142857142857</ele><time>2026-04-04T08:36:55.503Z</time></trkpt><trkpt lat="43.5366283" lon="10.54433"><ele>122.42857142857143</ele><time>2026-04-04T08:36:59.503Z</time></trkpt><trkpt lat="43.5366917" lon="10.5443567"><ele>123.28571428571429</ele><time>2026-04-04T08:37:03.502Z</time></trkpt><trkpt lat="43.536765" lon="10.5443933"><ele>124.14285714285714</ele><time>2026-04-04T08:37:08.502Z</time></trkpt><trkpt lat="43.5368383" lon="10.54442"><ele>125.0</ele><time>2026-04-04T08:37:13.503Z</time></trkpt><trkpt lat="43.5369" lon="10.5444467"><ele>125.0</ele><time>2026-04-04T08:37:18.502Z</time></trkpt><trkpt lat="43.5369733" lon="10.5444817"><ele>125.0</ele><time>2026-04-04T08:37:24.502Z</time></trkpt><trkpt lat="43.5370417" lon="10.5445283"><ele>125.0</ele><time>2026-04-04T08:37:29.503Z</time></trkpt><trkpt lat="43.5371067" lon="10.54455"><ele>125.0</ele><time>2026-04-04T08:37:34.503Z</time></trkpt><trkpt lat="43.537165" lon="10.544585"><ele>125.0</ele><time>2026-04-04T08:37:39.502Z</time></trkpt><trkpt lat="43.5372267" lon="10.544615"><ele>125.0</ele><time>2026-04-04T08:37:44.502Z</time></trkpt><trkpt lat="43.5373067" lon="10.544615"><ele>125.0</ele><time>2026-04-04T08:39:10.502Z</time></trkpt><trkpt lat="43.53739" lon="10.5445717"><ele>125.0</ele><time>2026-04-04T08:39:13.501Z</time></trkpt><trkpt lat="43.5374683" lon="10.5445117"><ele>125.0</ele><time>2026-04-04T08:39:15.501Z</time></trkpt><trkpt lat="43.53755" lon="10.5443933"><ele>125.0</ele><time>2026-04-04T08:39:17.501Z</time></trkpt><trkpt lat="43.5376083" lon="10.5443433"><ele>125.0</ele><time>2026-04-04T08:39:18.502Z</time></trkpt><trkpt lat="43.5377167" lon="10.5442667"><ele>125.0</ele><time>2026-04-04T08:39:20.501Z</time></trkpt><trkpt lat="43.5378433" lon="10.54424"><ele>123.99999999999999</ele><time>2026-04-04T08:39:22.501Z</time></trkpt><trkpt lat="43.5379183" lon="10.5442433"><ele>123.0</ele><time>2026-04-04T08:39:23.502Z</time></trkpt><trkpt lat="43.5379883" lon="10.5442533"><ele>122.0</ele><time>2026-04-04T08:39:24.502Z</time></trkpt><trkpt lat="43.5380567" lon="10.5442667"><ele>121.0</ele><time>2026-04-04T08:39:25.502Z</time></trkpt><trkpt lat="43.5381233" lon="10.5442767"><ele>119.99999999999999</ele><time>2026-04-04T08:39:26.502Z</time></trkpt><trkpt lat="43.5382433" lon="10.5442983"><ele>119.0</ele><time>2026-04-04T08:39:28.502Z</time></trkpt><trkpt lat="43.5383083" lon="10.54431"><ele>118.99999999999999</ele><time>2026-04-04T08:39:29.501Z</time></trkpt><trkpt lat="43.5383717" lon="10.5443267"><ele>119.0</ele><time>2026-04-04T08:39:30.502Z</time></trkpt><trkpt lat="43.5384533" lon="10.5443433"><ele>119.0</ele><time>2026-04-04T08:39:31.501Z</time></trkpt><trkpt lat="43.5385333" lon="10.5443683"><ele>119.0</ele><time>2026-04-04T08:39:32.501Z</time></trkpt><trkpt lat="43.538605" lon="10.5444"><ele>118.99999999999999</ele><time>2026-04-04T08:39:33.501Z</time></trkpt><trkpt lat="43.5386783" lon="10.54443"><ele>119.0</ele><time>2026-04-04T08:39:34.501Z</time></trkpt><trkpt lat="43.5387533" lon="10.5444467"><ele>117.71428571428571</ele><time>2026-04-04T08:39:35.501Z</time></trkpt><trkpt lat="43.5388233" lon="10.544455"><ele>116.42857142857143</ele><time>2026-04-04T08:39:36.502Z</time></trkpt><trkpt lat="43.53891" lon="10.54446"><ele>115.14285714285714</ele><time>2026-04-04T08:39:37.502Z</time></trkpt><trkpt lat="43.538985" lon="10.544455"><ele>113.85714285714286</ele><time>2026-04-04T08:39:38.501Z</time></trkpt><trkpt lat="43.5390583" lon="10.5444483"><ele>112.57142857142857</ele><time>2026-04-04T08:39:39.501Z</time></trkpt><trkpt lat="43.53913" lon="10.544445"><ele>111.28571428571428</ele><time>2026-04-04T08:39:40.502Z</time></trkpt><trkpt lat="43.5392017" lon="10.54444"><ele>110.0</ele><time>2026-04-04T08:39:41.502Z</time></trkpt><trkpt lat="43.5392733" lon="10.5444367"><ele>109.99999999999999</ele><time>2026-04-04T08:39:42.502Z</time></trkpt><trkpt lat="43.5393483" lon="10.5444333"><ele>110.0</ele><time>2026-04-04T08:39:43.502Z</time></trkpt><trkpt lat="43.539425" lon="10.5444333"><ele>110.0</ele><time>2026-04-04T08:39:44.501Z</time></trkpt><trkpt lat="43.5394983" lon="10.5444433"><ele>110.0</ele><time>2026-04-04T08:39:45.501Z</time></trkpt><trkpt lat="43.5395683" lon="10.544445"><ele>110.0</ele><time>2026-04-04T08:39:46.502Z</time></trkpt><trkpt lat="43.5396383" lon="10.54445"><ele>109.99999999999999</ele><time>2026-04-04T08:39:47.501Z</time></trkpt><trkpt lat="43.5397083" lon="10.5444617"><ele>110.0</ele><time>2026-04-04T08:39:48.501Z</time></trkpt><trkpt lat="43.5398333" lon="10.5444783"><ele>108.99999999999999</ele><time>2026-04-04T08:39:50.501Z</time></trkpt><trkpt lat="43.539955" lon="10.5444783"><ele>108.0</ele><time>2026-04-04T08:39:52.502Z</time></trkpt><trkpt lat="43.5400267" lon="10.5444817"><ele>107.0</ele><time>2026-04-04T08:39:53.501Z</time></trkpt><trkpt lat="43.5401233" lon="10.54448"><ele>106.0</ele><time>2026-04-04T08:39:55.501Z</time></trkpt><trkpt lat="43.5401917" lon="10.54447"><ele>104.99999999999999</ele><time>2026-04-04T08:39:57.502Z</time></trkpt><trkpt lat="43.5402217" lon="10.5443817"><ele>104.0</ele><time>2026-04-04T08:39:59.502Z</time></trkpt><trkpt lat="43.5401833" lon="10.5443"><ele>103.99999999999999</ele><time>2026-04-04T08:40:03.502Z</time></trkpt><trkpt lat="43.5401267" lon="10.5442367"><ele>104.0</ele><time>2026-04-04T08:40:07.502Z</time></trkpt><trkpt lat="43.5400517" lon="10.5441867"><ele>104.0</ele><time>2026-04-04T08:40:10.501Z</time></trkpt><trkpt lat="43.5399883" lon="10.5441317"><ele>104.0</ele><time>2026-04-04T08:40:12.502Z</time></trkpt><trkpt lat="43.53989" lon="10.54406"><ele>103.99999999999999</ele><time>2026-04-04T08:40:14.502Z</time></trkpt><trkpt lat="43.5398383" lon="10.5440067"><ele>104.0</ele><time>2026-04-04T08:40:15.501Z</time></trkpt><trkpt lat="43.539775" lon="10.543945"><ele>103.99999999999999</ele><time>2026-04-04T08:40:16.501Z</time></trkpt><trkpt lat="43.53972" lon="10.54388"><ele>104.0</ele><time>2026-04-04T08:40:17.502Z</time></trkpt><trkpt lat="43.53967" lon="10.5438233"><ele>104.0</ele><time>2026-04-04T08:40:18.501Z</time></trkpt><trkpt lat="43.5396133" lon="10.5437433"><ele>104.0</ele><time>2026-04-04T08:40:19.502Z</time></trkpt><trkpt lat="43.5395667" lon="10.5436533"><ele>103.99999999999999</ele><time>2026-04-04T08:40:20.502Z</time></trkpt><trkpt lat="43.5395117" lon="10.5435583"><ele>104.0</ele><time>2026-04-04T08:40:21.501Z</time></trkpt><trkpt lat="43.5394667" lon="10.543475"><ele>102.49999999999999</ele><time>2026-04-04T08:40:22.501Z</time></trkpt><trkpt lat="43.53941" lon="10.5433833"><ele>101.0</ele><time>2026-04-04T08:40:23.501Z</time></trkpt><trkpt lat="43.53935" lon="10.5432883"><ele>99.5</ele><time>2026-04-04T08:40:24.501Z</time></trkpt><trkpt lat="43.5392967" lon="10.5431933"><ele>98.0</ele><time>2026-04-04T08:40:25.502Z</time></trkpt><trkpt lat="43.5392433" lon="10.5431017"><ele>96.5</ele><time>2026-04-04T08:40:26.502Z</time></trkpt><trkpt lat="43.5391917" lon="10.5430183"><ele>95.0</ele><time>2026-04-04T08:40:27.502Z</time></trkpt><trkpt lat="43.5391333" lon="10.542935"><ele>94.33333333333334</ele><time>2026-04-04T08:40:28.502Z</time></trkpt><trkpt lat="43.5390783" lon="10.542855"><ele>93.66666666666667</ele><time>2026-04-04T08:40:29.501Z</time></trkpt><trkpt lat="43.53902" lon="10.5427817"><ele>93.0</ele><time>2026-04-04T08:40:30.502Z</time></trkpt><trkpt lat="43.53897" lon="10.5427133"><ele>92.33333333333333</ele><time>2026-04-04T08:40:31.502Z</time></trkpt><trkpt lat="43.53893" lon="10.5426433"><ele>91.66666666666666</ele><time>2026-04-04T08:40:32.502Z</time></trkpt><trkpt lat="43.5388833" lon="10.5425717"><ele>91.0</ele><time>2026-04-04T08:40:33.501Z</time></trkpt><trkpt lat="43.5388317" lon="10.54244"><ele>91.0</ele><time>2026-04-04T08:40:35.502Z</time></trkpt><trkpt lat="43.53882" lon="10.5423117"><ele>91.0</ele><time>2026-04-04T08:40:37.501Z</time></trkpt><trkpt lat="43.53885" lon="10.54219"><ele>91.0</ele><time>2026-04-04T08:40:39.502Z</time></trkpt><trkpt lat="43.5389033" lon="10.5421017"><ele>91.0</ele><time>2026-04-04T08:40:42.502Z</time></trkpt><trkpt lat="43.538965" lon="10.5420217"><ele>91.0</ele><time>2026-04-04T08:40:45.502Z</time></trkpt><trkpt lat="43.5390233" lon="10.541965"><ele>91.0</ele><time>2026-04-04T08:40:48.501Z</time></trkpt><trkpt lat="43.5390917" lon="10.54191"><ele>92.28571428571429</ele><time>2026-04-04T08:40:52.502Z</time></trkpt><trkpt lat="43.5391383" lon="10.5418483"><ele>93.57142857142857</ele><time>2026-04-04T08:40:55.502Z</time></trkpt><trkpt lat="43.5391917" lon="10.5417767"><ele>94.85714285714286</ele><time>2026-04-04T08:40:58.502Z</time></trkpt><trkpt lat="43.5392483" lon="10.5416983"><ele>96.14285714285714</ele><time>2026-04-04T08:41:02.501Z</time></trkpt><trkpt lat="43.5393017" lon="10.54163"><ele>97.42857142857143</ele><time>2026-04-04T08:41:05.502Z</time></trkpt><trkpt lat="43.5393717" lon="10.5415967"><ele>98.71428571428572</ele><time>2026-04-04T08:41:08.502Z</time></trkpt><trkpt lat="43.5394433" lon="10.5415767"><ele>100.0</ele><time>2026-04-04T08:41:12.501Z</time></trkpt><trkpt lat="43.5395067" lon="10.541565"><ele>99.71428571428572</ele><time>2026-04-04T08:41:15.501Z</time></trkpt><trkpt lat="43.53957" lon="10.5415417"><ele>99.42857142857143</ele><time>2026-04-04T08:41:18.501Z</time></trkpt><trkpt lat="43.5396433" lon="10.54152"><ele>99.14285714285714</ele><time>2026-04-04T08:41:22.502Z</time></trkpt><trkpt lat="43.5397067" lon="10.5414933"><ele>98.85714285714286</ele><time>2026-04-04T08:41:26.502Z</time></trkpt><trkpt lat="43.53978" lon="10.5414417"><ele>98.57142857142857</ele><time>2026-04-04T08:41:30.502Z</time></trkpt><trkpt lat="43.5398383" lon="10.5413817"><ele>98.28571428571429</ele><time>2026-04-04T08:41:33.502Z</time></trkpt><trkpt lat="43.5399" lon="10.5413267"><ele>98.0</ele><time>2026-04-04T08:41:36.501Z</time></trkpt><trkpt lat="43.5399617" lon="10.54127"><ele>98.83333333333333</ele><time>2026-04-04T08:41:39.502Z</time></trkpt><trkpt lat="43.5400283" lon="10.5412067"><ele>99.66666666666666</ele><time>2026-04-04T08:41:42.502Z</time></trkpt><trkpt lat="43.5400917" lon="10.5411417"><ele>100.5</ele><time>2026-04-04T08:41:45.502Z</time></trkpt><trkpt lat="43.5401583" lon="10.5410817"><ele>101.33333333333334</ele><time>2026-04-04T08:41:48.501Z</time></trkpt><trkpt lat="43.5402267" lon="10.541025"><ele>102.16666666666667</ele><time>2026-04-04T08:41:51.501Z</time></trkpt><trkpt lat="43.5402817" lon="10.540965"><ele>103.0</ele><time>2026-04-04T08:41:54.501Z</time></trkpt><trkpt lat="43.5403383" lon="10.5409183"><ele>104.16666666666667</ele><time>2026-04-04T08:41:57.501Z</time></trkpt><trkpt lat="43.5404083" lon="10.5409117"><ele>105.33333333333334</ele><time>2026-04-04T08:42:01.502Z</time></trkpt><trkpt lat="43.5404917" lon="10.5408883"><ele>106.5</ele><time>2026-04-04T08:42:04.501Z</time></trkpt><trkpt lat="43.5405667" lon="10.5408367"><ele>107.66666666666666</ele><time>2026-04-04T08:42:07.502Z</time></trkpt><trkpt lat="43.5406383" lon="10.5407717"><ele>108.83333333333333</ele><time>2026-04-04T08:42:10.502Z</time></trkpt><trkpt lat="43.540715" lon="10.5407267"><ele>110.0</ele><time>2026-04-04T08:42:13.501Z</time></trkpt><trkpt lat="43.540785" lon="10.54068"><ele>109.99999999999999</ele><time>2026-04-04T08:42:16.501Z</time></trkpt><trkpt lat="43.5408617" lon="10.5406467"><ele>110.0</ele><time>2026-04-04T08:42:19.502Z</time></trkpt><trkpt lat="43.5409383" lon="10.5406283"><ele>110.0</ele><time>2026-04-04T08:42:23.501Z</time></trkpt><trkpt lat="43.5410017" lon="10.5405983"><ele>110.0</ele><time>2026-04-04T08:42:28.502Z</time></trkpt><trkpt lat="43.5410617" lon="10.5405467"><ele>110.0</ele><time>2026-04-04T08:42:33.502Z</time></trkpt><trkpt lat="43.541135" lon="10.5404983"><ele>109.99999999999999</ele><time>2026-04-04T08:42:38.501Z</time></trkpt><trkpt lat="43.5411967" lon="10.5404517"><ele>110.0</ele><time>2026-04-04T08:42:41.501Z</time></trkpt><trkpt lat="43.541255" lon="10.5404133"><ele>111.0</ele><time>2026-04-04T08:42:44.502Z</time></trkpt><trkpt lat="43.5413133" lon="10.5403717"><ele>112.0</ele><time>2026-04-04T08:42:47.502Z</time></trkpt><trkpt lat="43.5413667" lon="10.5402883"><ele>113.0</ele><time>2026-04-04T08:42:51.502Z</time></trkpt><trkpt lat="43.5414167" lon="10.540225"><ele>114.0</ele><time>2026-04-04T08:42:54.502Z</time></trkpt><trkpt lat="43.54147" lon="10.54017"><ele>115.00000000000001</ele><time>2026-04-04T08:42:57.502Z</time></trkpt><trkpt lat="43.5415283" lon="10.5401017"><ele>116.0</ele><time>2026-04-04T08:43:01.502Z</time></trkpt><trkpt lat="43.5415933" lon="10.5400283"><ele>117.0</ele><time>2026-04-04T08:43:05.502Z</time></trkpt><trkpt lat="43.5416317" lon="10.5399533"><ele>117.0</ele><time>2026-04-04T08:43:08.501Z</time></trkpt><trkpt lat="43.5416817" lon="10.5398867"><ele>117.0</ele><time>2026-04-04T08:43:12.501Z</time></trkpt><trkpt lat="43.5417267" lon="10.5398017"><ele>117.0</ele><time>2026-04-04T08:43:16.501Z</time></trkpt><trkpt lat="43.5417767" lon="10.5397133"><ele>117.0</ele><time>2026-04-04T08:43:20.501Z</time></trkpt><trkpt lat="43.5418233" lon="10.53962"><ele>117.0</ele><time>2026-04-04T08:43:24.5Z</time></trkpt><trkpt lat="43.5418717" lon="10.53955"><ele>117.0</ele><time>2026-04-04T08:43:26.501Z</time></trkpt><trkpt lat="43.5419267" lon="10.5394417"><ele>116.0</ele><time>2026-04-04T08:43:28.501Z</time></trkpt><trkpt lat="43.541995" lon="10.53932"><ele>114.99999999999999</ele><time>2026-04-04T08:43:30.501Z</time></trkpt><trkpt lat="43.5420917" lon="10.5392083"><ele>113.99999999999999</ele><time>2026-04-04T08:43:32.501Z</time></trkpt><trkpt lat="43.54215" lon="10.539165"><ele>113.0</ele><time>2026-04-04T08:43:33.5Z</time></trkpt><trkpt lat="43.542225" lon="10.5391233"><ele>112.0</ele><time>2026-04-04T08:43:34.5Z</time></trkpt><trkpt lat="43.5423017" lon="10.539085"><ele>111.33333333333334</ele><time>2026-04-04T08:43:35.5Z</time></trkpt><trkpt lat="43.5423883" lon="10.5390367"><ele>110.66666666666667</ele><time>2026-04-04T08:43:36.501Z</time></trkpt><trkpt lat="43.542475" lon="10.5389917"><ele>110.0</ele><time>2026-04-04T08:43:37.501Z</time></trkpt><trkpt lat="43.5425533" lon="10.5389533"><ele>109.33333333333334</ele><time>2026-04-04T08:43:38.501Z</time></trkpt><trkpt lat="43.54263" lon="10.538925"><ele>108.66666666666667</ele><time>2026-04-04T08:43:39.5Z</time></trkpt><trkpt lat="43.5427" lon="10.5388917"><ele>108.0</ele><time>2026-04-04T08:43:40.501Z</time></trkpt><trkpt lat="43.5427667" lon="10.53885"><ele>108.0</ele><time>2026-04-04T08:43:41.501Z</time></trkpt><trkpt lat="43.5428167" lon="10.5387733"><ele>108.0</ele><time>2026-04-04T08:43:42.501Z</time></trkpt><trkpt lat="43.5428617" lon="10.5386833"><ele>108.0</ele><time>2026-04-04T08:43:43.501Z</time></trkpt><trkpt lat="43.54292" lon="10.53858"><ele>108.0</ele><time>2026-04-04T08:43:44.501Z</time></trkpt><trkpt lat="43.5429733" lon="10.53847"><ele>108.0</ele><time>2026-04-04T08:43:45.5Z</time></trkpt><trkpt lat="43.54303" lon="10.5383617"><ele>108.0</ele><time>2026-04-04T08:43:46.501Z</time></trkpt><trkpt lat="43.5430917" lon="10.5382633"><ele>107.16666666666667</ele><time>2026-04-04T08:43:47.501Z</time></trkpt><trkpt lat="43.54315" lon="10.5381667"><ele>106.33333333333334</ele><time>2026-04-04T08:43:48.5Z</time></trkpt><trkpt lat="43.5432" lon="10.5380783"><ele>105.5</ele><time>2026-04-04T08:43:49.5Z</time></trkpt><trkpt lat="43.5432517" lon="10.5379917"><ele>104.66666666666667</ele><time>2026-04-04T08:43:50.501Z</time></trkpt><trkpt lat="43.5433017" lon="10.537905"><ele>103.83333333333334</ele><time>2026-04-04T08:43:51.501Z</time></trkpt><trkpt lat="43.5433533" lon="10.5378267"><ele>103.0</ele><time>2026-04-04T08:43:52.5Z</time></trkpt><trkpt lat="43.5434067" lon="10.5377583"><ele>103.00000000000001</ele><time>2026-04-04T08:43:53.501Z</time></trkpt><trkpt lat="43.543465" lon="10.537705"><ele>103.0</ele><time>2026-04-04T08:43:54.501Z</time></trkpt><trkpt lat="43.5435217" lon="10.537665"><ele>103.0</ele><time>2026-04-04T08:43:55.501Z</time></trkpt><trkpt lat="43.5436267" lon="10.5376"><ele>103.0</ele><time>2026-04-04T08:43:57.5Z</time></trkpt><trkpt lat="43.5437167" lon="10.53759"><ele>103.00000000000001</ele><time>2026-04-04T08:43:59.501Z</time></trkpt><trkpt lat="43.5438067" lon="10.5375883"><ele>103.0</ele><time>2026-04-04T08:44:01.501Z</time></trkpt><trkpt lat="43.54388" lon="10.53758"><ele>102.71428571428571</ele><time>2026-04-04T08:44:03.501Z</time></trkpt><trkpt lat="43.5439467" lon="10.5375717"><ele>102.42857142857143</ele><time>2026-04-04T08:44:05.5Z</time></trkpt><trkpt lat="43.5440283" lon="10.5375867"><ele>102.14285714285714</ele><time>2026-04-04T08:44:08.5Z</time></trkpt><trkpt lat="43.5441083" lon="10.537585"><ele>101.85714285714286</ele><time>2026-04-04T08:44:11.5Z</time></trkpt><trkpt lat="43.5441783" lon="10.5375817"><ele>101.57142857142857</ele><time>2026-04-04T08:44:14.501Z</time></trkpt><trkpt lat="43.5442433" lon="10.5375533"><ele>101.28571428571428</ele><time>2026-04-04T08:44:17.501Z</time></trkpt><trkpt lat="43.5443083" lon="10.5375183"><ele>101.0</ele><time>2026-04-04T08:44:20.501Z</time></trkpt><trkpt lat="43.544365" lon="10.53747"><ele>100.99999999999999</ele><time>2026-04-04T08:44:23.501Z</time></trkpt><trkpt lat="43.5444283" lon="10.5374117"><ele>101.0</ele><time>2026-04-04T08:44:26.5Z</time></trkpt><trkpt lat="43.54448" lon="10.5373267"><ele>101.0</ele><time>2026-04-04T08:44:30.5Z</time></trkpt><trkpt lat="43.5445183" lon="10.5372483"><ele>101.0</ele><time>2026-04-04T08:44:34.5Z</time></trkpt><trkpt lat="43.54455" lon="10.537155"><ele>100.99999999999999</ele><time>2026-04-04T08:44:38.501Z</time></trkpt><trkpt lat="43.5445917" lon="10.5370533"><ele>101.0</ele><time>2026-04-04T08:44:42.501Z</time></trkpt><trkpt lat="43.5446283" lon="10.5369667"><ele>101.99999999999999</ele><time>2026-04-04T08:44:45.501Z</time></trkpt><trkpt lat="43.5446733" lon="10.5368683"><ele>103.0</ele><time>2026-04-04T08:44:48.5Z</time></trkpt><trkpt lat="43.5447267" lon="10.536785"><ele>104.0</ele><time>2026-04-04T08:44:51.5Z</time></trkpt><trkpt lat="43.54478" lon="10.536695"><ele>105.0</ele><time>2026-04-04T08:44:54.5Z</time></trkpt><trkpt lat="43.54483" lon="10.5365933"><ele>105.99999999999999</ele><time>2026-04-04T08:44:57.5Z</time></trkpt><trkpt lat="43.5448867" lon="10.5364967"><ele>107.0</ele><time>2026-04-04T08:45:00.501Z</time></trkpt><trkpt lat="43.54494" lon="10.5364183"><ele>107.00000000000001</ele><time>2026-04-04T08:45:03.501Z</time></trkpt><trkpt lat="43.5449917" lon="10.5363283"><ele>107.0</ele><time>2026-04-04T08:45:06.501Z</time></trkpt><trkpt lat="43.5450417" lon="10.53624"><ele>107.0</ele><time>2026-04-04T08:45:09.5Z</time></trkpt><trkpt lat="43.5450867" lon="10.5361733"><ele>107.0</ele><time>2026-04-04T08:45:11.5Z</time></trkpt><trkpt lat="43.5451417" lon="10.5361017"><ele>107.0</ele><time>2026-04-04T08:45:13.501Z</time></trkpt><trkpt lat="43.5451883" lon="10.536035"><ele>107.00000000000001</ele><time>2026-04-04T08:45:15.501Z</time></trkpt><trkpt lat="43.5452067" lon="10.5359483"><ele>107.0</ele><time>2026-04-04T08:45:17.501Z</time></trkpt><trkpt lat="43.5452067" lon="10.5358383"><ele>105.6</ele><time>2026-04-04T08:45:19.5Z</time></trkpt><trkpt lat="43.5452067" lon="10.535715"><ele>104.19999999999999</ele><time>2026-04-04T08:45:21.5Z</time></trkpt><trkpt lat="43.5452167" lon="10.5355767"><ele>102.8</ele><time>2026-04-04T08:45:23.5Z</time></trkpt><trkpt lat="43.5452333" lon="10.53543"><ele>101.4</ele><time>2026-04-04T08:45:25.501Z</time></trkpt><trkpt lat="43.5452533" lon="10.535295"><ele>100.0</ele><time>2026-04-04T08:45:27.5Z</time></trkpt><trkpt lat="43.54528" lon="10.535165"><ele>99.2</ele><time>2026-04-04T08:45:29.501Z</time></trkpt><trkpt lat="43.545305" lon="10.5350533"><ele>98.4</ele><time>2026-04-04T08:45:31.5Z</time></trkpt><trkpt lat="43.5453333" lon="10.53494"><ele>97.6</ele><time>2026-04-04T08:45:33.5Z</time></trkpt><trkpt lat="43.5453683" lon="10.5348217"><ele>96.8</ele><time>2026-04-04T08:45:35.501Z</time></trkpt><trkpt lat="43.545405" lon="10.5346917"><ele>96.0</ele><time>2026-04-04T08:45:37.5Z</time></trkpt><trkpt lat="43.5454433" lon="10.5345683"><ele>97.0</ele><time>2026-04-04T08:45:39.5Z</time></trkpt><trkpt lat="43.5454767" lon="10.5344467"><ele>98.0</ele><time>2026-04-04T08:45:41.501Z</time></trkpt><trkpt lat="43.54552" lon="10.5343233"><ele>99.0</ele><time>2026-04-04T08:45:43.5Z</time></trkpt><trkpt lat="43.54557" lon="10.53421"><ele>100.0</ele><time>2026-04-04T08:45:45.501Z</time></trkpt><trkpt lat="43.54564" lon="10.5341217"><ele>101.0</ele><time>2026-04-04T08:45:47.501Z</time></trkpt><trkpt lat="43.5457067" lon="10.534055"><ele>100.99999999999999</ele><time>2026-04-04T08:45:49.501Z</time></trkpt><trkpt lat="43.5457733" lon="10.5339883"><ele>101.0</ele><time>2026-04-04T08:45:51.501Z</time></trkpt><trkpt lat="43.54585" lon="10.5339317"><ele>101.0</ele><time>2026-04-04T08:45:53.501Z</time></trkpt><trkpt lat="43.545925" lon="10.5338767"><ele>101.0</ele><time>2026-04-04T08:45:55.501Z</time></trkpt><trkpt lat="43.545995" lon="10.533805"><ele>100.99999999999999</ele><time>2026-04-04T08:45:57.501Z</time></trkpt><trkpt lat="43.5460467" lon="10.5336983"><ele>101.0</ele><time>2026-04-04T08:45:59.501Z</time></trkpt><trkpt lat="43.5460983" lon="10.5335667"><ele>100.4</ele><time>2026-04-04T08:46:01.501Z</time></trkpt><trkpt lat="43.54617" lon="10.5334367"><ele>99.8</ele><time>2026-04-04T08:46:03.501Z</time></trkpt><trkpt lat="43.546215" lon="10.533325"><ele>99.2</ele><time>2026-04-04T08:46:05.5Z</time></trkpt><trkpt lat="43.5462483" lon="10.5332133"><ele>98.60000000000001</ele><time>2026-04-04T08:46:07.501Z</time></trkpt><trkpt lat="43.5462867" lon="10.5331283"><ele>98.0</ele><time>2026-04-04T08:46:08.501Z</time></trkpt><trkpt lat="43.5463467" lon="10.5330283"><ele>98.0</ele><time>2026-04-04T08:46:09.5Z</time></trkpt><trkpt lat="43.54641" lon="10.5329067"><ele>98.0</ele><time>2026-04-04T08:46:10.501Z</time></trkpt><trkpt lat="43.5465633" lon="10.532655"><ele>98.0</ele><time>2026-04-04T08:46:12.5Z</time></trkpt><trkpt lat="43.5466383" lon="10.5325733"><ele>98.0</ele><time>2026-04-04T08:46:13.501Z</time></trkpt><trkpt lat="43.5467117" lon="10.53252"><ele>97.99999999999999</ele><time>2026-04-04T08:46:14.5Z</time></trkpt><trkpt lat="43.54678" lon="10.5324933"><ele>98.0</ele><time>2026-04-04T08:46:15.5Z</time></trkpt><trkpt lat="43.546845" lon="10.5324783"><ele>98.0</ele><time>2026-04-04T08:46:16.501Z</time></trkpt><trkpt lat="43.546955" lon="10.5324617"><ele>98.0</ele><time>2026-04-04T08:46:18.5Z</time></trkpt><trkpt lat="43.5470467" lon="10.532455"><ele>97.99999999999999</ele><time>2026-04-04T08:46:20.5Z</time></trkpt><trkpt lat="43.5471183" lon="10.53244"><ele>98.0</ele><time>2026-04-04T08:46:22.501Z</time></trkpt><trkpt lat="43.5471833" lon="10.5324083"><ele>98.0</ele><time>2026-04-04T08:46:24.5Z</time></trkpt><trkpt lat="43.5472683" lon="10.5323667"><ele>98.0</ele><time>2026-04-04T08:46:27.5Z</time></trkpt><trkpt lat="43.5473367" lon="10.5323117"><ele>98.0</ele><time>2026-04-04T08:46:30.5Z</time></trkpt><trkpt lat="43.5474067" lon="10.5322917"><ele>98.0</ele><time>2026-04-04T08:46:33.5Z</time></trkpt><trkpt lat="43.547485" lon="10.5322683"><ele>98.0</ele><time>2026-04-04T08:46:36.501Z</time></trkpt><trkpt lat="43.5475467" lon="10.5322433"><ele>98.0</ele><time>2026-04-04T08:46:38.5Z</time></trkpt><trkpt lat="43.54761" lon="10.53223"><ele>98.0</ele><time>2026-04-04T08:46:40.5Z</time></trkpt><trkpt lat="43.547675" lon="10.5321783"><ele>97.99999999999999</ele><time>2026-04-04T08:46:43.501Z</time></trkpt><trkpt lat="43.547735" lon="10.5321"><ele>98.0</ele><time>2026-04-04T08:46:46.501Z</time></trkpt><trkpt lat="43.5477883" lon="10.5320417"><ele>98.0</ele><time>2026-04-04T08:46:48.5Z</time></trkpt><trkpt lat="43.5478667" lon="10.53198"><ele>98.0</ele><time>2026-04-04T08:46:51.5Z</time></trkpt><trkpt lat="43.5479417" lon="10.5319467"><ele>97.99999999999999</ele><time>2026-04-04T08:46:53.501Z</time></trkpt><trkpt lat="43.54805" lon="10.5318767"><ele>98.0</ele><time>2026-04-04T08:46:55.501Z</time></trkpt><trkpt lat="43.5481083" lon="10.531835"><ele>98.0</ele><time>2026-04-04T08:46:56.501Z</time></trkpt><trkpt lat="43.5481717" lon="10.5317817"><ele>98.0</ele><time>2026-04-04T08:46:57.501Z</time></trkpt><trkpt lat="43.5482467" lon="10.5316867"><ele>98.0</ele><time>2026-04-04T08:46:58.501Z</time></trkpt><trkpt lat="43.548315" lon="10.53161"><ele>98.0</ele><time>2026-04-04T08:46:59.5Z</time></trkpt><trkpt lat="43.5483917" lon="10.53153"><ele>98.0</ele><time>2026-04-04T08:47:00.501Z</time></trkpt><trkpt lat="43.54847" lon="10.5314583"><ele>97.99999999999999</ele><time>2026-04-04T08:47:01.501Z</time></trkpt><trkpt lat="43.548545" lon="10.531385"><ele>98.0</ele><time>2026-04-04T08:47:02.501Z</time></trkpt><trkpt lat="43.5486183" lon="10.5313083"><ele>98.0</ele><time>2026-04-04T08:47:03.5Z</time></trkpt><trkpt lat="43.548695" lon="10.5312333"><ele>98.0</ele><time>2026-04-04T08:47:04.5Z</time></trkpt><trkpt lat="43.54877" lon="10.531175"><ele>97.99999999999999</ele><time>2026-04-04T08:47:05.501Z</time></trkpt><trkpt lat="43.5488383" lon="10.5311167"><ele>98.0</ele><time>2026-04-04T08:47:06.5Z</time></trkpt><trkpt lat="43.5489" lon="10.5310667"><ele>97.33333333333333</ele><time>2026-04-04T08:47:07.501Z</time></trkpt><trkpt lat="43.5489583" lon="10.5310217"><ele>96.66666666666666</ele><time>2026-04-04T08:47:08.5Z</time></trkpt><trkpt lat="43.5490533" lon="10.530935"><ele>96.0</ele><time>2026-04-04T08:47:10.5Z</time></trkpt><trkpt lat="43.5491267" lon="10.530855"><ele>95.33333333333333</ele><time>2026-04-04T08:47:12.501Z</time></trkpt><trkpt lat="43.5491817" lon="10.53078"><ele>94.66666666666666</ele><time>2026-04-04T08:47:15.501Z</time></trkpt><trkpt lat="43.5492317" lon="10.53072"><ele>94.0</ele><time>2026-04-04T08:47:19.501Z</time></trkpt><trkpt lat="43.5492917" lon="10.5306533"><ele>94.0</ele><time>2026-04-04T08:47:23.5Z</time></trkpt><trkpt lat="43.5493533" lon="10.5306033"><ele>94.0</ele><time>2026-04-04T08:47:27.501Z</time></trkpt><trkpt lat="43.5494133" lon="10.5305483"><ele>94.0</ele><time>2026-04-04T08:47:31.501Z</time></trkpt><trkpt lat="43.549465" lon="10.5304917"><ele>94.0</ele><time>2026-04-04T08:47:35.501Z</time></trkpt><trkpt lat="43.549515" lon="10.5304117"><ele>94.0</ele><time>2026-04-04T08:47:38.501Z</time></trkpt><trkpt lat="43.5495633" lon="10.5303133"><ele>94.0</ele><time>2026-04-04T08:47:41.501Z</time></trkpt><trkpt lat="43.549605" lon="10.530215"><ele>93.6</ele><time>2026-04-04T08:47:44.5Z</time></trkpt><trkpt lat="43.5496383" lon="10.5300867"><ele>93.2</ele><time>2026-04-04T08:47:47.501Z</time></trkpt><trkpt lat="43.549675" lon="10.5299633"><ele>92.8</ele><time>2026-04-04T08:47:49.501Z</time></trkpt><trkpt lat="43.5497117" lon="10.52983"><ele>92.39999999999999</ele><time>2026-04-04T08:47:51.5Z</time></trkpt><trkpt lat="43.5497367" lon="10.5297067"><ele>92.0</ele><time>2026-04-04T08:47:53.5Z</time></trkpt><trkpt lat="43.5497617" lon="10.5296"><ele>93.19999999999999</ele><time>2026-04-04T08:47:55.5Z</time></trkpt><trkpt lat="43.5497983" lon="10.5295017"><ele>94.4</ele><time>2026-04-04T08:47:57.5Z</time></trkpt><trkpt lat="43.5498567" lon="10.5294017"><ele>95.6</ele><time>2026-04-04T08:47:59.501Z</time></trkpt><trkpt lat="43.5499217" lon="10.5293117"><ele>96.80000000000001</ele><time>2026-04-04T08:48:01.501Z</time></trkpt><trkpt lat="43.5499983" lon="10.5292383"><ele>98.0</ele><time>2026-04-04T08:48:03.501Z</time></trkpt><trkpt lat="43.5500833" lon="10.5291667"><ele>98.0</ele><time>2026-04-04T08:48:05.5Z</time></trkpt><trkpt lat="43.5501667" lon="10.5290883"><ele>98.0</ele><time>2026-04-04T08:48:07.501Z</time></trkpt><trkpt lat="43.5502483" lon="10.5289933"><ele>98.0</ele><time>2026-04-04T08:48:09.501Z</time></trkpt><trkpt lat="43.5503367" lon="10.5288783"><ele>98.0</ele><time>2026-04-04T08:48:11.5Z</time></trkpt><trkpt lat="43.5504167" lon="10.528785"><ele>98.0</ele><time>2026-04-04T08:48:13.5Z</time></trkpt><trkpt lat="43.55049" lon="10.52871"><ele>96.80000000000001</ele><time>2026-04-04T08:48:15.5Z</time></trkpt><trkpt lat="43.5505767" lon="10.528625"><ele>95.6</ele><time>2026-04-04T08:48:17.5Z</time></trkpt><trkpt lat="43.5506567" lon="10.52853"><ele>94.4</ele><time>2026-04-04T08:48:19.5Z</time></trkpt><trkpt lat="43.5507467" lon="10.5284317"><ele>93.19999999999999</ele><time>2026-04-04T08:48:21.5Z</time></trkpt><trkpt lat="43.5508367" lon="10.528335"><ele>92.0</ele><time>2026-04-04T08:48:23.501Z</time></trkpt><trkpt lat="43.5509083" lon="10.5282417"><ele>92.0</ele><time>2026-04-04T08:48:25.5Z</time></trkpt><trkpt lat="43.550955" lon="10.5281433"><ele>92.0</ele><time>2026-04-04T08:48:27.5Z</time></trkpt><trkpt lat="43.5509817" lon="10.5280383"><ele>92.0</ele><time>2026-04-04T08:48:29.501Z</time></trkpt><trkpt lat="43.551" lon="10.5279417"><ele>92.0</ele><time>2026-04-04T08:48:31.501Z</time></trkpt><trkpt lat="43.5510317" lon="10.52784"><ele>92.0</ele><time>2026-04-04T08:48:33.5Z</time></trkpt><trkpt lat="43.5510717" lon="10.527725"><ele>92.0</ele><time>2026-04-04T08:48:35.501Z</time></trkpt><trkpt lat="43.5511033" lon="10.5276083"><ele>92.0</ele><time>2026-04-04T08:48:37.501Z</time></trkpt><trkpt lat="43.55114" lon="10.5274883"><ele>92.0</ele><time>2026-04-04T08:48:39.5Z</time></trkpt><trkpt lat="43.5511683" lon="10.527375"><ele>92.0</ele><time>2026-04-04T08:48:41.5Z</time></trkpt><trkpt lat="43.5511983" lon="10.5272583"><ele>92.0</ele><time>2026-04-04T08:48:43.5Z</time></trkpt><trkpt lat="43.55122" lon="10.5271467"><ele>92.0</ele><time>2026-04-04T08:48:45.5Z</time></trkpt><trkpt lat="43.55124" lon="10.52704"><ele>92.0</ele><time>2026-04-04T08:48:47.5Z</time></trkpt><trkpt lat="43.5512567" lon="10.5269383"><ele>91.33333333333334</ele><time>2026-04-04T08:48:49.5Z</time></trkpt><trkpt lat="43.5512567" lon="10.5268383"><ele>90.66666666666667</ele><time>2026-04-04T08:48:51.499Z</time></trkpt><trkpt lat="43.5512483" lon="10.526745"><ele>90.0</ele><time>2026-04-04T08:48:53.5Z</time></trkpt><trkpt lat="43.55123" lon="10.5266283"><ele>89.33333333333333</ele><time>2026-04-04T08:48:56.499Z</time></trkpt><trkpt lat="43.5511883" lon="10.52652"><ele>88.66666666666666</ele><time>2026-04-04T08:48:59.499Z</time></trkpt><trkpt lat="43.55114" lon="10.5264283"><ele>88.0</ele><time>2026-04-04T08:49:02.5Z</time></trkpt><trkpt lat="43.5511117" lon="10.5263233"><ele>88.0</ele><time>2026-04-04T08:49:05.499Z</time></trkpt><trkpt lat="43.5510967" lon="10.5262367"><ele>88.0</ele><time>2026-04-04T08:49:08.499Z</time></trkpt><trkpt lat="43.55109" lon="10.5261333"><ele>88.0</ele><time>2026-04-04T08:49:12.5Z</time></trkpt><trkpt lat="43.5510717" lon="10.5260283"><ele>88.0</ele><time>2026-04-04T08:49:16.5Z</time></trkpt><trkpt lat="43.5510517" lon="10.5259183"><ele>88.0</ele><time>2026-04-04T08:49:20.5Z</time></trkpt><trkpt lat="43.5510533" lon="10.5258033"><ele>88.0</ele><time>2026-04-04T08:49:24.5Z</time></trkpt><trkpt lat="43.5510717" lon="10.5257"><ele>88.85714285714286</ele><time>2026-04-04T08:49:28.5Z</time></trkpt><trkpt lat="43.55109" lon="10.525615"><ele>89.71428571428571</ele><time>2026-04-04T08:49:32.5Z</time></trkpt><trkpt lat="43.5511433" lon="10.5255667"><ele>90.57142857142857</ele><time>2026-04-04T08:49:37.5Z</time></trkpt><trkpt lat="43.551215" lon="10.5255583"><ele>91.42857142857143</ele><time>2026-04-04T08:49:42.5Z</time></trkpt><trkpt lat="43.55128" lon="10.525545"><ele>92.28571428571428</ele><time>2026-04-04T08:49:46.499Z</time></trkpt><trkpt lat="43.551365" lon="10.52554"><ele>93.14285714285714</ele><time>2026-04-04T08:49:51.5Z</time></trkpt><trkpt lat="43.55144" lon="10.5255083"><ele>94.0</ele><time>2026-04-04T08:49:54.499Z</time></trkpt><trkpt lat="43.551505" lon="10.5254717"><ele>94.0</ele><time>2026-04-04T08:49:56.499Z</time></trkpt><trkpt lat="43.5515733" lon="10.5254383"><ele>94.0</ele><time>2026-04-04T08:49:58.5Z</time></trkpt><trkpt lat="43.5516533" lon="10.5254217"><ele>94.0</ele><time>2026-04-04T08:50:00.5Z</time></trkpt><trkpt lat="43.55174" lon="10.5254017"><ele>94.0</ele><time>2026-04-04T08:50:02.5Z</time></trkpt><trkpt lat="43.5518233" lon="10.5253633"><ele>94.0</ele><time>2026-04-04T08:50:04.5Z</time></trkpt><trkpt lat="43.5519067" lon="10.5252617"><ele>94.0</ele><time>2026-04-04T08:50:06.5Z</time></trkpt><trkpt lat="43.551985" lon="10.5251333"><ele>93.5</ele><time>2026-04-04T08:50:08.5Z</time></trkpt><trkpt lat="43.5520533" lon="10.524995"><ele>93.0</ele><time>2026-04-04T08:50:10.499Z</time></trkpt><trkpt lat="43.5521167" lon="10.5248617"><ele>92.5</ele><time>2026-04-04T08:50:12.5Z</time></trkpt><trkpt lat="43.552185" lon="10.5247283"><ele>92.0</ele><time>2026-04-04T08:50:14.499Z</time></trkpt><trkpt lat="43.552245" lon="10.5246233"><ele>91.5</ele><time>2026-04-04T08:50:16.499Z</time></trkpt><trkpt lat="43.5523167" lon="10.5245483"><ele>91.0</ele><time>2026-04-04T08:50:18.5Z</time></trkpt><trkpt lat="43.552385" lon="10.5245017"><ele>90.5</ele><time>2026-04-04T08:50:20.499Z</time></trkpt><trkpt lat="43.5524617" lon="10.5244433"><ele>90.0</ele><time>2026-04-04T08:50:22.5Z</time></trkpt><trkpt lat="43.5525517" lon="10.5243483"><ele>89.5</ele><time>2026-04-04T08:50:37.499Z</time></trkpt><trkpt lat="43.55261" lon="10.524275"><ele>89.0</ele><time>2026-04-04T08:50:40.5Z</time></trkpt><trkpt lat="43.5526783" lon="10.5241983"><ele>89.0</ele><time>2026-04-04T08:50:43.5Z</time></trkpt><trkpt lat="43.5527433" lon="10.52412"><ele>89.0</ele><time>2026-04-04T08:50:46.5Z</time></trkpt><trkpt lat="43.552805" lon="10.5240367"><ele>89.0</ele><time>2026-04-04T08:50:49.499Z</time></trkpt><trkpt lat="43.5528717" lon="10.5239833"><ele>89.0</ele><time>2026-04-04T08:50:52.499Z</time></trkpt><trkpt lat="43.5529467" lon="10.5239333"><ele>89.0</ele><time>2026-04-04T08:50:55.5Z</time></trkpt><trkpt lat="43.55301" lon="10.5238933"><ele>89.0</ele><time>2026-04-04T08:50:58.5Z</time></trkpt><trkpt lat="43.5530817" lon="10.5238617"><ele>90.66666666666667</ele><time>2026-04-04T08:51:02.5Z</time></trkpt><trkpt lat="43.553165" lon="10.5238333"><ele>92.33333333333334</ele><time>2026-04-04T08:51:05.5Z</time></trkpt><trkpt lat="43.5532333" lon="10.5238167"><ele>94.0</ele><time>2026-04-04T08:51:07.5Z</time></trkpt><trkpt lat="43.5533067" lon="10.52381"><ele>95.66666666666667</ele><time>2026-04-04T08:51:09.499Z</time></trkpt><trkpt lat="43.5533917" lon="10.52382"><ele>97.33333333333333</ele><time>2026-04-04T08:51:11.499Z</time></trkpt><trkpt lat="43.5534583" lon="10.5238517"><ele>99.0</ele><time>2026-04-04T08:51:12.499Z</time></trkpt><trkpt lat="43.553525" lon="10.523895"><ele>99.0</ele><time>2026-04-04T08:51:13.5Z</time></trkpt><trkpt lat="43.5535883" lon="10.52395"><ele>99.0</ele><time>2026-04-04T08:51:14.499Z</time></trkpt><trkpt lat="43.5536517" lon="10.5240033"><ele>99.0</ele><time>2026-04-04T08:51:15.5Z</time></trkpt><trkpt lat="43.5537083" lon="10.52406"><ele>99.0</ele><time>2026-04-04T08:51:16.5Z</time></trkpt><trkpt lat="43.55376" lon="10.5241183"><ele>99.0</ele><time>2026-04-04T08:51:17.499Z</time></trkpt><trkpt lat="43.5538067" lon="10.5241833"><ele>99.0</ele><time>2026-04-04T08:51:18.499Z</time></trkpt><trkpt lat="43.5538567" lon="10.5242433"><ele>99.0</ele><time>2026-04-04T08:51:19.499Z</time></trkpt><trkpt lat="43.5539167" lon="10.5243067"><ele>98.66666666666667</ele><time>2026-04-04T08:51:20.5Z</time></trkpt><trkpt lat="43.5539717" lon="10.524365"><ele>98.33333333333334</ele><time>2026-04-04T08:51:21.499Z</time></trkpt><trkpt lat="43.5540633" lon="10.5244583"><ele>98.0</ele><time>2026-04-04T08:51:23.5Z</time></trkpt><trkpt lat="43.5541333" lon="10.5245367"><ele>97.66666666666667</ele><time>2026-04-04T08:51:25.5Z</time></trkpt><trkpt lat="43.5541933" lon="10.5246033"><ele>97.33333333333334</ele><time>2026-04-04T08:51:27.5Z</time></trkpt><trkpt lat="43.5542583" lon="10.5246633"><ele>97.0</ele><time>2026-04-04T08:51:29.5Z</time></trkpt><trkpt lat="43.554305" lon="10.524725"><ele>96.28571428571428</ele><time>2026-04-04T08:51:31.5Z</time></trkpt><trkpt lat="43.5543567" lon="10.5247883"><ele>95.57142857142858</ele><time>2026-04-04T08:51:33.5Z</time></trkpt><trkpt lat="43.5544133" lon="10.5248617"><ele>94.85714285714286</ele><time>2026-04-04T08:51:35.5Z</time></trkpt><trkpt lat="43.5544817" lon="10.5249083"><ele>94.14285714285714</ele><time>2026-04-04T08:51:37.5Z</time></trkpt><trkpt lat="43.5545167" lon="10.5249817"><ele>93.42857142857142</ele><time>2026-04-04T08:51:39.499Z</time></trkpt><trkpt lat="43.5545917" lon="10.5250217"><ele>92.71428571428572</ele><time>2026-04-04T08:51:42.5Z</time></trkpt><trkpt lat="43.5546517" lon="10.5250617"><ele>92.0</ele><time>2026-04-04T08:51:44.5Z</time></trkpt><trkpt lat="43.55472" lon="10.5251117"><ele>92.0</ele><time>2026-04-04T08:51:46.5Z</time></trkpt><trkpt lat="43.5548117" lon="10.5251317"><ele>92.0</ele><time>2026-04-04T08:51:49.499Z</time></trkpt><trkpt lat="43.5549033" lon="10.5251317"><ele>92.0</ele><time>2026-04-04T08:51:52.5Z</time></trkpt><trkpt lat="43.5549917" lon="10.5251283"><ele>92.0</ele><time>2026-04-04T08:51:55.5Z</time></trkpt><trkpt lat="43.5550533" lon="10.5251067"><ele>92.0</ele><time>2026-04-04T08:51:57.5Z</time></trkpt><trkpt lat="43.5551383" lon="10.5250667"><ele>92.0</ele><time>2026-04-04T08:52:00.5Z</time></trkpt><trkpt lat="43.55522" lon="10.52501"><ele>92.0</ele><time>2026-04-04T08:52:03.5Z</time></trkpt><trkpt lat="43.5552883" lon="10.5249567"><ele>92.0</ele><time>2026-04-04T08:52:06.5Z</time></trkpt><trkpt lat="43.5553583" lon="10.5249183"><ele>92.0</ele><time>2026-04-04T08:52:10.5Z</time></trkpt><trkpt lat="43.5554517" lon="10.5248783"><ele>92.0</ele><time>2026-04-04T08:52:53.5Z</time></trkpt><trkpt lat="43.555515" lon="10.5248433"><ele>92.0</ele><time>2026-04-04T08:52:55.5Z</time></trkpt><trkpt lat="43.55559" lon="10.524825"><ele>92.0</ele><time>2026-04-04T08:52:57.499Z</time></trkpt><trkpt lat="43.55566" lon="10.5248117"><ele>91.83333333333334</ele><time>2026-04-04T08:52:59.5Z</time></trkpt><trkpt lat="43.5557267" lon="10.52478"><ele>91.66666666666667</ele><time>2026-04-04T08:53:01.5Z</time></trkpt><trkpt lat="43.555805" lon="10.5247267"><ele>91.5</ele><time>2026-04-04T08:53:04.5Z</time></trkpt><trkpt lat="43.55587" lon="10.5246817"><ele>91.33333333333333</ele><time>2026-04-04T08:53:07.5Z</time></trkpt><trkpt lat="43.5559267" lon="10.5246267"><ele>91.16666666666666</ele><time>2026-04-04T08:53:10.5Z</time></trkpt><trkpt lat="43.556" lon="10.5245483"><ele>91.0</ele><time>2026-04-04T08:53:13.5Z</time></trkpt><trkpt lat="43.5560733" lon="10.5244767"><ele>91.0</ele><time>2026-04-04T08:53:16.5Z</time></trkpt><trkpt lat="43.5561383" lon="10.5244067"><ele>91.0</ele><time>2026-04-04T08:53:19.499Z</time></trkpt><trkpt lat="43.5562067" lon="10.524345"><ele>91.0</ele><time>2026-04-04T08:53:22.499Z</time></trkpt><trkpt lat="43.5562717" lon="10.524275"><ele>91.0</ele><time>2026-04-04T08:53:26.5Z</time></trkpt><trkpt lat="43.55634" lon="10.5242133"><ele>91.0</ele><time>2026-04-04T08:53:29.5Z</time></trkpt><trkpt lat="43.5564117" lon="10.5241583"><ele>91.0</ele><time>2026-04-04T08:53:32.5Z</time></trkpt><trkpt lat="43.5564833" lon="10.5241017"><ele>92.83333333333333</ele><time>2026-04-04T08:53:35.499Z</time></trkpt><trkpt lat="43.556555" lon="10.5240533"><ele>94.66666666666666</ele><time>2026-04-04T08:53:38.499Z</time></trkpt><trkpt lat="43.5566333" lon="10.524005"><ele>96.5</ele><time>2026-04-04T08:53:41.499Z</time></trkpt><trkpt lat="43.556705" lon="10.5239583"><ele>98.33333333333333</ele><time>2026-04-04T08:53:44.5Z</time></trkpt><trkpt lat="43.556775" lon="10.52393"><ele>100.16666666666667</ele><time>2026-04-04T08:53:47.499Z</time></trkpt><trkpt lat="43.5568483" lon="10.5239067"><ele>102.0</ele><time>2026-04-04T08:53:50.5Z</time></trkpt><trkpt lat="43.556915" lon="10.5239"><ele>102.0</ele><time>2026-04-04T08:53:53.5Z</time></trkpt><trkpt lat="43.55699" lon="10.5238917"><ele>102.0</ele><time>2026-04-04T08:53:56.499Z</time></trkpt><trkpt lat="43.5570683" lon="10.5238683"><ele>102.0</ele><time>2026-04-04T08:53:58.499Z</time></trkpt><trkpt lat="43.55717" lon="10.52382"><ele>102.0</ele><time>2026-04-04T08:54:00.499Z</time></trkpt><trkpt lat="43.5572717" lon="10.5237717"><ele>102.0</ele><time>2026-04-04T08:54:02.499Z</time></trkpt><trkpt lat="43.5573883" lon="10.52373"><ele>101.8</ele><time>2026-04-04T08:54:04.499Z</time></trkpt><trkpt lat="43.5574967" lon="10.5237183"><ele>101.6</ele><time>2026-04-04T08:54:06.5Z</time></trkpt><trkpt lat="43.5575983" lon="10.5237233"><ele>101.39999999999999</ele><time>2026-04-04T08:54:08.5Z</time></trkpt><trkpt lat="43.5576983" lon="10.5237567"><ele>101.19999999999999</ele><time>2026-04-04T08:54:10.498Z</time></trkpt><trkpt lat="43.5577933" lon="10.52383"><ele>101.0</ele><time>2026-04-04T08:54:12.499Z</time></trkpt><trkpt lat="43.557885" lon="10.523885"><ele>99.99999999999999</ele><time>2026-04-04T08:54:14.499Z</time></trkpt><trkpt lat="43.5579783" lon="10.523905"><ele>99.0</ele><time>2026-04-04T08:54:16.499Z</time></trkpt><trkpt lat="43.55806" lon="10.5239383"><ele>98.0</ele><time>2026-04-04T08:54:18.499Z</time></trkpt><trkpt lat="43.5581417" lon="10.52396"><ele>97.0</ele><time>2026-04-04T08:54:20.499Z</time></trkpt><trkpt lat="43.55822" lon="10.5239783"><ele>96.0</ele><time>2026-04-04T08:54:22.499Z</time></trkpt><trkpt lat="43.5582967" lon="10.5240033"><ele>95.0</ele><time>2026-04-04T08:54:24.499Z</time></trkpt><trkpt lat="43.5583817" lon="10.5240233"><ele>95.0</ele><time>2026-04-04T08:54:26.499Z</time></trkpt><trkpt lat="43.558465" lon="10.52405"><ele>95.0</ele><time>2026-04-04T08:54:28.498Z</time></trkpt><trkpt lat="43.5585467" lon="10.5240667"><ele>95.0</ele><time>2026-04-04T08:54:30.498Z</time></trkpt><trkpt lat="43.5586167" lon="10.5240833"><ele>95.0</ele><time>2026-04-04T08:54:32.499Z</time></trkpt><trkpt lat="43.5586817" lon="10.5241067"><ele>95.0</ele><time>2026-04-04T08:54:34.498Z</time></trkpt><trkpt lat="43.5587767" lon="10.5241317"><ele>95.0</ele><time>2026-04-04T08:54:37.499Z</time></trkpt><trkpt lat="43.5588583" lon="10.5241117"><ele>96.16666666666667</ele><time>2026-04-04T08:54:39.499Z</time></trkpt><trkpt lat="43.5589317" lon="10.5241"><ele>97.33333333333334</ele><time>2026-04-04T08:54:41.499Z</time></trkpt><trkpt lat="43.5589983" lon="10.5240767"><ele>98.5</ele><time>2026-04-04T08:54:43.499Z</time></trkpt><trkpt lat="43.5590767" lon="10.5240317"><ele>99.66666666666667</ele><time>2026-04-04T08:54:46.498Z</time></trkpt><trkpt lat="43.559145" lon="10.5239867"><ele>100.83333333333333</ele><time>2026-04-04T08:54:49.499Z</time></trkpt><trkpt lat="43.5592183" lon="10.5239433"><ele>102.0</ele><time>2026-04-04T08:54:52.498Z</time></trkpt><trkpt lat="43.55928" lon="10.5238967"><ele>102.0</ele><time>2026-04-04T08:54:55.499Z</time></trkpt><trkpt lat="43.5593467" lon="10.523835"><ele>102.0</ele><time>2026-04-04T08:55:00.499Z</time></trkpt><trkpt lat="43.5594217" lon="10.5237933"><ele>102.0</ele><time>2026-04-04T08:55:03.499Z</time></trkpt><trkpt lat="43.55949" lon="10.5237717"><ele>102.0</ele><time>2026-04-04T08:55:06.499Z</time></trkpt><trkpt lat="43.559555" lon="10.5237833"><ele>102.0</ele><time>2026-04-04T08:55:09.498Z</time></trkpt><trkpt lat="43.5596367" lon="10.5237933"><ele>102.0</ele><time>2026-04-04T08:55:12.499Z</time></trkpt><trkpt lat="43.5597167" lon="10.5237917"><ele>103.16666666666667</ele><time>2026-04-04T08:55:15.498Z</time></trkpt><trkpt lat="43.55978" lon="10.52379"><ele>104.33333333333334</ele><time>2026-04-04T08:55:17.499Z</time></trkpt><trkpt lat="43.5598533" lon="10.5238"><ele>105.5</ele><time>2026-04-04T08:55:19.498Z</time></trkpt><trkpt lat="43.55992" lon="10.523825"><ele>106.66666666666667</ele><time>2026-04-04T08:55:21.498Z</time></trkpt><trkpt lat="43.56001" lon="10.52386"><ele>107.83333333333334</ele><time>2026-04-04T08:55:24.499Z</time></trkpt><trkpt lat="43.5601" lon="10.52389"><ele>109.0</ele><time>2026-04-04T08:55:27.499Z</time></trkpt><trkpt lat="43.5601633" lon="10.5239117"><ele>109.0</ele><time>2026-04-04T08:55:29.499Z</time></trkpt><trkpt lat="43.5602333" lon="10.5239417"><ele>109.0</ele><time>2026-04-04T08:55:31.499Z</time></trkpt><trkpt lat="43.560305" lon="10.5239667"><ele>109.0</ele><time>2026-04-04T08:55:33.498Z</time></trkpt><trkpt lat="43.5603783" lon="10.5239667"><ele>109.0</ele><time>2026-04-04T08:55:35.499Z</time></trkpt><trkpt lat="43.5604633" lon="10.52393"><ele>109.0</ele><time>2026-04-04T08:55:37.498Z</time></trkpt><trkpt lat="43.5605767" lon="10.5238133"><ele>107.33333333333334</ele><time>2026-04-04T08:55:39.499Z</time></trkpt><trkpt lat="43.5606517" lon="10.5237417"><ele>105.66666666666667</ele><time>2026-04-04T08:55:40.499Z</time></trkpt><trkpt lat="43.5607183" lon="10.5236483"><ele>104.0</ele><time>2026-04-04T08:55:41.498Z</time></trkpt><trkpt lat="43.5607867" lon="10.5235617"><ele>102.33333333333334</ele><time>2026-04-04T08:55:42.499Z</time></trkpt><trkpt lat="43.5608467" lon="10.52348"><ele>100.66666666666667</ele><time>2026-04-04T08:55:43.499Z</time></trkpt><trkpt lat="43.5609067" lon="10.5234183"><ele>99.0</ele><time>2026-04-04T08:55:44.498Z</time></trkpt><trkpt lat="43.5609683" lon="10.5233533"><ele>98.71428571428572</ele><time>2026-04-04T08:55:45.499Z</time></trkpt><trkpt lat="43.561035" lon="10.5232883"><ele>98.42857142857142</ele><time>2026-04-04T08:55:46.499Z</time></trkpt><trkpt lat="43.5610967" lon="10.5232217"><ele>98.14285714285714</ele><time>2026-04-04T08:55:47.498Z</time></trkpt><trkpt lat="43.5611567" lon="10.52316"><ele>97.85714285714286</ele><time>2026-04-04T08:55:48.498Z</time></trkpt><trkpt lat="43.5612033" lon="10.5230983"><ele>97.57142857142858</ele><time>2026-04-04T08:55:49.498Z</time></trkpt><trkpt lat="43.5612483" lon="10.5230317"><ele>97.28571428571428</ele><time>2026-04-04T08:55:50.498Z</time></trkpt><trkpt lat="43.561285" lon="10.5229517"><ele>97.0</ele><time>2026-04-04T08:55:51.499Z</time></trkpt><trkpt lat="43.5613183" lon="10.5228667"><ele>97.0</ele><time>2026-04-04T08:55:52.499Z</time></trkpt><trkpt lat="43.5613517" lon="10.5227867"><ele>97.0</ele><time>2026-04-04T08:55:53.499Z</time></trkpt><trkpt lat="43.56139" lon="10.522625"><ele>97.0</ele><time>2026-04-04T08:55:55.499Z</time></trkpt><trkpt lat="43.5614233" lon="10.522465"><ele>97.0</ele><time>2026-04-04T08:55:57.498Z</time></trkpt><trkpt lat="43.56145" lon="10.5223"><ele>97.0</ele><time>2026-04-04T08:55:59.499Z</time></trkpt><trkpt lat="43.56147" lon="10.5222133"><ele>95.19999999999999</ele><time>2026-04-04T08:56:00.499Z</time></trkpt><trkpt lat="43.5615017" lon="10.52204"><ele>93.4</ele><time>2026-04-04T08:56:02.498Z</time></trkpt><trkpt lat="43.56151" lon="10.5219333"><ele>91.6</ele><time>2026-04-04T08:56:03.499Z</time></trkpt><trkpt lat="43.561515" lon="10.5218333"><ele>89.80000000000001</ele><time>2026-04-04T08:56:04.499Z</time></trkpt><trkpt lat="43.56151" lon="10.5216617"><ele>88.0</ele><time>2026-04-04T08:56:06.498Z</time></trkpt><trkpt lat="43.561495" lon="10.5214933"><ele>88.0</ele><time>2026-04-04T08:56:08.498Z</time></trkpt><trkpt lat="43.5614917" lon="10.521405"><ele>88.0</ele><time>2026-04-04T08:56:09.498Z</time></trkpt><trkpt lat="43.561485" lon="10.5212367"><ele>88.0</ele><time>2026-04-04T08:56:11.499Z</time></trkpt><trkpt lat="43.5614733" lon="10.521085"><ele>88.0</ele><time>2026-04-04T08:56:13.499Z</time></trkpt><trkpt lat="43.56146" lon="10.5209567"><ele>88.0</ele><time>2026-04-04T08:56:15.498Z</time></trkpt><trkpt lat="43.5614533" lon="10.5208317"><ele>88.16666666666666</ele><time>2026-04-04T08:56:17.499Z</time></trkpt><trkpt lat="43.561435" lon="10.5207217"><ele>88.33333333333333</ele><time>2026-04-04T08:56:19.498Z</time></trkpt><trkpt lat="43.5614167" lon="10.5206083"><ele>88.5</ele><time>2026-04-04T08:56:21.498Z</time></trkpt><trkpt lat="43.561405" lon="10.520495"><ele>88.66666666666667</ele><time>2026-04-04T08:56:23.499Z</time></trkpt><trkpt lat="43.561385" lon="10.5203783"><ele>88.83333333333334</ele><time>2026-04-04T08:56:25.499Z</time></trkpt><trkpt lat="43.56137" lon="10.52027"><ele>89.0</ele><time>2026-04-04T08:56:27.499Z</time></trkpt><trkpt lat="43.5613667" lon="10.52015"><ele>89.16666666666667</ele><time>2026-04-04T08:56:29.498Z</time></trkpt><trkpt lat="43.5613867" lon="10.5199967"><ele>89.33333333333334</ele><time>2026-04-04T08:56:31.499Z</time></trkpt><trkpt lat="43.5614033" lon="10.51991"><ele>89.5</ele><time>2026-04-04T08:56:32.499Z</time></trkpt><trkpt lat="43.5614217" lon="10.51982"><ele>89.66666666666667</ele><time>2026-04-04T08:56:33.499Z</time></trkpt><trkpt lat="43.5614417" lon="10.519735"><ele>89.83333333333333</ele><time>2026-04-04T08:56:34.498Z</time></trkpt><trkpt lat="43.5614617" lon="10.5196433"><ele>90.0</ele><time>2026-04-04T08:56:35.498Z</time></trkpt><trkpt lat="43.5614917" lon="10.5195483"><ele>89.5</ele><time>2026-04-04T08:56:36.498Z</time></trkpt><trkpt lat="43.5615267" lon="10.51945"><ele>89.0</ele><time>2026-04-04T08:56:37.498Z</time></trkpt><trkpt lat="43.5615667" lon="10.5193567"><ele>88.5</ele><time>2026-04-04T08:56:38.498Z</time></trkpt><trkpt lat="43.5616167" lon="10.519265"><ele>88.0</ele><time>2026-04-04T08:56:39.498Z</time></trkpt><trkpt lat="43.561675" lon="10.5191733"><ele>87.5</ele><time>2026-04-04T08:56:40.498Z</time></trkpt><trkpt lat="43.5617317" lon="10.5190933"><ele>87.0</ele><time>2026-04-04T08:56:41.499Z</time></trkpt><trkpt lat="43.56179" lon="10.519015"><ele>87.0</ele><time>2026-04-04T08:56:42.499Z</time></trkpt><trkpt lat="43.5618467" lon="10.5189433"><ele>87.0</ele><time>2026-04-04T08:56:43.499Z</time></trkpt><trkpt lat="43.5619017" lon="10.5188833"><ele>87.0</ele><time>2026-04-04T08:56:44.498Z</time></trkpt><trkpt lat="43.561955" lon="10.5188317"><ele>87.0</ele><time>2026-04-04T08:56:45.499Z</time></trkpt><trkpt lat="43.5620067" lon="10.51878"><ele>87.0</ele><time>2026-04-04T08:56:46.498Z</time></trkpt><trkpt lat="43.5620583" lon="10.5187283"><ele>87.0</ele><time>2026-04-04T08:56:47.499Z</time></trkpt><trkpt lat="43.5621117" lon="10.518675"><ele>87.0</ele><time>2026-04-04T08:56:48.499Z</time></trkpt><trkpt lat="43.562165" lon="10.5186183"><ele>85.83333333333333</ele><time>2026-04-04T08:56:49.498Z</time></trkpt><trkpt lat="43.56224" lon="10.518505"><ele>84.66666666666667</ele><time>2026-04-04T08:56:51.499Z</time></trkpt><trkpt lat="43.5622817" lon="10.5184067"><ele>83.5</ele><time>2026-04-04T08:56:53.499Z</time></trkpt><trkpt lat="43.56232" lon="10.51828"><ele>82.33333333333334</ele><time>2026-04-04T08:56:55.499Z</time></trkpt><trkpt lat="43.56235" lon="10.5182033"><ele>81.16666666666667</ele><time>2026-04-04T08:56:56.499Z</time></trkpt><trkpt lat="43.56239" lon="10.51812"><ele>80.0</ele><time>2026-04-04T08:56:57.499Z</time></trkpt><trkpt lat="43.56244" lon="10.5180383"><ele>80.0</ele><time>2026-04-04T08:56:58.498Z</time></trkpt><trkpt lat="43.5624917" lon="10.5179567"><ele>80.0</ele><time>2026-04-04T08:56:59.499Z</time></trkpt><trkpt lat="43.562555" lon="10.51788"><ele>80.0</ele><time>2026-04-04T08:57:00.498Z</time></trkpt><trkpt lat="43.5626133" lon="10.5178083"><ele>80.0</ele><time>2026-04-04T08:57:01.498Z</time></trkpt><trkpt lat="43.5626817" lon="10.51774"><ele>80.0</ele><time>2026-04-04T08:57:02.499Z</time></trkpt><trkpt lat="43.56274" lon="10.517685"><ele>80.0</ele><time>2026-04-04T08:57:03.499Z</time></trkpt><trkpt lat="43.562805" lon="10.5176183"><ele>79.66666666666667</ele><time>2026-04-04T08:57:04.498Z</time></trkpt><trkpt lat="43.56287" lon="10.5175683"><ele>79.33333333333334</ele><time>2026-04-04T08:57:05.499Z</time></trkpt><trkpt lat="43.562935" lon="10.5175233"><ele>79.0</ele><time>2026-04-04T08:57:06.498Z</time></trkpt><trkpt lat="43.5630033" lon="10.5174833"><ele>78.66666666666667</ele><time>2026-04-04T08:57:07.499Z</time></trkpt><trkpt lat="43.5630683" lon="10.5174567"><ele>78.33333333333333</ele><time>2026-04-04T08:57:08.498Z</time></trkpt><trkpt lat="43.5631333" lon="10.5174317"><ele>78.0</ele><time>2026-04-04T08:57:09.499Z</time></trkpt><trkpt lat="43.5632417" lon="10.5173983"><ele>78.0</ele><time>2026-04-04T08:57:11.499Z</time></trkpt><trkpt lat="43.5633517" lon="10.5173733"><ele>78.0</ele><time>2026-04-04T08:57:13.499Z</time></trkpt><trkpt lat="43.5634333" lon="10.5173467"><ele>78.0</ele><time>2026-04-04T08:57:15.499Z</time></trkpt><trkpt lat="43.5635133" lon="10.5173183"><ele>78.0</ele><time>2026-04-04T08:57:17.499Z</time></trkpt><trkpt lat="43.56359" lon="10.517285"><ele>78.0</ele><time>2026-04-04T08:57:20.498Z</time></trkpt><trkpt lat="43.5636717" lon="10.5172517"><ele>78.0</ele><time>2026-04-04T08:57:23.499Z</time></trkpt><trkpt lat="43.5637483" lon="10.5171833"><ele>77.66666666666667</ele><time>2026-04-04T08:57:26.499Z</time></trkpt><trkpt lat="43.5638117" lon="10.5170983"><ele>77.33333333333333</ele><time>2026-04-04T08:57:29.499Z</time></trkpt><trkpt lat="43.5638617" lon="10.5169983"><ele>77.0</ele><time>2026-04-04T08:57:32.499Z</time></trkpt><trkpt lat="43.5639183" lon="10.5169167"><ele>76.66666666666666</ele><time>2026-04-04T08:57:35.498Z</time></trkpt><trkpt lat="43.5639833" lon="10.51686"><ele>76.33333333333333</ele><time>2026-04-04T08:57:38.499Z</time></trkpt><trkpt lat="43.5640383" lon="10.516795"><ele>76.0</ele><time>2026-04-04T08:57:42.498Z</time></trkpt><trkpt lat="43.5640883" lon="10.5167367"><ele>78.33333333333333</ele><time>2026-04-04T08:57:45.499Z</time></trkpt><trkpt lat="43.56415" lon="10.5166633"><ele>80.66666666666666</ele><time>2026-04-04T08:57:49.499Z</time></trkpt><trkpt lat="43.564195" lon="10.5165983"><ele>83.0</ele><time>2026-04-04T08:57:51.498Z</time></trkpt><trkpt lat="43.5642467" lon="10.5165467"><ele>85.33333333333333</ele><time>2026-04-04T08:57:53.499Z</time></trkpt><trkpt lat="43.5643183" lon="10.5164733"><ele>87.66666666666667</ele><time>2026-04-04T08:57:56.499Z</time></trkpt><trkpt lat="43.56438" lon="10.5163667"><ele>90.0</ele><time>2026-04-04T08:58:00.498Z</time></trkpt><trkpt lat="43.5644317" lon="10.5162833"><ele>90.0</ele><time>2026-04-04T08:58:03.498Z</time></trkpt><trkpt lat="43.5645" lon="10.516265"><ele>90.0</ele><time>2026-04-04T08:58:08.498Z</time></trkpt><trkpt lat="43.5645717" lon="10.516295"><ele>90.0</ele><time>2026-04-04T08:58:12.498Z</time></trkpt><trkpt lat="43.5646367" lon="10.5163133"><ele>90.0</ele><time>2026-04-04T08:58:15.498Z</time></trkpt><trkpt lat="43.5647" lon="10.5163283"><ele>90.0</ele><time>2026-04-04T08:58:18.499Z</time></trkpt><trkpt lat="43.5647783" lon="10.51635"><ele>90.0</ele><time>2026-04-04T08:58:21.498Z</time></trkpt><trkpt lat="43.5648683" lon="10.5163733"><ele>90.0</ele><time>2026-04-04T08:58:24.499Z</time></trkpt><trkpt lat="43.5649483" lon="10.5163733"><ele>90.0</ele><time>2026-04-04T08:58:27.498Z</time></trkpt><trkpt lat="43.5650167" lon="10.5163683"><ele>90.0</ele><time>2026-04-04T08:58:29.499Z</time></trkpt><trkpt lat="43.5650933" lon="10.5163667"><ele>90.0</ele><time>2026-04-04T08:58:31.498Z</time></trkpt><trkpt lat="43.56518" lon="10.5163683"><ele>90.0</ele><time>2026-04-04T08:58:33.498Z</time></trkpt><trkpt lat="43.5652767" lon="10.5163817"><ele>90.0</ele><time>2026-04-04T08:58:35.498Z</time></trkpt><trkpt lat="43.56538" lon="10.5163733"><ele>90.0</ele><time>2026-04-04T08:58:37.499Z</time></trkpt><trkpt lat="43.5654783" lon="10.516365"><ele>90.0</ele><time>2026-04-04T08:58:39.499Z</time></trkpt><trkpt lat="43.56557" lon="10.5163633"><ele>90.0</ele><time>2026-04-04T08:58:41.499Z</time></trkpt><trkpt lat="43.5656617" lon="10.5163567"><ele>90.0</ele><time>2026-04-04T08:58:43.499Z</time></trkpt><trkpt lat="43.5657567" lon="10.51636"><ele>90.0</ele><time>2026-04-04T08:58:45.498Z</time></trkpt><trkpt lat="43.5658417" lon="10.5163583"><ele>90.0</ele><time>2026-04-04T08:58:47.498Z</time></trkpt><trkpt lat="43.5659233" lon="10.5163483"><ele>90.0</ele><time>2026-04-04T08:58:49.498Z</time></trkpt><trkpt lat="43.5659883" lon="10.5163467"><ele>90.0</ele><time>2026-04-04T08:58:51.499Z</time></trkpt><trkpt lat="43.5660583" lon="10.5163583"><ele>90.0</ele><time>2026-04-04T08:58:54.499Z</time></trkpt><trkpt lat="43.566135" lon="10.516345"><ele>90.0</ele><time>2026-04-04T08:58:58.499Z</time></trkpt><trkpt lat="43.5662183" lon="10.5163117"><ele>90.0</ele><time>2026-04-04T08:59:00.498Z</time></trkpt><trkpt lat="43.5662967" lon="10.5162467"><ele>90.0</ele><time>2026-04-04T08:59:02.498Z</time></trkpt><trkpt lat="43.5663717" lon="10.5161983"><ele>90.0</ele><time>2026-04-04T08:59:04.498Z</time></trkpt><trkpt lat="43.5664467" lon="10.5161517"><ele>89.83333333333333</ele><time>2026-04-04T08:59:06.499Z</time></trkpt><trkpt lat="43.5665233" lon="10.5161133"><ele>89.66666666666667</ele><time>2026-04-04T08:59:08.498Z</time></trkpt><trkpt lat="43.5666017" lon="10.516095"><ele>89.5</ele><time>2026-04-04T08:59:10.499Z</time></trkpt><trkpt lat="43.5666967" lon="10.51612"><ele>89.33333333333334</ele><time>2026-04-04T08:59:13.498Z</time></trkpt><trkpt lat="43.566775" lon="10.5161167"><ele>89.16666666666667</ele><time>2026-04-04T08:59:16.499Z</time></trkpt><trkpt lat="43.5668417" lon="10.5160433"><ele>89.0</ele><time>2026-04-04T08:59:20.498Z</time></trkpt><trkpt lat="43.5668983" lon="10.516"><ele>89.0</ele><time>2026-04-04T08:59:22.498Z</time></trkpt><trkpt lat="43.5669717" lon="10.5159967"><ele>89.0</ele><time>2026-04-04T08:59:24.499Z</time></trkpt><trkpt lat="43.5670417" lon="10.5160033"><ele>89.0</ele><time>2026-04-04T08:59:26.499Z</time></trkpt><trkpt lat="43.56712" lon="10.5160183"><ele>89.0</ele><time>2026-04-04T08:59:28.499Z</time></trkpt><trkpt lat="43.5671933" lon="10.51604"><ele>89.0</ele><time>2026-04-04T08:59:30.498Z</time></trkpt><trkpt lat="43.5672667" lon="10.51609"><ele>89.0</ele><time>2026-04-04T08:59:32.499Z</time></trkpt><trkpt lat="43.56735" lon="10.516145"><ele>89.0</ele><time>2026-04-04T08:59:34.499Z</time></trkpt><trkpt lat="43.5674233" lon="10.5162133"><ele>89.0</ele><time>2026-04-04T08:59:36.498Z</time></trkpt><trkpt lat="43.5674967" lon="10.5162767"><ele>89.0</ele><time>2026-04-04T08:59:38.498Z</time></trkpt><trkpt lat="43.5675533" lon="10.5163567"><ele>89.0</ele><time>2026-04-04T08:59:40.497Z</time></trkpt><trkpt lat="43.567635" lon="10.51641"><ele>89.0</ele><time>2026-04-04T08:59:42.497Z</time></trkpt><trkpt lat="43.5677" lon="10.5164233"><ele>89.0</ele><time>2026-04-04T08:59:43.497Z</time></trkpt><trkpt lat="43.5677667" lon="10.51647"><ele>88.0</ele><time>2026-04-04T08:59:45.497Z</time></trkpt><trkpt lat="43.567835" lon="10.5165233"><ele>87.0</ele><time>2026-04-04T08:59:47.498Z</time></trkpt><trkpt lat="43.5679117" lon="10.516575"><ele>86.0</ele><time>2026-04-04T08:59:49.497Z</time></trkpt><trkpt lat="43.56799" lon="10.516665"><ele>85.0</ele><time>2026-04-04T08:59:51.498Z</time></trkpt><trkpt lat="43.5680583" lon="10.516755"><ele>84.0</ele><time>2026-04-04T08:59:53.497Z</time></trkpt><trkpt lat="43.568115" lon="10.5168567"><ele>83.80000000000001</ele><time>2026-04-04T08:59:55.497Z</time></trkpt><trkpt lat="43.5681933" lon="10.5169567"><ele>83.60000000000001</ele><time>2026-04-04T08:59:57.498Z</time></trkpt><trkpt lat="43.568275" lon="10.517065"><ele>83.4</ele><time>2026-04-04T08:59:59.498Z</time></trkpt><trkpt lat="43.5683167" lon="10.517135"><ele>83.2</ele><time>2026-04-04T09:00:00.497Z</time></trkpt><trkpt lat="43.56837" lon="10.5171817"><ele>83.0</ele><time>2026-04-04T09:00:01.498Z</time></trkpt><trkpt lat="43.56848" lon="10.51725"><ele>83.71428571428571</ele><time>2026-04-04T09:00:03.498Z</time></trkpt><trkpt lat="43.5685467" lon="10.5172667"><ele>84.42857142857143</ele><time>2026-04-04T09:00:04.497Z</time></trkpt><trkpt lat="43.5686133" lon="10.51727"><ele>85.14285714285714</ele><time>2026-04-04T09:00:05.497Z</time></trkpt><trkpt lat="43.568685" lon="10.5172667"><ele>85.85714285714286</ele><time>2026-04-04T09:00:06.497Z</time></trkpt><trkpt lat="43.5687567" lon="10.5172583"><ele>86.57142857142857</ele><time>2026-04-04T09:00:07.498Z</time></trkpt><trkpt lat="43.5688217" lon="10.5172533"><ele>87.28571428571429</ele><time>2026-04-04T09:00:08.498Z</time></trkpt><trkpt lat="43.5688867" lon="10.517245"><ele>88.0</ele><time>2026-04-04T09:00:09.498Z</time></trkpt><trkpt lat="43.5689517" lon="10.5172367"><ele>88.0</ele><time>2026-04-04T09:00:10.498Z</time></trkpt><trkpt lat="43.5690583" lon="10.517215"><ele>88.0</ele><time>2026-04-04T09:00:12.498Z</time></trkpt><trkpt lat="43.5691367" lon="10.5172067"><ele>88.0</ele><time>2026-04-04T09:00:14.498Z</time></trkpt><trkpt lat="43.56923" lon="10.51723"><ele>88.0</ele><time>2026-04-04T09:00:17.497Z</time></trkpt><trkpt lat="43.5693067" lon="10.5172217"><ele>88.0</ele><time>2026-04-04T09:00:19.498Z</time></trkpt><trkpt lat="43.569385" lon="10.5171917"><ele>88.0</ele><time>2026-04-04T09:00:21.498Z</time></trkpt><trkpt lat="43.5694567" lon="10.5171467"><ele>88.0</ele><time>2026-04-04T09:00:23.497Z</time></trkpt><trkpt lat="43.56952" lon="10.51708"><ele>88.0</ele><time>2026-04-04T09:00:25.497Z</time></trkpt><trkpt lat="43.5695733" lon="10.51699"><ele>88.0</ele><time>2026-04-04T09:00:27.498Z</time></trkpt><trkpt lat="43.5696067" lon="10.5168917"><ele>88.0</ele><time>2026-04-04T09:00:29.497Z</time></trkpt><trkpt lat="43.5696333" lon="10.5167967"><ele>88.0</ele><time>2026-04-04T09:00:31.497Z</time></trkpt><trkpt lat="43.5696617" lon="10.5166983"><ele>88.0</ele><time>2026-04-04T09:00:33.498Z</time></trkpt><trkpt lat="43.5696883" lon="10.5166017"><ele>88.0</ele><time>2026-04-04T09:00:35.498Z</time></trkpt><trkpt lat="43.5697167" lon="10.5165033"><ele>88.0</ele><time>2026-04-04T09:00:37.498Z</time></trkpt><trkpt lat="43.56975" lon="10.5164017"><ele>88.0</ele><time>2026-04-04T09:00:39.498Z</time></trkpt><trkpt lat="43.5697817" lon="10.5162967"><ele>88.0</ele><time>2026-04-04T09:00:41.498Z</time></trkpt><trkpt lat="43.569815" lon="10.5161867"><ele>88.0</ele><time>2026-04-04T09:00:43.498Z</time></trkpt><trkpt lat="43.569845" lon="10.5160667"><ele>88.0</ele><time>2026-04-04T09:00:45.497Z</time></trkpt><trkpt lat="43.5698783" lon="10.51596"><ele>88.0</ele><time>2026-04-04T09:00:47.497Z</time></trkpt><trkpt lat="43.5699083" lon="10.5158567"><ele>88.0</ele><time>2026-04-04T09:00:49.498Z</time></trkpt><trkpt lat="43.5699333" lon="10.5157517"><ele>88.0</ele><time>2026-04-04T09:00:51.498Z</time></trkpt><trkpt lat="43.5699583" lon="10.51565"><ele>88.0</ele><time>2026-04-04T09:00:53.497Z</time></trkpt><trkpt lat="43.5699833" lon="10.5155533"><ele>88.0</ele><time>2026-04-04T09:00:55.498Z</time></trkpt><trkpt lat="43.5700083" lon="10.515445"><ele>88.0</ele><time>2026-04-04T09:00:57.497Z</time></trkpt><trkpt lat="43.5700317" lon="10.5153367"><ele>88.33333333333333</ele><time>2026-04-04T09:00:59.498Z</time></trkpt><trkpt lat="43.5700583" lon="10.5152383"><ele>88.66666666666666</ele><time>2026-04-04T09:01:01.498Z</time></trkpt><trkpt lat="43.5700867" lon="10.51514"><ele>89.0</ele><time>2026-04-04T09:01:03.497Z</time></trkpt><trkpt lat="43.5701167" lon="10.5150467"><ele>89.33333333333333</ele><time>2026-04-04T09:01:05.497Z</time></trkpt><trkpt lat="43.5701467" lon="10.5149633"><ele>89.66666666666667</ele><time>2026-04-04T09:01:07.497Z</time></trkpt><trkpt lat="43.57017" lon="10.51485"><ele>90.0</ele><time>2026-04-04T09:01:10.497Z</time></trkpt><trkpt lat="43.5702017" lon="10.5147333"><ele>90.0</ele><time>2026-04-04T09:01:13.498Z</time></trkpt><trkpt lat="43.570225" lon="10.5146317"><ele>90.0</ele><time>2026-04-04T09:01:15.497Z</time></trkpt><trkpt lat="43.5702533" lon="10.5145417"><ele>90.0</ele><time>2026-04-04T09:01:17.498Z</time></trkpt><trkpt lat="43.5702883" lon="10.51442"><ele>90.0</ele><time>2026-04-04T09:01:20.497Z</time></trkpt><trkpt lat="43.5703167" lon="10.514325"><ele>90.0</ele><time>2026-04-04T09:01:23.497Z</time></trkpt><trkpt lat="43.5703433" lon="10.5142117"><ele>90.0</ele><time>2026-04-04T09:01:26.497Z</time></trkpt><trkpt lat="43.57039" lon="10.5141317"><ele>90.16666666666667</ele><time>2026-04-04T09:01:29.497Z</time></trkpt><trkpt lat="43.5704517" lon="10.5140417"><ele>90.33333333333333</ele><time>2026-04-04T09:01:32.498Z</time></trkpt><trkpt lat="43.5705" lon="10.5139783"><ele>90.5</ele><time>2026-04-04T09:01:34.498Z</time></trkpt><trkpt lat="43.570575" lon="10.5139367"><ele>90.66666666666666</ele><time>2026-04-04T09:01:37.497Z</time></trkpt><trkpt lat="43.5706683" lon="10.513915"><ele>90.83333333333333</ele><time>2026-04-04T09:01:40.497Z</time></trkpt><trkpt lat="43.5707433" lon="10.51388"><ele>91.0</ele><time>2026-04-04T09:01:42.498Z</time></trkpt><trkpt lat="43.5708117" lon="10.5138717"><ele>91.0</ele><time>2026-04-04T09:01:44.497Z</time></trkpt><trkpt lat="43.57088" lon="10.5138717"><ele>91.0</ele><time>2026-04-04T09:01:46.497Z</time></trkpt><trkpt lat="43.5709483" lon="10.513925"><ele>91.0</ele><time>2026-04-04T09:01:48.498Z</time></trkpt><trkpt lat="43.5710217" lon="10.5140167"><ele>91.0</ele><time>2026-04-04T09:01:50.498Z</time></trkpt><trkpt lat="43.57107" lon="10.514075"><ele>91.0</ele><time>2026-04-04T09:01:51.498Z</time></trkpt><trkpt lat="43.5711567" lon="10.5141783"><ele>91.0</ele><time>2026-04-04T09:01:53.498Z</time></trkpt><trkpt lat="43.5712467" lon="10.5142767"><ele>90.8</ele><time>2026-04-04T09:01:55.497Z</time></trkpt><trkpt lat="43.5713367" lon="10.5143783"><ele>90.6</ele><time>2026-04-04T09:01:57.498Z</time></trkpt><trkpt lat="43.5714217" lon="10.51447"><ele>90.4</ele><time>2026-04-04T09:01:59.497Z</time></trkpt><trkpt lat="43.5715067" lon="10.514545"><ele>90.2</ele><time>2026-04-04T09:02:01.497Z</time></trkpt><trkpt lat="43.5715917" lon="10.5146183"><ele>90.0</ele><time>2026-04-04T09:02:03.498Z</time></trkpt><trkpt lat="43.5716733" lon="10.5146933"><ele>90.16666666666667</ele><time>2026-04-04T09:02:05.498Z</time></trkpt><trkpt lat="43.5717517" lon="10.514745"><ele>90.33333333333333</ele><time>2026-04-04T09:02:07.497Z</time></trkpt><trkpt lat="43.5718333" lon="10.514785"><ele>90.5</ele><time>2026-04-04T09:02:09.498Z</time></trkpt><trkpt lat="43.5719117" lon="10.5148167"><ele>90.66666666666666</ele><time>2026-04-04T09:02:11.498Z</time></trkpt><trkpt lat="43.5719917" lon="10.5148617"><ele>90.83333333333333</ele><time>2026-04-04T09:02:13.498Z</time></trkpt><trkpt lat="43.572075" lon="10.5149117"><ele>91.0</ele><time>2026-04-04T09:02:15.498Z</time></trkpt><trkpt lat="43.5721433" lon="10.51498"><ele>91.0</ele><time>2026-04-04T09:02:17.498Z</time></trkpt><trkpt lat="43.5722067" lon="10.5150633"><ele>91.0</ele><time>2026-04-04T09:02:20.498Z</time></trkpt><trkpt lat="43.5722617" lon="10.5151567"><ele>91.0</ele><time>2026-04-04T09:02:23.497Z</time></trkpt><trkpt lat="43.572295" lon="10.5152333"><ele>91.0</ele><time>2026-04-04T09:02:25.498Z</time></trkpt><trkpt lat="43.572345" lon="10.5153417"><ele>91.0</ele><time>2026-04-04T09:02:28.498Z</time></trkpt><trkpt lat="43.57239" lon="10.5154567"><ele>91.0</ele><time>2026-04-04T09:02:31.497Z</time></trkpt><trkpt lat="43.572435" lon="10.5155533"><ele>90.57142857142857</ele><time>2026-04-04T09:02:34.497Z</time></trkpt><trkpt lat="43.5724767" lon="10.5156217"><ele>90.14285714285714</ele><time>2026-04-04T09:02:36.498Z</time></trkpt><trkpt lat="43.5725167" lon="10.5157083"><ele>89.71428571428572</ele><time>2026-04-04T09:02:38.497Z</time></trkpt><trkpt lat="43.5725583" lon="10.5157933"><ele>89.28571428571428</ele><time>2026-04-04T09:02:40.497Z</time></trkpt><trkpt lat="43.5726033" lon="10.5158783"><ele>88.85714285714286</ele><time>2026-04-04T09:02:42.498Z</time></trkpt><trkpt lat="43.5726433" lon="10.515965"><ele>88.42857142857143</ele><time>2026-04-04T09:02:44.497Z</time></trkpt><trkpt lat="43.57268" lon="10.516055"><ele>88.0</ele><time>2026-04-04T09:02:46.498Z</time></trkpt><trkpt lat="43.5727217" lon="10.5161317"><ele>88.0</ele><time>2026-04-04T09:02:48.498Z</time></trkpt><trkpt lat="43.5727633" lon="10.5162183"><ele>88.0</ele><time>2026-04-04T09:02:50.498Z</time></trkpt><trkpt lat="43.572795" lon="10.5163"><ele>88.0</ele><time>2026-04-04T09:02:52.497Z</time></trkpt><trkpt lat="43.572835" lon="10.5163717"><ele>88.0</ele><time>2026-04-04T09:02:54.498Z</time></trkpt><trkpt lat="43.5728833" lon="10.5164517"><ele>88.0</ele><time>2026-04-04T09:02:56.498Z</time></trkpt><trkpt lat="43.5729383" lon="10.5165183"><ele>88.0</ele><time>2026-04-04T09:02:58.498Z</time></trkpt><trkpt lat="43.5729917" lon="10.5165817"><ele>88.0</ele><time>2026-04-04T09:03:00.498Z</time></trkpt><trkpt lat="43.573045" lon="10.51665"><ele>87.60000000000001</ele><time>2026-04-04T09:03:02.498Z</time></trkpt><trkpt lat="43.5730967" lon="10.5167283"><ele>87.2</ele><time>2026-04-04T09:03:04.498Z</time></trkpt><trkpt lat="43.5731533" lon="10.51682"><ele>86.8</ele><time>2026-04-04T09:03:06.497Z</time></trkpt><trkpt lat="43.5732183" lon="10.516925"><ele>86.4</ele><time>2026-04-04T09:03:08.497Z</time></trkpt><trkpt lat="43.573275" lon="10.5170483"><ele>86.0</ele><time>2026-04-04T09:03:10.497Z</time></trkpt><trkpt lat="43.5733133" lon="10.5171933"><ele>85.0</ele><time>2026-04-04T09:03:12.498Z</time></trkpt><trkpt lat="43.5733483" lon="10.5173383"><ele>84.0</ele><time>2026-04-04T09:03:14.498Z</time></trkpt><trkpt lat="43.5733833" lon="10.5174733"><ele>83.0</ele><time>2026-04-04T09:03:16.498Z</time></trkpt><trkpt lat="43.5734267" lon="10.51759"><ele>82.0</ele><time>2026-04-04T09:03:18.497Z</time></trkpt><trkpt lat="43.573475" lon="10.5176883"><ele>81.0</ele><time>2026-04-04T09:03:20.497Z</time></trkpt><trkpt lat="43.57353" lon="10.517765"><ele>81.0</ele><time>2026-04-04T09:03:22.497Z</time></trkpt><trkpt lat="43.57359" lon="10.5178417"><ele>81.0</ele><time>2026-04-04T09:03:24.498Z</time></trkpt><trkpt lat="43.57364" lon="10.51792"><ele>81.0</ele><time>2026-04-04T09:03:26.498Z</time></trkpt><trkpt lat="43.5736367" lon="10.51802"><ele>81.0</ele><time>2026-04-04T09:03:29.497Z</time></trkpt><trkpt lat="43.57356" lon="10.5180367"><ele>81.0</ele><time>2026-04-04T09:03:32.498Z</time></trkpt><trkpt lat="43.5734917" lon="10.5181083"><ele>81.0</ele><time>2026-04-04T09:03:35.498Z</time></trkpt><trkpt lat="43.5734317" lon="10.5181733"><ele>80.39999999999999</ele><time>2026-04-04T09:03:39.498Z</time></trkpt><trkpt lat="43.57336" lon="10.51822"><ele>79.8</ele><time>2026-04-04T09:03:58.498Z</time></trkpt><trkpt lat="43.5732833" lon="10.5182483"><ele>79.19999999999999</ele><time>2026-04-04T09:04:01.498Z</time></trkpt><trkpt lat="43.5731983" lon="10.5183367"><ele>78.6</ele><time>2026-04-04T09:05:01.498Z</time></trkpt><trkpt lat="43.5732733" lon="10.5182533"><ele>78.0</ele><time>2026-04-04T09:07:11.497Z</time></trkpt><trkpt lat="43.5733817" lon="10.5182367"><ele>78.0</ele><time>2026-04-04T09:07:26.496Z</time></trkpt></trkseg></trk></gpx>